South Armidale Weather

South Armidale Weather


This Months Observations
Date Time Temperature Humidity Dewpoint Wind Speed High Gust Wind Bearing Rainfall Rate Total Rainfall Pressure Gust Wind Chill Heat Index UV Index
21/02/21 12:00 30.3 43 16.3 0.0 0.0 0 0.0 0.0 1010.0 0.0 0.0 30.4 0.0
21/02/21 12:03 30.9 44 17.2 0.0 0.0 0 0.0 0.0 1010.0 0.0 0.0 31.4 0.0
21/02/21 12:04 31.2 43 17.1 0.0 0.0 0 0.0 0.0 1010.0 0.0 0.0 31.7 0.0
21/02/21 12:05 31.3 43 17.2 0.0 0.0 0 0.0 0.0 1010.0 0.0 0.0 31.8 0.0
21/02/21 12:08 31.1 42 16.7 0.0 0.0 0 0.0 0.0 1009.0 0.0 0.0 31.3 0.0
21/02/21 12:09 30.9 41 16.1 0.0 0.0 0 0.0 0.0 1009.0 0.0 0.0 30.9 0.0
21/02/21 12:10 30.9 41 16.1 0.0 0.0 0 0.0 0.0 1009.0 0.0 0.0 30.9 0.0
21/02/21 12:11 30.7 41 15.9 0.0 0.0 0 0.0 0.0 1009.0 0.0 0.0 30.7 0.0
21/02/21 12:12 30.7 41 15.9 0.0 0.0 0 0.0 0.0 1009.0 0.0 0.0 30.7 0.0
21/02/21 12:13 31.0 42 16.6 0.0 0.0 0 0.0 0.0 1009.0 0.0 0.0 31.2 0.0
21/02/21 12:14 30.9 41 16.1 0.0 0.0 0 0.0 0.0 1009.0 0.0 0.0 30.9 0.0
21/02/21 12:15 30.9 41 16.1 0.0 0.0 0 0.0 0.0 1009.0 0.0 0.0 30.9 0.0
21/02/21 12:16 30.5 41 15.8 0.0 0.0 0 0.0 0.0 1009.0 0.0 0.0 30.4 0.0
21/02/21 12:17 30.4 42 16.0 0.0 0.0 0 0.0 0.0 1009.0 0.0 0.0 30.4 0.0
21/02/21 12:18 30.6 42 16.2 0.0 0.0 0 0.0 0.0 1009.0 0.0 0.0 30.7 0.0
21/02/21 12:19 30.6 42 16.2 0.0 0.0 0 0.0 0.0 1009.0 0.0 0.0 30.7 0.0
21/02/21 12:20 30.6 42 16.2 0.0 0.0 0 0.0 0.0 1009.0 0.0 0.0 30.7 0.0
21/02/21 12:21 30.5 42 16.1 0.0 0.0 0 0.0 0.0 1009.0 0.0 0.0 30.6 0.0
21/02/21 12:22 30.5 42 16.1 0.0 0.0 0 0.0 0.0 1009.0 0.0 0.0 30.6 0.0
21/02/21 12:23 30.9 41 16.1 0.0 0.0 0 0.0 0.0 1009.0 0.0 0.0 30.9 0.0
21/02/21 12:24 30.9 41 16.1 0.0 0.0 0 0.0 0.0 1009.0 0.0 0.0 30.9 0.0
21/02/21 12:25 31.6 43 17.5 0.0 0.0 0 0.0 0.0 1009.0 0.0 0.0 32.2 0.0
21/02/21 12:26 31.8 43 17.7 0.0 0.0 0 0.0 0.0 1009.0 0.0 0.0 32.5 0.0
21/02/21 12:27 31.9 41 17.0 0.0 0.0 0 0.0 0.0 1009.0 0.0 0.0 32.3 0.0
21/02/21 12:28 32.2 42 17.7 0.0 0.0 0 0.0 0.0 1009.0 0.0 0.0 32.9 0.0
21/02/21 12:29 32.4 41 17.5 0.0 0.0 0 0.0 0.0 1009.0 0.0 0.0 33.1 0.0
21/02/21 12:32 32.1 39 16.4 0.0 0.0 0 0.0 0.0 1009.0 0.0 0.0 32.2 0.0
21/02/21 12:33 32.0 39 16.3 0.0 0.0 0 0.0 0.0 1009.0 0.0 0.0 32.1 0.0
21/02/21 12:34 31.8 40 16.5 0.0 0.0 0 0.0 0.0 1009.0 0.0 0.0 32.0 0.0
21/02/21 12:35 31.5 39 15.9 0.0 0.0 0 0.0 0.0 1009.0 0.0 0.0 31.4 0.0
21/02/21 12:36 31.2 39 15.6 0.0 0.0 0 0.0 0.0 1009.0 0.0 0.0 31.0 0.0
21/02/21 12:37 30.9 40 15.7 0.0 0.0 0 0.0 0.0 1009.0 0.0 0.0 30.8 0.0
21/02/21 12:38 30.3 40 15.2 0.0 0.0 0 0.0 0.0 1009.0 0.0 0.0 30.0 0.0
21/02/21 12:39 30.1 40 15.0 0.0 0.0 0 0.0 0.0 1009.0 0.0 0.0 29.8 0.0
21/02/21 12:40 29.8 41 15.1 0.0 0.0 0 0.0 0.0 1009.0 0.0 0.0 29.6 0.0
21/02/21 12:41 29.6 41 15.0 0.0 0.0 0 0.0 0.0 1009.0 0.0 0.0 29.3 0.0
21/02/21 12:42 29.3 41 14.7 0.0 0.0 0 0.0 0.0 1009.0 0.0 0.0 29.0 0.0
21/02/21 12:43 29.2 41 14.6 0.0 0.0 0 0.0 0.0 1009.0 0.0 0.0 28.9 0.0
21/02/21 12:44 29.0 42 14.8 0.0 0.0 0 0.0 0.0 1009.0 0.0 0.0 28.8 0.0
21/02/21 12:45 29.1 42 14.9 0.0 0.0 0 0.0 0.0 1009.0 0.0 0.0 28.9 0.0
21/02/21 12:46 29.1 42 14.9 0.0 0.0 0 0.0 0.0 1009.0 0.0 0.0 28.9 0.0
21/02/21 12:47 29.4 43 15.5 0.0 0.0 0 0.0 0.0 1009.0 0.0 0.0 29.3 0.0
21/02/21 12:48 29.8 43 15.9 0.0 0.0 0 0.0 0.0 1009.0 0.0 0.0 29.8 0.0
21/02/21 12:49 30.2 42 15.9 0.0 0.0 0 0.0 0.0 1009.0 0.0 0.0 30.2 0.0
21/02/21 12:50 30.6 42 16.2 0.0 0.0 0 0.0 0.0 1009.0 0.0 0.0 30.7 0.0
21/02/21 12:51 30.6 42 16.2 0.0 0.0 0 0.0 0.0 1009.0 0.0 0.0 30.7 0.0
21/02/21 12:52 30.7 42 16.3 0.0 0.0 0 0.0 0.0 1009.0 0.0 0.0 30.8 0.0
21/02/21 12:53 30.9 42 16.5 0.0 0.0 0 0.0 0.0 1008.0 0.0 0.0 31.1 0.0
21/02/21 12:54 30.9 41 16.1 0.0 0.0 0 0.0 0.0 1008.0 0.0 0.0 30.9 0.0
21/02/21 12:57 30.9 41 16.1 0.0 0.0 0 0.0 0.0 1008.0 0.0 0.0 30.9 0.0
21/02/21 12:58 31.0 41 16.2 0.0 0.0 0 0.0 0.0 1008.0 0.0 0.0 31.1 0.0
21/02/21 12:59 31.2 41 16.4 0.0 0.0 0 0.0 0.0 1008.0 0.0 0.0 31.3 0.0
21/02/21 13:00 31.5 41 16.7 0.0 0.0 0 0.0 0.0 1008.0 0.0 0.0 31.7 0.0
21/02/21 13:01 31.1 40 15.9 0.0 0.0 0 0.0 0.0 1008.0 0.0 0.0 31.0 0.0
21/02/21 13:02 30.7 41 15.9 0.0 0.0 0 0.0 0.0 1008.0 0.0 0.0 30.7 0.0
21/02/21 13:03 30.4 43 16.4 0.0 0.0 0 0.0 0.0 1008.0 0.0 0.0 30.6 0.0
21/02/21 13:04 29.9 44 16.3 0.0 0.0 0 0.0 0.0 1008.0 0.0 0.0 30.1 0.0
21/02/21 13:05 29.4 44 15.9 0.0 0.0 0 0.0 0.0 1008.0 0.0 0.0 29.4 0.0
21/02/21 13:06 28.9 45 15.8 0.0 0.0 0 0.0 0.0 1008.0 0.0 0.0 29.0 0.0
21/02/21 13:07 28.5 45 15.4 0.0 0.0 0 0.0 0.0 1008.0 0.0 0.0 28.5 0.0
21/02/21 13:08 28.3 46 15.6 0.0 0.0 0 0.0 0.0 1009.0 0.0 0.0 28.4 0.0
21/02/21 13:09 28.5 48 16.4 0.0 0.0 0 0.0 0.0 1009.0 0.0 0.0 28.8 0.0
21/02/21 13:10 28.5 47 16.1 0.0 0.0 0 0.0 0.0 1009.0 0.0 0.0 28.7 0.0
21/02/21 13:11 28.8 47 16.4 0.0 0.0 0 0.0 0.0 1009.0 0.0 0.0 29.1 0.0
21/02/21 13:12 29.1 46 16.3 0.0 0.0 0 0.0 0.0 1009.0 0.0 0.0 29.3 0.0
21/02/21 13:13 29.2 45 16.0 0.0 0.0 0 0.0 0.0 1009.0 0.0 0.0 29.3 0.0
21/02/21 13:14 29.2 45 16.0 0.0 0.0 0 0.0 0.0 1009.0 0.0 0.0 29.3 0.0
21/02/21 13:15 29.1 45 16.0 0.0 0.0 0 0.0 0.0 1009.0 0.0 0.0 29.2 0.0
21/02/21 13:16 28.8 45 15.7 0.0 0.0 0 0.0 0.0 1009.0 0.0 0.0 28.9 0.0
21/02/21 13:17 28.7 45 15.6 0.0 0.0 0 0.0 0.0 1009.0 0.0 0.0 28.8 0.0
21/02/21 13:18 28.8 44 15.3 0.0 0.0 0 0.0 0.0 1009.0 0.0 0.0 28.8 0.0
21/02/21 13:19 29.0 44 15.5 0.0 0.0 0 0.0 0.0 1009.0 0.0 0.0 29.0 0.0
21/02/21 13:20 28.9 45 15.8 0.0 0.0 0 0.0 0.0 1009.0 0.0 0.0 29.0 0.0
21/02/21 13:23 28.8 44 15.3 0.0 0.0 0 0.0 0.0 1009.0 0.0 0.0 28.8 0.0
21/02/21 13:24 29.3 44 15.8 0.0 0.0 0 0.0 0.0 1009.0 0.0 0.0 29.3 0.0
21/02/21 13:25 29.8 45 16.6 0.0 0.0 0 0.0 0.0 1009.0 0.0 0.0 30.1 0.0
21/02/21 13:26 30.1 45 16.9 0.0 0.0 0 0.0 0.0 1009.0 0.0 0.0 30.4 0.0
21/02/21 13:27 30.3 44 16.7 0.0 0.0 0 0.0 0.0 1009.0 0.0 0.0 30.6 0.0
21/02/21 13:28 30.1 43 16.1 0.0 0.0 0 0.0 0.0 1009.0 0.0 0.0 30.2 0.0
21/02/21 13:29 29.8 42 15.5 0.0 0.0 0 0.0 0.0 1009.0 0.0 0.0 29.7 0.0
21/02/21 13:30 29.6 43 15.7 0.0 0.0 0 0.0 0.0 1009.0 0.0 0.0 29.6 0.0
21/02/21 13:31 29.1 43 15.2 0.0 0.0 0 0.0 0.0 1009.0 0.0 0.0 29.0 0.0
21/02/21 13:32 28.7 42 14.5 0.0 0.0 0 0.0 0.0 1009.0 0.0 0.0 28.5 0.0
21/02/21 13:33 28.7 43 14.9 0.0 0.0 0 0.0 0.0 1009.0 0.0 0.0 28.6 0.0
21/02/21 13:34 28.9 43 15.1 0.0 0.0 0 0.0 0.0 1009.0 0.0 0.0 28.8 0.0
21/02/21 13:35 29.2 42 15.0 0.0 0.0 0 0.0 0.0 1009.0 0.0 0.0 29.0 0.0
21/02/21 13:36 29.4 42 15.1 0.0 0.0 0 0.0 0.0 1009.0 0.0 0.0 29.2 0.0
21/02/21 13:37 29.4 42 15.1 0.0 0.0 0 0.0 0.0 1009.0 0.0 0.0 29.2 0.0
21/02/21 13:38 29.3 42 15.1 0.0 0.0 0 0.0 0.0 1009.0 0.0 0.0 29.1 0.0
21/02/21 13:39 28.9 42 14.7 0.0 0.0 0 0.0 0.0 1009.0 0.0 0.0 28.7 0.0
21/02/21 13:40 28.6 42 14.4 0.0 0.0 0 0.0 0.0 1009.0 0.0 0.0 28.4 0.0
21/02/21 13:41 28.5 42 14.3 0.0 0.0 0 0.0 0.0 1009.0 0.0 0.0 28.3 0.0
21/02/21 13:42 28.4 43 14.6 0.0 0.0 0 0.0 0.0 1009.0 0.0 0.0 28.3 0.0
21/02/21 13:43 28.3 43 14.5 0.0 0.0 0 0.0 0.0 1009.0 0.0 0.0 28.2 0.0
21/02/21 13:44 28.2 43 14.4 0.0 0.0 0 0.0 0.0 1009.0 0.0 0.0 28.1 0.0
21/02/21 13:47 27.6 44 14.2 0.0 0.0 0 0.0 0.0 1009.0 0.0 0.0 27.6 0.0
21/02/21 13:48 27.8 44 14.4 0.0 0.0 0 0.0 0.0 1009.0 0.0 0.0 27.8 0.0
21/02/21 13:49 28.1 44 14.7 0.0 0.0 0 0.0 0.0 1009.0 0.0 0.0 28.0 0.0
21/02/21 13:50 28.2 44 14.8 0.0 0.0 0 0.0 0.0 1009.0 0.0 0.0 28.1 0.0
21/02/21 13:51 28.5 45 15.4 0.0 0.0 0 0.0 0.0 1009.0 0.0 0.0 28.5 0.0
21/02/21 13:52 28.9 45 15.8 0.0 0.0 0 0.0 0.0 1009.0 0.0 0.0 29.0 0.0
21/02/21 13:53 29.3 44 15.8 0.0 0.0 0 0.0 0.0 1009.0 0.0 0.0 29.3 0.0
21/02/21 13:54 30.2 43 16.2 0.0 0.0 0 0.0 0.0 1009.0 0.0 0.0 30.3 0.0
21/02/21 13:55 30.6 44 17.0 0.0 0.0 0 0.0 0.0 1009.0 0.0 0.0 31.0 0.0
21/02/21 13:56 31.0 44 17.3 0.0 0.0 0 0.0 0.0 1009.0 0.0 0.0 31.5 0.0
21/02/21 13:57 31.3 43 17.2 0.0 0.0 0 0.0 0.0 1009.0 0.0 0.0 31.8 0.0
21/02/21 13:58 31.5 42 17.0 0.0 0.0 0 0.0 0.0 1009.0 0.0 0.0 31.9 0.0
21/02/21 13:59 31.6 41 16.7 0.0 0.0 0 0.0 0.0 1009.0 0.0 0.0 31.9 0.0
21/02/21 14:00 31.8 42 17.3 0.0 0.0 0 0.0 0.0 1009.0 0.0 0.0 32.3 0.0
21/02/21 14:02 31.8 40 16.5 0.0 0.0 0 0.0 0.0 1009.0 0.0 0.0 32.0 0.0
21/02/21 14:03 31.9 41 17.0 0.0 0.0 0 0.0 0.0 1009.0 0.0 0.0 32.3 0.0
21/02/21 14:04 32.1 40 16.8 0.0 0.0 0 0.0 0.0 1009.0 0.0 0.0 32.4 0.0
21/02/21 14:05 32.3 40 17.0 0.0 0.0 0 0.0 0.0 1009.0 0.0 0.0 32.7 0.0
21/02/21 14:06 32.5 40 17.2 0.0 0.0 0 0.0 0.0 1009.0 0.0 0.0 33.0 0.0
21/02/21 14:07 32.6 40 17.2 0.0 0.0 0 0.0 0.0 1009.0 0.0 0.0 33.2 0.0
21/02/21 14:08 32.5 39 16.8 0.0 0.0 0 0.0 0.0 1009.0 0.0 0.0 32.8 0.0
21/02/21 14:09 32.1 38 16.0 0.0 0.0 0 0.0 0.0 1009.0 0.0 0.0 32.1 0.0
21/02/21 14:10 31.8 38 15.7 0.0 0.0 0 0.0 0.0 1009.0 0.0 0.0 31.7 0.0
21/02/21 14:11 31.6 38 15.5 0.0 0.0 0 0.0 0.0 1009.0 0.0 0.0 31.4 0.0
21/02/21 14:12 31.6 38 15.5 0.0 0.0 0 0.0 0.0 1009.0 0.0 0.0 31.4 0.0
21/02/21 14:13 31.6 38 15.5 0.0 0.0 0 0.0 0.0 1009.0 0.0 0.0 31.4 0.0
21/02/21 14:14 31.6 37 15.1 0.0 0.0 0 0.0 0.0 1009.0 0.0 0.0 31.3 0.0
21/02/21 14:15 31.5 38 15.5 0.0 0.0 0 0.0 0.0 1009.0 0.0 0.0 31.3 0.0
21/02/21 14:16 31.3 38 15.3 0.0 0.0 0 0.0 0.0 1009.0 0.0 0.0 31.0 0.0
21/02/21 14:17 30.9 38 14.9 0.0 0.0 0 0.0 0.0 1009.0 0.0 0.0 30.5 0.0
21/02/21 14:18 30.8 38 14.8 0.0 0.0 0 0.0 0.0 1009.0 0.0 0.0 30.4 0.0
21/02/21 14:19 30.6 38 14.7 0.0 0.0 0 0.0 0.0 1009.0 0.0 0.0 30.2 0.0
21/02/21 14:20 30.4 38 14.5 0.0 0.0 0 0.0 0.0 1009.0 0.0 0.0 29.9 0.0
21/02/21 14:21 30.1 39 14.6 0.0 0.0 0 0.0 0.0 1009.0 0.0 0.0 29.7 0.0
21/02/21 14:22 29.9 39 14.4 0.0 0.0 0 0.0 0.0 1009.0 0.0 0.0 29.5 0.0
21/02/21 14:23 29.7 39 14.3 0.0 0.0 0 0.0 0.0 1009.0 0.0 0.0 29.2 0.0
21/02/21 14:24 29.4 40 14.4 0.0 0.0 0 0.0 0.0 1009.0 0.0 0.0 29.0 0.0
21/02/21 14:27 29.3 40 14.3 0.0 0.0 0 0.0 0.0 1009.0 0.0 0.0 28.9 0.0
21/02/21 14:28 29.6 40 14.6 0.0 0.0 0 0.0 0.0 1009.0 0.0 0.0 29.2 0.0
21/02/21 14:29 29.8 40 14.7 0.0 0.0 0 0.0 0.0 1009.0 0.0 0.0 29.5 0.0
21/02/21 14:30 30.1 40 15.0 0.0 0.0 0 0.0 0.0 1009.0 0.0 0.0 29.8 0.0
21/02/21 14:31 30.3 39 14.8 0.0 0.0 0 0.0 0.0 1009.0 0.0 0.0 29.9 0.0
21/02/21 14:32 30.3 39 14.8 0.0 0.0 0 0.0 0.0 1009.0 0.0 0.0 29.9 0.0
21/02/21 14:33 30.3 40 15.2 0.0 0.0 0 0.0 0.0 1009.0 0.0 0.0 30.0 0.0
21/02/21 14:34 30.3 40 15.2 0.0 0.0 0 0.0 0.0 1009.0 0.0 0.0 30.0 0.0
21/02/21 14:35 30.4 40 15.3 0.0 0.0 0 0.0 0.0 1009.0 0.0 0.0 30.2 0.0
21/02/21 14:36 30.5 40 15.4 0.0 0.0 0 0.0 0.0 1009.0 0.0 0.0 30.3 0.0
21/02/21 14:37 30.5 40 15.4 0.0 0.0 0 0.0 0.0 1009.0 0.0 0.0 30.3 0.0
21/02/21 14:38 30.5 40 15.4 0.0 0.0 0 0.0 0.0 1009.0 0.0 0.0 30.3 0.0
21/02/21 14:39 30.4 40 15.3 0.0 0.0 0 0.0 0.0 1009.0 0.0 0.0 30.2 0.0
21/02/21 14:40 30.3 40 15.2 0.0 0.0 0 0.0 0.0 1009.0 0.0 0.0 30.0 0.0
21/02/21 14:41 30.2 40 15.1 0.0 0.0 0 0.0 0.0 1009.0 0.0 0.0 29.9 0.0
21/02/21 14:42 30.2 40 15.1 0.0 0.0 0 0.0 0.0 1009.0 0.0 0.0 29.9 0.0
21/02/21 14:43 30.1 39 14.6 0.0 0.0 0 0.0 0.0 1009.0 0.0 0.0 29.7 0.0
21/02/21 14:44 30.0 40 14.9 0.0 0.0 0 0.0 0.0 1009.0 0.0 0.0 29.7 0.0
21/02/21 14:45 29.8 40 14.7 0.0 0.0 0 0.0 0.0 1009.0 0.0 0.0 29.5 0.0
21/02/21 14:46 29.7 40 14.7 0.0 0.0 0 0.0 0.0 1009.0 0.0 0.0 29.3 0.0
21/02/21 14:47 29.6 40 14.6 0.0 0.0 0 0.0 0.0 1009.0 0.0 0.0 29.2 0.0
21/02/21 14:48 29.5 40 14.5 0.0 0.0 0 0.0 0.0 1009.0 0.0 0.0 29.1 0.0
21/02/21 14:49 29.5 40 14.5 0.0 0.0 0 0.0 0.0 1009.0 0.0 0.0 29.1 0.0
21/02/21 14:54 29.6 40 14.6 0.0 0.0 0 0.0 0.0 1008.0 0.0 0.0 29.2 0.0
21/02/21 14:55 30.1 40 15.0 0.0 0.0 0 0.0 0.0 1008.0 0.0 0.0 29.8 0.0
21/02/21 14:56 30.2 40 15.1 0.0 0.0 0 0.0 0.0 1008.0 0.0 0.0 29.9 0.0
21/02/21 14:57 30.3 40 15.2 0.0 0.0 0 0.0 0.0 1008.0 0.0 0.0 30.0 0.0
21/02/21 14:58 30.4 40 15.3 0.0 0.0 0 0.0 0.0 1008.0 0.0 0.0 30.2 0.0
21/02/21 14:59 30.4 40 15.3 0.0 0.0 0 0.0 0.0 1008.0 0.0 0.0 30.2 0.0
21/02/21 15:00 30.5 40 15.4 0.0 0.0 0 0.0 0.0 1008.0 0.0 0.0 30.3 0.0
21/02/21 15:01 30.4 40 15.3 0.0 0.0 0 0.0 0.0 1008.0 0.0 0.0 30.2 0.0
21/02/21 15:02 30.2 40 15.1 0.0 0.0 0 0.0 0.0 1008.0 0.0 0.0 29.9 0.0
21/02/21 15:03 30.2 40 15.1 0.0 0.0 0 0.0 0.0 1008.0 0.0 0.0 29.9 0.0
21/02/21 15:04 30.2 40 15.1 0.0 0.0 0 0.0 0.0 1008.0 0.0 0.0 29.9 0.0
21/02/21 15:05 30.2 40 15.1 0.0 0.0 0 0.0 0.0 1008.0 0.0 0.0 29.9 0.0
21/02/21 15:06 30.3 40 15.2 0.0 0.0 0 0.0 0.0 1008.0 0.0 0.0 30.0 0.0
21/02/21 15:07 30.4 40 15.3 0.0 0.0 0 0.0 0.0 1008.0 0.0 0.0 30.2 0.0
21/02/21 15:08 30.5 41 15.8 0.0 0.0 0 0.0 0.0 1008.0 0.0 0.0 30.4 0.0
21/02/21 15:09 30.3 40 15.2 0.0 0.0 0 0.0 0.0 1008.0 0.0 0.0 30.0 0.0
21/02/21 15:10 30.1 40 15.0 0.0 0.0 0 0.0 0.0 1008.0 0.0 0.0 29.8 0.0
21/02/21 15:11 30.0 40 14.9 0.0 0.0 0 0.0 0.0 1008.0 0.0 0.0 29.7 0.0
21/02/21 15:12 29.9 41 15.2 0.0 0.0 0 0.0 0.0 1008.0 0.0 0.0 29.7 0.0
21/02/21 15:13 29.9 41 15.2 0.0 0.0 0 0.0 0.0 1008.0 0.0 0.0 29.7 0.0
21/02/21 15:14 29.7 41 15.0 0.0 0.0 0 0.0 0.0 1008.0 0.0 0.0 29.5 0.0
21/02/21 15:17 29.1 41 14.5 0.0 0.0 0 0.0 0.0 1008.0 0.0 0.0 28.8 0.0
21/02/21 15:18 28.9 42 14.7 0.0 0.0 0 0.0 0.0 1008.0 0.0 0.0 28.7 0.0
21/02/21 15:19 28.7 42 14.5 0.0 0.0 0 0.0 0.0 1008.0 0.0 0.0 28.5 0.0
21/02/21 15:20 28.5 42 14.3 0.0 0.0 0 0.0 0.0 1008.0 0.0 0.0 28.3 0.0
21/02/21 15:21 28.4 43 14.6 0.0 0.0 0 0.0 0.0 1008.0 0.0 0.0 28.3 0.0
21/02/21 15:22 28.3 43 14.5 0.0 0.0 0 0.0 0.0 1008.0 0.0 0.0 28.2 0.0
21/02/21 15:23 28.2 43 14.4 0.0 0.0 0 0.0 0.0 1008.0 0.0 0.0 28.1 0.0
21/02/21 15:24 28.0 44 14.6 0.0 0.0 0 0.0 0.0 1008.0 0.0 0.0 28.0 0.0
21/02/21 15:25 28.0 45 15.0 0.0 0.0 0 0.0 0.0 1008.0 0.0 0.0 28.0 0.0
21/02/21 15:26 27.9 45 14.9 0.0 0.0 0 0.0 0.0 1008.0 0.0 0.0 27.9 0.0
21/02/21 15:27 27.8 45 14.8 0.0 0.0 0 0.0 0.0 1008.0 0.0 0.0 27.8 0.0
21/02/21 15:28 27.8 46 15.1 0.0 0.0 0 0.0 0.0 1008.0 0.0 0.0 27.9 0.0
21/02/21 15:29 27.7 46 15.0 0.0 0.0 0 0.0 0.0 1008.0 0.0 0.0 27.8 0.0
21/02/21 15:30 27.6 47 15.3 0.0 0.0 0 0.0 0.0 1008.0 0.0 0.0 27.8 0.0
21/02/21 15:31 27.7 47 15.4 0.0 0.0 0 0.0 0.0 1008.0 0.0 0.0 27.9 0.0
21/02/21 15:32 27.8 47 15.5 0.0 0.0 0 0.0 0.0 1008.0 0.0 0.0 28.0 0.0
21/02/21 15:33 28.1 47 15.7 0.0 0.0 0 0.0 0.0 1008.0 0.0 0.0 28.3 0.0
21/02/21 15:34 28.3 47 15.9 0.0 0.0 0 0.0 0.0 1008.0 0.0 0.0 28.5 0.0
21/02/21 15:35 28.4 46 15.7 0.0 0.0 0 0.0 0.0 1008.0 0.0 0.0 28.5 0.0
21/02/21 15:36 28.6 46 15.8 0.0 0.0 0 0.0 0.0 1008.0 0.0 0.0 28.7 0.0
21/02/21 15:37 28.7 46 15.9 0.0 0.0 0 0.0 0.0 1008.0 0.0 0.0 28.9 0.0
21/02/21 15:38 28.7 45 15.6 0.0 0.0 0 0.0 0.0 1008.0 0.0 0.0 28.8 0.0
21/02/21 15:39 28.8 45 15.7 0.0 0.0 0 0.0 0.0 1008.0 0.0 0.0 28.9 0.0
21/02/21 15:40 28.9 45 15.8 0.0 0.0 0 0.0 0.0 1008.0 0.0 0.0 29.0 0.0
21/02/21 15:42 29.1 44 15.6 0.0 0.0 0 0.0 0.0 1008.0 0.0 0.0 29.1 0.0
21/02/21 15:43 29.2 44 15.7 0.0 0.0 0 0.0 0.0 1008.0 0.0 0.0 29.2 0.0
21/02/21 15:44 29.3 44 15.8 0.0 0.0 0 0.0 0.0 1008.0 0.0 0.0 29.3 0.0
21/02/21 15:45 29.6 44 16.1 0.0 0.0 0 0.0 0.0 1008.0 0.0 0.0 29.7 0.0
21/02/21 15:46 29.6 43 15.7 0.0 0.0 0 0.0 0.0 1008.0 0.0 0.0 29.6 0.0
21/02/21 15:47 29.8 44 16.2 0.0 0.0 0 0.0 0.0 1008.0 0.0 0.0 29.9 0.0
21/02/21 15:48 30.2 43 16.2 0.0 0.0 0 0.0 0.0 1008.0 0.0 0.0 30.3 0.0
21/02/21 15:49 30.3 43 16.3 0.0 0.0 0 0.0 0.0 1008.0 0.0 0.0 30.4 0.0
21/02/21 15:50 30.4 43 16.4 0.0 0.0 0 0.0 0.0 1008.0 0.0 0.0 30.6 0.0
21/02/21 15:51 30.5 43 16.5 0.0 0.0 0 0.0 0.0 1008.0 0.0 0.0 30.7 0.0
21/02/21 15:52 30.5 42 16.1 0.0 0.0 0 0.0 0.0 1008.0 0.0 0.0 30.6 0.0
21/02/21 15:53 30.6 42 16.2 0.0 0.0 0 0.0 0.0 1008.0 0.0 0.0 30.7 0.0
21/02/21 15:54 30.5 42 16.1 0.0 0.0 0 0.0 0.0 1008.0 0.0 0.0 30.6 0.0
21/02/21 15:55 30.3 42 16.0 0.0 0.0 0 0.0 0.0 1008.0 0.0 0.0 30.3 0.0
21/02/21 15:56 30.0 41 15.3 0.0 0.0 0 0.0 0.0 1008.0 0.0 0.0 29.8 0.0
21/02/21 15:57 29.7 42 15.4 0.0 0.0 0 0.0 0.0 1008.0 0.0 0.0 29.6 0.0
21/02/21 15:58 29.4 42 15.1 0.0 0.0 0 0.0 0.0 1008.0 0.0 0.0 29.2 0.0
21/02/21 15:59 29.1 42 14.9 0.0 0.0 0 0.0 0.0 1008.0 0.0 0.0 28.9 0.0
21/02/21 16:00 28.9 43 15.1 0.0 0.0 0 0.0 0.0 1008.0 0.0 0.0 28.8 0.0
21/02/21 16:01 28.7 43 14.9 0.0 0.0 0 0.0 0.0 1008.0 0.0 0.0 28.6 0.0
21/02/21 16:02 28.5 43 14.7 0.0 0.0 0 0.0 0.0 1008.0 0.0 0.0 28.4 0.0
21/02/21 16:03 27.9 44 14.5 0.0 0.0 0 0.0 0.0 1008.0 0.0 0.0 27.9 0.0
21/02/21 16:04 27.9 44 14.5 0.0 0.0 0 0.0 0.0 1008.0 0.0 0.0 27.9 0.0
21/02/21 16:05 27.3 46 14.7 0.0 0.0 0 0.0 0.0 1008.0 0.0 0.0 27.4 0.0
21/02/21 16:07 26.4 52 15.8 0.0 0.0 0 0.0 0.0 1008.0 0.0 0.0 26.4 0.0
21/02/21 16:08 25.9 56 16.4 0.0 0.0 0 0.0 0.0 1008.0 0.0 0.0 25.9 0.0
21/02/21 16:09 25.6 57 16.4 0.0 0.0 0 0.0 0.0 1008.0 0.0 0.0 25.6 0.0
21/02/21 16:10 24.8 62 17.0 0.0 0.0 0 0.0 0.0 1008.0 0.0 0.0 24.8 0.0
21/02/21 16:11 24.4 62 16.6 0.0 0.0 0 0.0 0.0 1008.0 0.0 0.0 24.4 0.0
21/02/21 16:12 24.1 64 16.9 0.0 0.0 0 0.0 0.0 1008.0 0.0 0.0 24.1 0.0
21/02/21 16:13 23.9 63 16.4 0.0 0.0 0 0.0 0.0 1008.0 0.0 0.0 23.9 0.0
21/02/21 16:14 23.8 67 17.3 0.0 0.0 0 0.0 0.0 1008.0 0.0 0.0 23.8 0.0
21/02/21 16:15 23.8 67 17.3 0.0 0.0 0 0.0 0.0 1008.0 0.0 0.0 23.8 0.0
21/02/21 16:16 23.5 68 17.3 0.0 0.0 0 0.0 0.0 1008.0 0.0 0.0 23.5 0.0
21/02/21 16:17 23.4 69 17.4 0.0 0.0 0 0.0 0.0 1008.0 0.0 0.0 23.4 0.0
21/02/21 16:18 23.4 70 17.6 0.0 0.0 0 0.0 0.0 1008.0 0.0 0.0 23.4 0.0
21/02/21 16:19 23.5 70 17.7 0.0 0.0 0 0.0 0.0 1008.0 0.0 0.0 23.5 0.0
21/02/21 16:20 23.6 71 18.0 0.0 0.0 0 0.0 0.0 1008.0 0.0 0.0 23.6 0.0
21/02/21 16:21 23.7 71 18.1 0.0 0.0 0 0.0 0.0 1008.0 0.0 0.0 23.7 0.0
21/02/21 16:22 23.7 70 17.9 0.0 0.0 0 0.0 0.0 1008.0 0.0 0.0 23.7 0.0
21/02/21 16:23 24.0 70 18.2 0.0 0.0 0 0.0 0.0 1008.0 0.0 0.0 24.0 0.0
21/02/21 16:24 24.1 70 18.3 0.0 0.0 0 0.0 0.0 1008.0 0.0 0.0 24.1 0.0
21/02/21 16:25 24.2 71 18.6 0.0 0.0 0 0.0 0.0 1008.0 0.0 0.0 24.2 0.0
21/02/21 16:26 24.2 72 18.8 0.0 0.0 0 0.0 0.0 1008.0 0.0 0.0 24.2 0.0
21/02/21 16:27 24.2 70 18.4 0.0 0.0 0 0.0 0.0 1008.0 0.0 0.0 24.2 0.0
21/02/21 16:28 24.2 70 18.4 0.0 0.0 0 0.0 0.0 1008.0 0.0 0.0 24.2 0.0
21/02/21 16:29 24.1 70 18.3 0.0 0.0 0 0.0 0.0 1008.0 0.0 0.0 24.1 0.0
21/02/21 16:33 24.1 72 18.7 0.0 0.0 0 0.0 0.0 1008.0 0.0 0.0 24.1 0.0
21/02/21 16:34 24.2 72 18.8 0.0 0.0 0 0.0 0.0 1008.0 0.0 0.0 24.2 0.0
21/02/21 16:35 24.1 71 18.5 0.0 0.0 0 0.0 0.0 1008.0 0.0 0.0 24.1 0.0
21/02/21 16:36 24.1 70 18.3 0.0 0.0 0 0.0 0.0 1008.0 0.0 0.0 24.1 0.0
21/02/21 16:37 24.0 70 18.2 0.0 0.0 0 0.0 0.0 1008.0 0.0 0.0 24.0 0.0
21/02/21 16:38 24.0 70 18.2 0.0 0.0 0 0.0 0.0 1008.0 0.0 0.0 24.0 0.0
21/02/21 16:39 24.0 70 18.2 0.0 0.0 0 0.0 0.0 1008.0 0.0 0.0 24.0 0.0
21/02/21 16:40 24.0 70 18.2 0.0 0.0 0 0.0 0.0 1008.0 0.0 0.0 24.0 0.0
21/02/21 16:41 24.0 70 18.2 0.0 0.0 0 0.0 0.0 1008.0 0.0 0.0 24.0 0.0
21/02/21 16:42 24.1 70 18.3 0.0 0.0 0 0.0 0.0 1008.0 0.0 0.0 24.1 0.0
21/02/21 16:43 24.5 71 18.9 0.0 0.0 0 0.0 0.0 1008.0 0.0 0.0 24.5 0.0
21/02/21 16:44 24.8 70 19.0 0.0 0.0 0 0.0 0.0 1008.0 0.0 0.0 24.8 0.0
21/02/21 16:45 25.2 70 19.3 0.0 0.0 0 0.0 0.0 1008.0 0.0 0.0 25.2 0.0
21/02/21 16:46 25.6 70 19.7 0.0 0.0 0 0.0 0.0 1008.0 0.0 0.0 25.6 0.0
21/02/21 16:47 26.0 69 19.9 0.0 0.0 0 0.0 0.0 1008.0 0.0 0.0 26.0 0.0
21/02/21 16:48 26.7 68 20.3 0.0 0.0 0 0.0 0.0 1008.0 0.0 0.0 28.2 0.0
21/02/21 16:49 27.1 67 20.4 0.0 0.0 0 0.0 0.0 1008.0 0.0 0.0 28.8 0.0
21/02/21 16:50 27.3 66 20.4 0.0 0.0 0 0.0 0.0 1008.0 0.0 0.0 29.0 0.0
21/02/21 16:51 27.5 65 20.3 0.0 0.0 0 0.0 0.0 1008.0 0.0 0.0 29.2 0.0
21/02/21 16:52 27.6 63 19.9 0.0 0.0 0 0.0 0.0 1008.0 0.0 0.0 29.2 0.0
21/02/21 16:53 27.8 62 19.9 0.0 0.0 0 0.0 0.0 1008.0 0.0 0.0 29.4 0.0
21/02/21 16:54 28.1 62 20.1 0.0 0.0 0 0.0 0.0 1008.0 0.0 0.0 29.8 0.0
21/02/21 16:55 28.2 61 20.0 0.0 0.0 0 0.0 0.0 1008.0 0.0 0.0 29.9 0.0
21/02/21 16:57 28.7 59 19.9 0.0 0.0 0 0.0 0.0 1008.0 0.0 0.0 30.4 0.0
21/02/21 16:58 28.8 59 20.0 0.0 0.0 0 0.0 0.0 1008.0 0.0 0.0 30.6 0.0
21/02/21 16:59 28.8 59 20.0 0.0 0.0 0 0.0 0.0 1008.0 0.0 0.0 30.6 0.0
21/02/21 17:00 28.8 59 20.0 0.0 0.0 0 0.0 0.0 1008.0 0.0 0.0 30.6 0.0
21/02/21 17:01 28.8 57 19.4 0.0 0.0 0 0.0 0.0 1008.0 0.0 0.0 30.3 0.0
21/02/21 17:02 28.8 57 19.4 0.0 0.0 0 0.0 0.0 1008.0 0.0 0.0 30.3 0.0
21/02/21 17:03 28.5 54 18.3 0.0 0.0 0 0.0 0.0 1008.0 0.0 0.0 29.5 0.0
21/02/21 17:04 28.5 54 18.3 0.0 0.0 0 0.0 0.0 1008.0 0.0 0.0 29.5 0.0
21/02/21 17:05 28.5 54 18.3 0.0 0.0 0 0.0 0.0 1008.0 0.0 0.0 29.5 0.0
21/02/21 17:06 28.6 52 17.8 0.0 0.0 0 0.0 0.0 1008.0 0.0 0.0 29.4 0.0
21/02/21 17:07 28.7 52 17.9 0.0 0.0 0 0.0 0.0 1008.0 0.0 0.0 29.5 0.0
21/02/21 17:08 28.7 52 17.9 0.0 0.0 0 0.0 0.0 1008.0 0.0 0.0 29.5 0.0
21/02/21 17:09 28.6 51 17.5 0.0 0.0 0 0.0 0.0 1008.0 0.0 0.0 29.3 0.0
21/02/21 17:10 28.5 51 17.4 0.0 0.0 0 0.0 0.0 1008.0 0.0 0.0 29.1 0.0
21/02/21 17:11 28.4 50 17.0 0.0 0.0 0 0.0 0.0 1008.0 0.0 0.0 28.9 0.0
21/02/21 17:12 28.4 50 17.0 0.0 0.0 0 0.0 0.0 1008.0 0.0 0.0 28.9 0.0
21/02/21 17:13 28.3 50 16.9 0.0 0.0 0 0.0 0.0 1008.0 0.0 0.0 28.8 0.0
21/02/21 17:14 28.3 50 16.9 0.0 0.0 0 0.0 0.0 1008.0 0.0 0.0 28.8 0.0
21/02/21 17:15 28.3 50 16.9 0.0 0.0 0 0.0 0.0 1008.0 0.0 0.0 28.8 0.0
21/02/21 17:16 28.3 50 16.9 0.0 0.0 0 0.0 0.0 1008.0 0.0 0.0 28.8 0.0
21/02/21 17:17 28.3 50 16.9 0.0 0.0 0 0.0 0.0 1008.0 0.0 0.0 28.8 0.0
21/02/21 17:18 28.5 50 17.1 0.0 0.0 0 0.0 0.0 1008.0 0.0 0.0 29.0 0.0
21/02/21 17:19 28.5 50 17.1 0.0 0.0 0 0.0 0.0 1008.0 0.0 0.0 29.0 0.0
21/02/21 17:20 28.5 50 17.1 0.0 0.0 0 0.0 0.0 1008.0 0.0 0.0 29.0 0.0
21/02/21 17:24 28.2 50 16.8 0.0 0.0 0 0.0 0.0 1008.0 0.0 0.0 28.7 0.0
21/02/21 17:25 28.0 49 16.3 0.0 0.0 0 0.0 0.0 1008.0 0.0 0.0 28.4 0.0
21/02/21 17:26 27.7 50 16.3 0.0 0.0 0 0.0 0.0 1008.0 0.0 0.0 28.1 0.0
21/02/21 17:27 27.7 50 16.3 0.0 0.0 0 0.0 0.0 1008.0 0.0 0.0 28.1 0.0
21/02/21 17:28 27.4 51 16.4 0.0 0.0 0 0.0 0.0 1008.0 0.0 0.0 27.9 0.0
21/02/21 17:29 27.4 51 16.4 0.0 0.0 0 0.0 0.0 1008.0 0.0 0.0 27.9 0.0
21/02/21 17:30 27.4 51 16.4 0.0 0.0 0 0.0 0.0 1008.0 0.0 0.0 27.9 0.0
21/02/21 17:31 27.4 51 16.4 0.0 0.0 0 0.0 0.0 1008.0 0.0 0.0 27.9 0.0
21/02/21 17:32 27.4 51 16.4 0.0 0.0 0 0.0 0.0 1008.0 0.0 0.0 27.9 0.0
21/02/21 17:33 26.8 53 16.4 0.0 0.0 0 0.0 0.0 1008.0 0.0 0.0 27.4 0.0
21/02/21 17:34 26.8 53 16.4 0.0 0.0 0 0.0 0.0 1008.0 0.0 0.0 27.4 0.0
21/02/21 17:35 26.6 53 16.2 0.0 0.0 0 0.0 0.0 1008.0 0.0 0.0 26.6 0.0
21/02/21 17:36 26.5 54 16.4 0.0 0.0 0 0.0 0.0 1008.0 0.0 0.0 26.5 0.0
21/02/21 17:37 26.5 54 16.4 0.0 0.0 0 0.0 0.0 1008.0 0.0 0.0 26.5 0.0
21/02/21 17:38 26.4 54 16.3 0.0 0.0 0 0.0 0.0 1008.0 0.0 0.0 26.4 0.0
21/02/21 17:39 26.3 55 16.5 0.0 0.0 0 0.0 0.0 1008.0 0.0 0.0 26.3 0.0
21/02/21 17:40 26.2 55 16.4 0.0 0.0 0 0.0 0.0 1008.0 0.0 0.0 26.2 0.0
21/02/21 17:41 26.1 55 16.4 0.0 0.0 0 0.0 0.0 1008.0 0.0 0.0 26.1 0.0
21/02/21 17:42 26.0 55 16.3 0.0 0.0 0 0.0 0.0 1008.0 0.0 0.0 26.0 0.0
21/02/21 17:43 25.8 56 16.4 0.0 0.0 0 0.0 0.0 1008.0 0.0 0.0 25.8 0.0
21/02/21 17:44 25.7 55 16.0 0.0 0.0 0 0.0 0.0 1008.0 0.0 0.0 25.7 0.0
21/02/21 17:45 25.7 56 16.3 0.0 0.0 0 0.0 0.0 1008.0 0.0 0.0 25.7 0.0
21/02/21 17:48 25.5 57 16.4 0.0 0.0 0 0.0 0.0 1008.0 0.0 0.0 25.5 0.0
21/02/21 17:49 25.5 58 16.6 0.0 0.0 0 0.0 0.0 1008.0 0.0 0.0 25.5 0.0
21/02/21 17:50 25.7 58 16.8 0.0 0.0 0 0.0 0.0 1008.0 0.0 0.0 25.7 0.0
21/02/21 17:51 25.7 58 16.8 0.0 0.0 0 0.0 0.0 1008.0 0.0 0.0 25.7 0.0
21/02/21 17:52 25.9 58 17.0 0.0 0.0 0 0.0 0.0 1008.0 0.0 0.0 25.9 0.0
21/02/21 17:53 26.1 57 16.9 0.0 0.0 0 0.0 0.0 1009.0 0.0 0.0 26.1 0.0
21/02/21 17:54 26.3 57 17.1 0.0 0.0 0 0.0 0.0 1009.0 0.0 0.0 26.3 0.0
21/02/21 17:55 26.4 56 16.9 0.0 0.0 0 0.0 0.0 1009.0 0.0 0.0 26.4 0.0
21/02/21 17:56 26.5 54 16.4 0.0 0.0 0 0.0 0.0 1009.0 0.0 0.0 26.5 0.0
21/02/21 17:57 26.6 54 16.5 0.0 0.0 0 0.0 0.0 1009.0 0.0 0.0 26.6 0.0
21/02/21 17:58 26.7 52 16.0 0.0 0.0 0 0.0 0.0 1009.0 0.0 0.0 27.3 0.0
21/02/21 17:59 26.7 52 16.0 0.0 0.0 0 0.0 0.0 1009.0 0.0 0.0 27.3 0.0
21/02/21 18:00 26.5 51 15.5 0.0 0.0 0 0.0 0.0 1009.0 0.0 0.0 26.5 0.0
21/02/21 18:01 26.4 51 15.4 0.0 0.0 0 0.0 0.0 1009.0 0.0 0.0 26.4 0.0
21/02/21 18:02 26.3 50 15.0 0.0 0.0 0 0.0 0.0 1009.0 0.0 0.0 26.3 0.0
21/02/21 18:03 26.2 50 15.0 0.0 0.0 0 0.0 0.0 1009.0 0.0 0.0 26.2 0.0
21/02/21 18:04 26.3 51 15.4 0.0 0.0 0 0.0 0.0 1009.0 0.0 0.0 26.3 0.0
21/02/21 18:05 26.3 51 15.4 0.0 0.0 0 0.0 0.0 1009.0 0.0 0.0 26.3 0.0
21/02/21 18:06 26.3 51 15.4 0.0 0.0 0 0.0 0.0 1009.0 0.0 0.0 26.3 0.0
21/02/21 18:07 26.3 51 15.4 0.0 0.0 0 0.0 0.0 1009.0 0.0 0.0 26.3 0.0
21/02/21 18:08 26.4 52 15.8 0.0 0.0 0 0.0 0.0 1008.0 0.0 0.0 26.4 0.0
21/02/21 18:09 26.4 52 15.8 0.0 0.0 0 0.0 0.0 1008.0 0.0 0.0 26.4 0.0
21/02/21 18:12 26.6 52 15.9 0.0 0.0 0 0.0 0.0 1008.0 0.0 0.0 26.6 0.0
21/02/21 18:13 26.6 52 15.9 0.0 0.0 0 0.0 0.0 1008.0 0.0 0.0 26.6 0.0
21/02/21 18:14 26.5 52 15.8 0.0 0.0 0 0.0 0.0 1008.0 0.0 0.0 26.5 0.0
21/02/21 18:15 26.5 52 15.8 0.0 0.0 0 0.0 0.0 1008.0 0.0 0.0 26.5 0.0
21/02/21 18:16 26.5 53 16.1 0.0 0.0 0 0.0 0.0 1008.0 0.0 0.0 26.5 0.0
21/02/21 18:17 26.5 53 16.1 0.0 0.0 0 0.0 0.0 1008.0 0.0 0.0 26.5 0.0
21/02/21 18:18 26.5 54 16.4 0.0 0.0 0 0.0 0.0 1008.0 0.0 0.0 26.5 0.0
21/02/21 18:19 26.3 55 16.5 0.0 0.0 0 0.0 0.0 1008.0 0.0 0.0 26.3 0.0
21/02/21 18:20 26.1 55 16.4 0.0 0.0 0 0.0 0.0 1008.0 0.0 0.0 26.1 0.0
21/02/21 18:21 26.1 55 16.4 0.0 0.0 0 0.0 0.0 1008.0 0.0 0.0 26.1 0.0
21/02/21 18:22 25.8 56 16.4 0.0 0.0 0 0.0 0.0 1008.0 0.0 0.0 25.8 0.0
21/02/21 18:23 25.7 56 16.3 0.0 0.0 0 0.0 0.0 1009.0 0.0 0.0 25.7 0.0
21/02/21 18:24 25.6 56 16.2 0.0 0.0 0 0.0 0.0 1009.0 0.0 0.0 25.6 0.0
21/02/21 18:25 25.4 57 16.3 0.0 0.0 0 0.0 0.0 1009.0 0.0 0.0 25.4 0.0
21/02/21 18:26 25.3 57 16.2 0.0 0.0 0 0.0 0.0 1009.0 0.0 0.0 25.3 0.0
21/02/21 18:27 25.1 58 16.3 0.0 0.0 0 0.0 0.0 1009.0 0.0 0.0 25.1 0.0
21/02/21 18:28 25.0 59 16.4 0.0 0.0 0 0.0 0.0 1009.0 0.0 0.0 25.0 0.0
21/02/21 18:29 24.8 59 16.2 0.0 0.0 0 0.0 0.0 1009.0 0.0 0.0 24.8 0.0
21/02/21 18:30 24.7 59 16.1 0.0 0.0 0 0.0 0.0 1009.0 0.0 0.0 24.7 0.0
21/02/21 18:31 24.6 59 16.1 0.0 0.0 0 0.0 0.0 1009.0 0.0 0.0 24.6 0.0
21/02/21 18:32 24.4 59 15.9 0.0 0.0 0 0.0 0.0 1009.0 0.0 0.0 24.4 0.0
21/02/21 18:33 24.4 60 16.1 0.0 0.0 0 0.0 0.0 1009.0 0.0 0.0 24.4 0.0
21/02/21 18:34 24.2 60 15.9 0.0 0.0 0 0.0 0.0 1009.0 0.0 0.0 24.2 0.0
21/02/21 18:37 23.9 61 15.9 0.0 0.0 0 0.0 0.0 1009.0 0.0 0.0 23.9 0.0
21/02/21 18:38 23.8 60 15.6 0.0 0.0 0 0.0 0.0 1009.0 0.0 0.0 23.8 0.0
21/02/21 18:39 23.8 60 15.6 0.0 0.0 0 0.0 0.0 1009.0 0.0 0.0 23.8 0.0
21/02/21 18:40 23.6 60 15.4 0.0 0.0 0 0.0 0.0 1009.0 0.0 0.0 23.6 0.0
21/02/21 18:41 23.6 60 15.4 0.0 0.0 0 0.0 0.0 1009.0 0.0 0.0 23.6 0.0
21/02/21 18:42 23.4 61 15.4 0.0 0.0 0 0.0 0.0 1009.0 0.0 0.0 23.4 0.0
21/02/21 18:43 23.3 62 15.6 0.0 0.0 0 0.0 0.0 1009.0 0.0 0.0 23.3 0.0
21/02/21 18:44 23.3 62 15.6 0.0 0.0 0 0.0 0.0 1009.0 0.0 0.0 23.3 0.0
21/02/21 18:45 23.2 62 15.5 0.0 0.0 0 0.0 0.0 1009.0 0.0 0.0 23.2 0.0
21/02/21 18:46 23.2 62 15.5 0.0 0.0 0 0.0 0.0 1009.0 0.0 0.0 23.2 0.0
21/02/21 18:47 23.0 63 15.6 0.0 0.0 0 0.0 0.0 1009.0 0.0 0.0 23.0 0.0
21/02/21 18:48 23.0 63 15.6 0.0 0.0 0 0.0 0.0 1009.0 0.0 0.0 23.0 0.0
21/02/21 18:49 22.9 64 15.7 0.0 0.0 0 0.0 0.0 1009.0 0.0 0.0 22.9 0.0
21/02/21 18:50 22.8 64 15.6 0.0 0.0 0 0.0 0.0 1009.0 0.0 0.0 22.8 0.0
21/02/21 18:51 22.8 64 15.6 0.0 0.0 0 0.0 0.0 1009.0 0.0 0.0 22.8 0.0
21/02/21 18:52 22.8 64 15.6 0.0 0.0 0 0.0 0.0 1009.0 0.0 0.0 22.8 0.0
21/02/21 18:53 22.8 64 15.6 0.0 0.0 0 0.0 0.0 1009.0 0.0 0.0 22.8 0.0
21/02/21 18:54 22.6 65 15.7 0.0 0.0 0 0.0 0.0 1009.0 0.0 0.0 22.6 0.0
21/02/21 18:55 22.6 66 15.9 0.0 0.0 0 0.0 0.0 1009.0 0.0 0.0 22.6 0.0
21/02/21 18:56 22.6 66 15.9 0.0 0.0 0 0.0 0.0 1009.0 0.0 0.0 22.6 0.0
21/02/21 18:57 22.4 67 16.0 0.0 0.0 0 0.0 0.0 1009.0 0.0 0.0 22.4 0.0
21/02/21 18:58 22.4 67 16.0 0.0 0.0 0 0.0 0.0 1009.0 0.0 0.0 22.4 0.0
21/02/21 18:59 22.4 68 16.2 0.0 0.0 0 0.0 0.0 1009.0 0.0 0.0 22.4 0.0
21/02/21 19:00 22.3 67 15.9 0.0 0.0 0 0.0 0.0 1009.0 0.0 0.0 22.3 0.0
21/02/21 19:05 22.1 67 15.7 0.0 0.0 0 0.0 0.0 1009.0 0.0 0.0 22.1 0.0
21/02/21 19:06 22.1 67 15.7 0.0 0.0 0 0.0 0.0 1009.0 0.0 0.0 22.1 0.0
21/02/21 19:07 22.0 68 15.8 0.0 0.0 0 0.0 0.0 1009.0 0.0 0.0 22.0 0.0
21/02/21 19:08 22.0 68 15.8 0.0 0.0 0 0.0 0.0 1009.0 0.0 0.0 22.0 0.0
21/02/21 19:09 21.9 69 16.0 0.0 0.0 0 0.0 0.0 1009.0 0.0 0.0 21.9 0.0
21/02/21 19:10 21.9 69 16.0 0.0 0.0 0 0.0 0.0 1009.0 0.0 0.0 21.9 0.0
21/02/21 19:11 21.8 69 15.9 0.0 0.0 0 0.0 0.0 1009.0 0.0 0.0 21.8 0.0
21/02/21 19:12 21.7 69 15.8 0.0 0.0 0 0.0 0.0 1009.0 0.0 0.0 21.7 0.0
21/02/21 19:13 21.7 69 15.8 0.0 0.0 0 0.0 0.0 1009.0 0.0 0.0 21.7 0.0
21/02/21 19:14 21.7 69 15.8 0.0 0.0 0 0.0 0.0 1009.0 0.0 0.0 21.7 0.0
21/02/21 19:15 21.5 70 15.8 0.0 0.0 0 0.0 0.0 1009.0 0.0 0.0 21.5 0.0
21/02/21 19:16 21.5 70 15.8 0.0 0.0 0 0.0 0.0 1009.0 0.0 0.0 21.5 0.0
21/02/21 19:17 21.5 70 15.8 0.0 0.0 0 0.0 0.0 1009.0 0.0 0.0 21.5 0.0
21/02/21 19:18 21.5 70 15.8 0.0 0.0 0 0.0 0.0 1009.0 0.0 0.0 21.5 0.0
21/02/21 19:19 21.5 70 15.8 0.0 0.0 0 0.0 0.0 1009.0 0.0 0.0 21.5 0.0
21/02/21 19:20 21.3 71 15.8 0.0 0.0 0 0.0 0.0 1009.0 0.0 0.0 21.3 0.0
21/02/21 19:21 21.3 71 15.8 0.0 0.0 0 0.0 0.0 1009.0 0.0 0.0 21.3 0.0
21/02/21 19:22 21.3 71 15.8 0.0 0.0 0 0.0 0.0 1009.0 0.0 0.0 21.3 0.0
21/02/21 19:23 21.3 71 15.8 0.0 0.0 0 0.0 0.0 1009.0 0.0 0.0 21.3 0.0
21/02/21 19:24 21.3 71 15.8 0.0 0.0 0 0.0 0.0 1009.0 0.0 0.0 21.3 0.0
21/02/21 19:25 21.1 71 15.6 0.0 0.0 0 0.0 0.0 1009.0 0.0 0.0 21.1 0.0
21/02/21 19:44 20.3 74 15.5 0.0 0.0 0 0.0 0.0 1009.0 0.0 0.0 20.3 0.0
21/02/21 19:45 20.3 75 15.7 0.0 0.0 0 0.0 0.0 1009.0 0.0 0.0 20.3 0.0
21/02/21 19:46 20.3 75 15.7 0.0 0.0 0 0.0 0.0 1009.0 0.0 0.0 20.3 0.0
21/02/21 19:47 20.2 76 15.8 0.0 0.0 0 0.0 0.0 1009.0 0.0 0.0 20.2 0.0
21/02/21 19:48 20.2 76 15.8 0.0 0.0 0 0.0 0.0 1009.0 0.0 0.0 20.2 0.0
21/02/21 19:49 20.2 76 15.8 0.0 0.0 0 0.0 0.0 1009.0 0.0 0.0 20.2 0.0
21/02/21 19:50 20.1 76 15.7 0.0 0.0 0 0.0 0.0 1009.0 0.0 0.0 20.1 0.0
21/02/21 19:52 20.1 76 15.7 0.0 0.0 0 0.0 0.0 1009.0 0.0 0.0 20.1 0.0
21/02/21 19:53 20.0 76 15.6 0.0 0.0 0 0.0 0.0 1009.0 0.0 0.0 20.0 0.0
21/02/21 19:54 20.0 77 15.8 0.0 0.0 0 0.0 0.0 1009.0 0.0 0.0 20.0 0.0
21/02/21 19:55 20.0 77 15.8 0.0 0.0 0 0.0 0.0 1009.0 0.0 0.0 20.0 0.0
21/02/21 19:56 20.0 77 15.8 0.0 0.0 0 0.0 0.0 1009.0 0.0 0.0 20.0 0.0
21/02/21 19:57 19.9 77 15.7 0.0 0.0 0 0.0 0.0 1009.0 0.0 0.0 19.9 0.0
21/02/21 19:58 19.9 77 15.7 0.0 0.0 0 0.0 0.0 1009.0 0.0 0.0 19.9 0.0
21/02/21 19:59 19.9 77 15.7 0.0 0.0 0 0.0 0.0 1009.0 0.0 0.0 19.9 0.0
21/02/21 20:00 19.8 77 15.6 0.0 0.0 0 0.0 0.0 1009.0 0.0 0.0 19.8 0.0
21/02/21 20:01 19.9 77 15.7 0.0 0.0 0 0.0 0.0 1009.0 0.0 0.0 19.9 0.0
21/02/21 20:02 19.8 78 15.9 0.0 0.0 0 0.0 0.0 1009.0 0.0 0.0 19.8 0.0
21/02/21 20:03 19.8 78 15.9 0.0 0.0 0 0.0 0.0 1009.0 0.0 0.0 19.8 0.0
21/02/21 20:04 19.8 77 15.6 0.0 0.0 0 0.0 0.0 1009.0 0.0 0.0 19.8 0.0
21/02/21 20:05 19.8 78 15.9 0.0 0.0 0 0.0 0.0 1009.0 0.0 0.0 19.8 0.0
21/02/21 20:06 19.8 78 15.9 0.0 0.0 0 0.0 0.0 1009.0 0.0 0.0 19.8 0.0
21/02/21 20:07 19.7 78 15.8 0.0 0.0 0 0.0 0.0 1009.0 0.0 0.0 19.7 0.0
21/02/21 20:08 19.7 78 15.8 0.0 0.0 0 0.0 0.0 1010.0 0.0 0.0 19.7 0.0
21/02/21 20:09 19.7 78 15.8 0.0 0.0 0 0.0 0.0 1010.0 0.0 0.0 19.7 0.0
21/02/21 20:10 19.7 78 15.8 0.0 0.0 0 0.0 0.0 1010.0 0.0 0.0 19.7 0.0
21/02/21 20:11 19.7 78 15.8 0.0 0.0 0 0.0 0.0 1010.0 0.0 0.0 19.7 0.0
21/02/21 20:12 19.7 78 15.8 0.0 0.0 0 0.0 0.0 1010.0 0.0 0.0 19.7 0.0
21/02/21 20:13 19.7 78 15.8 0.0 0.0 0 0.0 0.0 1010.0 0.0 0.0 19.7 0.0
21/02/21 20:14 19.7 78 15.8 0.0 0.0 0 0.0 0.0 1010.0 0.0 0.0 19.7 0.0
21/02/21 20:15 19.7 78 15.8 0.0 0.0 0 0.0 0.0 1010.0 0.0 0.0 19.7 0.0
21/02/21 20:21 19.6 79 15.9 0.0 0.0 0 0.0 0.0 1010.0 0.0 0.0 19.6 0.0
21/02/21 20:22 19.6 79 15.9 0.0 0.0 0 0.0 0.0 1010.0 0.0 0.0 19.6 0.0
21/02/21 20:23 19.6 79 15.9 0.0 0.0 0 0.0 0.0 1010.0 0.0 0.0 19.6 0.0
21/02/21 20:24 19.6 79 15.9 0.0 0.0 0 0.0 0.0 1010.0 0.0 0.0 19.6 0.0
21/02/21 20:25 19.6 79 15.9 0.0 0.0 0 0.0 0.0 1010.0 0.0 0.0 19.6 0.0
21/02/21 20:26 19.5 79 15.8 0.0 0.0 0 0.0 0.0 1010.0 0.0 0.0 19.5 0.0
21/02/21 20:27 19.5 79 15.8 0.0 0.0 0 0.0 0.0 1010.0 0.0 0.0 19.5 0.0
21/02/21 20:28 19.5 79 15.8 0.0 0.0 0 0.0 0.0 1010.0 0.0 0.0 19.5 0.0
21/02/21 20:29 19.5 79 15.8 0.0 0.0 0 0.0 0.0 1010.0 0.0 0.0 19.5 0.0
21/02/21 20:30 19.5 79 15.8 0.0 0.0 0 0.0 0.0 1010.0 0.0 0.0 19.5 0.0
21/02/21 20:31 19.5 79 15.8 0.0 0.0 0 0.0 0.0 1010.0 0.0 0.0 19.5 0.0
21/02/21 20:32 19.5 79 15.8 0.0 0.0 0 0.0 0.0 1010.0 0.0 0.0 19.5 0.0
21/02/21 20:33 19.5 79 15.8 0.0 0.0 0 0.0 0.0 1010.0 0.0 0.0 19.5 0.0
21/02/21 20:34 19.5 79 15.8 0.0 0.0 0 0.0 0.0 1010.0 0.0 0.0 19.5 0.0
21/02/21 20:35 19.5 79 15.8 0.0 0.0 0 0.0 0.0 1010.0 0.0 0.0 19.5 0.0
21/02/21 20:36 19.5 79 15.8 0.0 0.0 0 0.0 0.0 1010.0 0.0 0.0 19.5 0.0
21/02/21 20:37 19.5 79 15.8 0.0 0.0 0 0.0 0.0 1010.0 0.0 0.0 19.5 0.0
21/02/21 20:38 19.5 79 15.8 0.0 0.0 0 0.0 0.0 1010.0 0.0 0.0 19.5 0.0
21/02/21 20:39 19.3 80 15.8 0.0 0.0 0 0.0 0.0 1010.0 0.0 0.0 19.3 0.0
21/02/21 20:40 19.3 80 15.8 0.0 0.0 0 0.0 0.0 1010.0 0.0 0.0 19.3 0.0
21/02/21 20:46 19.2 80 15.7 0.0 0.0 0 0.0 0.0 1010.0 0.0 0.0 19.2 0.0
21/02/21 20:47 19.2 80 15.7 0.0 0.0 0 0.0 0.0 1010.0 0.0 0.0 19.2 0.0
21/02/21 20:48 19.1 80 15.6 0.0 0.0 0 0.0 0.0 1010.0 0.0 0.0 19.1 0.0
21/02/21 20:49 19.2 81 15.9 0.0 0.0 0 0.0 0.0 1010.0 0.0 0.0 19.2 0.0
21/02/21 20:50 19.2 81 15.9 0.0 0.0 0 0.0 0.0 1010.0 0.0 0.0 19.2 0.0
21/02/21 20:51 19.2 81 15.9 0.0 0.0 0 0.0 0.0 1010.0 0.0 0.0 19.2 0.0
21/02/21 20:52 19.2 81 15.9 0.0 0.0 0 0.0 0.0 1010.0 0.0 0.0 19.2 0.0
21/02/21 20:53 19.2 81 15.9 0.0 0.0 0 0.0 0.0 1010.0 0.0 0.0 19.2 0.0
21/02/21 20:54 19.2 81 15.9 0.0 0.0 0 0.0 0.0 1010.0 0.0 0.0 19.2 0.0
21/02/21 20:55 19.2 81 15.9 0.0 0.0 0 0.0 0.0 1010.0 0.0 0.0 19.2 0.0
21/02/21 20:56 19.2 81 15.9 0.0 0.0 0 0.0 0.0 1010.0 0.0 0.0 19.2 0.0
21/02/21 20:57 19.1 81 15.8 0.0 0.0 0 0.0 0.0 1010.0 0.0 0.0 19.1 0.0
21/02/21 20:58 19.1 81 15.8 0.0 0.0 0 0.0 0.0 1010.0 0.0 0.0 19.1 0.0
21/02/21 20:59 19.1 81 15.8 0.0 0.0 0 0.0 0.0 1010.0 0.0 0.0 19.1 0.0
21/02/21 21:00 19.1 81 15.8 0.0 0.0 0 0.0 0.0 1010.0 0.0 0.0 19.1 0.0
21/02/21 21:01 19.1 81 15.8 0.0 0.0 0 0.0 0.0 1010.0 0.0 0.0 19.1 0.0
21/02/21 21:02 19.1 81 15.8 0.0 0.0 0 0.0 0.0 1010.0 0.0 0.0 19.1 0.0
21/02/21 21:03 19.1 81 15.8 0.0 0.0 0 0.0 0.0 1010.0 0.0 0.0 19.1 0.0
21/02/21 21:04 19.0 81 15.7 0.0 0.0 0 0.0 0.0 1010.0 0.0 0.0 19.0 0.0
21/02/21 21:12 18.9 82 15.8 0.0 0.0 0 0.0 0.0 1010.0 0.0 0.0 18.9 0.0
21/02/21 21:13 18.9 82 15.8 0.0 0.0 0 0.0 0.0 1010.0 0.0 0.0 18.9 0.0
21/02/21 21:14 18.9 82 15.8 0.0 0.0 0 0.0 0.0 1010.0 0.0 0.0 18.9 0.0
21/02/21 21:15 18.9 82 15.8 0.0 0.0 0 0.0 0.0 1010.0 0.0 0.0 18.9 0.0
21/02/21 21:16 18.9 82 15.8 0.0 0.0 0 0.0 0.0 1010.0 0.0 0.0 18.9 0.0
21/02/21 21:17 18.9 82 15.8 0.0 0.0 0 0.0 0.0 1010.0 0.0 0.0 18.9 0.0
21/02/21 21:18 18.9 82 15.8 0.0 0.0 0 0.0 0.0 1010.0 0.0 0.0 18.9 0.0
21/02/21 21:19 18.9 82 15.8 0.0 0.0 0 0.0 0.0 1010.0 0.0 0.0 18.9 0.0
21/02/21 21:20 18.9 82 15.8 0.0 0.0 0 0.0 0.0 1010.0 0.0 0.0 18.9 0.0
21/02/21 21:21 18.7 83 15.8 0.0 0.0 0 0.0 0.0 1010.0 0.0 0.0 18.7 0.0
21/02/21 21:22 18.7 83 15.8 0.0 0.0 0 0.0 0.0 1010.0 0.0 0.0 18.7 0.0
21/02/21 21:23 18.7 83 15.8 0.0 0.0 0 0.0 0.0 1011.0 0.0 0.0 18.7 0.0
21/02/21 21:24 18.7 83 15.8 0.0 0.0 0 0.0 0.0 1011.0 0.0 0.0 18.7 0.0
21/02/21 21:25 18.7 83 15.8 0.0 0.0 0 0.0 0.0 1011.0 0.0 0.0 18.7 0.0
21/02/21 21:26 18.7 83 15.8 0.0 0.0 0 0.0 0.0 1011.0 0.0 0.0 18.7 0.0
21/02/21 21:27 18.7 83 15.8 0.0 0.0 0 0.0 0.0 1011.0 0.0 0.0 18.7 0.0
21/02/21 21:28 18.7 83 15.8 0.0 0.0 0 0.0 0.0 1011.0 0.0 0.0 18.7 0.0
21/02/21 21:29 18.7 83 15.8 0.0 0.0 0 0.0 0.0 1011.0 0.0 0.0 18.7 0.0
21/02/21 21:30 18.7 83 15.8 0.0 0.0 0 0.0 0.0 1011.0 0.0 0.0 18.7 0.0
21/02/21 22:33 17.5 86 15.1 0.0 0.0 0 0.0 0.0 1010.0 0.0 0.0 17.5 0.0
21/02/21 22:34 17.5 87 15.3 0.0 0.0 0 0.0 0.0 1010.0 0.0 0.0 17.5 0.0
21/02/21 22:35 17.5 87 15.3 0.0 0.0 0 0.0 0.0 1010.0 0.0 0.0 17.5 0.0
21/02/21 22:36 17.5 87 15.3 0.0 0.0 0 0.0 0.0 1010.0 0.0 0.0 17.5 0.0
21/02/21 22:37 17.5 87 15.3 0.0 0.0 0 0.0 0.0 1010.0 0.0 0.0 17.5 0.0
21/02/21 22:38 17.4 86 15.0 0.0 0.0 0 0.0 0.0 1010.0 0.0 0.0 17.4 0.0
21/02/21 22:39 17.4 86 15.0 0.0 0.0 0 0.0 0.0 1010.0 0.0 0.0 17.4 0.0
21/02/21 22:40 17.3 86 14.9 0.0 0.0 0 0.0 0.0 1010.0 0.0 0.0 17.3 0.0
21/02/21 22:41 17.3 86 14.9 0.0 0.0 0 0.0 0.0 1010.0 0.0 0.0 17.3 0.0
21/02/21 22:42 17.3 86 14.9 0.0 0.0 0 0.0 0.0 1010.0 0.0 0.0 17.3 0.0
21/02/21 22:43 17.3 87 15.1 0.0 0.0 0 0.0 0.0 1010.0 0.0 0.0 17.3 0.0
21/02/21 22:44 17.2 87 15.0 0.0 0.0 0 0.0 0.0 1010.0 0.0 0.0 17.2 0.0
21/02/21 22:47 17.2 87 15.0 0.0 0.0 0 0.0 0.0 1010.0 0.0 0.0 17.2 0.0
21/02/21 22:48 17.2 87 15.0 0.0 0.0 0 0.0 0.0 1010.0 0.0 0.0 17.2 0.0
21/02/21 22:49 17.2 87 15.0 0.0 0.0 0 0.0 0.0 1010.0 0.0 0.0 17.2 0.0
21/02/21 22:50 17.2 87 15.0 0.0 0.0 0 0.0 0.0 1010.0 0.0 0.0 17.2 0.0
21/02/21 22:51 17.2 87 15.0 0.0 0.0 0 0.0 0.0 1010.0 0.0 0.0 17.2 0.0
21/02/21 22:52 17.2 87 15.0 0.0 0.0 0 0.0 0.0 1010.0 0.0 0.0 17.2 0.0
21/02/21 22:53 17.0 87 14.8 0.0 0.0 0 0.0 0.0 1010.0 0.0 0.0 17.0 0.0
21/02/21 22:54 17.0 88 15.0 0.0 0.0 0 0.0 0.0 1010.0 0.0 0.0 17.0 0.0
21/02/21 22:55 17.0 88 15.0 0.0 0.0 0 0.0 0.0 1010.0 0.0 0.0 17.0 0.0
21/02/21 22:56 17.0 88 15.0 0.0 0.0 0 0.0 0.0 1010.0 0.0 0.0 17.0 0.0
21/02/21 22:57 17.0 88 15.0 0.0 0.0 0 0.0 0.0 1010.0 0.0 0.0 17.0 0.0
21/02/21 22:58 16.9 88 14.9 0.0 0.0 0 0.0 0.0 1010.0 0.0 0.0 16.9 0.0
21/02/21 22:59 16.9 88 14.9 0.0 0.0 0 0.0 0.0 1010.0 0.0 0.0 16.9 0.0
21/02/21 23:00 16.9 88 14.9 0.0 0.0 0 0.0 0.0 1010.0 0.0 0.0 16.9 0.0
21/02/21 23:01 16.9 89 15.1 0.0 0.0 0 0.0 0.0 1010.0 0.0 0.0 16.9 0.0
21/02/21 23:02 16.9 89 15.1 0.0 0.0 0 0.0 0.0 1010.0 0.0 0.0 16.9 0.0
21/02/21 23:03 16.9 89 15.1 0.0 0.0 0 0.0 0.0 1010.0 0.0 0.0 16.9 0.0
21/02/21 23:04 16.8 89 15.0 0.0 0.0 0 0.0 0.0 1010.0 0.0 0.0 16.8 0.0
21/02/21 23:05 16.8 89 15.0 0.0 0.0 0 0.0 0.0 1010.0 0.0 0.0 16.8 0.0
21/02/21 23:06 16.8 89 15.0 0.0 0.0 0 0.0 0.0 1010.0 0.0 0.0 16.8 0.0
21/02/21 23:07 16.8 89 15.0 0.0 0.0 0 0.0 0.0 1010.0 0.0 0.0 16.8 0.0
21/02/21 23:08 16.8 89 15.0 0.0 0.0 0 0.0 0.0 1010.0 0.0 0.0 16.8 0.0
21/02/21 23:09 16.8 89 15.0 0.0 0.0 0 0.0 0.0 1010.0 0.0 0.0 16.8 0.0
21/02/21 23:10 16.8 89 15.0 0.0 0.0 0 0.0 0.0 1010.0 0.0 0.0 16.8 0.0
21/02/21 23:13 16.7 89 14.9 0.0 0.0 0 0.0 0.0 1010.0 0.0 0.0 16.7 0.0
21/02/21 23:14 16.7 89 14.9 0.0 0.0 0 0.0 0.0 1010.0 0.0 0.0 16.7 0.0
21/02/21 23:15 16.7 89 14.9 0.0 0.0 0 0.0 0.0 1010.0 0.0 0.0 16.7 0.0
21/02/21 23:16 16.7 89 14.9 0.0 0.0 0 0.0 0.0 1010.0 0.0 0.0 16.7 0.0
21/02/21 23:17 16.7 89 14.9 0.0 0.0 0 0.0 0.0 1010.0 0.0 0.0 16.7 0.0
21/02/21 23:18 16.6 89 14.8 0.0 0.0 0 0.0 0.0 1010.0 0.0 0.0 16.6 0.0
21/02/21 23:19 16.6 89 14.8 0.0 0.0 0 0.0 0.0 1010.0 0.0 0.0 16.6 0.0
21/02/21 23:20 16.6 89 14.8 0.0 0.0 0 0.0 0.0 1010.0 0.0 0.0 16.6 0.0
21/02/21 23:21 16.6 89 14.8 0.0 0.0 0 0.0 0.0 1010.0 0.0 0.0 16.6 0.0
21/02/21 23:22 16.6 89 14.8 0.0 0.0 0 0.0 0.0 1010.0 0.0 0.0 16.6 0.0
21/02/21 23:23 16.6 89 14.8 0.0 0.0 0 0.0 0.0 1010.0 0.0 0.0 16.6 0.0
21/02/21 23:24 16.6 89 14.8 0.0 0.0 0 0.0 0.0 1010.0 0.0 0.0 16.6 0.0
21/02/21 23:25 16.6 89 14.8 0.0 0.0 0 0.0 0.0 1010.0 0.0 0.0 16.6 0.0
21/02/21 23:26 16.6 89 14.8 0.0 0.0 0 0.0 0.0 1010.0 0.0 0.0 16.6 0.0
21/02/21 23:27 16.6 89 14.8 0.0 0.0 0 0.0 0.0 1010.0 0.0 0.0 16.6 0.0
21/02/21 23:28 16.6 89 14.8 0.0 0.0 0 0.0 0.0 1010.0 0.0 0.0 16.6 0.0
21/02/21 23:29 16.5 89 14.7 0.0 0.0 0 0.0 0.0 1010.0 0.0 0.0 16.5 0.0
21/02/21 23:30 16.5 89 14.7 0.0 0.0 0 0.0 0.0 1010.0 0.0 0.0 16.5 0.0
21/02/21 23:31 16.5 89 14.7 0.0 0.0 0 0.0 0.0 1010.0 0.0 0.0 16.5 0.0
21/02/21 23:32 16.5 89 14.7 0.0 0.0 0 0.0 0.0 1010.0 0.0 0.0 16.5 0.0
21/02/21 23:33 16.5 89 14.7 0.0 0.0 0 0.0 0.0 1010.0 0.0 0.0 16.5 0.0
21/02/21 23:34 16.4 89 14.6 0.0 0.0 0 0.0 0.0 1010.0 0.0 0.0 16.4 0.0
21/02/21 23:35 16.4 89 14.6 0.0 0.0 0 0.0 0.0 1010.0 0.0 0.0 16.4 0.0
21/02/21 23:37 16.4 89 14.6 0.0 0.0 0 0.0 0.0 1010.0 0.0 0.0 16.4 0.0
21/02/21 23:38 16.3 89 14.5 0.0 0.0 0 0.0 0.0 1010.0 0.0 0.0 16.3 0.0
21/02/21 23:39 16.3 89 14.5 0.0 0.0 0 0.0 0.0 1010.0 0.0 0.0 16.3 0.0
21/02/21 23:40 16.3 89 14.5 0.0 0.0 0 0.0 0.0 1010.0 0.0 0.0 16.3 0.0
21/02/21 23:41 16.3 89 14.5 0.0 0.0 0 0.0 0.0 1010.0 0.0 0.0 16.3 0.0
21/02/21 23:42 16.3 89 14.5 0.0 0.0 0 0.0 0.0 1010.0 0.0 0.0 16.3 0.0
21/02/21 23:43 16.2 89 14.4 0.0 0.0 0 0.0 0.0 1010.0 0.0 0.0 16.2 0.0
21/02/21 23:44 16.2 89 14.4 0.0 0.0 0 0.0 0.0 1010.0 0.0 0.0 16.2 0.0
21/02/21 23:45 16.2 89 14.4 0.0 0.0 0 0.0 0.0 1010.0 0.0 0.0 16.2 0.0
21/02/21 23:46 16.2 90 14.6 0.0 0.0 0 0.0 0.0 1010.0 0.0 0.0 16.2 0.0
21/02/21 23:47 16.2 90 14.6 0.0 0.0 0 0.0 0.0 1010.0 0.0 0.0 16.2 0.0
21/02/21 23:48 16.2 90 14.6 0.0 0.0 0 0.0 0.0 1010.0 0.0 0.0 16.2 0.0
21/02/21 23:49 16.2 90 14.6 0.0 0.0 0 0.0 0.0 1010.0 0.0 0.0 16.2 0.0
21/02/21 23:50 16.2 90 14.6 0.0 0.0 0 0.0 0.0 1010.0 0.0 0.0 16.2 0.0
21/02/21 23:51 16.1 90 14.5 0.0 0.0 0 0.0 0.0 1010.0 0.0 0.0 16.1 0.0
21/02/21 23:52 16.1 90 14.5 0.0 0.0 0 0.0 0.0 1010.0 0.0 0.0 16.1 0.0
21/02/21 23:53 16.1 90 14.5 0.0 0.0 0 0.0 0.0 1010.0 0.0 0.0 16.1 0.0
21/02/21 23:54 16.1 90 14.5 0.0 0.0 0 0.0 0.0 1010.0 0.0 0.0 16.1 0.0
21/02/21 23:55 16.1 90 14.5 0.0 0.0 0 0.0 0.0 1010.0 0.0 0.0 16.1 0.0
21/02/21 23:56 16.1 90 14.5 0.0 0.0 0 0.0 0.0 1010.0 0.0 0.0 16.1 0.0
21/02/21 23:57 16.1 90 14.5 0.0 0.0 0 0.0 0.0 1010.0 0.0 0.0 16.1 0.0
21/02/21 23:58 16.0 90 14.4 0.0 0.0 0 0.0 0.0 1010.0 0.0 0.0 16.0 0.0
21/02/21 23:59 16.0 90 14.4 0.0 0.0 0 0.0 0.0 1010.0 0.0 0.0 16.0 0.0
 
  Back to Top
Date Time Temperature Humidity Dewpoint Wind Speed High Gust Wind Bearing Rainfall Rate Total Rainfall Pressure Gust Wind Chill Heat Index UV Index
22/02/21 00:00 16.0 90 14.4 0.0 0.0 0 0.0 0.0 1010.0 0.0 0.0 16.0 0.0
22/02/21 00:02 16.0 91 14.5 0.0 0.0 0 0.0 0.0 1010.0 0.0 0.0 16.0 0.0
22/02/21 00:03 16.0 91 14.5 0.0 0.0 0 0.0 0.0 1010.0 0.0 0.0 16.0 0.0
22/02/21 00:04 16.0 91 14.5 0.0 0.0 0 0.0 0.0 1010.0 0.0 0.0 16.0 0.0
22/02/21 00:05 16.0 91 14.5 0.0 0.0 0 0.0 0.0 1010.0 0.0 0.0 16.0 0.0
22/02/21 00:06 16.0 91 14.5 0.0 0.0 0 0.0 0.0 1010.0 0.0 0.0 16.0 0.0
22/02/21 00:07 16.0 91 14.5 0.0 0.0 0 0.0 0.0 1010.0 0.0 0.0 16.0 0.0
22/02/21 00:08 16.0 91 14.5 0.0 0.0 0 0.0 0.0 1010.0 0.0 0.0 16.0 0.0
22/02/21 00:09 16.0 91 14.5 0.0 0.0 0 0.0 0.0 1010.0 0.0 0.0 16.0 0.0
22/02/21 00:10 16.0 91 14.5 0.0 0.0 0 0.0 0.0 1010.0 0.0 0.0 16.0 0.0
22/02/21 00:11 16.0 91 14.5 0.0 0.0 0 0.0 0.0 1010.0 0.0 0.0 16.0 0.0
22/02/21 00:12 16.0 91 14.5 0.0 0.0 0 0.0 0.0 1010.0 0.0 0.0 16.0 0.0
22/02/21 00:13 16.0 91 14.5 0.0 0.0 0 0.0 0.0 1010.0 0.0 0.0 16.0 0.0
22/02/21 00:14 16.0 91 14.5 0.0 0.0 0 0.0 0.0 1010.0 0.0 0.0 16.0 0.0
22/02/21 00:15 16.0 91 14.5 0.0 0.0 0 0.0 0.0 1010.0 0.0 0.0 16.0 0.0
22/02/21 00:16 16.0 91 14.5 0.0 0.0 0 0.0 0.0 1010.0 0.0 0.0 16.0 0.0
22/02/21 00:17 16.0 91 14.5 0.0 0.0 0 0.0 0.0 1010.0 0.0 0.0 16.0 0.0
22/02/21 00:18 16.0 91 14.5 0.0 0.0 0 0.0 0.0 1010.0 0.0 0.0 16.0 0.0
22/02/21 00:19 16.0 91 14.5 0.0 0.0 0 0.0 0.0 1010.0 0.0 0.0 16.0 0.0
22/02/21 00:20 16.0 91 14.5 0.0 0.0 0 0.0 0.0 1010.0 0.0 0.0 16.0 0.0
22/02/21 00:21 16.0 91 14.5 0.0 0.0 0 0.0 0.0 1010.0 0.0 0.0 16.0 0.0
22/02/21 00:22 16.0 92 14.7 0.0 0.0 0 0.0 0.0 1010.0 0.0 0.0 16.0 0.0
22/02/21 00:23 16.0 92 14.7 0.0 0.0 0 0.0 0.0 1009.0 0.0 0.0 16.0 0.0
22/02/21 00:24 16.0 92 14.7 0.0 0.0 0 0.0 0.0 1009.0 0.0 0.0 16.0 0.0
22/02/21 00:25 16.0 92 14.7 0.0 0.0 0 0.0 0.0 1009.0 0.0 0.0 16.0 0.0
22/02/21 00:27 16.0 92 14.7 0.0 0.0 0 0.0 0.0 1009.0 0.0 0.0 16.0 0.0
22/02/21 00:28 16.0 92 14.7 0.0 0.0 0 0.0 0.0 1009.0 0.0 0.0 16.0 0.0
22/02/21 00:29 16.0 92 14.7 0.0 0.0 0 0.0 0.0 1009.0 0.0 0.0 16.0 0.0
22/02/21 00:30 16.0 92 14.7 0.0 0.0 0 0.0 0.0 1009.0 0.0 0.0 16.0 0.0
22/02/21 00:31 16.0 92 14.7 0.0 0.0 0 0.0 0.0 1009.0 0.0 0.0 16.0 0.0
22/02/21 00:32 16.0 92 14.7 0.0 0.0 0 0.0 0.0 1009.0 0.0 0.0 16.0 0.0
22/02/21 00:33 16.0 92 14.7 0.0 0.0 0 0.0 0.0 1009.0 0.0 0.0 16.0 0.0
22/02/21 00:34 16.0 92 14.7 0.0 0.0 0 0.0 0.0 1009.0 0.0 0.0 16.0 0.0
22/02/21 00:35 16.0 92 14.7 0.0 0.0 0 0.0 0.0 1009.0 0.0 0.0 16.0 0.0
22/02/21 00:36 15.9 92 14.6 0.0 0.0 0 0.0 0.0 1009.0 0.0 0.0 15.9 0.0
22/02/21 00:37 15.9 92 14.6 0.0 0.0 0 0.0 0.0 1009.0 0.0 0.0 15.9 0.0
22/02/21 00:38 15.9 92 14.6 0.0 0.0 0 0.0 0.0 1009.0 0.0 0.0 15.9 0.0
22/02/21 00:39 15.9 92 14.6 0.0 0.0 0 0.0 0.0 1009.0 0.0 0.0 15.9 0.0
22/02/21 00:40 15.9 92 14.6 0.0 0.0 0 0.0 0.0 1009.0 0.0 0.0 15.9 0.0
22/02/21 00:41 15.9 92 14.6 0.0 0.0 0 0.0 0.0 1009.0 0.0 0.0 15.9 0.0
22/02/21 00:42 15.8 92 14.5 0.0 0.0 0 0.0 0.0 1009.0 0.0 0.0 15.8 0.0
22/02/21 00:43 15.8 92 14.5 0.0 0.0 0 0.0 0.0 1009.0 0.0 0.0 15.8 0.0
22/02/21 00:44 15.8 92 14.5 0.0 0.0 0 0.0 0.0 1009.0 0.0 0.0 15.8 0.0
22/02/21 00:45 15.8 92 14.5 0.0 0.0 0 0.0 0.0 1009.0 0.0 0.0 15.8 0.0
22/02/21 00:46 15.8 92 14.5 0.0 0.0 0 0.0 0.0 1009.0 0.0 0.0 15.8 0.0
22/02/21 00:47 15.7 92 14.4 0.0 0.0 0 0.0 0.0 1009.0 0.0 0.0 15.7 0.0
22/02/21 00:48 15.7 92 14.4 0.0 0.0 0 0.0 0.0 1009.0 0.0 0.0 15.7 0.0
22/02/21 00:49 15.7 93 14.6 0.0 0.0 0 0.0 0.0 1009.0 0.0 0.0 15.7 0.0
22/02/21 00:53 15.7 93 14.6 0.0 0.0 0 0.0 0.0 1009.0 0.0 0.0 15.7 0.0
22/02/21 00:54 15.7 93 14.6 0.0 0.0 0 0.0 0.0 1009.0 0.0 0.0 15.7 0.0
22/02/21 00:55 15.7 93 14.6 0.0 0.0 0 0.0 0.0 1009.0 0.0 0.0 15.7 0.0
22/02/21 00:56 15.7 93 14.6 0.0 0.0 0 0.0 0.0 1009.0 0.0 0.0 15.7 0.0
22/02/21 00:57 15.7 93 14.6 0.0 0.0 0 0.0 0.0 1009.0 0.0 0.0 15.7 0.0
22/02/21 00:58 15.7 93 14.6 0.0 0.0 0 0.0 0.0 1009.0 0.0 0.0 15.7 0.0
22/02/21 00:59 15.7 93 14.6 0.0 0.0 0 0.0 0.0 1009.0 0.0 0.0 15.7 0.0
22/02/21 01:00 15.7 93 14.6 0.0 0.0 0 0.0 0.0 1009.0 0.0 0.0 15.7 0.0
22/02/21 01:01 15.7 93 14.6 0.0 0.0 0 0.0 0.0 1009.0 0.0 0.0 15.7 0.0
22/02/21 01:02 15.7 93 14.6 0.0 0.0 0 0.0 0.0 1009.0 0.0 0.0 15.7 0.0
22/02/21 01:03 15.7 93 14.6 0.0 0.0 0 0.0 0.0 1009.0 0.0 0.0 15.7 0.0
22/02/21 01:04 15.7 93 14.6 0.0 0.0 0 0.0 0.0 1009.0 0.0 0.0 15.7 0.0
22/02/21 01:05 15.8 93 14.7 0.0 0.0 0 0.0 0.0 1009.0 0.0 0.0 15.8 0.0
22/02/21 01:06 15.8 93 14.7 0.0 0.0 0 0.0 0.0 1009.0 0.0 0.0 15.8 0.0
22/02/21 01:07 15.8 93 14.7 0.0 0.0 0 0.0 0.0 1009.0 0.0 0.0 15.8 0.0
22/02/21 01:08 15.8 93 14.7 0.0 0.0 0 0.0 0.0 1009.0 0.0 0.0 15.8 0.0
22/02/21 01:09 15.8 93 14.7 0.0 0.0 0 0.0 0.0 1009.0 0.0 0.0 15.8 0.0
22/02/21 01:10 15.8 93 14.7 0.0 0.0 0 0.0 0.0 1009.0 0.0 0.0 15.8 0.0
22/02/21 01:11 15.8 93 14.7 0.0 0.0 0 0.0 0.0 1009.0 0.0 0.0 15.8 0.0
22/02/21 01:12 15.8 94 14.8 0.0 0.0 0 0.0 0.0 1009.0 0.0 0.0 15.8 0.0
22/02/21 01:13 15.8 94 14.8 0.0 0.0 0 0.0 0.0 1009.0 0.0 0.0 15.8 0.0
22/02/21 01:14 15.8 94 14.8 0.0 0.0 0 0.0 0.0 1009.0 0.0 0.0 15.8 0.0
22/02/21 01:15 15.8 94 14.8 0.0 0.0 0 0.0 0.0 1009.0 0.0 0.0 15.8 0.0
22/02/21 01:17 15.8 94 14.8 0.0 0.0 0 0.0 0.0 1009.0 0.0 0.0 15.8 0.0
22/02/21 01:18 15.8 94 14.8 0.0 0.0 0 0.0 0.0 1009.0 0.0 0.0 15.8 0.0
22/02/21 01:19 15.9 94 14.9 0.0 0.0 0 0.0 0.0 1009.0 0.0 0.0 15.9 0.0
22/02/21 01:20 15.9 94 14.9 0.0 0.0 0 0.0 0.0 1009.0 0.0 0.0 15.9 0.0
22/02/21 01:21 15.9 94 14.9 0.0 0.0 0 0.0 0.0 1009.0 0.0 0.0 15.9 0.0
22/02/21 01:22 15.9 94 14.9 0.0 0.0 0 0.0 0.0 1009.0 0.0 0.0 15.9 0.0
22/02/21 01:23 15.9 94 14.9 0.0 0.0 0 0.0 0.0 1008.0 0.0 0.0 15.9 0.0
22/02/21 01:24 16.0 93 14.9 0.0 0.0 0 0.0 0.0 1008.0 0.0 0.0 16.0 0.0
22/02/21 01:25 16.0 93 14.9 0.0 0.0 0 0.0 0.0 1008.0 0.0 0.0 16.0 0.0
22/02/21 01:26 16.0 93 14.9 0.0 0.0 0 0.0 0.0 1008.0 0.0 0.0 16.0 0.0
22/02/21 01:27 16.0 93 14.9 0.0 0.0 0 0.0 0.0 1008.0 0.0 0.0 16.0 0.0
22/02/21 01:28 16.0 93 14.9 0.0 0.0 0 0.0 0.0 1008.0 0.0 0.0 16.0 0.0
22/02/21 01:29 16.1 93 15.0 0.0 0.0 0 0.0 0.0 1008.0 0.0 0.0 16.1 0.0
22/02/21 01:30 16.1 94 15.1 0.0 0.0 0 0.0 0.0 1008.0 0.0 0.0 16.1 0.0
22/02/21 01:31 16.1 94 15.1 0.0 0.0 0 0.0 0.0 1008.0 0.0 0.0 16.1 0.0
22/02/21 01:32 16.1 94 15.1 0.0 0.0 0 0.0 0.0 1008.0 0.0 0.0 16.1 0.0
22/02/21 01:33 16.2 94 15.2 0.0 0.0 0 0.0 0.0 1008.0 0.0 0.0 16.2 0.0
22/02/21 01:34 16.2 94 15.2 0.0 0.0 0 0.0 0.0 1008.0 0.0 0.0 16.2 0.0
22/02/21 01:35 16.2 94 15.2 0.0 0.0 0 0.0 0.0 1008.0 0.0 0.0 16.2 0.0
22/02/21 01:36 16.2 94 15.2 0.0 0.0 0 0.0 0.0 1008.0 0.0 0.0 16.2 0.0
22/02/21 01:37 16.2 94 15.2 0.0 0.0 0 0.0 0.0 1008.0 0.0 0.0 16.2 0.0
22/02/21 01:38 16.2 93 15.1 0.0 0.0 0 0.0 0.0 1009.0 0.0 0.0 16.2 0.0
22/02/21 01:39 16.2 93 15.1 0.0 0.0 0 0.0 0.0 1009.0 0.0 0.0 16.2 0.0
22/02/21 01:40 16.2 93 15.1 0.0 0.0 0 0.0 0.0 1009.0 0.0 0.0 16.2 0.0
22/02/21 01:42 16.3 93 15.2 0.0 0.0 0 0.0 0.0 1009.0 0.0 0.0 16.3 0.0
22/02/21 01:43 16.3 93 15.2 0.0 0.0 0 0.0 0.0 1009.0 0.0 0.0 16.3 0.0
22/02/21 01:44 16.3 93 15.2 0.0 0.0 0 0.0 0.0 1009.0 0.0 0.0 16.3 0.0
22/02/21 01:45 16.3 93 15.2 0.0 0.0 0 0.0 0.0 1009.0 0.0 0.0 16.3 0.0
22/02/21 01:46 16.3 93 15.2 0.0 0.0 0 0.0 0.0 1009.0 0.0 0.0 16.3 0.0
22/02/21 01:47 16.3 93 15.2 0.0 0.0 0 0.0 0.0 1009.0 0.0 0.0 16.3 0.0
22/02/21 01:48 16.3 93 15.2 0.0 0.0 0 0.0 0.0 1009.0 0.0 0.0 16.3 0.0
22/02/21 01:49 16.3 93 15.2 0.0 0.0 0 0.0 0.0 1009.0 0.0 0.0 16.3 0.0
22/02/21 01:50 16.3 93 15.2 0.0 0.0 0 0.0 0.0 1009.0 0.0 0.0 16.3 0.0
22/02/21 01:51 16.3 93 15.2 0.0 0.0 0 0.0 0.0 1009.0 0.0 0.0 16.3 0.0
22/02/21 01:52 16.3 93 15.2 0.0 0.0 0 0.0 0.0 1009.0 0.0 0.0 16.3 0.0
22/02/21 01:53 16.3 93 15.2 0.0 0.0 0 0.0 0.0 1009.0 0.0 0.0 16.3 0.0
22/02/21 01:54 16.4 93 15.3 0.0 0.0 0 0.0 0.0 1009.0 0.0 0.0 16.4 0.0
22/02/21 01:55 16.4 93 15.3 0.0 0.0 0 0.0 0.0 1009.0 0.0 0.0 16.4 0.0
22/02/21 01:56 16.4 93 15.3 0.0 0.0 0 0.0 0.0 1009.0 0.0 0.0 16.4 0.0
22/02/21 01:57 16.4 93 15.3 0.0 0.0 0 0.0 0.0 1009.0 0.0 0.0 16.4 0.0
22/02/21 01:58 16.4 93 15.3 0.0 0.0 0 0.0 0.0 1009.0 0.0 0.0 16.4 0.0
22/02/21 01:59 16.4 93 15.3 0.0 0.0 0 0.0 0.0 1009.0 0.0 0.0 16.4 0.0
22/02/21 02:00 16.4 93 15.3 0.0 0.0 0 0.0 0.0 1009.0 0.0 0.0 16.4 0.0
22/02/21 02:01 16.4 93 15.3 0.0 0.0 0 0.0 0.0 1009.0 0.0 0.0 16.4 0.0
22/02/21 02:02 16.4 93 15.3 0.0 0.0 0 0.0 0.0 1009.0 0.0 0.0 16.4 0.0
22/02/21 02:03 16.4 93 15.3 0.0 0.0 0 0.0 0.0 1009.0 0.0 0.0 16.4 0.0
22/02/21 02:04 16.4 93 15.3 0.0 0.0 0 0.0 0.0 1009.0 0.0 0.0 16.4 0.0
22/02/21 02:05 16.4 93 15.3 0.0 0.0 0 0.0 0.0 1009.0 0.0 0.0 16.4 0.0
22/02/21 02:08 16.4 93 15.3 0.0 0.0 0 0.0 0.0 1009.0 0.0 0.0 16.4 0.0
22/02/21 02:09 16.4 93 15.3 0.0 0.0 0 0.0 0.0 1009.0 0.0 0.0 16.4 0.0
22/02/21 02:10 16.4 93 15.3 0.0 0.0 0 0.0 0.0 1009.0 0.0 0.0 16.4 0.0
22/02/21 02:11 16.4 93 15.3 0.0 0.0 0 0.0 0.0 1009.0 0.0 0.0 16.4 0.0
22/02/21 02:12 16.4 93 15.3 0.0 0.0 0 0.0 0.0 1009.0 0.0 0.0 16.4 0.0
22/02/21 02:13 16.4 93 15.3 0.0 0.0 0 0.0 0.0 1009.0 0.0 0.0 16.4 0.0
22/02/21 02:14 16.4 93 15.3 0.0 0.0 0 0.0 0.0 1009.0 0.0 0.0 16.4 0.0
22/02/21 02:15 16.4 93 15.3 0.0 0.0 0 0.0 0.0 1009.0 0.0 0.0 16.4 0.0
22/02/21 02:16 16.4 93 15.3 0.0 0.0 0 0.0 0.0 1009.0 0.0 0.0 16.4 0.0
22/02/21 02:17 16.4 93 15.3 0.0 0.0 0 0.0 0.0 1009.0 0.0 0.0 16.4 0.0
22/02/21 02:18 16.4 93 15.3 0.0 0.0 0 0.0 0.0 1009.0 0.0 0.0 16.4 0.0
22/02/21 02:19 16.3 93 15.2 0.0 0.0 0 0.0 0.0 1009.0 0.0 0.0 16.3 0.0
22/02/21 02:20 16.3 93 15.2 0.0 0.0 0 0.0 0.0 1009.0 0.0 0.0 16.3 0.0
22/02/21 02:21 16.3 93 15.2 0.0 0.0 0 0.0 0.0 1009.0 0.0 0.0 16.3 0.0
22/02/21 02:22 16.3 93 15.2 0.0 0.0 0 0.0 0.0 1009.0 0.0 0.0 16.3 0.0
22/02/21 02:23 16.2 93 15.1 0.0 0.0 0 0.0 0.0 1009.0 0.0 0.0 16.2 0.0
22/02/21 02:24 16.2 93 15.1 0.0 0.0 0 0.0 0.0 1009.0 0.0 0.0 16.2 0.0
22/02/21 02:25 16.2 93 15.1 0.0 0.0 0 0.0 0.0 1009.0 0.0 0.0 16.2 0.0
22/02/21 02:26 16.1 93 15.0 0.0 0.0 0 0.0 0.0 1009.0 0.0 0.0 16.1 0.0
22/02/21 02:27 16.1 93 15.0 0.0 0.0 0 0.0 0.0 1009.0 0.0 0.0 16.1 0.0
22/02/21 02:28 16.1 93 15.0 0.0 0.0 0 0.0 0.0 1009.0 0.0 0.0 16.1 0.0
22/02/21 02:29 16.1 93 15.0 0.0 0.0 0 0.0 0.0 1009.0 0.0 0.0 16.1 0.0
22/02/21 02:32 15.9 93 14.8 0.0 0.0 0 0.0 0.0 1009.0 0.0 0.0 15.9 0.0
22/02/21 02:33 15.9 93 14.8 0.0 0.0 0 0.0 0.0 1009.0 0.0 0.0 15.9 0.0
22/02/21 02:34 15.9 93 14.8 0.0 0.0 0 0.0 0.0 1009.0 0.0 0.0 15.9 0.0
22/02/21 02:35 15.8 93 14.7 0.0 0.0 0 0.0 0.0 1009.0 0.0 0.0 15.8 0.0
22/02/21 02:57 14.9 95 14.1 0.0 0.0 0 0.0 0.0 1008.0 0.0 0.0 14.9 0.0
22/02/21 02:58 14.9 95 14.1 0.0 0.0 0 0.0 0.0 1008.0 0.0 0.0 14.9 0.0
22/02/21 02:59 14.9 95 14.1 0.0 0.0 0 0.0 0.0 1008.0 0.0 0.0 14.9 0.0
22/02/21 03:00 14.9 95 14.1 0.0 0.0 0 0.0 0.0 1008.0 0.0 0.0 14.9 0.0
22/02/21 03:01 14.9 95 14.1 0.0 0.0 0 0.0 0.0 1008.0 0.0 0.0 14.9 0.0
22/02/21 03:02 14.9 95 14.1 0.0 0.0 0 0.0 0.0 1008.0 0.0 0.0 14.9 0.0
22/02/21 03:03 14.9 95 14.1 0.0 0.0 0 0.0 0.0 1008.0 0.0 0.0 14.9 0.0
22/02/21 03:04 14.8 95 14.0 0.0 0.0 0 0.0 0.0 1008.0 0.0 0.0 14.8 0.0
22/02/21 03:05 14.8 95 14.0 0.0 0.0 0 0.0 0.0 1008.0 0.0 0.0 14.8 0.0
22/02/21 03:06 14.8 95 14.0 0.0 0.0 0 0.0 0.0 1008.0 0.0 0.0 14.8 0.0
22/02/21 03:07 14.8 95 14.0 0.0 0.0 0 0.0 0.0 1008.0 0.0 0.0 14.8 0.0
22/02/21 03:08 14.8 95 14.0 0.0 0.0 0 0.0 0.0 1008.0 0.0 0.0 14.8 0.0
22/02/21 03:09 14.7 96 14.1 0.0 0.0 0 0.0 0.0 1008.0 0.0 0.0 14.7 0.0
22/02/21 03:10 14.7 96 14.1 0.0 0.0 0 0.0 0.0 1008.0 0.0 0.0 14.7 0.0
22/02/21 03:11 14.7 96 14.1 0.0 0.0 0 0.0 0.0 1008.0 0.0 0.0 14.7 0.0
22/02/21 03:12 14.7 96 14.1 0.0 0.0 0 0.0 0.0 1008.0 0.0 0.0 14.7 0.0
22/02/21 03:13 14.7 96 14.1 0.0 0.0 0 0.0 0.0 1008.0 0.0 0.0 14.7 0.0
22/02/21 03:14 14.7 96 14.1 0.0 0.0 0 0.0 0.0 1008.0 0.0 0.0 14.7 0.0
22/02/21 03:15 14.6 96 14.0 0.0 0.0 0 0.0 0.0 1008.0 0.0 0.0 14.6 0.0
22/02/21 03:16 14.6 96 14.0 0.0 0.0 0 0.0 0.0 1008.0 0.0 0.0 14.6 0.0
22/02/21 03:17 14.6 96 14.0 0.0 0.0 0 0.0 0.0 1008.0 0.0 0.0 14.6 0.0
22/02/21 03:18 14.6 96 14.0 0.0 0.0 0 0.0 0.0 1008.0 0.0 0.0 14.6 0.0
22/02/21 03:19 14.6 96 14.0 0.0 0.0 0 0.0 0.0 1008.0 0.0 0.0 14.6 0.0
22/02/21 03:20 14.5 96 13.9 0.0 0.0 0 0.0 0.0 1008.0 0.0 0.0 14.5 0.0
22/02/21 03:23 14.5 96 13.9 0.0 0.0 0 0.0 0.0 1008.0 0.0 0.0 14.5 0.0
22/02/21 03:24 14.5 97 14.0 0.0 0.0 0 0.0 0.0 1008.0 0.0 0.0 14.5 0.0
22/02/21 03:25 14.5 97 14.0 0.0 0.0 0 0.0 0.0 1008.0 0.0 0.0 14.5 0.0
22/02/21 03:26 14.5 97 14.0 0.0 0.0 0 0.0 0.0 1008.0 0.0 0.0 14.5 0.0
22/02/21 03:27 14.4 97 13.9 0.0 0.0 0 0.0 0.0 1008.0 0.0 0.0 14.4 0.0
22/02/21 03:28 14.4 97 13.9 0.0 0.0 0 0.0 0.0 1008.0 0.0 0.0 14.4 0.0
22/02/21 03:29 14.4 97 13.9 0.0 0.0 0 0.0 0.0 1008.0 0.0 0.0 14.4 0.0
22/02/21 03:30 14.4 97 13.9 0.0 0.0 0 0.0 0.0 1008.0 0.0 0.0 14.4 0.0
22/02/21 03:31 14.4 97 13.9 0.0 0.0 0 0.0 0.0 1008.0 0.0 0.0 14.4 0.0
22/02/21 03:32 14.3 97 13.8 0.0 0.0 0 0.0 0.0 1008.0 0.0 0.0 14.3 0.0
22/02/21 03:33 14.3 97 13.8 0.0 0.0 0 0.0 0.0 1008.0 0.0 0.0 14.3 0.0
22/02/21 03:34 14.3 97 13.8 0.0 0.0 0 0.0 0.0 1008.0 0.0 0.0 14.3 0.0
22/02/21 03:35 14.3 97 13.8 0.0 0.0 0 0.0 0.0 1008.0 0.0 0.0 14.3 0.0
22/02/21 03:36 14.3 97 13.8 0.0 0.0 0 0.0 0.0 1008.0 0.0 0.0 14.3 0.0
22/02/21 03:37 14.2 97 13.7 0.0 0.0 0 0.0 0.0 1008.0 0.0 0.0 14.2 0.0
22/02/21 03:38 14.2 97 13.7 0.0 0.0 0 0.0 0.0 1008.0 0.0 0.0 14.2 0.0
22/02/21 03:39 14.2 97 13.7 0.0 0.0 0 0.0 0.0 1008.0 0.0 0.0 14.2 0.0
22/02/21 03:40 14.2 97 13.7 0.0 0.0 0 0.0 0.0 1008.0 0.0 0.0 14.2 0.0
22/02/21 03:41 14.2 97 13.7 0.0 0.0 0 0.0 0.0 1008.0 0.0 0.0 14.2 0.0
22/02/21 03:42 14.3 97 13.8 0.0 0.0 0 0.0 0.0 1008.0 0.0 0.0 14.3 0.0
22/02/21 03:43 14.3 97 13.8 0.0 0.0 0 0.0 0.0 1008.0 0.0 0.0 14.3 0.0
22/02/21 03:44 14.3 97 13.8 0.0 0.0 0 0.0 0.0 1008.0 0.0 0.0 14.3 0.0
22/02/21 03:47 14.3 98 14.0 0.0 0.0 0 0.0 0.0 1008.0 0.0 0.0 14.3 0.0
22/02/21 03:48 14.3 98 14.0 0.0 0.0 0 0.0 0.0 1008.0 0.0 0.0 14.3 0.0
22/02/21 03:49 14.3 98 14.0 0.0 0.0 0 0.0 0.0 1008.0 0.0 0.0 14.3 0.0
22/02/21 03:50 14.3 98 14.0 0.0 0.0 0 0.0 0.0 1008.0 0.0 0.0 14.3 0.0
22/02/21 03:51 14.2 98 13.9 0.0 0.0 0 0.0 0.0 1008.0 0.0 0.0 14.2 0.0
22/02/21 03:52 14.2 98 13.9 0.0 0.0 0 0.0 0.0 1008.0 0.0 0.0 14.2 0.0
22/02/21 03:53 14.2 98 13.9 0.0 0.0 0 0.0 0.0 1008.0 0.0 0.0 14.2 0.0
22/02/21 03:54 14.2 98 13.9 0.0 0.0 0 0.0 0.0 1008.0 0.0 0.0 14.2 0.0
22/02/21 03:55 14.2 98 13.9 0.0 0.0 0 0.0 0.0 1008.0 0.0 0.0 14.2 0.0
22/02/21 03:56 14.2 98 13.9 0.0 0.0 0 0.0 0.0 1008.0 0.0 0.0 14.2 0.0
22/02/21 03:57 14.2 98 13.9 0.0 0.0 0 0.0 0.0 1008.0 0.0 0.0 14.2 0.0
22/02/21 03:58 14.2 98 13.9 0.0 0.0 0 0.0 0.0 1008.0 0.0 0.0 14.2 0.0
22/02/21 03:59 14.2 98 13.9 0.0 0.0 0 0.0 0.0 1008.0 0.0 0.0 14.2 0.0
22/02/21 04:00 14.1 98 13.8 0.0 0.0 0 0.0 0.0 1008.0 0.0 0.0 14.1 0.0
22/02/21 04:01 14.1 98 13.8 0.0 0.0 0 0.0 0.0 1008.0 0.0 0.0 14.1 0.0
22/02/21 04:02 14.1 98 13.8 0.0 0.0 0 0.0 0.0 1008.0 0.0 0.0 14.1 0.0
22/02/21 04:03 14.1 98 13.8 0.0 0.0 0 0.0 0.0 1008.0 0.0 0.0 14.1 0.0
22/02/21 04:04 14.1 98 13.8 0.0 0.0 0 0.0 0.0 1008.0 0.0 0.0 14.1 0.0
22/02/21 04:05 14.1 98 13.8 0.0 0.0 0 0.0 0.0 1008.0 0.0 0.0 14.1 0.0
22/02/21 04:06 14.1 98 13.8 0.0 0.0 0 0.0 0.0 1008.0 0.0 0.0 14.1 0.0
22/02/21 04:07 14.1 98 13.8 0.0 0.0 0 0.0 0.0 1008.0 0.0 0.0 14.1 0.0
22/02/21 04:08 14.1 98 13.8 0.0 0.0 0 0.0 0.0 1007.0 0.0 0.0 14.1 0.0
22/02/21 04:09 14.1 98 13.8 0.0 0.0 0 0.0 0.0 1007.0 0.0 0.0 14.1 0.0
22/02/21 04:10 14.1 98 13.8 0.0 0.0 0 0.0 0.0 1007.0 0.0 0.0 14.1 0.0
22/02/21 04:12 14.1 98 13.8 0.0 0.0 0 0.0 0.0 1007.0 0.0 0.0 14.1 0.0
22/02/21 04:13 14.2 98 13.9 0.0 0.0 0 0.0 0.0 1007.0 0.0 0.0 14.2 0.0
22/02/21 04:14 14.2 98 13.9 0.0 0.0 0 0.0 0.0 1007.0 0.0 0.0 14.2 0.0
22/02/21 04:15 14.2 98 13.9 0.0 0.0 0 0.0 0.0 1007.0 0.0 0.0 14.2 0.0
22/02/21 04:16 14.2 98 13.9 0.0 0.0 0 0.0 0.0 1007.0 0.0 0.0 14.2 0.0
22/02/21 04:17 14.2 98 13.9 0.0 0.0 0 0.0 0.0 1007.0 0.0 0.0 14.2 0.0
22/02/21 04:18 14.2 98 13.9 0.0 0.0 0 0.0 0.0 1007.0 0.0 0.0 14.2 0.0
22/02/21 04:19 14.2 98 13.9 0.0 0.0 0 0.0 0.0 1007.0 0.0 0.0 14.2 0.0
22/02/21 04:20 14.2 98 13.9 0.0 0.0 0 0.0 0.0 1007.0 0.0 0.0 14.2 0.0
22/02/21 04:21 14.2 98 13.9 0.0 0.0 0 0.0 0.0 1007.0 0.0 0.0 14.2 0.0
22/02/21 04:22 14.2 98 13.9 0.0 0.0 0 0.0 0.0 1007.0 0.0 0.0 14.2 0.0
22/02/21 04:23 14.2 98 13.9 0.0 0.0 0 0.0 0.0 1008.0 0.0 0.0 14.2 0.0
22/02/21 04:24 14.2 98 13.9 0.0 0.0 0 0.0 0.0 1008.0 0.0 0.0 14.2 0.0
22/02/21 04:25 14.2 98 13.9 0.0 0.0 0 0.0 0.0 1008.0 0.0 0.0 14.2 0.0
22/02/21 04:26 14.2 98 13.9 0.0 0.0 0 0.0 0.0 1008.0 0.0 0.0 14.2 0.0
22/02/21 04:27 14.2 98 13.9 0.0 0.0 0 0.0 0.0 1008.0 0.0 0.0 14.2 0.0
22/02/21 04:28 14.2 98 13.9 0.0 0.0 0 0.0 0.0 1008.0 0.0 0.0 14.2 0.0
22/02/21 04:29 14.2 98 13.9 0.0 0.0 0 0.0 0.0 1008.0 0.0 0.0 14.2 0.0
22/02/21 04:30 14.3 98 14.0 0.0 0.0 0 0.0 0.0 1008.0 0.0 0.0 14.3 0.0
22/02/21 04:31 14.3 98 14.0 0.0 0.0 0 0.0 0.0 1008.0 0.0 0.0 14.3 0.0
22/02/21 04:32 14.2 98 13.9 0.0 0.0 0 0.0 0.0 1008.0 0.0 0.0 14.2 0.0
22/02/21 04:33 14.2 98 13.9 0.0 0.0 0 0.0 0.0 1008.0 0.0 0.0 14.2 0.0
22/02/21 04:34 14.2 98 13.9 0.0 0.0 0 0.0 0.0 1008.0 0.0 0.0 14.2 0.0
22/02/21 04:35 14.2 98 13.9 0.0 0.0 0 0.0 0.0 1008.0 0.0 0.0 14.2 0.0
22/02/21 04:37 14.2 98 13.9 0.0 0.0 0 0.0 0.0 1008.0 0.0 0.0 14.2 0.0
22/02/21 04:38 14.2 98 13.9 0.0 0.0 0 0.0 0.0 1007.0 0.0 0.0 14.2 0.0
22/02/21 04:39 14.2 98 13.9 0.0 0.0 0 0.0 0.0 1007.0 0.0 0.0 14.2 0.0
22/02/21 04:40 14.1 98 13.8 0.0 0.0 0 0.0 0.0 1007.0 0.0 0.0 14.1 0.0
22/02/21 04:41 14.1 98 13.8 0.0 0.0 0 0.0 0.0 1007.0 0.0 0.0 14.1 0.0
22/02/21 04:42 14.1 98 13.8 0.0 0.0 0 0.0 0.0 1007.0 0.0 0.0 14.1 0.0
22/02/21 04:43 14.1 98 13.8 0.0 0.0 0 0.0 0.0 1007.0 0.0 0.0 14.1 0.0
22/02/21 04:44 14.1 98 13.8 0.0 0.0 0 0.0 0.0 1007.0 0.0 0.0 14.1 0.0
22/02/21 04:45 14.1 98 13.8 0.0 0.0 0 0.0 0.0 1007.0 0.0 0.0 14.1 0.0
22/02/21 04:46 14.1 98 13.8 0.0 0.0 0 0.0 0.0 1007.0 0.0 0.0 14.1 0.0
22/02/21 04:47 14.0 98 13.7 0.0 0.0 0 0.0 0.0 1007.0 0.0 0.0 14.0 0.0
22/02/21 04:48 14.0 98 13.7 0.0 0.0 0 0.0 0.0 1007.0 0.0 0.0 14.0 0.0
22/02/21 04:49 14.0 98 13.7 0.0 0.0 0 0.0 0.0 1007.0 0.0 0.0 14.0 0.0
22/02/21 04:50 14.1 98 13.8 0.0 0.0 0 0.0 0.0 1007.0 0.0 0.0 14.1 0.0
22/02/21 04:51 14.1 98 13.8 0.0 0.0 0 0.0 0.0 1007.0 0.0 0.0 14.1 0.0
22/02/21 04:52 14.1 98 13.8 0.0 0.0 0 0.0 0.0 1007.0 0.0 0.0 14.1 0.0
22/02/21 04:53 14.1 98 13.8 0.0 0.0 0 0.0 0.0 1007.0 0.0 0.0 14.1 0.0
22/02/21 04:54 14.1 98 13.8 0.0 0.0 0 0.0 0.0 1007.0 0.0 0.0 14.1 0.0
22/02/21 04:55 14.1 98 13.8 0.0 0.0 0 0.0 0.0 1007.0 0.0 0.0 14.1 0.0
22/02/21 04:56 14.1 98 13.8 0.0 0.0 0 0.0 0.0 1007.0 0.0 0.0 14.1 0.0
22/02/21 04:57 14.1 98 13.8 0.0 0.0 0 0.0 0.0 1007.0 0.0 0.0 14.1 0.0
22/02/21 04:58 14.1 98 13.8 0.0 0.0 0 0.0 0.0 1007.0 0.0 0.0 14.1 0.0
22/02/21 04:59 14.1 98 13.8 0.0 0.0 0 0.0 0.0 1007.0 0.0 0.0 14.1 0.0
22/02/21 05:03 14.1 98 13.8 0.0 0.0 0 0.0 0.0 1007.0 0.0 0.0 14.1 0.0
22/02/21 05:04 14.1 98 13.8 0.0 0.0 0 0.0 0.0 1007.0 0.0 0.0 14.1 0.0
22/02/21 05:05 14.1 98 13.8 0.0 0.0 0 0.0 0.0 1007.0 0.0 0.0 14.1 0.0
22/02/21 05:06 14.1 98 13.8 0.0 0.0 0 0.0 0.0 1007.0 0.0 0.0 14.1 0.0
22/02/21 05:07 14.1 98 13.8 0.0 0.0 0 0.0 0.0 1007.0 0.0 0.0 14.1 0.0
22/02/21 05:08 14.1 98 13.8 0.0 0.0 0 0.0 0.0 1008.0 0.0 0.0 14.1 0.0
22/02/21 05:09 14.1 98 13.8 0.0 0.0 0 0.0 0.0 1008.0 0.0 0.0 14.1 0.0
22/02/21 05:10 14.1 98 13.8 0.0 0.0 0 0.0 0.0 1008.0 0.0 0.0 14.1 0.0
22/02/21 05:11 14.0 98 13.7 0.0 0.0 0 0.0 0.0 1008.0 0.0 0.0 14.0 0.0
22/02/21 05:12 14.0 98 13.7 0.0 0.0 0 0.0 0.0 1008.0 0.0 0.0 14.0 0.0
22/02/21 05:13 14.0 98 13.7 0.0 0.0 0 0.0 0.0 1008.0 0.0 0.0 14.0 0.0
22/02/21 05:14 14.0 98 13.7 0.0 0.0 0 0.0 0.0 1008.0 0.0 0.0 14.0 0.0
22/02/21 05:15 13.9 98 13.6 0.0 0.0 0 0.0 0.0 1008.0 0.0 0.0 13.9 0.0
22/02/21 05:16 13.8 98 13.5 0.0 0.0 0 0.0 0.0 1008.0 0.0 0.0 13.8 0.0
22/02/21 05:17 13.8 98 13.5 0.0 0.0 0 0.0 0.0 1008.0 0.0 0.0 13.8 0.0
22/02/21 05:18 13.7 98 13.4 0.0 0.0 0 0.0 0.0 1008.0 0.0 0.0 13.7 0.0
22/02/21 05:19 13.7 98 13.4 0.0 0.0 0 0.0 0.0 1008.0 0.0 0.0 13.7 0.0
22/02/21 05:20 13.6 98 13.3 0.0 0.0 0 0.0 0.0 1008.0 0.0 0.0 13.6 0.0
22/02/21 05:21 13.6 98 13.3 0.0 0.0 0 0.0 0.0 1008.0 0.0 0.0 13.6 0.0
22/02/21 05:22 13.6 98 13.3 0.0 0.0 0 0.0 0.0 1008.0 0.0 0.0 13.6 0.0
22/02/21 05:23 13.5 98 13.2 0.0 0.0 0 0.0 0.0 1008.0 0.0 0.0 13.5 0.0
22/02/21 05:24 13.5 98 13.2 0.0 0.0 0 0.0 0.0 1008.0 0.0 0.0 13.5 0.0
22/02/21 05:27 13.4 98 13.1 0.0 0.0 0 0.0 0.0 1008.0 0.0 0.0 13.4 0.0
22/02/21 05:28 13.4 98 13.1 0.0 0.0 0 0.0 0.0 1008.0 0.0 0.0 13.4 0.0
22/02/21 05:29 13.3 98 13.0 0.0 0.0 0 0.0 0.0 1008.0 0.0 0.0 13.3 0.0
22/02/21 05:30 13.3 98 13.0 0.0 0.0 0 0.0 0.0 1008.0 0.0 0.0 13.3 0.0
22/02/21 05:31 13.3 98 13.0 0.0 0.0 0 0.0 0.0 1008.0 0.0 0.0 13.3 0.0
22/02/21 05:32 13.3 98 13.0 0.0 0.0 0 0.0 0.0 1008.0 0.0 0.0 13.3 0.0
22/02/21 05:33 13.2 98 12.9 0.0 0.0 0 0.0 0.0 1008.0 0.0 0.0 13.2 0.0
22/02/21 05:34 13.2 98 12.9 0.0 0.0 0 0.0 0.0 1008.0 0.0 0.0 13.2 0.0
22/02/21 05:35 13.2 98 12.9 0.0 0.0 0 0.0 0.0 1008.0 0.0 0.0 13.2 0.0
22/02/21 05:36 13.2 98 12.9 0.0 0.0 0 0.0 0.0 1008.0 0.0 0.0 13.2 0.0
22/02/21 05:37 13.2 98 12.9 0.0 0.0 0 0.0 0.0 1008.0 0.0 0.0 13.2 0.0
22/02/21 05:38 13.2 98 12.9 0.0 0.0 0 0.0 0.0 1008.0 0.0 0.0 13.2 0.0
22/02/21 05:39 13.2 98 12.9 0.0 0.0 0 0.0 0.0 1008.0 0.0 0.0 13.2 0.0
22/02/21 05:40 13.3 98 13.0 0.0 0.0 0 0.0 0.0 1008.0 0.0 0.0 13.3 0.0
22/02/21 05:41 13.3 98 13.0 0.0 0.0 0 0.0 0.0 1008.0 0.0 0.0 13.3 0.0
22/02/21 05:42 13.3 98 13.0 0.0 0.0 0 0.0 0.0 1008.0 0.0 0.0 13.3 0.0
22/02/21 05:43 13.3 98 13.0 0.0 0.0 0 0.0 0.0 1008.0 0.0 0.0 13.3 0.0
22/02/21 05:44 13.3 98 13.0 0.0 0.0 0 0.0 0.0 1008.0 0.0 0.0 13.3 0.0
22/02/21 05:45 13.3 98 13.0 0.0 0.0 0 0.0 0.0 1008.0 0.0 0.0 13.3 0.0
22/02/21 05:46 13.4 98 13.1 0.0 0.0 0 0.0 0.0 1008.0 0.0 0.0 13.4 0.0
22/02/21 05:47 13.4 98 13.1 0.0 0.0 0 0.0 0.0 1008.0 0.0 0.0 13.4 0.0
22/02/21 05:48 13.5 98 13.2 0.0 0.0 0 0.0 0.0 1008.0 0.0 0.0 13.5 0.0
22/02/21 05:49 13.5 98 13.2 0.0 0.0 0 0.0 0.0 1008.0 0.0 0.0 13.5 0.0
22/02/21 05:52 13.6 98 13.3 0.0 0.0 0 0.0 0.0 1008.0 0.0 0.0 13.6 0.0
22/02/21 05:53 13.6 98 13.3 0.0 0.0 0 0.0 0.0 1008.0 0.0 0.0 13.6 0.0
22/02/21 05:54 13.6 98 13.3 0.0 0.0 0 0.0 0.0 1008.0 0.0 0.0 13.6 0.0
22/02/21 05:55 13.6 98 13.3 0.0 0.0 0 0.0 0.0 1008.0 0.0 0.0 13.6 0.0
22/02/21 05:56 13.6 98 13.3 0.0 0.0 0 0.0 0.0 1008.0 0.0 0.0 13.6 0.0
22/02/21 05:57 13.5 98 13.2 0.0 0.0 0 0.0 0.0 1008.0 0.0 0.0 13.5 0.0
22/02/21 05:58 13.5 98 13.2 0.0 0.0 0 0.0 0.0 1008.0 0.0 0.0 13.5 0.0
22/02/21 05:59 13.5 98 13.2 0.0 0.0 0 0.0 0.0 1008.0 0.0 0.0 13.5 0.0
22/02/21 06:00 13.5 98 13.2 0.0 0.0 0 0.0 0.0 1008.0 0.0 0.0 13.5 0.0
22/02/21 06:01 13.5 98 13.2 0.0 0.0 0 0.0 0.0 1008.0 0.0 0.0 13.5 0.0
22/02/21 06:02 13.5 98 13.2 0.0 0.0 0 0.0 0.0 1008.0 0.0 0.0 13.5 0.0
22/02/21 06:03 13.4 98 13.1 0.0 0.0 0 0.0 0.0 1008.0 0.0 0.0 13.4 0.0
22/02/21 06:04 13.4 98 13.1 0.0 0.0 0 0.0 0.0 1008.0 0.0 0.0 13.4 0.0
22/02/21 06:05 13.5 98 13.2 0.0 0.0 0 0.0 0.0 1008.0 0.0 0.0 13.5 0.0
22/02/21 06:06 13.5 98 13.2 0.0 0.0 0 0.0 0.0 1008.0 0.0 0.0 13.5 0.0
22/02/21 06:07 13.5 98 13.2 0.0 0.0 0 0.0 0.0 1008.0 0.0 0.0 13.5 0.0
22/02/21 06:08 13.4 98 13.1 0.0 0.0 0 0.0 0.0 1008.0 0.0 0.0 13.4 0.0
22/02/21 06:09 13.4 98 13.1 0.0 0.0 0 0.0 0.0 1008.0 0.0 0.0 13.4 0.0
22/02/21 06:10 13.4 98 13.1 0.0 0.0 0 0.0 0.0 1008.0 0.0 0.0 13.4 0.0
22/02/21 06:11 13.4 98 13.1 0.0 0.0 0 0.0 0.0 1008.0 0.0 0.0 13.4 0.0
22/02/21 06:12 13.4 98 13.1 0.0 0.0 0 0.0 0.0 1008.0 0.0 0.0 13.4 0.0
22/02/21 06:13 13.4 98 13.1 0.0 0.0 0 0.0 0.0 1008.0 0.0 0.0 13.4 0.0
22/02/21 06:14 13.4 98 13.1 0.0 0.0 0 0.0 0.0 1008.0 0.0 0.0 13.4 0.0
22/02/21 06:18 13.5 98 13.2 0.0 0.0 0 0.0 0.0 1008.0 0.0 0.0 13.5 0.0
22/02/21 06:19 13.5 98 13.2 0.0 0.0 0 0.0 0.0 1008.0 0.0 0.0 13.5 0.0
22/02/21 06:20 13.5 98 13.2 0.0 0.0 0 0.0 0.0 1008.0 0.0 0.0 13.5 0.0
22/02/21 06:21 13.5 98 13.2 0.0 0.0 0 0.0 0.0 1008.0 0.0 0.0 13.5 0.0
22/02/21 06:22 13.6 98 13.3 0.0 0.0 0 0.0 0.0 1008.0 0.0 0.0 13.6 0.0
22/02/21 06:23 13.6 98 13.3 0.0 0.0 0 0.0 0.0 1008.0 0.0 0.0 13.6 0.0
22/02/21 06:24 13.6 98 13.3 0.0 0.0 0 0.0 0.0 1008.0 0.0 0.0 13.6 0.0
22/02/21 06:25 13.6 98 13.3 0.0 0.0 0 0.0 0.0 1008.0 0.0 0.0 13.6 0.0
22/02/21 06:26 13.7 98 13.4 0.0 0.0 0 0.0 0.0 1008.0 0.0 0.0 13.7 0.0
22/02/21 06:27 13.7 98 13.4 0.0 0.0 0 0.0 0.0 1008.0 0.0 0.0 13.7 0.0
22/02/21 06:28 13.7 98 13.4 0.0 0.0 0 0.0 0.0 1008.0 0.0 0.0 13.7 0.0
22/02/21 06:29 13.7 98 13.4 0.0 0.0 0 0.0 0.0 1008.0 0.0 0.0 13.7 0.0
22/02/21 06:30 13.7 98 13.4 0.0 0.0 0 0.0 0.0 1008.0 0.0 0.0 13.7 0.0
22/02/21 06:31 13.7 98 13.4 0.0 0.0 0 0.0 0.0 1008.0 0.0 0.0 13.7 0.0
22/02/21 06:32 13.8 98 13.5 0.0 0.0 0 0.0 0.0 1008.0 0.0 0.0 13.8 0.0
22/02/21 06:33 13.8 98 13.5 0.0 0.0 0 0.0 0.0 1008.0 0.0 0.0 13.8 0.0
22/02/21 06:34 13.8 98 13.5 0.0 0.0 0 0.0 0.0 1008.0 0.0 0.0 13.8 0.0
22/02/21 06:35 13.8 98 13.5 0.0 0.0 0 0.0 0.0 1008.0 0.0 0.0 13.8 0.0
22/02/21 06:36 13.8 98 13.5 0.0 0.0 0 0.0 0.0 1008.0 0.0 0.0 13.8 0.0
22/02/21 06:37 13.8 98 13.5 0.0 0.0 0 0.0 0.0 1008.0 0.0 0.0 13.8 0.0
22/02/21 06:38 13.8 98 13.5 0.0 0.0 0 0.0 0.0 1008.0 0.0 0.0 13.8 0.0
22/02/21 06:39 13.9 98 13.6 0.0 0.0 0 0.0 0.0 1008.0 0.0 0.0 13.9 0.0
22/02/21 06:40 13.9 98 13.6 0.0 0.0 0 0.0 0.0 1008.0 0.0 0.0 13.9 0.0
22/02/21 06:42 13.9 98 13.6 0.0 0.0 0 0.0 0.0 1008.0 0.0 0.0 13.9 0.0
22/02/21 06:43 13.9 98 13.6 0.0 0.0 0 0.0 0.0 1008.0 0.0 0.0 13.9 0.0
22/02/21 06:44 14.0 98 13.7 0.0 0.0 0 0.0 0.0 1008.0 0.0 0.0 14.0 0.0
22/02/21 06:45 14.0 98 13.7 0.0 0.0 0 0.0 0.0 1008.0 0.0 0.0 14.0 0.0
22/02/21 06:46 14.0 98 13.7 0.0 0.0 0 0.0 0.0 1008.0 0.0 0.0 14.0 0.0
22/02/21 06:47 14.0 98 13.7 0.0 0.0 0 0.0 0.0 1008.0 0.0 0.0 14.0 0.0
22/02/21 06:48 14.0 98 13.7 0.0 0.0 0 0.0 0.0 1008.0 0.0 0.0 14.0 0.0
22/02/21 06:49 14.0 98 13.7 0.0 0.0 0 0.0 0.0 1008.0 0.0 0.0 14.0 0.0
22/02/21 06:50 14.0 98 13.7 0.0 0.0 0 0.0 0.0 1008.0 0.0 0.0 14.0 0.0
22/02/21 06:51 14.0 98 13.7 0.0 0.0 0 0.0 0.0 1008.0 0.0 0.0 14.0 0.0
22/02/21 06:52 14.0 98 13.7 0.0 0.0 0 0.0 0.0 1008.0 0.0 0.0 14.0 0.0
22/02/21 06:53 14.0 98 13.7 0.0 0.0 0 0.0 0.0 1009.0 0.0 0.0 14.0 0.0
22/02/21 06:54 14.0 98 13.7 0.0 0.0 0 0.0 0.0 1009.0 0.0 0.0 14.0 0.0
22/02/21 06:55 14.0 98 13.7 0.0 0.0 0 0.0 0.0 1009.0 0.0 0.0 14.0 0.0
22/02/21 06:56 14.0 98 13.7 0.0 0.0 0 0.0 0.0 1009.0 0.0 0.0 14.0 0.0
22/02/21 06:57 14.0 98 13.7 0.0 0.0 0 0.0 0.0 1009.0 0.0 0.0 14.0 0.0
22/02/21 06:58 14.0 98 13.7 0.0 0.0 0 0.0 0.0 1009.0 0.0 0.0 14.0 0.0
22/02/21 06:59 14.0 98 13.7 0.0 0.0 0 0.0 0.0 1009.0 0.0 0.0 14.0 0.0
22/02/21 07:00 14.0 98 13.7 0.0 0.0 0 0.0 0.0 1009.0 0.0 0.0 14.0 0.0
22/02/21 07:01 14.0 98 13.7 0.0 0.0 0 0.0 0.0 1009.0 0.0 0.0 14.0 0.0
22/02/21 07:02 14.0 98 13.7 0.0 0.0 0 0.0 0.0 1009.0 0.0 0.0 14.0 0.0
22/02/21 07:03 14.0 98 13.7 0.0 0.0 0 0.0 0.0 1009.0 0.0 0.0 14.0 0.0
22/02/21 07:04 14.0 98 13.7 0.0 0.0 0 0.0 0.0 1009.0 0.0 0.0 14.0 0.0
22/02/21 07:05 14.0 98 13.7 0.0 0.0 0 0.0 0.0 1009.0 0.0 0.0 14.0 0.0
22/02/21 07:07 14.1 98 13.8 0.0 0.0 0 0.0 0.0 1009.0 0.0 0.0 14.1 0.0
22/02/21 07:08 14.1 98 13.8 0.0 0.0 0 0.0 0.0 1009.0 0.0 0.0 14.1 0.0
22/02/21 07:09 14.1 98 13.8 0.0 0.0 0 0.0 0.0 1009.0 0.0 0.0 14.1 0.0
22/02/21 07:10 14.1 98 13.8 0.0 0.0 0 0.0 0.0 1009.0 0.0 0.0 14.1 0.0
22/02/21 07:11 14.1 98 13.8 0.0 0.0 0 0.0 0.0 1009.0 0.0 0.0 14.1 0.0
22/02/21 07:12 14.2 98 13.9 0.0 0.0 0 0.0 0.0 1009.0 0.0 0.0 14.2 0.0
22/02/21 07:13 14.2 98 13.9 0.0 0.0 0 0.0 0.0 1009.0 0.0 0.0 14.2 0.0
22/02/21 07:14 14.2 98 13.9 0.0 0.0 0 0.0 0.0 1009.0 0.0 0.0 14.2 0.0
22/02/21 07:15 14.2 98 13.9 0.0 0.0 0 0.0 0.0 1009.0 0.0 0.0 14.2 0.0
22/02/21 07:16 14.2 98 13.9 0.0 0.0 0 0.0 0.0 1009.0 0.0 0.0 14.2 0.0
22/02/21 07:17 14.2 98 13.9 0.0 0.0 0 0.0 0.0 1009.0 0.0 0.0 14.2 0.0
22/02/21 07:18 14.3 98 14.0 0.0 0.0 0 0.0 0.0 1009.0 0.0 0.0 14.3 0.0
22/02/21 07:19 14.3 98 14.0 0.0 0.0 0 0.0 0.0 1009.0 0.0 0.0 14.3 0.0
22/02/21 07:20 14.3 98 14.0 0.0 0.0 0 0.0 0.0 1009.0 0.0 0.0 14.3 0.0
22/02/21 07:21 14.3 98 14.0 0.0 0.0 0 0.0 0.0 1009.0 0.0 0.0 14.3 0.0
22/02/21 07:22 14.3 98 14.0 0.0 0.0 0 0.0 0.0 1009.0 0.0 0.0 14.3 0.0
22/02/21 07:23 14.4 98 14.1 0.0 0.0 0 0.0 0.0 1009.0 0.0 0.0 14.4 0.0
22/02/21 07:24 14.6 98 14.3 0.0 0.0 0 0.0 0.0 1009.0 0.0 0.0 14.6 0.0
22/02/21 07:25 15.0 98 14.7 0.0 0.0 0 0.0 0.0 1009.0 0.0 0.0 15.0 0.0
22/02/21 07:26 15.5 98 15.2 0.0 0.0 0 0.0 0.0 1009.0 0.0 0.0 15.5 0.0
22/02/21 07:27 16.3 98 16.0 0.0 0.0 0 0.0 0.0 1009.0 0.0 0.0 16.3 0.0
22/02/21 07:28 16.6 98 16.3 0.0 0.0 0 0.0 0.0 1009.0 0.0 0.0 16.6 0.0
22/02/21 07:29 17.0 98 16.7 0.0 0.0 0 0.0 0.0 1009.0 0.0 0.0 17.0 0.0
22/02/21 07:33 18.0 98 17.7 0.0 0.0 0 0.0 0.0 1009.0 0.0 0.0 18.0 0.0
22/02/21 07:34 18.5 98 18.2 0.0 0.0 0 0.0 0.0 1009.0 0.0 0.0 18.5 0.0
22/02/21 07:35 18.7 98 18.4 0.0 0.0 0 0.0 0.0 1009.0 0.0 0.0 18.7 0.0
22/02/21 07:36 18.8 98 18.5 0.0 0.0 0 0.0 0.0 1009.0 0.0 0.0 18.8 0.0
22/02/21 07:37 19.0 97 18.5 0.0 0.0 0 0.0 0.0 1009.0 0.0 0.0 19.0 0.0
22/02/21 07:38 19.1 96 18.4 0.0 0.0 0 0.0 0.0 1009.0 0.0 0.0 19.1 0.0
22/02/21 07:39 19.2 96 18.5 0.0 0.0 0 0.0 0.0 1009.0 0.0 0.0 19.2 0.0
22/02/21 07:40 19.3 95 18.5 0.0 0.0 0 0.0 0.0 1009.0 0.0 0.0 19.3 0.0
22/02/21 07:41 19.3 94 18.3 0.0 0.0 0 0.0 0.0 1009.0 0.0 0.0 19.3 0.0
22/02/21 07:42 19.5 93 18.3 0.0 0.0 0 0.0 0.0 1009.0 0.0 0.0 19.5 0.0
22/02/21 07:43 19.6 93 18.4 0.0 0.0 0 0.0 0.0 1009.0 0.0 0.0 19.6 0.0
22/02/21 07:44 19.7 93 18.5 0.0 0.0 0 0.0 0.0 1009.0 0.0 0.0 19.7 0.0
22/02/21 07:45 19.8 92 18.5 0.0 0.0 0 0.0 0.0 1009.0 0.0 0.0 19.8 0.0
22/02/21 07:46 19.9 92 18.6 0.0 0.0 0 0.0 0.0 1009.0 0.0 0.0 19.9 0.0
22/02/21 07:47 19.9 91 18.4 0.0 0.0 0 0.0 0.0 1009.0 0.0 0.0 19.9 0.0
22/02/21 07:48 19.9 91 18.4 0.0 0.0 0 0.0 0.0 1009.0 0.0 0.0 19.9 0.0
22/02/21 07:49 20.1 90 18.4 0.0 0.0 0 0.0 0.0 1009.0 0.0 0.0 20.1 0.0
22/02/21 07:50 20.1 90 18.4 0.0 0.0 0 0.0 0.0 1009.0 0.0 0.0 20.1 0.0
22/02/21 07:51 20.2 90 18.5 0.0 0.0 0 0.0 0.0 1009.0 0.0 0.0 20.2 0.0
22/02/21 07:52 20.2 89 18.3 0.0 0.0 0 0.0 0.0 1009.0 0.0 0.0 20.2 0.0
22/02/21 07:53 20.3 89 18.4 0.0 0.0 0 0.0 0.0 1010.0 0.0 0.0 20.3 0.0
22/02/21 07:54 20.3 89 18.4 0.0 0.0 0 0.0 0.0 1010.0 0.0 0.0 20.3 0.0
22/02/21 07:57 20.6 89 18.7 0.0 0.0 0 0.0 0.0 1010.0 0.0 0.0 20.6 0.0
22/02/21 07:58 20.6 89 18.7 0.0 0.0 0 0.0 0.0 1010.0 0.0 0.0 20.6 0.0
22/02/21 07:59 20.7 89 18.8 0.0 0.0 0 0.0 0.0 1010.0 0.0 0.0 20.7 0.0
22/02/21 08:00 20.8 89 18.9 0.0 0.0 0 0.0 0.0 1010.0 0.0 0.0 20.8 0.0
22/02/21 08:01 20.8 89 18.9 0.0 0.0 0 0.0 0.0 1010.0 0.0 0.0 20.8 0.0
22/02/21 08:02 20.8 88 18.7 0.0 0.0 0 0.0 0.0 1010.0 0.0 0.0 20.8 0.0
22/02/21 08:03 20.8 88 18.7 0.0 0.0 0 0.0 0.0 1010.0 0.0 0.0 20.8 0.0
22/02/21 08:04 20.9 88 18.8 0.0 0.0 0 0.0 0.0 1010.0 0.0 0.0 20.9 0.0
22/02/21 08:05 20.9 88 18.8 0.0 0.0 0 0.0 0.0 1010.0 0.0 0.0 20.9 0.0
22/02/21 08:06 20.9 88 18.8 0.0 0.0 0 0.0 0.0 1010.0 0.0 0.0 20.9 0.0
22/02/21 08:07 21.0 88 18.9 0.0 0.0 0 0.0 0.0 1010.0 0.0 0.0 21.0 0.0
22/02/21 08:08 21.0 88 18.9 0.0 0.0 0 0.0 0.0 1010.0 0.0 0.0 21.0 0.0
22/02/21 08:09 21.0 88 18.9 0.0 0.0 0 0.0 0.0 1010.0 0.0 0.0 21.0 0.0
22/02/21 08:10 21.0 87 18.8 0.0 0.0 0 0.0 0.0 1010.0 0.0 0.0 21.0 0.0
22/02/21 08:11 21.1 87 18.9 0.0 0.0 0 0.0 0.0 1010.0 0.0 0.0 21.1 0.0
22/02/21 08:12 21.1 87 18.9 0.0 0.0 0 0.0 0.0 1010.0 0.0 0.0 21.1 0.0
22/02/21 08:13 21.2 87 18.9 0.0 0.0 0 0.0 0.0 1010.0 0.0 0.0 21.2 0.0
22/02/21 08:14 21.2 86 18.8 0.0 0.0 0 0.0 0.0 1010.0 0.0 0.0 21.2 0.0
22/02/21 08:15 21.2 86 18.8 0.0 0.0 0 0.0 0.0 1010.0 0.0 0.0 21.2 0.0
22/02/21 08:16 21.2 86 18.8 0.0 0.0 0 0.0 0.0 1010.0 0.0 0.0 21.2 0.0
22/02/21 08:17 21.2 86 18.8 0.0 0.0 0 0.0 0.0 1010.0 0.0 0.0 21.2 0.0
22/02/21 08:18 21.2 86 18.8 0.0 0.0 0 0.0 0.0 1010.0 0.0 0.0 21.2 0.0
22/02/21 08:19 21.2 86 18.8 0.0 0.0 0 0.0 0.0 1010.0 0.0 0.0 21.2 0.0
22/02/21 08:37 22.0 79 18.2 0.0 0.0 0 0.0 0.0 1009.0 0.0 0.0 22.0 0.0
22/02/21 08:38 22.0 79 18.2 0.0 0.0 0 0.0 0.0 1008.0 0.0 0.0 22.0 0.0
22/02/21 08:39 22.0 79 18.2 0.0 0.0 0 0.0 0.0 1008.0 0.0 0.0 22.0 0.0
22/02/21 08:40 22.0 79 18.2 0.0 0.0 0 0.0 0.0 1008.0 0.0 0.0 22.0 0.0
22/02/21 08:41 22.0 79 18.2 0.0 0.0 0 0.0 0.0 1008.0 0.0 0.0 22.0 0.0
22/02/21 08:42 22.0 79 18.2 0.0 0.0 0 0.0 0.0 1008.0 0.0 0.0 22.0 0.0
22/02/21 08:43 22.0 79 18.2 0.0 0.0 0 0.0 0.0 1008.0 0.0 0.0 22.0 0.0
22/02/21 08:44 22.0 79 18.2 0.0 0.0 0 0.0 0.0 1008.0 0.0 0.0 22.0 0.0
22/02/21 09:33 27.5 56 17.9 0.0 0.0 0 0.0 0.0 1009.0 0.0 0.0 28.4 0.0
22/02/21 09:34 27.6 57 18.3 0.0 0.0 0 0.0 0.0 1009.0 0.0 0.0 28.6 0.0
22/02/21 09:35 27.6 55 17.7 0.0 0.0 0 0.0 0.0 1009.0 0.0 0.0 28.4 0.0
22/02/21 09:44 28.3 52 17.5 0.0 0.0 0 0.0 0.0 1009.0 0.0 0.0 29.0 0.0
22/02/21 09:45 28.3 52 17.5 0.0 0.0 0 0.0 0.0 1009.0 0.0 0.0 29.0 0.0
22/02/21 09:46 28.3 52 17.5 0.0 0.0 0 0.0 0.0 1009.0 0.0 0.0 29.0 0.0
22/02/21 09:47 28.3 52 17.5 0.0 0.0 0 0.0 0.0 1009.0 0.0 0.0 29.0 0.0
22/02/21 09:48 28.3 52 17.5 0.0 0.0 0 0.0 0.0 1009.0 0.0 0.0 29.0 0.0
22/02/21 09:49 28.3 52 17.5 0.0 0.0 0 0.0 0.0 1009.0 0.0 0.0 29.0 0.0
22/02/21 09:50 28.3 52 17.5 0.0 0.0 0 0.0 0.0 1009.0 0.0 0.0 29.0 0.0
22/02/21 09:51 28.3 52 17.5 0.0 0.0 0 0.0 0.0 1009.0 0.0 0.0 29.0 0.0
22/02/21 09:52 28.3 52 17.5 0.0 0.0 0 0.0 0.0 1009.0 0.0 0.0 29.0 0.0
22/02/21 09:53 28.3 52 17.5 0.0 0.0 0 0.0 0.0 1009.0 0.0 0.0 29.0 0.0
22/02/21 09:54 28.3 52 17.5 0.0 0.0 0 0.0 0.0 1009.0 0.0 0.0 29.0 0.0
22/02/21 09:55 28.3 52 17.5 0.0 0.0 0 0.0 0.0 1009.0 0.0 0.0 29.0 0.0
22/02/21 09:56 28.3 52 17.5 0.0 0.0 0 0.0 0.0 1009.0 0.0 0.0 29.0 0.0
22/02/21 09:57 28.3 52 17.5 0.0 0.0 0 0.0 0.0 1009.0 0.0 0.0 29.0 0.0
22/02/21 09:58 29.0 46 16.2 0.0 0.0 0 0.0 0.0 1009.0 0.0 0.0 29.2 0.0
22/02/21 09:59 28.9 45 15.8 0.0 0.0 0 0.0 0.0 1009.0 0.0 0.0 29.0 0.0
22/02/21 10:03 28.7 47 16.3 0.0 0.0 0 0.0 0.0 1009.0 0.0 0.0 29.0 0.0
22/02/21 10:04 28.7 47 16.3 0.0 0.0 0 0.0 0.0 1009.0 0.0 0.0 29.0 0.0
22/02/21 10:05 28.7 47 16.3 0.0 0.0 0 0.0 0.0 1009.0 0.0 0.0 29.0 0.0
22/02/21 10:06 29.0 45 15.9 0.0 0.0 0 0.0 0.0 1009.0 0.0 0.0 29.1 0.0
22/02/21 10:07 29.0 45 15.9 0.0 0.0 0 0.0 0.0 1009.0 0.0 0.0 29.1 0.0
22/02/21 10:08 29.3 47 16.8 0.0 0.0 0 0.0 0.0 1009.0 0.0 0.0 29.7 0.0
22/02/21 10:09 29.4 47 16.9 0.0 0.0 0 0.0 0.0 1009.0 0.0 0.0 29.8 0.0
22/02/21 10:10 29.4 47 16.9 0.0 0.0 0 0.0 0.0 1009.0 0.0 0.0 29.8 0.0
22/02/21 10:11 29.4 45 16.2 0.0 0.0 0 0.0 0.0 1009.0 0.0 0.0 29.6 0.0
22/02/21 10:12 29.3 45 16.1 0.0 0.0 0 0.0 0.0 1009.0 0.0 0.0 29.4 0.0
22/02/21 10:13 29.2 45 16.0 0.0 0.0 0 0.0 0.0 1009.0 0.0 0.0 29.3 0.0
22/02/21 10:14 29.4 46 16.6 0.0 0.0 0 0.0 0.0 1009.0 0.0 0.0 29.7 0.0
22/02/21 10:15 29.3 44 15.8 0.0 0.0 0 0.0 0.0 1009.0 0.0 0.0 29.3 0.0
22/02/21 10:16 29.3 44 15.8 0.0 0.0 0 0.0 0.0 1009.0 0.0 0.0 29.3 0.0
22/02/21 10:17 29.3 43 15.4 0.0 0.0 0 0.0 0.0 1009.0 0.0 0.0 29.2 0.0
22/02/21 10:18 29.2 44 15.7 0.0 0.0 0 0.0 0.0 1009.0 0.0 0.0 29.2 0.0
22/02/21 10:19 29.2 44 15.7 0.0 0.0 0 0.0 0.0 1009.0 0.0 0.0 29.2 0.0
22/02/21 10:20 29.2 44 15.7 0.0 0.0 0 0.0 0.0 1009.0 0.0 0.0 29.2 0.0
22/02/21 10:21 29.2 44 15.7 0.0 0.0 0 0.0 0.0 1009.0 0.0 0.0 29.2 0.0
22/02/21 10:22 29.0 43 15.2 0.0 0.0 0 0.0 0.0 1009.0 0.0 0.0 28.9 0.0
22/02/21 10:23 29.1 43 15.2 0.0 0.0 0 0.0 0.0 1009.0 0.0 0.0 29.0 0.0
22/02/21 10:24 29.1 43 15.2 0.0 0.0 0 0.0 0.0 1009.0 0.0 0.0 29.0 0.0
22/02/21 10:28 29.6 43 15.7 0.0 0.0 0 0.0 0.0 1009.0 0.0 0.0 29.6 0.0
22/02/21 10:29 29.7 43 15.8 0.0 0.0 0 0.0 0.0 1009.0 0.0 0.0 29.7 0.0
22/02/21 10:30 29.6 42 15.3 0.0 0.0 0 0.0 0.0 1009.0 0.0 0.0 29.5 0.0
22/02/21 10:31 29.7 42 15.4 0.0 0.0 0 0.0 0.0 1009.0 0.0 0.0 29.6 0.0
22/02/21 10:32 29.7 42 15.4 0.0 0.0 0 0.0 0.0 1009.0 0.0 0.0 29.6 0.0
22/02/21 10:33 29.8 42 15.5 0.0 0.0 0 0.0 0.0 1009.0 0.0 0.0 29.7 0.0
22/02/21 10:34 30.0 42 15.7 0.0 0.0 0 0.0 0.0 1009.0 0.0 0.0 29.9 0.0
22/02/21 10:35 30.1 41 15.4 0.0 0.0 0 0.0 0.0 1009.0 0.0 0.0 29.9 0.0
22/02/21 10:36 30.1 41 15.4 0.0 0.0 0 0.0 0.0 1009.0 0.0 0.0 29.9 0.0
22/02/21 10:37 30.1 40 15.0 0.0 0.0 0 0.0 0.0 1009.0 0.0 0.0 29.8 0.0
22/02/21 10:38 30.1 40 15.0 0.0 0.0 0 0.0 0.0 1009.0 0.0 0.0 29.8 0.0
22/02/21 10:39 30.1 40 15.0 0.0 0.0 0 0.0 0.0 1009.0 0.0 0.0 29.8 0.0
22/02/21 10:40 30.1 40 15.0 0.0 0.0 0 0.0 0.0 1009.0 0.0 0.0 29.8 0.0
22/02/21 10:41 30.0 40 14.9 0.0 0.0 0 0.0 0.0 1009.0 0.0 0.0 29.7 0.0
22/02/21 10:42 30.0 40 14.9 0.0 0.0 0 0.0 0.0 1009.0 0.0 0.0 29.7 0.0
22/02/21 10:43 30.1 40 15.0 0.0 0.0 0 0.0 0.0 1009.0 0.0 0.0 29.8 0.0
22/02/21 10:44 30.1 40 15.0 0.0 0.0 0 0.0 0.0 1009.0 0.0 0.0 29.8 0.0
22/02/21 10:45 30.2 40 15.1 0.0 0.0 0 0.0 0.0 1009.0 0.0 0.0 29.9 0.0
22/02/21 10:46 30.3 40 15.2 0.0 0.0 0 0.0 0.0 1009.0 0.0 0.0 30.0 0.0
22/02/21 10:47 30.3 41 15.6 0.0 0.0 0 0.0 0.0 1009.0 0.0 0.0 30.2 0.0
22/02/21 10:48 30.3 41 15.6 0.0 0.0 0 0.0 0.0 1009.0 0.0 0.0 30.2 0.0
22/02/21 10:49 30.2 41 15.5 0.0 0.0 0 0.0 0.0 1009.0 0.0 0.0 30.0 0.0
22/02/21 10:50 30.3 41 15.6 0.0 0.0 0 0.0 0.0 1009.0 0.0 0.0 30.2 0.0
22/02/21 10:53 30.6 42 16.2 0.0 0.0 0 0.0 0.0 1009.0 0.0 0.0 30.7 0.0
22/02/21 10:54 30.6 42 16.2 0.0 0.0 0 0.0 0.0 1009.0 0.0 0.0 30.7 0.0
22/02/21 10:55 30.6 42 16.2 0.0 0.0 0 0.0 0.0 1009.0 0.0 0.0 30.7 0.0
22/02/21 10:56 30.6 42 16.2 0.0 0.0 0 0.0 0.0 1009.0 0.0 0.0 30.7 0.0
22/02/21 10:57 30.6 40 15.5 0.0 0.0 0 0.0 0.0 1009.0 0.0 0.0 30.4 0.0
22/02/21 10:58 30.6 40 15.5 0.0 0.0 0 0.0 0.0 1009.0 0.0 0.0 30.4 0.0
22/02/21 10:59 30.6 40 15.5 0.0 0.0 0 0.0 0.0 1009.0 0.0 0.0 30.4 0.0
22/02/21 11:00 30.6 40 15.5 0.0 0.0 0 0.0 0.0 1009.0 0.0 0.0 30.4 0.0
22/02/21 11:01 30.6 39 15.1 0.0 0.0 0 0.0 0.0 1009.0 0.0 0.0 30.3 0.0
22/02/21 11:02 30.6 39 15.1 0.0 0.0 0 0.0 0.0 1009.0 0.0 0.0 30.3 0.0
22/02/21 11:03 30.6 39 15.1 0.0 0.0 0 0.0 0.0 1009.0 0.0 0.0 30.3 0.0
22/02/21 11:04 30.6 39 15.1 0.0 0.0 0 0.0 0.0 1009.0 0.0 0.0 30.3 0.0
22/02/21 11:05 30.3 39 14.8 0.0 0.0 0 0.0 0.0 1009.0 0.0 0.0 29.9 0.0
22/02/21 11:06 30.3 39 14.8 0.0 0.0 0 0.0 0.0 1009.0 0.0 0.0 29.9 0.0
22/02/21 11:07 30.5 39 15.0 0.0 0.0 0 0.0 0.0 1009.0 0.0 0.0 30.2 0.0
22/02/21 11:08 30.5 39 15.0 0.0 0.0 0 0.0 0.0 1009.0 0.0 0.0 30.2 0.0
22/02/21 11:09 30.7 39 15.2 0.0 0.0 0 0.0 0.0 1009.0 0.0 0.0 30.4 0.0
22/02/21 11:10 30.8 38 14.8 0.0 0.0 0 0.0 0.0 1009.0 0.0 0.0 30.4 0.0
22/02/21 11:11 30.8 38 14.8 0.0 0.0 0 0.0 0.0 1009.0 0.0 0.0 30.4 0.0
22/02/21 11:12 30.8 37 14.4 0.0 0.0 0 0.0 0.0 1009.0 0.0 0.0 30.3 0.0
22/02/21 11:13 30.8 37 14.4 0.0 0.0 0 0.0 0.0 1009.0 0.0 0.0 30.3 0.0
22/02/21 11:14 30.8 38 14.8 0.0 0.0 0 0.0 0.0 1009.0 0.0 0.0 30.4 0.0
22/02/21 11:15 30.8 38 14.8 0.0 0.0 0 0.0 0.0 1009.0 0.0 0.0 30.4 0.0
22/02/21 11:17 30.7 38 14.8 0.0 0.0 0 0.0 0.0 1009.0 0.0 0.0 30.3 0.0
22/02/21 11:18 30.7 38 14.8 0.0 0.0 0 0.0 0.0 1009.0 0.0 0.0 30.3 0.0
22/02/21 11:43 31.0 36 14.2 0.0 0.0 0 0.0 0.0 1009.0 0.0 0.0 30.4 0.0
22/02/21 11:44 31.0 36 14.2 0.0 0.0 0 0.0 0.0 1009.0 0.0 0.0 30.4 0.0
22/02/21 11:45 31.0 36 14.2 0.0 0.0 0 0.0 0.0 1009.0 0.0 0.0 30.4 0.0
22/02/21 11:46 31.1 35 13.8 0.0 0.0 0 0.0 0.0 1009.0 0.0 0.0 30.4 0.0
22/02/21 11:47 31.2 36 14.4 0.0 0.0 0 0.0 0.0 1009.0 0.0 0.0 30.6 0.0
22/02/21 11:48 31.4 36 14.5 0.0 0.0 0 0.0 0.0 1009.0 0.0 0.0 30.9 0.0
22/02/21 11:49 31.5 35 14.2 0.0 0.0 0 0.0 0.0 1009.0 0.0 0.0 30.8 0.0
22/02/21 11:50 31.5 35 14.2 0.0 0.0 0 0.0 0.0 1009.0 0.0 0.0 30.8 0.0
22/02/21 11:51 31.5 34 13.7 0.0 0.0 0 0.0 0.0 1009.0 0.0 0.0 30.7 0.0
22/02/21 11:52 31.5 35 14.2 0.0 0.0 0 0.0 0.0 1009.0 0.0 0.0 30.8 0.0
22/02/21 11:53 31.5 34 13.7 0.0 0.0 0 0.0 0.0 1008.0 0.0 0.0 30.7 0.0
22/02/21 11:54 31.5 34 13.7 0.0 0.0 0 0.0 0.0 1008.0 0.0 0.0 30.7 0.0
22/02/21 11:55 31.6 34 13.8 0.0 0.0 0 0.0 0.0 1008.0 0.0 0.0 30.8 0.0
22/02/21 11:56 31.5 33 13.3 0.0 0.0 0 0.0 0.0 1008.0 0.0 0.0 30.6 0.0
22/02/21 11:57 31.5 33 13.3 0.0 0.0 0 0.0 0.0 1008.0 0.0 0.0 30.6 0.0
22/02/21 11:58 31.5 34 13.7 0.0 0.0 0 0.0 0.0 1008.0 0.0 0.0 30.7 0.0
22/02/21 11:59 31.8 34 14.0 0.0 0.0 0 0.0 0.0 1008.0 0.0 0.0 31.1 0.0
22/02/21 12:00 31.9 34 14.1 0.0 0.0 0 0.0 0.0 1008.0 0.0 0.0 31.2 0.0
22/02/21 12:01 32.0 34 14.2 0.0 0.0 0 0.0 0.0 1008.0 0.0 0.0 31.3 0.0
22/02/21 12:02 32.2 34 14.3 0.0 0.0 0 0.0 0.0 1008.0 0.0 0.0 31.6 0.0
22/02/21 12:03 32.3 34 14.4 0.0 0.0 0 0.0 0.0 1008.0 0.0 0.0 31.7 0.0
22/02/21 12:04 32.5 34 14.6 0.0 0.0 0 0.0 0.0 1008.0 0.0 0.0 32.0 0.0
22/02/21 12:05 32.6 35 15.1 0.0 0.0 0 0.0 0.0 1008.0 0.0 0.0 32.3 0.0
22/02/21 12:07 32.7 33 14.3 0.0 0.0 0 0.0 0.0 1008.0 0.0 0.0 32.1 0.0
22/02/21 12:08 32.7 34 14.8 0.0 0.0 0 0.0 0.0 1009.0 0.0 0.0 32.2 0.0
22/02/21 12:09 32.7 34 14.8 0.0 0.0 0 0.0 0.0 1009.0 0.0 0.0 32.2 0.0
22/02/21 12:10 32.6 33 14.2 0.0 0.0 0 0.0 0.0 1009.0 0.0 0.0 31.9 0.0
22/02/21 12:11 32.6 34 14.7 0.0 0.0 0 0.0 0.0 1009.0 0.0 0.0 32.1 0.0
22/02/21 12:12 32.4 33 14.1 0.0 0.0 0 0.0 0.0 1009.0 0.0 0.0 31.7 0.0
22/02/21 12:13 32.4 33 14.1 0.0 0.0 0 0.0 0.0 1009.0 0.0 0.0 31.7 0.0
22/02/21 12:32 33.2 30 13.3 0.0 0.0 0 0.0 0.0 1008.0 0.0 0.0 32.2 0.0
22/02/21 12:33 33.1 30 13.2 0.0 0.0 0 0.0 0.0 1008.0 0.0 0.0 32.1 0.0
22/02/21 12:34 33.0 30 13.1 0.0 0.0 0 0.0 0.0 1008.0 0.0 0.0 32.0 0.0
22/02/21 12:35 33.1 30 13.2 0.0 0.0 0 0.0 0.0 1008.0 0.0 0.0 32.1 0.0
22/02/21 12:36 33.1 30 13.2 0.0 0.0 0 0.0 0.0 1008.0 0.0 0.0 32.1 0.0
22/02/21 12:37 33.3 30 13.4 0.0 0.0 0 0.0 0.0 1008.0 0.0 0.0 32.4 0.0
22/02/21 12:38 33.3 30 13.4 0.0 0.0 0 0.0 0.0 1010.0 0.0 0.0 32.4 0.0
22/02/21 12:39 33.3 30 13.4 0.0 0.0 0 0.0 0.0 1010.0 0.0 0.0 32.4 0.0
22/02/21 12:40 33.3 30 13.4 0.0 0.0 0 0.0 0.0 1010.0 0.0 0.0 32.4 0.0
22/02/21 12:58 33.3 30 13.4 0.0 0.0 0 0.0 0.0 1009.0 0.0 0.0 32.4 0.0
22/02/21 12:59 33.3 30 13.4 0.0 0.0 0 0.0 0.0 1009.0 0.0 0.0 32.4 0.0
22/02/21 13:00 33.1 29 12.7 0.0 0.0 0 0.0 0.0 1009.0 0.0 0.0 32.0 0.0
22/02/21 13:01 33.0 29 12.6 0.0 0.0 0 0.0 0.0 1009.0 0.0 0.0 31.9 0.0
22/02/21 13:02 33.0 29 12.6 0.0 0.0 0 0.0 0.0 1009.0 0.0 0.0 31.9 0.0
22/02/21 13:03 33.0 29 12.6 0.0 0.0 0 0.0 0.0 1009.0 0.0 0.0 31.9 0.0
22/02/21 13:04 33.1 29 12.7 0.0 0.0 0 0.0 0.0 1009.0 0.0 0.0 32.0 0.0
22/02/21 13:05 33.0 29 12.6 0.0 0.0 0 0.0 0.0 1009.0 0.0 0.0 31.9 0.0
22/02/21 13:06 33.0 29 12.6 0.0 0.0 0 0.0 0.0 1009.0 0.0 0.0 31.9 0.0
22/02/21 13:07 33.2 30 13.3 0.0 0.0 0 0.0 0.0 1009.0 0.0 0.0 32.2 0.0
22/02/21 13:08 33.3 30 13.4 0.0 0.0 0 0.0 0.0 1009.0 0.0 0.0 32.4 0.0
22/02/21 13:09 33.3 30 13.4 0.0 0.0 0 0.0 0.0 1009.0 0.0 0.0 32.4 0.0
22/02/21 13:10 33.4 30 13.5 0.0 0.0 0 0.0 0.0 1009.0 0.0 0.0 32.5 0.0
22/02/21 13:11 33.4 30 13.5 0.0 0.0 0 0.0 0.0 1009.0 0.0 0.0 32.5 0.0
22/02/21 13:12 33.5 30 13.5 0.0 0.0 0 0.0 0.0 1009.0 0.0 0.0 32.6 0.0
22/02/21 13:13 33.4 29 12.9 0.0 0.0 0 0.0 0.0 1009.0 0.0 0.0 32.4 0.0
22/02/21 13:14 33.4 30 13.5 0.0 0.0 0 0.0 0.0 1009.0 0.0 0.0 32.5 0.0
22/02/21 13:15 33.5 30 13.5 0.0 0.0 0 0.0 0.0 1009.0 0.0 0.0 32.6 0.0
22/02/21 13:16 33.7 30 13.7 0.0 0.0 0 0.0 0.0 1009.0 0.0 0.0 32.9 0.0
22/02/21 13:17 33.8 30 13.8 0.0 0.0 0 0.0 0.0 1009.0 0.0 0.0 33.0 0.0
22/02/21 13:18 33.9 30 13.9 0.0 0.0 0 0.0 0.0 1009.0 0.0 0.0 33.2 0.0
22/02/21 13:19 33.9 30 13.9 0.0 0.0 0 0.0 0.0 1009.0 0.0 0.0 33.2 0.0
22/02/21 13:22 33.6 30 13.6 0.0 0.0 0 0.0 0.0 1009.0 0.0 0.0 32.8 0.0
22/02/21 13:23 33.6 30 13.6 0.0 0.0 0 0.0 0.0 1009.0 0.0 0.0 32.8 0.0
22/02/21 13:24 33.6 29 13.1 0.0 0.0 0 0.0 0.0 1009.0 0.0 0.0 32.6 0.0
22/02/21 13:25 33.5 30 13.5 0.0 0.0 0 0.0 0.0 1009.0 0.0 0.0 32.6 0.0
22/02/21 13:26 33.5 30 13.5 0.0 0.0 0 0.0 0.0 1009.0 0.0 0.0 32.6 0.0
22/02/21 13:27 33.6 30 13.6 0.0 0.0 0 0.0 0.0 1009.0 0.0 0.0 32.8 0.0
22/02/21 13:28 33.6 30 13.6 0.0 0.0 0 0.0 0.0 1009.0 0.0 0.0 32.8 0.0
22/02/21 13:29 33.5 29 13.0 0.0 0.0 0 0.0 0.0 1009.0 0.0 0.0 32.5 0.0
22/02/21 13:30 33.6 30 13.6 0.0 0.0 0 0.0 0.0 1009.0 0.0 0.0 32.8 0.0
22/02/21 13:31 33.8 30 13.8 0.0 0.0 0 0.0 0.0 1009.0 0.0 0.0 33.0 0.0
22/02/21 13:32 33.9 30 13.9 0.0 0.0 0 0.0 0.0 1009.0 0.0 0.0 33.2 0.0
22/02/21 13:33 34.0 30 14.0 0.0 0.0 0 0.0 0.0 1009.0 0.0 0.0 33.3 0.0
22/02/21 13:34 34.0 29 13.5 0.0 0.0 0 0.0 0.0 1009.0 0.0 0.0 33.1 0.0
22/02/21 13:35 33.9 29 13.4 0.0 0.0 0 0.0 0.0 1009.0 0.0 0.0 33.0 0.0
22/02/21 13:36 33.8 29 13.3 0.0 0.0 0 0.0 0.0 1009.0 0.0 0.0 32.9 0.0
22/02/21 13:37 33.8 30 13.8 0.0 0.0 0 0.0 0.0 1009.0 0.0 0.0 33.0 0.0
22/02/21 13:38 33.8 30 13.8 0.0 0.0 0 0.0 0.0 1009.0 0.0 0.0 33.0 0.0
22/02/21 13:39 33.9 30 13.9 0.0 0.0 0 0.0 0.0 1009.0 0.0 0.0 33.2 0.0
22/02/21 13:40 34.0 29 13.5 0.0 0.0 0 0.0 0.0 1009.0 0.0 0.0 33.1 0.0
22/02/21 13:41 34.1 30 14.1 0.0 0.0 0 0.0 0.0 1009.0 0.0 0.0 33.4 0.0
22/02/21 13:42 34.3 29 13.7 0.0 0.0 0 0.0 0.0 1009.0 0.0 0.0 33.5 0.0
22/02/21 13:43 34.4 30 14.3 0.0 0.0 0 0.0 0.0 1009.0 0.0 0.0 33.8 0.0
22/02/21 13:44 34.5 30 14.4 0.0 0.0 0 0.0 0.0 1009.0 0.0 0.0 34.0 0.0
22/02/21 13:45 34.6 29 14.0 0.0 0.0 0 0.0 0.0 1009.0 0.0 0.0 33.9 0.0
22/02/21 13:47 34.5 29 13.9 0.0 0.0 0 0.0 0.0 1009.0 0.0 0.0 33.8 0.0
22/02/21 13:48 34.6 29 14.0 0.0 0.0 0 0.0 0.0 1009.0 0.0 0.0 33.9 0.0
22/02/21 13:49 34.6 29 14.0 0.0 0.0 0 0.0 0.0 1009.0 0.0 0.0 33.9 0.0
22/02/21 13:50 34.7 29 14.1 0.0 0.0 0 0.0 0.0 1009.0 0.0 0.0 34.1 0.0
22/02/21 13:51 34.7 29 14.1 0.0 0.0 0 0.0 0.0 1009.0 0.0 0.0 34.1 0.0
22/02/21 13:52 34.8 29 14.1 0.0 0.0 0 0.0 0.0 1009.0 0.0 0.0 34.2 0.0
22/02/21 13:53 34.8 29 14.1 0.0 0.0 0 0.0 0.0 1009.0 0.0 0.0 34.2 0.0
22/02/21 13:54 34.8 29 14.1 0.0 0.0 0 0.0 0.0 1009.0 0.0 0.0 34.2 0.0
22/02/21 13:55 34.9 30 14.8 0.0 0.0 0 0.0 0.0 1009.0 0.0 0.0 34.5 0.0
22/02/21 13:56 34.9 29 14.2 0.0 0.0 0 0.0 0.0 1009.0 0.0 0.0 34.3 0.0
22/02/21 13:57 34.9 29 14.2 0.0 0.0 0 0.0 0.0 1009.0 0.0 0.0 34.3 0.0
22/02/21 13:58 34.8 29 14.1 0.0 0.0 0 0.0 0.0 1009.0 0.0 0.0 34.2 0.0
22/02/21 13:59 34.7 29 14.1 0.0 0.0 0 0.0 0.0 1009.0 0.0 0.0 34.1 0.0
22/02/21 14:02 34.2 29 13.6 0.0 0.0 0 0.0 0.0 1009.0 0.0 0.0 33.4 0.0
22/02/21 14:03 34.0 29 13.5 0.0 0.0 0 0.0 0.0 1009.0 0.0 0.0 33.1 0.0
22/02/21 14:04 34.1 29 13.5 0.0 0.0 0 0.0 0.0 1009.0 0.0 0.0 33.2 0.0
22/02/21 14:05 34.1 29 13.5 0.0 0.0 0 0.0 0.0 1009.0 0.0 0.0 33.2 0.0
22/02/21 14:06 34.1 29 13.5 0.0 0.0 0 0.0 0.0 1009.0 0.0 0.0 33.2 0.0
22/02/21 14:07 34.2 29 13.6 0.0 0.0 0 0.0 0.0 1009.0 0.0 0.0 33.4 0.0
22/02/21 14:08 34.2 29 13.6 0.0 0.0 0 0.0 0.0 1010.0 0.0 0.0 33.4 0.0
22/02/21 14:09 34.1 29 13.5 0.0 0.0 0 0.0 0.0 1010.0 0.0 0.0 33.2 0.0
22/02/21 14:10 34.1 29 13.5 0.0 0.0 0 0.0 0.0 1010.0 0.0 0.0 33.2 0.0
22/02/21 14:11 34.1 29 13.5 0.0 0.0 0 0.0 0.0 1010.0 0.0 0.0 33.2 0.0
22/02/21 14:12 34.1 29 13.5 0.0 0.0 0 0.0 0.0 1010.0 0.0 0.0 33.2 0.0
22/02/21 14:13 34.0 29 13.5 0.0 0.0 0 0.0 0.0 1010.0 0.0 0.0 33.1 0.0
22/02/21 14:14 33.9 29 13.4 0.0 0.0 0 0.0 0.0 1010.0 0.0 0.0 33.0 0.0
22/02/21 14:15 34.0 29 13.5 0.0 0.0 0 0.0 0.0 1010.0 0.0 0.0 33.1 0.0
22/02/21 14:16 34.0 29 13.5 0.0 0.0 0 0.0 0.0 1010.0 0.0 0.0 33.1 0.0
22/02/21 14:17 34.1 29 13.5 0.0 0.0 0 0.0 0.0 1010.0 0.0 0.0 33.2 0.0
22/02/21 14:18 34.2 29 13.6 0.0 0.0 0 0.0 0.0 1010.0 0.0 0.0 33.4 0.0
22/02/21 14:19 34.3 29 13.7 0.0 0.0 0 0.0 0.0 1010.0 0.0 0.0 33.5 0.0
22/02/21 14:20 34.3 29 13.7 0.0 0.0 0 0.0 0.0 1010.0 0.0 0.0 33.5 0.0
22/02/21 14:21 34.4 29 13.8 0.0 0.0 0 0.0 0.0 1010.0 0.0 0.0 33.6 0.0
22/02/21 14:22 34.5 29 13.9 0.0 0.0 0 0.0 0.0 1010.0 0.0 0.0 33.8 0.0
22/02/21 14:23 34.6 29 14.0 0.0 0.0 0 0.0 0.0 1009.0 0.0 0.0 33.9 0.0
22/02/21 14:24 34.5 29 13.9 0.0 0.0 0 0.0 0.0 1009.0 0.0 0.0 33.8 0.0
22/02/21 14:27 34.4 29 13.8 0.0 0.0 0 0.0 0.0 1009.0 0.0 0.0 33.6 0.0
22/02/21 14:28 34.5 29 13.9 0.0 0.0 0 0.0 0.0 1009.0 0.0 0.0 33.8 0.0
22/02/21 14:29 34.6 30 14.5 0.0 0.0 0 0.0 0.0 1009.0 0.0 0.0 34.1 0.0
22/02/21 14:30 34.6 29 14.0 0.0 0.0 0 0.0 0.0 1009.0 0.0 0.0 33.9 0.0
22/02/21 14:31 34.7 29 14.1 0.0 0.0 0 0.0 0.0 1009.0 0.0 0.0 34.1 0.0
22/02/21 14:32 34.7 29 14.1 0.0 0.0 0 0.0 0.0 1009.0 0.0 0.0 34.1 0.0
22/02/21 14:33 34.6 29 14.0 0.0 0.0 0 0.0 0.0 1009.0 0.0 0.0 33.9 0.0
22/02/21 14:34 34.6 29 14.0 0.0 0.0 0 0.0 0.0 1009.0 0.0 0.0 33.9 0.0
22/02/21 14:35 34.7 29 14.1 0.0 0.0 0 0.0 0.0 1009.0 0.0 0.0 34.1 0.0
22/02/21 14:36 34.6 29 14.0 0.0 0.0 0 0.0 0.0 1009.0 0.0 0.0 33.9 0.0
22/02/21 14:37 34.7 29 14.1 0.0 0.0 0 0.0 0.0 1009.0 0.0 0.0 34.1 0.0
22/02/21 14:38 34.8 29 14.1 0.0 0.0 0 0.0 0.0 1010.0 0.0 0.0 34.2 0.0
22/02/21 14:39 34.7 29 14.1 0.0 0.0 0 0.0 0.0 1010.0 0.0 0.0 34.1 0.0
22/02/21 14:40 34.7 29 14.1 0.0 0.0 0 0.0 0.0 1010.0 0.0 0.0 34.1 0.0
22/02/21 14:41 34.7 29 14.1 0.0 0.0 0 0.0 0.0 1010.0 0.0 0.0 34.1 0.0
22/02/21 14:42 34.7 29 14.1 0.0 0.0 0 0.0 0.0 1010.0 0.0 0.0 34.1 0.0
22/02/21 14:43 34.8 29 14.1 0.0 0.0 0 0.0 0.0 1010.0 0.0 0.0 34.2 0.0
22/02/21 14:53 35.0 29 14.3 0.0 0.0 0 0.0 0.0 1009.0 0.0 0.0 34.5 0.0
22/02/21 14:54 35.0 29 14.3 0.0 0.0 0 0.0 0.0 1009.0 0.0 0.0 34.5 0.0
22/02/21 14:55 35.0 28 13.8 0.0 0.0 0 0.0 0.0 1009.0 0.0 0.0 34.3 0.0
22/02/21 14:56 35.0 28 13.8 0.0 0.0 0 0.0 0.0 1009.0 0.0 0.0 34.3 0.0
22/02/21 14:57 35.1 28 13.9 0.0 0.0 0 0.0 0.0 1009.0 0.0 0.0 34.4 0.0
22/02/21 14:58 35.3 29 14.6 0.0 0.0 0 0.0 0.0 1009.0 0.0 0.0 34.9 0.0
22/02/21 14:59 35.4 29 14.7 0.0 0.0 0 0.0 0.0 1009.0 0.0 0.0 35.0 0.0
22/02/21 15:00 35.5 29 14.7 0.0 0.0 0 0.0 0.0 1009.0 0.0 0.0 35.2 0.0
22/02/21 15:01 35.2 28 13.9 0.0 0.0 0 0.0 0.0 1009.0 0.0 0.0 34.5 0.0
22/02/21 15:02 35.2 28 13.9 0.0 0.0 0 0.0 0.0 1009.0 0.0 0.0 34.5 0.0
22/02/21 15:03 35.2 28 13.9 0.0 0.0 0 0.0 0.0 1009.0 0.0 0.0 34.5 0.0
22/02/21 15:04 35.1 28 13.9 0.0 0.0 0 0.0 0.0 1009.0 0.0 0.0 34.4 0.0
22/02/21 15:05 35.1 28 13.9 0.0 0.0 0 0.0 0.0 1009.0 0.0 0.0 34.4 0.0
22/02/21 15:06 35.2 28 13.9 0.0 0.0 0 0.0 0.0 1009.0 0.0 0.0 34.5 0.0
22/02/21 15:07 35.2 28 13.9 0.0 0.0 0 0.0 0.0 1009.0 0.0 0.0 34.5 0.0
22/02/21 15:08 35.2 28 13.9 0.0 0.0 0 0.0 0.0 1009.0 0.0 0.0 34.5 0.0
22/02/21 15:09 35.3 28 14.0 0.0 0.0 0 0.0 0.0 1009.0 0.0 0.0 34.7 0.0
22/02/21 15:10 35.2 28 13.9 0.0 0.0 0 0.0 0.0 1009.0 0.0 0.0 34.5 0.0
22/02/21 15:11 35.3 28 14.0 0.0 0.0 0 0.0 0.0 1009.0 0.0 0.0 34.7 0.0
22/02/21 15:12 35.3 28 14.0 0.0 0.0 0 0.0 0.0 1009.0 0.0 0.0 34.7 0.0
22/02/21 15:13 35.3 28 14.0 0.0 0.0 0 0.0 0.0 1009.0 0.0 0.0 34.7 0.0
22/02/21 15:14 35.2 28 13.9 0.0 0.0 0 0.0 0.0 1009.0 0.0 0.0 34.5 0.0
22/02/21 15:15 35.2 28 13.9 0.0 0.0 0 0.0 0.0 1009.0 0.0 0.0 34.5 0.0
22/02/21 15:19 35.3 28 14.0 0.0 0.0 0 0.0 0.0 1009.0 0.0 0.0 34.7 0.0
22/02/21 15:20 35.3 28 14.0 0.0 0.0 0 0.0 0.0 1009.0 0.0 0.0 34.7 0.0
22/02/21 15:21 35.5 28 14.2 0.0 0.0 0 0.0 0.0 1009.0 0.0 0.0 35.0 0.0
22/02/21 15:22 35.5 28 14.2 0.0 0.0 0 0.0 0.0 1009.0 0.0 0.0 35.0 0.0
22/02/21 15:23 35.8 28 14.5 0.0 0.0 0 0.0 0.0 1009.0 0.0 0.0 35.4 0.0
22/02/21 15:24 35.9 28 14.5 0.0 0.0 0 0.0 0.0 1009.0 0.0 0.0 35.5 0.0
22/02/21 15:25 35.9 28 14.5 0.0 0.0 0 0.0 0.0 1009.0 0.0 0.0 35.5 0.0
22/02/21 15:26 36.0 28 14.6 0.0 0.0 0 0.0 0.0 1009.0 0.0 0.0 35.7 0.0
22/02/21 15:27 36.2 28 14.8 0.0 0.0 0 0.0 0.0 1009.0 0.0 0.0 36.0 0.0
22/02/21 15:28 36.3 28 14.9 0.0 0.0 0 0.0 0.0 1009.0 0.0 0.0 36.1 0.0
22/02/21 15:29 36.4 28 15.0 0.0 0.0 0 0.0 0.0 1009.0 0.0 0.0 36.3 0.0
22/02/21 15:30 36.4 28 15.0 0.0 0.0 0 0.0 0.0 1009.0 0.0 0.0 36.3 0.0
22/02/21 15:31 36.3 28 14.9 0.0 0.0 0 0.0 0.0 1009.0 0.0 0.0 36.1 0.0
22/02/21 15:32 36.4 28 15.0 0.0 0.0 0 0.0 0.0 1009.0 0.0 0.0 36.3 0.0
22/02/21 15:33 36.6 28 15.1 0.0 0.0 0 0.0 0.0 1009.0 0.0 0.0 36.6 0.0
22/02/21 15:34 36.7 28 15.2 0.0 0.0 0 0.0 0.0 1009.0 0.0 0.0 36.7 0.0
22/02/21 15:35 36.8 28 15.3 0.0 0.0 0 0.0 0.0 1009.0 0.0 0.0 36.9 0.0
22/02/21 15:36 36.8 28 15.3 0.0 0.0 0 0.0 0.0 1009.0 0.0 0.0 36.9 0.0
22/02/21 15:37 36.8 28 15.3 0.0 0.0 0 0.0 0.0 1009.0 0.0 0.0 36.9 0.0
22/02/21 15:38 36.7 27 14.7 0.0 0.0 0 0.0 0.0 1009.0 0.0 0.0 36.5 0.0
22/02/21 15:39 36.6 27 14.6 0.0 0.0 0 0.0 0.0 1009.0 0.0 0.0 36.3 0.0
22/02/21 15:42 36.6 28 15.1 0.0 0.0 0 0.0 0.0 1009.0 0.0 0.0 36.6 0.0
22/02/21 15:43 36.6 28 15.1 0.0 0.0 0 0.0 0.0 1009.0 0.0 0.0 36.6 0.0
22/02/21 15:44 36.4 27 14.4 0.0 0.0 0 0.0 0.0 1009.0 0.0 0.0 36.0 0.0
22/02/21 15:45 36.4 28 15.0 0.0 0.0 0 0.0 0.0 1009.0 0.0 0.0 36.3 0.0
22/02/21 15:46 36.6 27 14.6 0.0 0.0 0 0.0 0.0 1009.0 0.0 0.0 36.3 0.0
22/02/21 15:47 36.7 27 14.7 0.0 0.0 0 0.0 0.0 1009.0 0.0 0.0 36.5 0.0
22/02/21 15:48 36.7 27 14.7 0.0 0.0 0 0.0 0.0 1009.0 0.0 0.0 36.5 0.0
22/02/21 15:49 36.8 27 14.7 0.0 0.0 0 0.0 0.0 1009.0 0.0 0.0 36.6 0.0
22/02/21 15:50 36.7 27 14.7 0.0 0.0 0 0.0 0.0 1009.0 0.0 0.0 36.5 0.0
22/02/21 15:51 36.6 27 14.6 0.0 0.0 0 0.0 0.0 1009.0 0.0 0.0 36.3 0.0
22/02/21 15:52 36.6 27 14.6 0.0 0.0 0 0.0 0.0 1009.0 0.0 0.0 36.3 0.0
22/02/21 15:53 36.7 27 14.7 0.0 0.0 0 0.0 0.0 1009.0 0.0 0.0 36.5 0.0
22/02/21 15:54 36.8 27 14.7 0.0 0.0 0 0.0 0.0 1009.0 0.0 0.0 36.6 0.0
22/02/21 15:55 36.9 27 14.8 0.0 0.0 0 0.0 0.0 1009.0 0.0 0.0 36.8 0.0
22/02/21 15:56 37.1 27 15.0 0.0 0.0 0 0.0 0.0 1009.0 0.0 0.0 37.1 0.0
22/02/21 15:57 37.3 27 15.2 0.0 0.0 0 0.0 0.0 1009.0 0.0 0.0 37.4 0.0
22/02/21 15:58 37.3 27 15.2 0.0 0.0 0 0.0 0.0 1009.0 0.0 0.0 37.4 0.0
22/02/21 15:59 37.0 26 14.3 0.0 0.0 0 0.0 0.0 1009.0 0.0 0.0 36.7 0.0
22/02/21 16:00 36.5 27 14.5 0.0 0.0 0 0.0 0.0 1009.0 0.0 0.0 36.2 0.0
22/02/21 16:01 35.3 27 13.5 0.0 0.0 0 0.0 0.0 1009.0 0.0 0.0 34.5 0.0
22/02/21 16:02 34.8 28 13.6 0.0 0.0 0 0.0 0.0 1009.0 0.0 0.0 34.0 0.0
22/02/21 16:03 34.4 28 13.3 0.0 0.0 0 0.0 0.0 1009.0 0.0 0.0 33.5 0.0
22/02/21 16:08 33.8 29 13.3 0.0 0.0 0 0.0 0.0 1008.0 0.0 0.0 32.9 0.0
22/02/21 16:09 33.9 29 13.4 0.0 0.0 0 0.0 0.0 1008.0 0.0 0.0 33.0 0.0
22/02/21 16:10 34.2 28 13.1 0.0 0.0 0 0.0 0.0 1008.0 0.0 0.0 33.2 0.0
22/02/21 16:11 34.4 29 13.8 0.0 0.0 0 0.0 0.0 1008.0 0.0 0.0 33.6 0.0
22/02/21 16:12 34.7 29 14.1 0.0 0.0 0 0.0 0.0 1008.0 0.0 0.0 34.1 0.0
22/02/21 16:13 34.7 29 14.1 0.0 0.0 0 0.0 0.0 1008.0 0.0 0.0 34.1 0.0
22/02/21 16:14 35.2 28 13.9 0.0 0.0 0 0.0 0.0 1008.0 0.0 0.0 34.5 0.0
22/02/21 16:15 35.2 28 13.9 0.0 0.0 0 0.0 0.0 1008.0 0.0 0.0 34.5 0.0
22/02/21 16:16 35.4 28 14.1 0.0 0.0 0 0.0 0.0 1008.0 0.0 0.0 34.8 0.0
22/02/21 16:17 35.5 28 14.2 0.0 0.0 0 0.0 0.0 1008.0 0.0 0.0 35.0 0.0
22/02/21 16:32 33.3 28 12.3 0.0 0.0 0 0.0 0.0 1009.0 0.0 0.0 32.1 0.0
22/02/21 16:33 33.4 28 12.4 0.0 0.0 0 0.0 0.0 1009.0 0.0 0.0 32.2 0.0
22/02/21 16:34 33.6 29 13.1 0.0 0.0 0 0.0 0.0 1009.0 0.0 0.0 32.6 0.0
22/02/21 16:35 33.8 29 13.3 0.0 0.0 0 0.0 0.0 1009.0 0.0 0.0 32.9 0.0
22/02/21 16:36 33.9 29 13.4 0.0 0.0 0 0.0 0.0 1009.0 0.0 0.0 33.0 0.0
22/02/21 16:37 34.0 28 12.9 0.0 0.0 0 0.0 0.0 1009.0 0.0 0.0 33.0 0.0
22/02/21 16:38 34.0 28 12.9 0.0 0.0 0 0.0 0.0 1009.0 0.0 0.0 33.0 0.0
22/02/21 16:39 33.8 28 12.7 0.0 0.0 0 0.0 0.0 1009.0 0.0 0.0 32.7 0.0
22/02/21 16:40 33.3 28 12.3 0.0 0.0 0 0.0 0.0 1009.0 0.0 0.0 32.1 0.0
22/02/21 16:41 32.9 29 12.5 0.0 0.0 0 0.0 0.0 1009.0 0.0 0.0 31.7 0.0
22/02/21 16:42 32.6 29 12.3 0.0 0.0 0 0.0 0.0 1009.0 0.0 0.0 31.4 0.0
22/02/21 16:43 32.3 29 12.0 0.0 0.0 0 0.0 0.0 1009.0 0.0 0.0 31.0 0.0
22/02/21 16:44 32.4 29 12.1 0.0 0.0 0 0.0 0.0 1009.0 0.0 0.0 31.2 0.0
22/02/21 16:45 32.5 29 12.2 0.0 0.0 0 0.0 0.0 1009.0 0.0 0.0 31.3 0.0
22/02/21 16:46 32.7 29 12.3 0.0 0.0 0 0.0 0.0 1009.0 0.0 0.0 31.5 0.0
22/02/21 16:47 32.9 29 12.5 0.0 0.0 0 0.0 0.0 1009.0 0.0 0.0 31.7 0.0
22/02/21 16:48 32.9 29 12.5 0.0 0.0 0 0.0 0.0 1009.0 0.0 0.0 31.7 0.0
22/02/21 16:49 32.8 29 12.4 0.0 0.0 0 0.0 0.0 1009.0 0.0 0.0 31.6 0.0
22/02/21 16:50 32.8 29 12.4 0.0 0.0 0 0.0 0.0 1009.0 0.0 0.0 31.6 0.0
22/02/21 16:51 32.9 29 12.5 0.0 0.0 0 0.0 0.0 1009.0 0.0 0.0 31.7 0.0
22/02/21 16:52 32.9 29 12.5 0.0 0.0 0 0.0 0.0 1009.0 0.0 0.0 31.7 0.0
22/02/21 16:53 32.9 30 13.0 0.0 0.0 0 0.0 0.0 1009.0 0.0 0.0 31.9 0.0
22/02/21 16:54 33.0 29 12.6 0.0 0.0 0 0.0 0.0 1009.0 0.0 0.0 31.9 0.0
22/02/21 16:55 32.9 29 12.5 0.0 0.0 0 0.0 0.0 1009.0 0.0 0.0 31.7 0.0
22/02/21 16:57 32.4 29 12.1 0.0 0.0 0 0.0 0.0 1009.0 0.0 0.0 31.2 0.0
22/02/21 16:58 32.2 29 11.9 0.0 0.0 0 0.0 0.0 1009.0 0.0 0.0 30.9 0.0
22/02/21 16:59 31.9 30 12.2 0.0 0.0 0 0.0 0.0 1009.0 0.0 0.0 30.7 0.0
22/02/21 17:00 31.6 30 11.9 0.0 0.0 0 0.0 0.0 1009.0 0.0 0.0 30.4 0.0
22/02/21 17:01 31.3 30 11.7 0.0 0.0 0 0.0 0.0 1009.0 0.0 0.0 30.0 0.0
22/02/21 17:02 30.8 30 11.2 0.0 0.0 0 0.0 0.0 1009.0 0.0 0.0 29.5 0.0
22/02/21 17:03 30.6 30 11.0 0.0 0.0 0 0.0 0.0 1009.0 0.0 0.0 29.3 0.0
22/02/21 17:04 30.3 31 11.3 0.0 0.0 0 0.0 0.0 1009.0 0.0 0.0 29.1 0.0
22/02/21 17:05 30.1 31 11.1 0.0 0.0 0 0.0 0.0 1009.0 0.0 0.0 28.9 0.0
22/02/21 17:06 29.9 31 10.9 0.0 0.0 0 0.0 0.0 1009.0 0.0 0.0 28.7 0.0
22/02/21 17:07 29.7 31 10.8 0.0 0.0 0 0.0 0.0 1009.0 0.0 0.0 28.5 0.0
22/02/21 17:08 29.5 31 10.6 0.0 0.0 0 0.0 0.0 1009.0 0.0 0.0 28.4 0.0
22/02/21 17:09 29.4 32 11.0 0.0 0.0 0 0.0 0.0 1009.0 0.0 0.0 28.3 0.0
22/02/21 17:10 29.0 32 10.6 0.0 0.0 0 0.0 0.0 1009.0 0.0 0.0 28.0 0.0
22/02/21 17:11 28.9 32 10.5 0.0 0.0 0 0.0 0.0 1009.0 0.0 0.0 27.9 0.0
22/02/21 17:12 28.8 33 10.9 0.0 0.0 0 0.0 0.0 1009.0 0.0 0.0 27.9 0.0
22/02/21 17:13 28.6 33 10.7 0.0 0.0 0 0.0 0.0 1009.0 0.0 0.0 27.7 0.0
22/02/21 17:14 28.5 33 10.7 0.0 0.0 0 0.0 0.0 1009.0 0.0 0.0 27.6 0.0
22/02/21 17:15 28.4 33 10.6 0.0 0.0 0 0.0 0.0 1009.0 0.0 0.0 27.6 0.0
22/02/21 17:16 28.3 33 10.5 0.0 0.0 0 0.0 0.0 1009.0 0.0 0.0 27.5 0.0
22/02/21 17:17 28.1 34 10.8 0.0 0.0 0 0.0 0.0 1009.0 0.0 0.0 27.4 0.0
22/02/21 17:18 28.0 34 10.7 0.0 0.0 0 0.0 0.0 1009.0 0.0 0.0 27.3 0.0
22/02/21 17:19 27.9 35 11.0 0.0 0.0 0 0.0 0.0 1009.0 0.0 0.0 27.3 0.0
22/02/21 17:23 27.7 36 11.3 0.0 0.0 0 0.0 0.0 1009.0 0.0 0.0 27.2 0.0
22/02/21 17:24 27.6 36 11.2 0.0 0.0 0 0.0 0.0 1009.0 0.0 0.0 27.1 0.0
22/02/21 17:25 27.5 36 11.1 0.0 0.0 0 0.0 0.0 1009.0 0.0 0.0 27.0 0.0
22/02/21 17:26 27.5 37 11.5 0.0 0.0 0 0.0 0.0 1009.0 0.0 0.0 27.1 0.0
22/02/21 17:27 27.4 37 11.4 0.0 0.0 0 0.0 0.0 1009.0 0.0 0.0 27.0 0.0
22/02/21 17:28 27.4 37 11.4 0.0 0.0 0 0.0 0.0 1009.0 0.0 0.0 27.0 0.0
22/02/21 17:29 27.3 37 11.3 0.0 0.0 0 0.0 0.0 1009.0 0.0 0.0 26.9 0.0
22/02/21 17:30 27.3 38 11.7 0.0 0.0 0 0.0 0.0 1009.0 0.0 0.0 27.0 0.0
22/02/21 17:31 27.2 39 12.0 0.0 0.0 0 0.0 0.0 1009.0 0.0 0.0 27.0 0.0
22/02/21 17:32 27.1 39 12.0 0.0 0.0 0 0.0 0.0 1009.0 0.0 0.0 26.9 0.0
22/02/21 17:33 27.1 39 12.0 0.0 0.0 0 0.0 0.0 1009.0 0.0 0.0 26.9 0.0
22/02/21 17:34 27.0 40 12.2 0.0 0.0 0 0.0 0.0 1009.0 0.0 0.0 26.9 0.0
22/02/21 17:35 27.0 40 12.2 0.0 0.0 0 0.0 0.0 1009.0 0.0 0.0 26.9 0.0
22/02/21 17:36 26.9 40 12.2 0.0 0.0 0 0.0 0.0 1009.0 0.0 0.0 26.8 0.0
22/02/21 17:37 26.9 40 12.2 0.0 0.0 0 0.0 0.0 1009.0 0.0 0.0 26.8 0.0
22/02/21 17:38 26.8 41 12.4 0.0 0.0 0 0.0 0.0 1009.0 0.0 0.0 26.8 0.0
22/02/21 17:39 26.8 41 12.4 0.0 0.0 0 0.0 0.0 1009.0 0.0 0.0 26.8 0.0
22/02/21 17:40 26.6 41 12.3 0.0 0.0 0 0.0 0.0 1009.0 0.0 0.0 26.6 0.0
22/02/21 17:41 26.6 41 12.3 0.0 0.0 0 0.0 0.0 1009.0 0.0 0.0 26.6 0.0
22/02/21 17:42 26.5 42 12.5 0.0 0.0 0 0.0 0.0 1009.0 0.0 0.0 26.5 0.0
22/02/21 17:43 26.5 42 12.5 0.0 0.0 0 0.0 0.0 1009.0 0.0 0.0 26.5 0.0
22/02/21 17:44 26.4 42 12.5 0.0 0.0 0 0.0 0.0 1009.0 0.0 0.0 26.4 0.0
22/02/21 17:47 26.2 43 12.6 0.0 0.0 0 0.0 0.0 1009.0 0.0 0.0 26.2 0.0
22/02/21 17:48 26.2 43 12.6 0.0 0.0 0 0.0 0.0 1009.0 0.0 0.0 26.2 0.0
22/02/21 17:49 26.2 43 12.6 0.0 0.0 0 0.0 0.0 1009.0 0.0 0.0 26.2 0.0
22/02/21 17:50 26.1 43 12.5 0.0 0.0 0 0.0 0.0 1009.0 0.0 0.0 26.1 0.0
22/02/21 17:51 26.0 43 12.5 0.0 0.0 0 0.0 0.0 1009.0 0.0 0.0 26.0 0.0
22/02/21 17:52 26.0 43 12.5 0.0 0.0 0 0.0 0.0 1009.0 0.0 0.0 26.0 0.0
22/02/21 17:53 25.9 44 12.7 0.0 0.0 0 0.0 0.0 1009.0 0.0 0.0 25.9 0.0
22/02/21 17:54 25.9 44 12.7 0.0 0.0 0 0.0 0.0 1009.0 0.0 0.0 25.9 0.0
22/02/21 17:55 25.8 44 12.6 0.0 0.0 0 0.0 0.0 1009.0 0.0 0.0 25.8 0.0
22/02/21 17:56 25.7 44 12.5 0.0 0.0 0 0.0 0.0 1009.0 0.0 0.0 25.7 0.0
22/02/21 17:57 25.7 45 12.9 0.0 0.0 0 0.0 0.0 1009.0 0.0 0.0 25.7 0.0
22/02/21 17:58 25.6 45 12.8 0.0 0.0 0 0.0 0.0 1009.0 0.0 0.0 25.6 0.0
22/02/21 17:59 25.6 45 12.8 0.0 0.0 0 0.0 0.0 1009.0 0.0 0.0 25.6 0.0
22/02/21 18:00 25.6 45 12.8 0.0 0.0 0 0.0 0.0 1009.0 0.0 0.0 25.6 0.0
22/02/21 18:01 25.6 46 13.1 0.0 0.0 0 0.0 0.0 1009.0 0.0 0.0 25.6 0.0
22/02/21 18:02 25.6 45 12.8 0.0 0.0 0 0.0 0.0 1009.0 0.0 0.0 25.6 0.0
22/02/21 18:03 25.6 45 12.8 0.0 0.0 0 0.0 0.0 1009.0 0.0 0.0 25.6 0.0
22/02/21 18:04 25.6 46 13.1 0.0 0.0 0 0.0 0.0 1009.0 0.0 0.0 25.6 0.0
22/02/21 18:05 25.6 45 12.8 0.0 0.0 0 0.0 0.0 1009.0 0.0 0.0 25.6 0.0
22/02/21 18:06 25.6 45 12.8 0.0 0.0 0 0.0 0.0 1009.0 0.0 0.0 25.6 0.0
22/02/21 18:07 25.6 45 12.8 0.0 0.0 0 0.0 0.0 1009.0 0.0 0.0 25.6 0.0
22/02/21 18:08 25.7 45 12.9 0.0 0.0 0 0.0 0.0 1009.0 0.0 0.0 25.7 0.0
22/02/21 18:09 25.8 45 13.0 0.0 0.0 0 0.0 0.0 1009.0 0.0 0.0 25.8 0.0
22/02/21 18:12 26.3 45 13.4 0.0 0.0 0 0.0 0.0 1009.0 0.0 0.0 26.3 0.0
22/02/21 18:13 26.5 45 13.6 0.0 0.0 0 0.0 0.0 1009.0 0.0 0.0 26.5 0.0
22/02/21 18:14 26.6 45 13.7 0.0 0.0 0 0.0 0.0 1009.0 0.0 0.0 26.6 0.0
22/02/21 18:15 26.6 45 13.7 0.0 0.0 0 0.0 0.0 1009.0 0.0 0.0 26.6 0.0
22/02/21 18:16 26.6 45 13.7 0.0 0.0 0 0.0 0.0 1009.0 0.0 0.0 26.6 0.0
22/02/21 18:17 26.6 45 13.7 0.0 0.0 0 0.0 0.0 1009.0 0.0 0.0 26.6 0.0
22/02/21 18:18 26.6 44 13.3 0.0 0.0 0 0.0 0.0 1009.0 0.0 0.0 26.6 0.0
22/02/21 18:19 26.7 44 13.4 0.0 0.0 0 0.0 0.0 1009.0 0.0 0.0 26.8 0.0
22/02/21 18:20 26.7 45 13.8 0.0 0.0 0 0.0 0.0 1009.0 0.0 0.0 26.9 0.0
22/02/21 18:21 26.7 44 13.4 0.0 0.0 0 0.0 0.0 1009.0 0.0 0.0 26.8 0.0
22/02/21 18:22 26.6 44 13.3 0.0 0.0 0 0.0 0.0 1009.0 0.0 0.0 26.6 0.0
22/02/21 18:23 26.6 44 13.3 0.0 0.0 0 0.0 0.0 1009.0 0.0 0.0 26.6 0.0
22/02/21 18:24 26.6 44 13.3 0.0 0.0 0 0.0 0.0 1009.0 0.0 0.0 26.6 0.0
22/02/21 18:25 26.6 44 13.3 0.0 0.0 0 0.0 0.0 1009.0 0.0 0.0 26.6 0.0
22/02/21 18:26 26.5 44 13.3 0.0 0.0 0 0.0 0.0 1009.0 0.0 0.0 26.5 0.0
22/02/21 18:27 26.4 44 13.2 0.0 0.0 0 0.0 0.0 1009.0 0.0 0.0 26.4 0.0
22/02/21 18:28 26.4 44 13.2 0.0 0.0 0 0.0 0.0 1009.0 0.0 0.0 26.4 0.0
22/02/21 18:29 26.3 44 13.1 0.0 0.0 0 0.0 0.0 1009.0 0.0 0.0 26.3 0.0
22/02/21 18:30 26.3 44 13.1 0.0 0.0 0 0.0 0.0 1009.0 0.0 0.0 26.3 0.0
22/02/21 18:31 26.2 44 13.0 0.0 0.0 0 0.0 0.0 1009.0 0.0 0.0 26.2 0.0
22/02/21 18:32 26.1 44 12.9 0.0 0.0 0 0.0 0.0 1009.0 0.0 0.0 26.1 0.0
22/02/21 18:33 26.0 44 12.8 0.0 0.0 0 0.0 0.0 1009.0 0.0 0.0 26.0 0.0
22/02/21 18:34 26.0 44 12.8 0.0 0.0 0 0.0 0.0 1009.0 0.0 0.0 26.0 0.0
22/02/21 18:37 25.8 45 13.0 0.0 0.0 0 0.0 0.0 1009.0 0.0 0.0 25.8 0.0
22/02/21 18:38 25.7 45 12.9 0.0 0.0 0 0.0 0.0 1008.0 0.0 0.0 25.7 0.0
22/02/21 18:39 25.7 45 12.9 0.0 0.0 0 0.0 0.0 1008.0 0.0 0.0 25.7 0.0
22/02/21 18:40 25.6 46 13.1 0.0 0.0 0 0.0 0.0 1008.0 0.0 0.0 25.6 0.0
22/02/21 18:41 25.5 45 12.7 0.0 0.0 0 0.0 0.0 1008.0 0.0 0.0 25.5 0.0
22/02/21 18:42 25.5 46 13.0 0.0 0.0 0 0.0 0.0 1008.0 0.0 0.0 25.5 0.0
22/02/21 18:43 25.4 46 12.9 0.0 0.0 0 0.0 0.0 1008.0 0.0 0.0 25.4 0.0
22/02/21 18:44 25.4 46 12.9 0.0 0.0 0 0.0 0.0 1008.0 0.0 0.0 25.4 0.0
22/02/21 18:45 25.3 46 12.8 0.0 0.0 0 0.0 0.0 1008.0 0.0 0.0 25.3 0.0
22/02/21 18:46 25.3 46 12.8 0.0 0.0 0 0.0 0.0 1008.0 0.0 0.0 25.3 0.0
22/02/21 18:47 25.3 46 12.8 0.0 0.0 0 0.0 0.0 1008.0 0.0 0.0 25.3 0.0
22/02/21 18:48 25.2 46 12.8 0.0 0.0 0 0.0 0.0 1008.0 0.0 0.0 25.2 0.0
22/02/21 18:49 25.1 47 13.0 0.0 0.0 0 0.0 0.0 1008.0 0.0 0.0 25.1 0.0
22/02/21 18:50 25.1 47 13.0 0.0 0.0 0 0.0 0.0 1008.0 0.0 0.0 25.1 0.0
22/02/21 18:51 25.0 47 12.9 0.0 0.0 0 0.0 0.0 1008.0 0.0 0.0 25.0 0.0
22/02/21 18:52 25.0 47 12.9 0.0 0.0 0 0.0 0.0 1008.0 0.0 0.0 25.0 0.0
22/02/21 18:53 25.0 47 12.9 0.0 0.0 0 0.0 0.0 1008.0 0.0 0.0 25.0 0.0
22/02/21 18:54 24.9 47 12.8 0.0 0.0 0 0.0 0.0 1008.0 0.0 0.0 24.9 0.0
22/02/21 18:55 24.8 48 13.0 0.0 0.0 0 0.0 0.0 1008.0 0.0 0.0 24.8 0.0
22/02/21 18:56 24.8 48 13.0 0.0 0.0 0 0.0 0.0 1008.0 0.0 0.0 24.8 0.0
22/02/21 18:57 24.8 48 13.0 0.0 0.0 0 0.0 0.0 1008.0 0.0 0.0 24.8 0.0
22/02/21 18:58 24.7 48 13.0 0.0 0.0 0 0.0 0.0 1008.0 0.0 0.0 24.7 0.0
22/02/21 18:59 24.7 48 13.0 0.0 0.0 0 0.0 0.0 1008.0 0.0 0.0 24.7 0.0
22/02/21 19:03 24.5 49 13.1 0.0 0.0 0 0.0 0.0 1008.0 0.0 0.0 24.5 0.0
22/02/21 19:04 24.4 48 12.7 0.0 0.0 0 0.0 0.0 1008.0 0.0 0.0 24.4 0.0
22/02/21 19:05 24.4 49 13.0 0.0 0.0 0 0.0 0.0 1008.0 0.0 0.0 24.4 0.0
22/02/21 19:06 24.4 49 13.0 0.0 0.0 0 0.0 0.0 1008.0 0.0 0.0 24.4 0.0
22/02/21 19:07 24.3 49 12.9 0.0 0.0 0 0.0 0.0 1008.0 0.0 0.0 24.3 0.0
22/02/21 19:08 24.3 49 12.9 0.0 0.0 0 0.0 0.0 1008.0 0.0 0.0 24.3 0.0
22/02/21 19:09 24.2 49 12.8 0.0 0.0 0 0.0 0.0 1008.0 0.0 0.0 24.2 0.0
22/02/21 19:10 24.2 49 12.8 0.0 0.0 0 0.0 0.0 1008.0 0.0 0.0 24.2 0.0
22/02/21 19:11 24.1 50 13.0 0.0 0.0 0 0.0 0.0 1008.0 0.0 0.0 24.1 0.0
22/02/21 19:12 24.1 50 13.0 0.0 0.0 0 0.0 0.0 1008.0 0.0 0.0 24.1 0.0
22/02/21 19:13 24.0 50 12.9 0.0 0.0 0 0.0 0.0 1008.0 0.0 0.0 24.0 0.0
22/02/21 19:14 23.9 51 13.1 0.0 0.0 0 0.0 0.0 1008.0 0.0 0.0 23.9 0.0
22/02/21 19:15 23.9 51 13.1 0.0 0.0 0 0.0 0.0 1008.0 0.0 0.0 23.9 0.0
22/02/21 19:16 23.8 51 13.1 0.0 0.0 0 0.0 0.0 1008.0 0.0 0.0 23.8 0.0
22/02/21 19:17 23.7 51 13.0 0.0 0.0 0 0.0 0.0 1008.0 0.0 0.0 23.7 0.0
22/02/21 19:18 23.6 52 13.2 0.0 0.0 0 0.0 0.0 1008.0 0.0 0.0 23.6 0.0
22/02/21 19:19 23.6 52 13.2 0.0 0.0 0 0.0 0.0 1008.0 0.0 0.0 23.6 0.0
22/02/21 19:20 23.5 52 13.1 0.0 0.0 0 0.0 0.0 1008.0 0.0 0.0 23.5 0.0
22/02/21 19:21 23.4 53 13.3 0.0 0.0 0 0.0 0.0 1008.0 0.0 0.0 23.4 0.0
22/02/21 19:22 23.4 53 13.3 0.0 0.0 0 0.0 0.0 1008.0 0.0 0.0 23.4 0.0
22/02/21 19:23 23.3 53 13.2 0.0 0.0 0 0.0 0.0 1008.0 0.0 0.0 23.3 0.0
22/02/21 19:24 23.3 53 13.2 0.0 0.0 0 0.0 0.0 1008.0 0.0 0.0 23.3 0.0
22/02/21 19:27 23.0 53 12.9 0.0 0.0 0 0.0 0.0 1008.0 0.0 0.0 23.0 0.0
22/02/21 19:28 23.0 53 12.9 0.0 0.0 0 0.0 0.0 1008.0 0.0 0.0 23.0 0.0
22/02/21 19:29 22.9 54 13.1 0.0 0.0 0 0.0 0.0 1008.0 0.0 0.0 22.9 0.0
22/02/21 19:30 22.9 54 13.1 0.0 0.0 0 0.0 0.0 1008.0 0.0 0.0 22.9 0.0
22/02/21 19:31 22.8 54 13.0 0.0 0.0 0 0.0 0.0 1008.0 0.0 0.0 22.8 0.0
22/02/21 19:32 22.8 54 13.0 0.0 0.0 0 0.0 0.0 1008.0 0.0 0.0 22.8 0.0
22/02/21 19:33 22.7 54 12.9 0.0 0.0 0 0.0 0.0 1008.0 0.0 0.0 22.7 0.0
22/02/21 19:34 22.6 55 13.1 0.0 0.0 0 0.0 0.0 1008.0 0.0 0.0 22.6 0.0
22/02/21 19:35 22.6 55 13.1 0.0 0.0 0 0.0 0.0 1008.0 0.0 0.0 22.6 0.0
22/02/21 19:36 22.5 55 13.0 0.0 0.0 0 0.0 0.0 1008.0 0.0 0.0 22.5 0.0
22/02/21 19:37 22.5 55 13.0 0.0 0.0 0 0.0 0.0 1008.0 0.0 0.0 22.5 0.0
22/02/21 19:38 22.4 55 12.9 0.0 0.0 0 0.0 0.0 1009.0 0.0 0.0 22.4 0.0
22/02/21 19:39 22.4 56 13.2 0.0 0.0 0 0.0 0.0 1009.0 0.0 0.0 22.4 0.0
22/02/21 19:40 22.3 56 13.1 0.0 0.0 0 0.0 0.0 1009.0 0.0 0.0 22.3 0.0
22/02/21 19:41 22.3 56 13.1 0.0 0.0 0 0.0 0.0 1009.0 0.0 0.0 22.3 0.0
22/02/21 19:42 22.2 57 13.3 0.0 0.0 0 0.0 0.0 1009.0 0.0 0.0 22.2 0.0
22/02/21 19:43 22.2 57 13.3 0.0 0.0 0 0.0 0.0 1009.0 0.0 0.0 22.2 0.0
22/02/21 19:44 22.1 57 13.2 0.0 0.0 0 0.0 0.0 1009.0 0.0 0.0 22.1 0.0
22/02/21 19:45 22.1 58 13.4 0.0 0.0 0 0.0 0.0 1009.0 0.0 0.0 22.1 0.0
22/02/21 19:46 22.1 58 13.4 0.0 0.0 0 0.0 0.0 1009.0 0.0 0.0 22.1 0.0
22/02/21 19:47 22.0 58 13.4 0.0 0.0 0 0.0 0.0 1009.0 0.0 0.0 22.0 0.0
22/02/21 19:48 22.0 58 13.4 0.0 0.0 0 0.0 0.0 1009.0 0.0 0.0 22.0 0.0
22/02/21 19:49 21.9 59 13.5 0.0 0.0 0 0.0 0.0 1009.0 0.0 0.0 21.9 0.0
22/02/21 19:50 21.9 59 13.5 0.0 0.0 0 0.0 0.0 1009.0 0.0 0.0 21.9 0.0
22/02/21 19:52 21.9 59 13.5 0.0 0.0 0 0.0 0.0 1009.0 0.0 0.0 21.9 0.0
22/02/21 19:53 21.9 59 13.5 0.0 0.0 0 0.0 0.0 1010.0 0.0 0.0 21.9 0.0
22/02/21 19:54 21.8 59 13.4 0.0 0.0 0 0.0 0.0 1010.0 0.0 0.0 21.8 0.0
22/02/21 19:55 21.8 59 13.4 0.0 0.0 0 0.0 0.0 1010.0 0.0 0.0 21.8 0.0
22/02/21 19:56 21.8 59 13.4 0.0 0.0 0 0.0 0.0 1010.0 0.0 0.0 21.8 0.0
22/02/21 19:57 21.8 59 13.4 0.0 0.0 0 0.0 0.0 1010.0 0.0 0.0 21.8 0.0
22/02/21 19:58 21.7 59 13.3 0.0 0.0 0 0.0 0.0 1010.0 0.0 0.0 21.7 0.0
22/02/21 19:59 21.7 59 13.3 0.0 0.0 0 0.0 0.0 1010.0 0.0 0.0 21.7 0.0
22/02/21 20:00 21.7 59 13.3 0.0 0.0 0 0.0 0.0 1010.0 0.0 0.0 21.7 0.0
22/02/21 20:01 21.7 60 13.6 0.0 0.0 0 0.0 0.0 1010.0 0.0 0.0 21.7 0.0
22/02/21 20:02 21.6 60 13.5 0.0 0.0 0 0.0 0.0 1010.0 0.0 0.0 21.6 0.0
22/02/21 20:03 21.6 60 13.5 0.0 0.0 0 0.0 0.0 1010.0 0.0 0.0 21.6 0.0
22/02/21 20:04 21.6 60 13.5 0.0 0.0 0 0.0 0.0 1010.0 0.0 0.0 21.6 0.0
22/02/21 20:05 21.6 60 13.5 0.0 0.0 0 0.0 0.0 1010.0 0.0 0.0 21.6 0.0
22/02/21 20:06 21.5 60 13.4 0.0 0.0 0 0.0 0.0 1010.0 0.0 0.0 21.5 0.0
22/02/21 20:07 21.5 60 13.4 0.0 0.0 0 0.0 0.0 1010.0 0.0 0.0 21.5 0.0
22/02/21 20:08 21.5 60 13.4 0.0 0.0 0 0.0 0.0 1010.0 0.0 0.0 21.5 0.0
22/02/21 20:09 21.5 60 13.4 0.0 0.0 0 0.0 0.0 1010.0 0.0 0.0 21.5 0.0
22/02/21 20:10 21.5 61 13.7 0.0 0.0 0 0.0 0.0 1010.0 0.0 0.0 21.5 0.0
22/02/21 20:11 21.5 61 13.7 0.0 0.0 0 0.0 0.0 1010.0 0.0 0.0 21.5 0.0
22/02/21 20:12 21.5 61 13.7 0.0 0.0 0 0.0 0.0 1010.0 0.0 0.0 21.5 0.0
22/02/21 20:13 21.4 61 13.6 0.0 0.0 0 0.0 0.0 1010.0 0.0 0.0 21.4 0.0
22/02/21 20:14 21.4 61 13.6 0.0 0.0 0 0.0 0.0 1010.0 0.0 0.0 21.4 0.0
22/02/21 20:15 21.4 61 13.6 0.0 0.0 0 0.0 0.0 1010.0 0.0 0.0 21.4 0.0
22/02/21 20:18 21.4 62 13.8 0.0 0.0 0 0.0 0.0 1010.0 0.0 0.0 21.4 0.0
22/02/21 20:19 21.4 62 13.8 0.0 0.0 0 0.0 0.0 1010.0 0.0 0.0 21.4 0.0
22/02/21 20:20 21.4 62 13.8 0.0 0.0 0 0.0 0.0 1010.0 0.0 0.0 21.4 0.0
22/02/21 20:21 21.4 63 14.1 0.0 0.0 0 0.0 0.0 1010.0 0.0 0.0 21.4 0.0
22/02/21 20:22 21.4 63 14.1 0.0 0.0 0 0.0 0.0 1010.0 0.0 0.0 21.4 0.0
22/02/21 20:23 21.4 63 14.1 0.0 0.0 0 0.0 0.0 1011.0 0.0 0.0 21.4 0.0
22/02/21 20:24 21.4 63 14.1 0.0 0.0 0 0.0 0.0 1011.0 0.0 0.0 21.4 0.0
22/02/21 20:25 21.5 63 14.2 0.0 0.0 0 0.0 0.0 1011.0 0.0 0.0 21.5 0.0
22/02/21 20:26 21.5 62 13.9 0.0 0.0 0 0.0 0.0 1011.0 0.0 0.0 21.5 0.0
22/02/21 20:27 21.5 62 13.9 0.0 0.0 0 0.0 0.0 1011.0 0.0 0.0 21.5 0.0
22/02/21 20:28 21.5 62 13.9 0.0 0.0 0 0.0 0.0 1011.0 0.0 0.0 21.5 0.0
22/02/21 20:29 21.6 62 14.0 0.0 0.0 0 0.0 0.0 1011.0 0.0 0.0 21.6 0.0
22/02/21 20:30 21.6 62 14.0 0.0 0.0 0 0.0 0.0 1011.0 0.0 0.0 21.6 0.0
22/02/21 20:31 21.6 62 14.0 0.0 0.0 0 0.0 0.0 1011.0 0.0 0.0 21.6 0.0
22/02/21 20:32 21.6 62 14.0 0.0 0.0 0 0.0 0.0 1011.0 0.0 0.0 21.6 0.0
22/02/21 20:33 21.6 62 14.0 0.0 0.0 0 0.0 0.0 1011.0 0.0 0.0 21.6 0.0
22/02/21 20:34 21.5 62 13.9 0.0 0.0 0 0.0 0.0 1011.0 0.0 0.0 21.5 0.0
22/02/21 20:35 21.5 63 14.2 0.0 0.0 0 0.0 0.0 1011.0 0.0 0.0 21.5 0.0
22/02/21 20:36 21.5 63 14.2 0.0 0.0 0 0.0 0.0 1011.0 0.0 0.0 21.5 0.0
22/02/21 20:37 21.5 64 14.4 0.0 0.0 0 0.0 0.0 1011.0 0.0 0.0 21.5 0.0
22/02/21 20:38 21.4 65 14.5 0.0 0.0 0 0.0 0.0 1011.0 0.0 0.0 21.4 0.0
22/02/21 20:39 21.4 65 14.5 0.0 0.0 0 0.0 0.0 1011.0 0.0 0.0 21.4 0.0
22/02/21 20:42 21.1 66 14.5 0.0 0.0 0 0.0 0.0 1011.0 0.0 0.0 21.1 0.0
22/02/21 20:43 21.0 66 14.4 0.0 0.0 0 0.0 0.0 1011.0 0.0 0.0 21.0 0.0
22/02/21 20:44 20.9 68 14.8 0.0 0.0 0 0.0 0.0 1011.0 0.0 0.0 20.9 0.0
22/02/21 20:45 20.8 68 14.7 0.0 0.0 0 0.0 0.0 1011.0 0.0 0.0 20.8 0.0
22/02/21 20:46 20.8 68 14.7 0.0 0.0 0 0.0 0.0 1011.0 0.0 0.0 20.8 0.0
22/02/21 20:47 20.7 69 14.8 0.0 0.0 0 0.0 0.0 1011.0 0.0 0.0 20.7 0.0
22/02/21 20:48 20.6 69 14.7 0.0 0.0 0 0.0 0.0 1011.0 0.0 0.0 20.6 0.0
22/02/21 20:49 20.6 69 14.7 0.0 0.0 0 0.0 0.0 1011.0 0.0 0.0 20.6 0.0
22/02/21 20:50 20.5 69 14.6 0.0 0.0 0 0.0 0.0 1011.0 0.0 0.0 20.5 0.0
22/02/21 20:51 20.5 69 14.6 0.0 0.0 0 0.0 0.0 1011.0 0.0 0.0 20.5 0.0
22/02/21 20:52 20.5 69 14.6 0.0 0.0 0 0.0 0.0 1011.0 0.0 0.0 20.5 0.0
22/02/21 20:53 20.5 69 14.6 0.0 0.0 0 0.0 0.0 1011.0 0.0 0.0 20.5 0.0
22/02/21 20:54 20.4 69 14.5 0.0 0.0 0 0.0 0.0 1011.0 0.0 0.0 20.4 0.0
22/02/21 20:55 20.4 69 14.5 0.0 0.0 0 0.0 0.0 1011.0 0.0 0.0 20.4 0.0
22/02/21 20:56 20.4 69 14.5 0.0 0.0 0 0.0 0.0 1011.0 0.0 0.0 20.4 0.0
22/02/21 20:57 20.3 69 14.4 0.0 0.0 0 0.0 0.0 1011.0 0.0 0.0 20.3 0.0
22/02/21 20:58 20.4 70 14.7 0.0 0.0 0 0.0 0.0 1011.0 0.0 0.0 20.4 0.0
22/02/21 20:59 20.3 70 14.6 0.0 0.0 0 0.0 0.0 1011.0 0.0 0.0 20.3 0.0
22/02/21 21:00 20.3 70 14.6 0.0 0.0 0 0.0 0.0 1011.0 0.0 0.0 20.3 0.0
22/02/21 21:01 20.3 70 14.6 0.0 0.0 0 0.0 0.0 1011.0 0.0 0.0 20.3 0.0
22/02/21 21:02 20.3 70 14.6 0.0 0.0 0 0.0 0.0 1011.0 0.0 0.0 20.3 0.0
22/02/21 21:03 20.3 70 14.6 0.0 0.0 0 0.0 0.0 1011.0 0.0 0.0 20.3 0.0
22/02/21 21:04 20.3 70 14.6 0.0 0.0 0 0.0 0.0 1011.0 0.0 0.0 20.3 0.0
22/02/21 21:05 20.3 70 14.6 0.0 0.0 0 0.0 0.0 1011.0 0.0 0.0 20.3 0.0
22/02/21 21:07 20.3 71 14.9 0.0 0.0 0 0.0 0.0 1011.0 0.0 0.0 20.3 0.0
22/02/21 21:08 20.3 71 14.9 0.0 0.0 0 0.0 0.0 1011.0 0.0 0.0 20.3 0.0
22/02/21 21:09 20.3 71 14.9 0.0 0.0 0 0.0 0.0 1011.0 0.0 0.0 20.3 0.0
22/02/21 21:10 20.3 71 14.9 0.0 0.0 0 0.0 0.0 1011.0 0.0 0.0 20.3 0.0
22/02/21 21:11 20.3 71 14.9 0.0 0.0 0 0.0 0.0 1011.0 0.0 0.0 20.3 0.0
22/02/21 21:12 20.3 70 14.6 0.0 0.0 0 0.0 0.0 1011.0 0.0 0.0 20.3 0.0
22/02/21 21:13 20.3 71 14.9 0.0 0.0 0 0.0 0.0 1011.0 0.0 0.0 20.3 0.0
22/02/21 21:14 20.2 71 14.8 0.0 0.0 0 0.0 0.0 1011.0 0.0 0.0 20.2 0.0
22/02/21 21:15 20.2 71 14.8 0.0 0.0 0 0.0 0.0 1011.0 0.0 0.0 20.2 0.0
22/02/21 21:16 20.2 71 14.8 0.0 0.0 0 0.0 0.0 1011.0 0.0 0.0 20.2 0.0
22/02/21 21:17 20.2 71 14.8 0.0 0.0 0 0.0 0.0 1011.0 0.0 0.0 20.2 0.0
22/02/21 21:18 20.1 71 14.7 0.0 0.0 0 0.0 0.0 1011.0 0.0 0.0 20.1 0.0
22/02/21 21:19 20.1 70 14.5 0.0 0.0 0 0.0 0.0 1011.0 0.0 0.0 20.1 0.0
22/02/21 21:20 20.1 70 14.5 0.0 0.0 0 0.0 0.0 1011.0 0.0 0.0 20.1 0.0
22/02/21 21:21 20.1 70 14.5 0.0 0.0 0 0.0 0.0 1011.0 0.0 0.0 20.1 0.0
22/02/21 21:22 20.0 70 14.4 0.0 0.0 0 0.0 0.0 1011.0 0.0 0.0 20.0 0.0
22/02/21 21:23 20.0 70 14.4 0.0 0.0 0 0.0 0.0 1010.0 0.0 0.0 20.0 0.0
22/02/21 21:24 20.0 70 14.4 0.0 0.0 0 0.0 0.0 1010.0 0.0 0.0 20.0 0.0
22/02/21 21:25 20.0 70 14.4 0.0 0.0 0 0.0 0.0 1010.0 0.0 0.0 20.0 0.0
22/02/21 21:26 20.0 70 14.4 0.0 0.0 0 0.0 0.0 1010.0 0.0 0.0 20.0 0.0
22/02/21 21:27 20.0 70 14.4 0.0 0.0 0 0.0 0.0 1010.0 0.0 0.0 20.0 0.0
22/02/21 21:28 20.0 70 14.4 0.0 0.0 0 0.0 0.0 1010.0 0.0 0.0 20.0 0.0
22/02/21 21:29 19.9 71 14.5 0.0 0.0 0 0.0 0.0 1010.0 0.0 0.0 19.9 0.0
22/02/21 21:32 19.9 71 14.5 0.0 0.0 0 0.0 0.0 1010.0 0.0 0.0 19.9 0.0
22/02/21 21:33 19.9 72 14.7 0.0 0.0 0 0.0 0.0 1010.0 0.0 0.0 19.9 0.0
22/02/21 21:34 19.8 72 14.6 0.0 0.0 0 0.0 0.0 1010.0 0.0 0.0 19.8 0.0
22/02/21 21:35 19.8 72 14.6 0.0 0.0 0 0.0 0.0 1010.0 0.0 0.0 19.8 0.0
22/02/21 21:36 19.8 72 14.6 0.0 0.0 0 0.0 0.0 1010.0 0.0 0.0 19.8 0.0
22/02/21 21:37 19.7 73 14.7 0.0 0.0 0 0.0 0.0 1010.0 0.0 0.0 19.7 0.0
22/02/21 21:38 19.7 73 14.7 0.0 0.0 0 0.0 0.0 1011.0 0.0 0.0 19.7 0.0
22/02/21 21:39 19.7 73 14.7 0.0 0.0 0 0.0 0.0 1011.0 0.0 0.0 19.7 0.0
22/02/21 21:40 19.6 73 14.6 0.0 0.0 0 0.0 0.0 1011.0 0.0 0.0 19.6 0.0
22/02/21 21:41 19.6 73 14.6 0.0 0.0 0 0.0 0.0 1011.0 0.0 0.0 19.6 0.0
22/02/21 21:42 19.5 74 14.7 0.0 0.0 0 0.0 0.0 1011.0 0.0 0.0 19.5 0.0
22/02/21 21:43 19.5 75 14.9 0.0 0.0 0 0.0 0.0 1011.0 0.0 0.0 19.5 0.0
22/02/21 21:44 19.5 75 14.9 0.0 0.0 0 0.0 0.0 1011.0 0.0 0.0 19.5 0.0
22/02/21 21:45 19.4 75 14.9 0.0 0.0 0 0.0 0.0 1011.0 0.0 0.0 19.4 0.0
22/02/21 21:46 19.4 75 14.9 0.0 0.0 0 0.0 0.0 1011.0 0.0 0.0 19.4 0.0
22/02/21 21:47 19.4 75 14.9 0.0 0.0 0 0.0 0.0 1011.0 0.0 0.0 19.4 0.0
22/02/21 21:48 19.4 75 14.9 0.0 0.0 0 0.0 0.0 1011.0 0.0 0.0 19.4 0.0
22/02/21 21:49 19.4 75 14.9 0.0 0.0 0 0.0 0.0 1011.0 0.0 0.0 19.4 0.0
22/02/21 21:50 19.3 75 14.8 0.0 0.0 0 0.0 0.0 1011.0 0.0 0.0 19.3 0.0
22/02/21 21:51 19.3 75 14.8 0.0 0.0 0 0.0 0.0 1011.0 0.0 0.0 19.3 0.0
22/02/21 21:52 19.3 75 14.8 0.0 0.0 0 0.0 0.0 1011.0 0.0 0.0 19.3 0.0
22/02/21 21:53 19.3 75 14.8 0.0 0.0 0 0.0 0.0 1011.0 0.0 0.0 19.3 0.0
22/02/21 21:54 19.3 75 14.8 0.0 0.0 0 0.0 0.0 1011.0 0.0 0.0 19.3 0.0
22/02/21 21:55 19.3 75 14.8 0.0 0.0 0 0.0 0.0 1011.0 0.0 0.0 19.3 0.0
22/02/21 21:57 19.2 76 14.9 0.0 0.0 0 0.0 0.0 1011.0 0.0 0.0 19.2 0.0
22/02/21 21:58 19.2 76 14.9 0.0 0.0 0 0.0 0.0 1011.0 0.0 0.0 19.2 0.0
22/02/21 21:59 19.1 76 14.8 0.0 0.0 0 0.0 0.0 1011.0 0.0 0.0 19.1 0.0
22/02/21 22:00 19.1 76 14.8 0.0 0.0 0 0.0 0.0 1011.0 0.0 0.0 19.1 0.0
22/02/21 22:01 19.1 76 14.8 0.0 0.0 0 0.0 0.0 1011.0 0.0 0.0 19.1 0.0
22/02/21 22:02 19.1 76 14.8 0.0 0.0 0 0.0 0.0 1011.0 0.0 0.0 19.1 0.0
22/02/21 22:03 19.0 76 14.7 0.0 0.0 0 0.0 0.0 1011.0 0.0 0.0 19.0 0.0
22/02/21 22:04 19.0 77 14.9 0.0 0.0 0 0.0 0.0 1011.0 0.0 0.0 19.0 0.0
22/02/21 22:05 19.0 77 14.9 0.0 0.0 0 0.0 0.0 1011.0 0.0 0.0 19.0 0.0
22/02/21 22:06 18.9 77 14.8 0.0 0.0 0 0.0 0.0 1011.0 0.0 0.0 18.9 0.0
22/02/21 22:07 18.9 78 15.0 0.0 0.0 0 0.0 0.0 1011.0 0.0 0.0 18.9 0.0
22/02/21 22:08 18.9 78 15.0 0.0 0.0 0 0.0 0.0 1010.0 0.0 0.0 18.9 0.0
22/02/21 22:09 18.9 78 15.0 0.0 0.0 0 0.0 0.0 1010.0 0.0 0.0 18.9 0.0
22/02/21 22:10 18.9 78 15.0 0.0 0.0 0 0.0 0.0 1010.0 0.0 0.0 18.9 0.0
22/02/21 22:11 18.9 78 15.0 0.0 0.0 0 0.0 0.0 1010.0 0.0 0.0 18.9 0.0
22/02/21 22:12 18.8 78 14.9 0.0 0.0 0 0.0 0.0 1010.0 0.0 0.0 18.8 0.0
22/02/21 22:13 18.8 78 14.9 0.0 0.0 0 0.0 0.0 1010.0 0.0 0.0 18.8 0.0
22/02/21 22:14 18.8 78 14.9 0.0 0.0 0 0.0 0.0 1010.0 0.0 0.0 18.8 0.0
22/02/21 22:15 18.7 78 14.8 0.0 0.0 0 0.0 0.0 1010.0 0.0 0.0 18.7 0.0
22/02/21 22:16 18.7 78 14.8 0.0 0.0 0 0.0 0.0 1010.0 0.0 0.0 18.7 0.0
22/02/21 22:17 18.7 78 14.8 0.0 0.0 0 0.0 0.0 1010.0 0.0 0.0 18.7 0.0
22/02/21 22:18 18.7 78 14.8 0.0 0.0 0 0.0 0.0 1010.0 0.0 0.0 18.7 0.0
22/02/21 22:19 18.6 78 14.7 0.0 0.0 0 0.0 0.0 1010.0 0.0 0.0 18.6 0.0
22/02/21 22:22 18.5 78 14.6 0.0 0.0 0 0.0 0.0 1010.0 0.0 0.0 18.5 0.0
22/02/21 22:23 18.5 78 14.6 0.0 0.0 0 0.0 0.0 1011.0 0.0 0.0 18.5 0.0
22/02/21 22:24 18.5 78 14.6 0.0 0.0 0 0.0 0.0 1011.0 0.0 0.0 18.5 0.0
22/02/21 22:25 18.4 79 14.7 0.0 0.0 0 0.0 0.0 1011.0 0.0 0.0 18.4 0.0
22/02/21 22:26 18.4 79 14.7 0.0 0.0 0 0.0 0.0 1011.0 0.0 0.0 18.4 0.0
22/02/21 22:27 18.4 79 14.7 0.0 0.0 0 0.0 0.0 1011.0 0.0 0.0 18.4 0.0
22/02/21 22:28 18.3 79 14.6 0.0 0.0 0 0.0 0.0 1011.0 0.0 0.0 18.3 0.0
22/02/21 22:29 18.3 79 14.6 0.0 0.0 0 0.0 0.0 1011.0 0.0 0.0 18.3 0.0
22/02/21 22:30 18.3 79 14.6 0.0 0.0 0 0.0 0.0 1011.0 0.0 0.0 18.3 0.0
22/02/21 22:31 18.3 79 14.6 0.0 0.0 0 0.0 0.0 1011.0 0.0 0.0 18.3 0.0
22/02/21 22:32 18.3 79 14.6 0.0 0.0 0 0.0 0.0 1011.0 0.0 0.0 18.3 0.0
22/02/21 22:33 18.2 80 14.7 0.0 0.0 0 0.0 0.0 1011.0 0.0 0.0 18.2 0.0
22/02/21 22:34 18.2 80 14.7 0.0 0.0 0 0.0 0.0 1011.0 0.0 0.0 18.2 0.0
22/02/21 22:35 18.2 80 14.7 0.0 0.0 0 0.0 0.0 1011.0 0.0 0.0 18.2 0.0
22/02/21 22:36 18.2 80 14.7 0.0 0.0 0 0.0 0.0 1011.0 0.0 0.0 18.2 0.0
22/02/21 22:37 18.1 80 14.6 0.0 0.0 0 0.0 0.0 1011.0 0.0 0.0 18.1 0.0
22/02/21 22:48 18.0 81 14.7 0.0 0.0 0 0.0 0.0 1012.0 0.0 0.0 18.0 0.0
22/02/21 22:49 17.9 82 14.8 0.0 0.0 0 0.0 0.0 1012.0 0.0 0.0 17.9 0.0
22/02/21 23:13 17.8 83 14.9 0.0 0.0 0 0.0 0.0 1011.0 0.0 0.0 17.8 0.0
22/02/21 23:14 17.8 83 14.9 0.0 0.0 0 0.0 0.0 1011.0 0.0 0.0 17.8 0.0
22/02/21 23:15 17.8 83 14.9 0.0 0.0 0 0.0 0.0 1011.0 0.0 0.0 17.8 0.0
22/02/21 23:16 17.8 83 14.9 0.0 0.0 0 0.0 0.0 1011.0 0.0 0.0 17.8 0.0
22/02/21 23:17 17.8 83 14.9 0.0 0.0 0 0.0 0.0 1011.0 0.0 0.0 17.8 0.0
22/02/21 23:37 17.2 86 14.8 0.0 0.0 0 0.0 0.0 1011.0 0.0 0.0 17.2 0.0
22/02/21 23:38 17.2 86 14.8 0.0 0.0 0 0.0 0.0 1011.0 0.0 0.0 17.2 0.0
 
  Back to Top
Date Time Temperature Humidity Dewpoint Wind Speed High Gust Wind Bearing Rainfall Rate Total Rainfall Pressure Gust Wind Chill Heat Index UV Index
23/02/21 00:28 16.2 91 14.7 0.0 0.0 0 0.0 0.0 1011.0 0.0 0.0 16.2 0.0
23/02/21 00:29 16.2 91 14.7 0.0 0.0 0 0.0 0.0 1011.0 0.0 0.0 16.2 0.0
23/02/21 00:30 16.2 92 14.9 0.0 0.0 0 0.0 0.0 1011.0 0.0 0.0 16.2 0.0
23/02/21 00:31 16.2 92 14.9 0.0 0.0 0 0.0 0.0 1011.0 0.0 0.0 16.2 0.0
23/02/21 00:32 16.2 92 14.9 0.0 0.0 0 0.0 0.0 1011.0 0.0 0.0 16.2 0.0
23/02/21 00:33 16.2 92 14.9 0.0 0.0 0 0.0 0.0 1011.0 0.0 0.0 16.2 0.0
23/02/21 00:34 16.2 92 14.9 0.0 0.0 0 0.0 0.0 1011.0 0.0 0.0 16.2 0.0
23/02/21 00:35 16.2 92 14.9 0.0 0.0 0 0.0 0.0 1011.0 0.0 0.0 16.2 0.0
23/02/21 00:36 16.1 92 14.8 0.0 0.0 0 0.0 0.0 1011.0 0.0 0.0 16.1 0.0
23/02/21 00:37 16.1 92 14.8 0.0 0.0 0 0.0 0.0 1011.0 0.0 0.0 16.1 0.0
23/02/21 00:38 16.1 92 14.8 0.0 0.0 0 0.0 0.0 1011.0 0.0 0.0 16.1 0.0
23/02/21 00:39 16.1 92 14.8 0.0 0.0 0 0.0 0.0 1011.0 0.0 0.0 16.1 0.0
23/02/21 00:40 16.1 92 14.8 0.0 0.0 0 0.0 0.0 1011.0 0.0 0.0 16.1 0.0
23/02/21 00:41 16.1 92 14.8 0.0 0.0 0 0.0 0.0 1011.0 0.0 0.0 16.1 0.0
23/02/21 00:42 16.1 92 14.8 0.0 0.0 0 0.0 0.0 1011.0 0.0 0.0 16.1 0.0
23/02/21 00:43 16.1 92 14.8 0.0 0.0 0 0.0 0.0 1011.0 0.0 0.0 16.1 0.0
23/02/21 00:44 16.0 92 14.7 0.0 0.0 0 0.0 0.0 1011.0 0.0 0.0 16.0 0.0
23/02/21 00:45 16.0 92 14.7 0.0 0.0 0 0.0 0.0 1011.0 0.0 0.0 16.0 0.0
23/02/21 00:46 16.1 93 15.0 0.0 0.0 0 0.0 0.0 1011.0 0.0 0.0 16.1 0.0
23/02/21 00:47 16.1 93 15.0 0.0 0.0 0 0.0 0.0 1011.0 0.0 0.0 16.1 0.0
23/02/21 00:48 16.0 93 14.9 0.0 0.0 0 0.0 0.0 1011.0 0.0 0.0 16.0 0.0
23/02/21 00:49 16.0 93 14.9 0.0 0.0 0 0.0 0.0 1011.0 0.0 0.0 16.0 0.0
23/02/21 00:52 16.0 93 14.9 0.0 0.0 0 0.0 0.0 1011.0 0.0 0.0 16.0 0.0
23/02/21 00:53 16.0 93 14.9 0.0 0.0 0 0.0 0.0 1011.0 0.0 0.0 16.0 0.0
23/02/21 00:54 16.0 93 14.9 0.0 0.0 0 0.0 0.0 1011.0 0.0 0.0 16.0 0.0
23/02/21 00:55 16.0 93 14.9 0.0 0.0 0 0.0 0.0 1011.0 0.0 0.0 16.0 0.0
23/02/21 00:56 16.0 93 14.9 0.0 0.0 0 0.0 0.0 1011.0 0.0 0.0 16.0 0.0
23/02/21 00:57 15.9 93 14.8 0.0 0.0 0 0.0 0.0 1011.0 0.0 0.0 15.9 0.0
23/02/21 00:58 16.0 93 14.9 0.0 0.0 0 0.0 0.0 1011.0 0.0 0.0 16.0 0.0
23/02/21 00:59 15.9 93 14.8 0.0 0.0 0 0.0 0.0 1011.0 0.0 0.0 15.9 0.0
23/02/21 01:00 15.9 93 14.8 0.0 0.0 0 0.0 0.0 1011.0 0.0 0.0 15.9 0.0
23/02/21 01:01 15.9 93 14.8 0.0 0.0 0 0.0 0.0 1011.0 0.0 0.0 15.9 0.0
23/02/21 01:02 15.9 94 14.9 0.0 0.0 0 0.0 0.0 1011.0 0.0 0.0 15.9 0.0
23/02/21 01:03 15.9 94 14.9 0.0 0.0 0 0.0 0.0 1011.0 0.0 0.0 15.9 0.0
23/02/21 01:04 15.9 94 14.9 0.0 0.0 0 0.0 0.0 1011.0 0.0 0.0 15.9 0.0
23/02/21 01:05 15.9 94 14.9 0.0 0.0 0 0.0 0.0 1011.0 0.0 0.0 15.9 0.0
23/02/21 01:06 15.9 94 14.9 0.0 0.0 0 0.0 0.0 1011.0 0.0 0.0 15.9 0.0
23/02/21 01:07 15.9 94 14.9 0.0 0.0 0 0.0 0.0 1011.0 0.0 0.0 15.9 0.0
23/02/21 01:08 15.9 94 14.9 0.0 0.0 0 0.0 0.0 1010.0 0.0 0.0 15.9 0.0
23/02/21 01:09 15.9 94 14.9 0.0 0.0 0 0.0 0.0 1010.0 0.0 0.0 15.9 0.0
23/02/21 01:10 15.9 94 14.9 0.0 0.0 0 0.0 0.0 1010.0 0.0 0.0 15.9 0.0
23/02/21 01:11 15.9 94 14.9 0.0 0.0 0 0.0 0.0 1010.0 0.0 0.0 15.9 0.0
23/02/21 01:12 15.9 94 14.9 0.0 0.0 0 0.0 0.0 1010.0 0.0 0.0 15.9 0.0
23/02/21 01:13 15.9 94 14.9 0.0 0.0 0 0.0 0.0 1010.0 0.0 0.0 15.9 0.0
23/02/21 01:14 15.8 94 14.8 0.0 0.0 0 0.0 0.0 1010.0 0.0 0.0 15.8 0.0
23/02/21 01:20 15.7 94 14.7 0.0 0.0 0 0.0 0.0 1010.0 0.0 0.0 15.7 0.0
23/02/21 01:21 15.7 94 14.7 0.0 0.0 0 0.0 0.0 1010.0 0.0 0.0 15.7 0.0
23/02/21 01:22 15.7 94 14.7 0.0 0.0 0 0.0 0.0 1010.0 0.0 0.0 15.7 0.0
23/02/21 01:23 15.7 94 14.7 0.0 0.0 0 0.0 0.0 1010.0 0.0 0.0 15.7 0.0
23/02/21 01:24 15.7 94 14.7 0.0 0.0 0 0.0 0.0 1010.0 0.0 0.0 15.7 0.0
23/02/21 01:25 15.6 94 14.6 0.0 0.0 0 0.0 0.0 1010.0 0.0 0.0 15.6 0.0
23/02/21 01:26 15.6 94 14.6 0.0 0.0 0 0.0 0.0 1010.0 0.0 0.0 15.6 0.0
23/02/21 01:27 15.6 94 14.6 0.0 0.0 0 0.0 0.0 1010.0 0.0 0.0 15.6 0.0
23/02/21 01:28 15.6 94 14.6 0.0 0.0 0 0.0 0.0 1010.0 0.0 0.0 15.6 0.0
23/02/21 01:29 15.6 94 14.6 0.0 0.0 0 0.0 0.0 1010.0 0.0 0.0 15.6 0.0
23/02/21 01:30 15.6 94 14.6 0.0 0.0 0 0.0 0.0 1010.0 0.0 0.0 15.6 0.0
23/02/21 01:31 15.6 94 14.6 0.0 0.0 0 0.0 0.0 1010.0 0.0 0.0 15.6 0.0
23/02/21 01:32 15.6 94 14.6 0.0 0.0 0 0.0 0.0 1010.0 0.0 0.0 15.6 0.0
23/02/21 01:33 15.6 94 14.6 0.0 0.0 0 0.0 0.0 1010.0 0.0 0.0 15.6 0.0
23/02/21 01:34 15.6 94 14.6 0.0 0.0 0 0.0 0.0 1010.0 0.0 0.0 15.6 0.0
23/02/21 01:35 15.6 94 14.6 0.0 0.0 0 0.0 0.0 1010.0 0.0 0.0 15.6 0.0
23/02/21 01:36 15.6 94 14.6 0.0 0.0 0 0.0 0.0 1010.0 0.0 0.0 15.6 0.0
23/02/21 01:37 15.5 94 14.5 0.0 0.0 0 0.0 0.0 1010.0 0.0 0.0 15.5 0.0
23/02/21 01:38 15.5 94 14.5 0.0 0.0 0 0.0 0.0 1010.0 0.0 0.0 15.5 0.0
23/02/21 01:39 15.5 94 14.5 0.0 0.0 0 0.0 0.0 1010.0 0.0 0.0 15.5 0.0
23/02/21 01:42 15.5 94 14.5 0.0 0.0 0 0.0 0.0 1010.0 0.0 0.0 15.5 0.0
23/02/21 01:43 15.6 94 14.6 0.0 0.0 0 0.0 0.0 1010.0 0.0 0.0 15.6 0.0
23/02/21 01:44 15.6 94 14.6 0.0 0.0 0 0.0 0.0 1010.0 0.0 0.0 15.6 0.0
23/02/21 01:45 15.6 94 14.6 0.0 0.0 0 0.0 0.0 1010.0 0.0 0.0 15.6 0.0
23/02/21 01:46 15.5 94 14.5 0.0 0.0 0 0.0 0.0 1010.0 0.0 0.0 15.5 0.0
23/02/21 01:47 15.5 94 14.5 0.0 0.0 0 0.0 0.0 1010.0 0.0 0.0 15.5 0.0
23/02/21 01:48 15.5 94 14.5 0.0 0.0 0 0.0 0.0 1010.0 0.0 0.0 15.5 0.0
23/02/21 01:49 15.5 94 14.5 0.0 0.0 0 0.0 0.0 1010.0 0.0 0.0 15.5 0.0
23/02/21 01:50 15.5 94 14.5 0.0 0.0 0 0.0 0.0 1010.0 0.0 0.0 15.5 0.0
23/02/21 01:51 15.5 94 14.5 0.0 0.0 0 0.0 0.0 1010.0 0.0 0.0 15.5 0.0
23/02/21 01:52 15.5 94 14.5 0.0 0.0 0 0.0 0.0 1010.0 0.0 0.0 15.5 0.0
23/02/21 01:53 15.6 94 14.6 0.0 0.0 0 0.0 0.0 1010.0 0.0 0.0 15.6 0.0
23/02/21 01:54 15.6 94 14.6 0.0 0.0 0 0.0 0.0 1010.0 0.0 0.0 15.6 0.0
23/02/21 01:55 15.6 94 14.6 0.0 0.0 0 0.0 0.0 1010.0 0.0 0.0 15.6 0.0
23/02/21 01:56 15.6 94 14.6 0.0 0.0 0 0.0 0.0 1010.0 0.0 0.0 15.6 0.0
23/02/21 01:57 15.6 94 14.6 0.0 0.0 0 0.0 0.0 1010.0 0.0 0.0 15.6 0.0
23/02/21 01:58 15.6 94 14.6 0.0 0.0 0 0.0 0.0 1010.0 0.0 0.0 15.6 0.0
23/02/21 01:59 15.6 94 14.6 0.0 0.0 0 0.0 0.0 1010.0 0.0 0.0 15.6 0.0
23/02/21 02:00 15.6 94 14.6 0.0 0.0 0 0.0 0.0 1010.0 0.0 0.0 15.6 0.0
23/02/21 02:01 15.6 94 14.6 0.0 0.0 0 0.0 0.0 1010.0 0.0 0.0 15.6 0.0
23/02/21 02:02 15.6 94 14.6 0.0 0.0 0 0.0 0.0 1010.0 0.0 0.0 15.6 0.0
23/02/21 02:03 15.6 94 14.6 0.0 0.0 0 0.0 0.0 1010.0 0.0 0.0 15.6 0.0
23/02/21 02:04 15.6 94 14.6 0.0 0.0 0 0.0 0.0 1010.0 0.0 0.0 15.6 0.0
23/02/21 02:07 15.6 94 14.6 0.0 0.0 0 0.0 0.0 1010.0 0.0 0.0 15.6 0.0
23/02/21 02:08 15.6 94 14.6 0.0 0.0 0 0.0 0.0 1010.0 0.0 0.0 15.6 0.0
23/02/21 02:09 15.6 94 14.6 0.0 0.0 0 0.0 0.0 1010.0 0.0 0.0 15.6 0.0
23/02/21 02:10 15.6 94 14.6 0.0 0.0 0 0.0 0.0 1010.0 0.0 0.0 15.6 0.0
23/02/21 02:11 15.6 94 14.6 0.0 0.0 0 0.0 0.0 1010.0 0.0 0.0 15.6 0.0
23/02/21 02:12 15.5 94 14.5 0.0 0.0 0 0.0 0.0 1010.0 0.0 0.0 15.5 0.0
23/02/21 02:13 15.5 94 14.5 0.0 0.0 0 0.0 0.0 1010.0 0.0 0.0 15.5 0.0
23/02/21 02:14 15.5 94 14.5 0.0 0.0 0 0.0 0.0 1010.0 0.0 0.0 15.5 0.0
23/02/21 02:15 15.6 94 14.6 0.0 0.0 0 0.0 0.0 1010.0 0.0 0.0 15.6 0.0
23/02/21 02:16 15.6 94 14.6 0.0 0.0 0 0.0 0.0 1010.0 0.0 0.0 15.6 0.0
23/02/21 02:17 15.6 94 14.6 0.0 0.0 0 0.0 0.0 1010.0 0.0 0.0 15.6 0.0
23/02/21 02:18 15.6 94 14.6 0.0 0.0 0 0.0 0.0 1010.0 0.0 0.0 15.6 0.0
23/02/21 02:19 15.6 94 14.6 0.0 0.0 0 0.0 0.0 1010.0 0.0 0.0 15.6 0.0
23/02/21 02:20 15.6 94 14.6 0.0 0.0 0 0.0 0.0 1010.0 0.0 0.0 15.6 0.0
23/02/21 02:21 15.6 93 14.5 0.0 0.0 0 0.0 0.0 1010.0 0.0 0.0 15.6 0.0
23/02/21 02:22 15.6 93 14.5 0.0 0.0 0 0.0 0.0 1010.0 0.0 0.0 15.6 0.0
23/02/21 02:23 15.6 93 14.5 0.0 0.0 0 0.0 0.0 1010.0 0.0 0.0 15.6 0.0
23/02/21 02:24 15.7 93 14.6 0.0 0.0 0 0.0 0.0 1010.0 0.0 0.0 15.7 0.0
23/02/21 02:25 15.7 93 14.6 0.0 0.0 0 0.0 0.0 1010.0 0.0 0.0 15.7 0.0
23/02/21 02:26 15.7 93 14.6 0.0 0.0 0 0.0 0.0 1010.0 0.0 0.0 15.7 0.0
23/02/21 02:27 15.7 93 14.6 0.0 0.0 0 0.0 0.0 1010.0 0.0 0.0 15.7 0.0
23/02/21 02:28 15.7 93 14.6 0.0 0.0 0 0.0 0.0 1010.0 0.0 0.0 15.7 0.0
23/02/21 02:29 15.7 93 14.6 0.0 0.0 0 0.0 0.0 1010.0 0.0 0.0 15.7 0.0
23/02/21 02:30 15.6 93 14.5 0.0 0.0 0 0.0 0.0 1010.0 0.0 0.0 15.6 0.0
23/02/21 02:32 15.6 93 14.5 0.0 0.0 0 0.0 0.0 1010.0 0.0 0.0 15.6 0.0
23/02/21 02:33 15.6 93 14.5 0.0 0.0 0 0.0 0.0 1010.0 0.0 0.0 15.6 0.0
23/02/21 02:34 15.6 93 14.5 0.0 0.0 0 0.0 0.0 1010.0 0.0 0.0 15.6 0.0
23/02/21 02:35 15.6 93 14.5 0.0 0.0 0 0.0 0.0 1010.0 0.0 0.0 15.6 0.0
23/02/21 02:36 15.6 93 14.5 0.0 0.0 0 0.0 0.0 1010.0 0.0 0.0 15.6 0.0
23/02/21 02:37 15.6 93 14.5 0.0 0.0 0 0.0 0.0 1010.0 0.0 0.0 15.6 0.0
23/02/21 02:38 15.7 93 14.6 0.0 0.0 0 0.0 0.0 1010.0 0.0 0.0 15.7 0.0
23/02/21 02:39 15.7 93 14.6 0.0 0.0 0 0.0 0.0 1010.0 0.0 0.0 15.7 0.0
23/02/21 02:40 15.7 93 14.6 0.0 0.0 0 0.0 0.0 1010.0 0.0 0.0 15.7 0.0
23/02/21 02:41 15.7 93 14.6 0.0 0.0 0 0.0 0.0 1010.0 0.0 0.0 15.7 0.0
23/02/21 02:42 15.8 93 14.7 0.0 0.0 0 0.0 0.0 1010.0 0.0 0.0 15.8 0.0
23/02/21 02:43 15.8 93 14.7 0.0 0.0 0 0.0 0.0 1010.0 0.0 0.0 15.8 0.0
23/02/21 02:44 15.8 93 14.7 0.0 0.0 0 0.0 0.0 1010.0 0.0 0.0 15.8 0.0
23/02/21 02:45 15.9 93 14.8 0.0 0.0 0 0.0 0.0 1010.0 0.0 0.0 15.9 0.0
23/02/21 02:46 15.9 93 14.8 0.0 0.0 0 0.0 0.0 1010.0 0.0 0.0 15.9 0.0
23/02/21 02:47 15.9 93 14.8 0.0 0.0 0 0.0 0.0 1010.0 0.0 0.0 15.9 0.0
23/02/21 02:48 15.9 92 14.6 0.0 0.0 0 0.0 0.0 1010.0 0.0 0.0 15.9 0.0
23/02/21 02:49 15.9 92 14.6 0.0 0.0 0 0.0 0.0 1010.0 0.0 0.0 15.9 0.0
23/02/21 02:50 15.9 92 14.6 0.0 0.0 0 0.0 0.0 1010.0 0.0 0.0 15.9 0.0
23/02/21 02:51 15.9 92 14.6 0.0 0.0 0 0.0 0.0 1010.0 0.0 0.0 15.9 0.0
23/02/21 02:52 15.9 92 14.6 0.0 0.0 0 0.0 0.0 1010.0 0.0 0.0 15.9 0.0
23/02/21 02:53 16.0 92 14.7 0.0 0.0 0 0.0 0.0 1010.0 0.0 0.0 16.0 0.0
23/02/21 02:54 16.0 92 14.7 0.0 0.0 0 0.0 0.0 1010.0 0.0 0.0 16.0 0.0
23/02/21 02:57 16.0 91 14.5 0.0 0.0 0 0.0 0.0 1010.0 0.0 0.0 16.0 0.0
23/02/21 02:58 16.0 91 14.5 0.0 0.0 0 0.0 0.0 1010.0 0.0 0.0 16.0 0.0
23/02/21 02:59 16.0 91 14.5 0.0 0.0 0 0.0 0.0 1010.0 0.0 0.0 16.0 0.0
23/02/21 03:00 16.0 91 14.5 0.0 0.0 0 0.0 0.0 1010.0 0.0 0.0 16.0 0.0
23/02/21 03:01 16.0 91 14.5 0.0 0.0 0 0.0 0.0 1010.0 0.0 0.0 16.0 0.0
23/02/21 03:02 16.0 91 14.5 0.0 0.0 0 0.0 0.0 1010.0 0.0 0.0 16.0 0.0
23/02/21 03:03 15.9 92 14.6 0.0 0.0 0 0.0 0.0 1010.0 0.0 0.0 15.9 0.0
23/02/21 03:04 15.9 92 14.6 0.0 0.0 0 0.0 0.0 1010.0 0.0 0.0 15.9 0.0
23/02/21 03:05 15.9 92 14.6 0.0 0.0 0 0.0 0.0 1010.0 0.0 0.0 15.9 0.0
23/02/21 03:06 15.9 92 14.6 0.0 0.0 0 0.0 0.0 1010.0 0.0 0.0 15.9 0.0
23/02/21 03:07 15.9 93 14.8 0.0 0.0 0 0.0 0.0 1010.0 0.0 0.0 15.9 0.0
23/02/21 03:08 15.8 93 14.7 0.0 0.0 0 0.0 0.0 1010.0 0.0 0.0 15.8 0.0
23/02/21 03:09 15.8 93 14.7 0.0 0.0 0 0.0 0.0 1010.0 0.0 0.0 15.8 0.0
23/02/21 03:10 15.8 93 14.7 0.0 0.0 0 0.0 0.0 1010.0 0.0 0.0 15.8 0.0
23/02/21 03:11 15.8 93 14.7 0.0 0.0 0 0.0 0.0 1010.0 0.0 0.0 15.8 0.0
23/02/21 03:12 15.8 93 14.7 0.0 0.0 0 0.0 0.0 1010.0 0.0 0.0 15.8 0.0
23/02/21 03:13 15.8 93 14.7 0.0 0.0 0 0.0 0.0 1010.0 0.0 0.0 15.8 0.0
23/02/21 03:14 15.7 93 14.6 0.0 0.0 0 0.0 0.0 1010.0 0.0 0.0 15.7 0.0
23/02/21 03:15 15.7 94 14.7 0.0 0.0 0 0.0 0.0 1010.0 0.0 0.0 15.7 0.0
23/02/21 03:16 15.7 94 14.7 0.0 0.0 0 0.0 0.0 1010.0 0.0 0.0 15.7 0.0
23/02/21 03:17 15.7 94 14.7 0.0 0.0 0 0.0 0.0 1010.0 0.0 0.0 15.7 0.0
23/02/21 03:18 15.6 94 14.6 0.0 0.0 0 0.0 0.0 1010.0 0.0 0.0 15.6 0.0
23/02/21 03:19 15.6 94 14.6 0.0 0.0 0 0.0 0.0 1010.0 0.0 0.0 15.6 0.0
23/02/21 03:20 15.6 94 14.6 0.0 0.0 0 0.0 0.0 1010.0 0.0 0.0 15.6 0.0
23/02/21 03:23 15.6 94 14.6 0.0 0.0 0 0.0 0.0 1010.0 0.0 0.0 15.6 0.0
23/02/21 03:24 15.6 94 14.6 0.0 0.0 0 0.0 0.0 1010.0 0.0 0.0 15.6 0.0
23/02/21 03:25 15.6 94 14.6 0.0 0.0 0 0.0 0.0 1010.0 0.0 0.0 15.6 0.0
23/02/21 03:26 15.6 94 14.6 0.0 0.0 0 0.0 0.0 1010.0 0.0 0.0 15.6 0.0
23/02/21 03:27 15.6 94 14.6 0.0 0.0 0 0.0 0.0 1010.0 0.0 0.0 15.6 0.0
23/02/21 03:28 15.6 94 14.6 0.0 0.0 0 0.0 0.0 1010.0 0.0 0.0 15.6 0.0
23/02/21 03:29 15.6 94 14.6 0.0 0.0 0 0.0 0.0 1010.0 0.0 0.0 15.6 0.0
23/02/21 03:30 15.5 94 14.5 0.0 0.0 0 0.0 0.0 1010.0 0.0 0.0 15.5 0.0
23/02/21 03:31 15.5 94 14.5 0.0 0.0 0 0.0 0.0 1010.0 0.0 0.0 15.5 0.0
23/02/21 03:32 15.5 94 14.5 0.0 0.0 0 0.0 0.0 1010.0 0.0 0.0 15.5 0.0
23/02/21 03:33 15.5 94 14.5 0.0 0.0 0 0.0 0.0 1010.0 0.0 0.0 15.5 0.0
23/02/21 03:34 15.4 94 14.4 0.0 0.0 0 0.0 0.0 1010.0 0.0 0.0 15.4 0.0
23/02/21 03:35 15.4 94 14.4 0.0 0.0 0 0.0 0.0 1010.0 0.0 0.0 15.4 0.0
23/02/21 03:36 15.4 94 14.4 0.0 0.0 0 0.0 0.0 1010.0 0.0 0.0 15.4 0.0
23/02/21 03:37 15.4 94 14.4 0.0 0.0 0 0.0 0.0 1010.0 0.0 0.0 15.4 0.0
23/02/21 03:38 15.3 94 14.3 0.0 0.0 0 0.0 0.0 1010.0 0.0 0.0 15.3 0.0
23/02/21 03:39 15.3 94 14.3 0.0 0.0 0 0.0 0.0 1010.0 0.0 0.0 15.3 0.0
23/02/21 03:40 15.3 94 14.3 0.0 0.0 0 0.0 0.0 1010.0 0.0 0.0 15.3 0.0
23/02/21 03:41 15.3 94 14.3 0.0 0.0 0 0.0 0.0 1010.0 0.0 0.0 15.3 0.0
23/02/21 03:42 15.3 94 14.3 0.0 0.0 0 0.0 0.0 1010.0 0.0 0.0 15.3 0.0
23/02/21 03:43 15.3 94 14.3 0.0 0.0 0 0.0 0.0 1010.0 0.0 0.0 15.3 0.0
23/02/21 03:44 15.3 94 14.3 0.0 0.0 0 0.0 0.0 1010.0 0.0 0.0 15.3 0.0
23/02/21 03:45 15.3 94 14.3 0.0 0.0 0 0.0 0.0 1010.0 0.0 0.0 15.3 0.0
23/02/21 03:47 15.2 94 14.2 0.0 0.0 0 0.0 0.0 1010.0 0.0 0.0 15.2 0.0
23/02/21 03:48 15.2 94 14.2 0.0 0.0 0 0.0 0.0 1010.0 0.0 0.0 15.2 0.0
23/02/21 03:49 15.1 94 14.1 0.0 0.0 0 0.0 0.0 1010.0 0.0 0.0 15.1 0.0
23/02/21 03:50 15.1 94 14.1 0.0 0.0 0 0.0 0.0 1010.0 0.0 0.0 15.1 0.0
23/02/21 03:51 15.1 94 14.1 0.0 0.0 0 0.0 0.0 1010.0 0.0 0.0 15.1 0.0
23/02/21 03:52 15.1 94 14.1 0.0 0.0 0 0.0 0.0 1010.0 0.0 0.0 15.1 0.0
23/02/21 03:53 15.1 94 14.1 0.0 0.0 0 0.0 0.0 1010.0 0.0 0.0 15.1 0.0
23/02/21 03:54 15.1 94 14.1 0.0 0.0 0 0.0 0.0 1010.0 0.0 0.0 15.1 0.0
23/02/21 03:55 15.0 94 14.0 0.0 0.0 0 0.0 0.0 1010.0 0.0 0.0 15.0 0.0
23/02/21 03:56 15.0 94 14.0 0.0 0.0 0 0.0 0.0 1010.0 0.0 0.0 15.0 0.0
23/02/21 03:57 15.0 94 14.0 0.0 0.0 0 0.0 0.0 1010.0 0.0 0.0 15.0 0.0
23/02/21 03:58 15.0 94 14.0 0.0 0.0 0 0.0 0.0 1010.0 0.0 0.0 15.0 0.0
23/02/21 03:59 15.0 95 14.2 0.0 0.0 0 0.0 0.0 1010.0 0.0 0.0 15.0 0.0
23/02/21 04:00 15.0 95 14.2 0.0 0.0 0 0.0 0.0 1010.0 0.0 0.0 15.0 0.0
23/02/21 04:01 15.0 95 14.2 0.0 0.0 0 0.0 0.0 1010.0 0.0 0.0 15.0 0.0
23/02/21 04:02 14.9 95 14.1 0.0 0.0 0 0.0 0.0 1010.0 0.0 0.0 14.9 0.0
23/02/21 04:03 14.9 95 14.1 0.0 0.0 0 0.0 0.0 1010.0 0.0 0.0 14.9 0.0
23/02/21 04:04 14.9 95 14.1 0.0 0.0 0 0.0 0.0 1010.0 0.0 0.0 14.9 0.0
23/02/21 04:05 14.9 95 14.1 0.0 0.0 0 0.0 0.0 1010.0 0.0 0.0 14.9 0.0
23/02/21 04:06 14.9 95 14.1 0.0 0.0 0 0.0 0.0 1010.0 0.0 0.0 14.9 0.0
23/02/21 04:07 14.9 95 14.1 0.0 0.0 0 0.0 0.0 1010.0 0.0 0.0 14.9 0.0
23/02/21 04:08 14.9 95 14.1 0.0 0.0 0 0.0 0.0 1010.0 0.0 0.0 14.9 0.0
23/02/21 04:09 14.9 95 14.1 0.0 0.0 0 0.0 0.0 1010.0 0.0 0.0 14.9 0.0
23/02/21 04:10 14.9 95 14.1 0.0 0.0 0 0.0 0.0 1010.0 0.0 0.0 14.9 0.0
23/02/21 04:12 14.9 96 14.3 0.0 0.0 0 0.0 0.0 1010.0 0.0 0.0 14.9 0.0
23/02/21 04:13 14.9 96 14.3 0.0 0.0 0 0.0 0.0 1010.0 0.0 0.0 14.9 0.0
23/02/21 04:14 14.9 96 14.3 0.0 0.0 0 0.0 0.0 1010.0 0.0 0.0 14.9 0.0
23/02/21 04:15 14.9 96 14.3 0.0 0.0 0 0.0 0.0 1010.0 0.0 0.0 14.9 0.0
23/02/21 04:16 14.9 96 14.3 0.0 0.0 0 0.0 0.0 1010.0 0.0 0.0 14.9 0.0
23/02/21 04:17 14.8 96 14.2 0.0 0.0 0 0.0 0.0 1010.0 0.0 0.0 14.8 0.0
23/02/21 04:18 14.8 96 14.2 0.0 0.0 0 0.0 0.0 1010.0 0.0 0.0 14.8 0.0
23/02/21 04:19 14.8 96 14.2 0.0 0.0 0 0.0 0.0 1010.0 0.0 0.0 14.8 0.0
23/02/21 04:20 14.8 96 14.2 0.0 0.0 0 0.0 0.0 1010.0 0.0 0.0 14.8 0.0
23/02/21 04:21 14.8 96 14.2 0.0 0.0 0 0.0 0.0 1010.0 0.0 0.0 14.8 0.0
23/02/21 04:22 14.8 96 14.2 0.0 0.0 0 0.0 0.0 1010.0 0.0 0.0 14.8 0.0
23/02/21 04:23 14.8 96 14.2 0.0 0.0 0 0.0 0.0 1010.0 0.0 0.0 14.8 0.0
23/02/21 04:24 14.9 96 14.3 0.0 0.0 0 0.0 0.0 1010.0 0.0 0.0 14.9 0.0
23/02/21 04:25 14.8 96 14.2 0.0 0.0 0 0.0 0.0 1010.0 0.0 0.0 14.8 0.0
23/02/21 04:26 14.8 96 14.2 0.0 0.0 0 0.0 0.0 1010.0 0.0 0.0 14.8 0.0
23/02/21 04:27 14.9 96 14.3 0.0 0.0 0 0.0 0.0 1010.0 0.0 0.0 14.9 0.0
23/02/21 04:28 14.9 96 14.3 0.0 0.0 0 0.0 0.0 1010.0 0.0 0.0 14.9 0.0
23/02/21 04:29 14.9 96 14.3 0.0 0.0 0 0.0 0.0 1010.0 0.0 0.0 14.9 0.0
23/02/21 04:30 14.9 97 14.4 0.0 0.0 0 0.0 0.0 1010.0 0.0 0.0 14.9 0.0
23/02/21 04:31 14.8 97 14.3 0.0 0.0 0 0.0 0.0 1010.0 0.0 0.0 14.8 0.0
23/02/21 04:32 14.8 97 14.3 0.0 0.0 0 0.0 0.0 1010.0 0.0 0.0 14.8 0.0
23/02/21 04:33 14.8 97 14.3 0.0 0.0 0 0.0 0.0 1010.0 0.0 0.0 14.8 0.0
23/02/21 04:34 14.8 97 14.3 0.0 0.0 0 0.0 0.0 1010.0 0.0 0.0 14.8 0.0
23/02/21 04:35 14.8 97 14.3 0.0 0.0 0 0.0 0.0 1010.0 0.0 0.0 14.8 0.0
23/02/21 04:38 14.8 97 14.3 0.0 0.0 0 0.0 0.0 1010.0 0.0 0.0 14.8 0.0
23/02/21 04:39 14.8 97 14.3 0.0 0.0 0 0.0 0.0 1010.0 0.0 0.0 14.8 0.0
23/02/21 04:40 14.8 97 14.3 0.0 0.0 0 0.0 0.0 1010.0 0.0 0.0 14.8 0.0
23/02/21 04:41 14.8 97 14.3 0.0 0.0 0 0.0 0.0 1010.0 0.0 0.0 14.8 0.0
23/02/21 04:42 14.8 97 14.3 0.0 0.0 0 0.0 0.0 1010.0 0.0 0.0 14.8 0.0
23/02/21 04:43 14.8 97 14.3 0.0 0.0 0 0.0 0.0 1010.0 0.0 0.0 14.8 0.0
23/02/21 04:44 14.8 97 14.3 0.0 0.0 0 0.0 0.0 1010.0 0.0 0.0 14.8 0.0
23/02/21 04:45 14.8 97 14.3 0.0 0.0 0 0.0 0.0 1010.0 0.0 0.0 14.8 0.0
23/02/21 04:46 14.8 97 14.3 0.0 0.0 0 0.0 0.0 1010.0 0.0 0.0 14.8 0.0
23/02/21 04:47 14.8 97 14.3 0.0 0.0 0 0.0 0.0 1010.0 0.0 0.0 14.8 0.0
23/02/21 04:48 14.8 97 14.3 0.0 0.0 0 0.0 0.0 1010.0 0.0 0.0 14.8 0.0
23/02/21 04:49 14.8 97 14.3 0.0 0.0 0 0.0 0.0 1010.0 0.0 0.0 14.8 0.0
23/02/21 04:50 14.8 97 14.3 0.0 0.0 0 0.0 0.0 1010.0 0.0 0.0 14.8 0.0
23/02/21 04:51 14.8 97 14.3 0.0 0.0 0 0.0 0.0 1010.0 0.0 0.0 14.8 0.0
23/02/21 04:52 14.8 97 14.3 0.0 0.0 0 0.0 0.0 1010.0 0.0 0.0 14.8 0.0
23/02/21 04:53 14.8 97 14.3 0.0 0.0 0 0.0 0.0 1010.0 0.0 0.0 14.8 0.0
23/02/21 04:54 14.8 97 14.3 0.0 0.0 0 0.0 0.0 1010.0 0.0 0.0 14.8 0.0
23/02/21 04:55 14.8 97 14.3 0.0 0.0 0 0.0 0.0 1010.0 0.0 0.0 14.8 0.0
23/02/21 04:56 14.8 97 14.3 0.0 0.0 0 0.0 0.0 1010.0 0.0 0.0 14.8 0.0
23/02/21 04:57 14.8 97 14.3 0.0 0.0 0 0.0 0.0 1010.0 0.0 0.0 14.8 0.0
23/02/21 04:58 14.8 97 14.3 0.0 0.0 0 0.0 0.0 1010.0 0.0 0.0 14.8 0.0
23/02/21 04:59 14.8 97 14.3 0.0 0.0 0 0.0 0.0 1010.0 0.0 0.0 14.8 0.0
23/02/21 05:25 15.0 98 14.7 0.0 0.0 0 0.0 0.0 1010.0 0.0 0.0 15.0 0.0
23/02/21 05:32 14.9 98 14.6 0.0 0.0 0 0.0 0.0 1010.0 0.0 0.0 14.9 0.0
23/02/21 05:33 14.9 98 14.6 0.0 0.0 0 0.0 0.0 1010.0 0.0 0.0 14.9 0.0
23/02/21 05:34 14.9 98 14.6 0.0 0.0 0 0.0 0.0 1010.0 0.0 0.0 14.9 0.0
23/02/21 05:35 14.9 98 14.6 0.0 0.0 0 0.0 0.0 1010.0 0.0 0.0 14.9 0.0
23/02/21 05:36 14.9 98 14.6 0.0 0.0 0 0.0 0.0 1010.0 0.0 0.0 14.9 0.0
23/02/21 05:37 14.9 98 14.6 0.0 0.0 0 0.0 0.0 1010.0 0.0 0.0 14.9 0.0
23/02/21 05:38 14.9 98 14.6 0.0 0.0 0 0.0 0.0 1010.0 0.0 0.0 14.9 0.0
23/02/21 05:39 14.9 98 14.6 0.0 0.0 0 0.0 0.0 1010.0 0.0 0.0 14.9 0.0
23/02/21 05:40 14.9 98 14.6 0.0 0.0 0 0.0 0.0 1010.0 0.0 0.0 14.9 0.0
23/02/21 05:41 14.9 98 14.6 0.0 0.0 0 0.0 0.0 1010.0 0.0 0.0 14.9 0.0
23/02/21 05:42 14.9 98 14.6 0.0 0.0 0 0.0 0.0 1010.0 0.0 0.0 14.9 0.0
23/02/21 05:43 14.9 98 14.6 0.0 0.0 0 0.0 0.0 1010.0 0.0 0.0 14.9 0.0
23/02/21 05:44 14.9 98 14.6 0.0 0.0 0 0.0 0.0 1010.0 0.0 0.0 14.9 0.0
23/02/21 05:45 14.9 98 14.6 0.0 0.0 0 0.0 0.0 1010.0 0.0 0.0 14.9 0.0
23/02/21 05:46 14.9 98 14.6 0.0 0.0 0 0.0 0.0 1010.0 0.0 0.0 14.9 0.0
23/02/21 05:47 14.9 98 14.6 0.0 0.0 0 0.0 0.0 1010.0 0.0 0.0 14.9 0.0
23/02/21 05:48 14.9 98 14.6 0.0 0.0 0 0.0 0.0 1010.0 0.0 0.0 14.9 0.0
23/02/21 05:49 14.9 98 14.6 0.0 0.0 0 0.0 0.0 1010.0 0.0 0.0 14.9 0.0
23/02/21 06:25 14.8 98 14.5 0.0 0.0 0 0.0 0.0 1011.0 0.0 0.0 14.8 0.0
23/02/21 06:26 14.8 98 14.5 0.0 0.0 0 0.0 0.0 1011.0 0.0 0.0 14.8 0.0
23/02/21 06:27 14.8 98 14.5 0.0 0.0 0 0.0 0.0 1011.0 0.0 0.0 14.8 0.0
23/02/21 06:28 14.8 98 14.5 0.0 0.0 0 0.0 0.0 1011.0 0.0 0.0 14.8 0.0
23/02/21 06:29 14.8 98 14.5 0.0 0.0 0 0.0 0.0 1011.0 0.0 0.0 14.8 0.0
23/02/21 06:30 14.8 98 14.5 0.0 0.0 0 0.0 0.0 1011.0 0.0 0.0 14.8 0.0
23/02/21 06:31 14.9 98 14.6 0.0 0.0 0 0.0 0.0 1011.0 0.0 0.0 14.9 0.0
23/02/21 06:32 14.9 98 14.6 0.0 0.0 0 0.0 0.0 1011.0 0.0 0.0 14.9 0.0
23/02/21 06:33 14.9 98 14.6 0.0 0.0 0 0.0 0.0 1011.0 0.0 0.0 14.9 0.0
23/02/21 06:34 14.9 98 14.6 0.0 0.0 0 0.0 0.0 1011.0 0.0 0.0 14.9 0.0
23/02/21 06:35 14.9 98 14.6 0.0 0.0 0 0.0 0.0 1011.0 0.0 0.0 14.9 0.0
23/02/21 06:36 14.9 98 14.6 0.0 0.0 0 0.0 0.0 1011.0 0.0 0.0 14.9 0.0
23/02/21 06:37 14.9 98 14.6 0.0 0.0 0 0.0 0.0 1011.0 0.0 0.0 14.9 0.0
23/02/21 06:38 14.9 98 14.6 0.0 0.0 0 0.0 0.0 1011.0 0.0 0.0 14.9 0.0
23/02/21 06:39 14.9 98 14.6 0.0 0.0 0 0.0 0.0 1011.0 0.0 0.0 14.9 0.0
23/02/21 06:40 14.9 98 14.6 0.0 0.0 0 0.0 0.0 1011.0 0.0 0.0 14.9 0.0
23/02/21 08:07 16.7 98 16.4 0.0 0.0 0 0.0 0.0 1010.0 0.0 0.0 16.7 0.0
23/02/21 08:08 16.7 98 16.4 0.0 0.0 0 0.0 0.0 1011.0 0.0 0.0 16.7 0.0
23/02/21 08:09 16.8 98 16.5 0.0 0.0 0 0.0 0.0 1011.0 0.0 0.0 16.8 0.0
23/02/21 08:10 16.8 98 16.5 0.0 0.0 0 0.0 0.0 1011.0 0.0 0.0 16.8 0.0
23/02/21 08:11 16.8 98 16.5 0.0 0.0 0 0.0 0.0 1011.0 0.0 0.0 16.8 0.0
23/02/21 08:12 16.8 98 16.5 0.0 0.0 0 0.0 0.0 1011.0 0.0 0.0 16.8 0.0
23/02/21 08:13 16.8 98 16.5 0.0 0.0 0 0.0 0.0 1011.0 0.0 0.0 16.8 0.0
23/02/21 08:14 16.8 98 16.5 0.0 0.0 0 0.0 0.0 1011.0 0.0 0.0 16.8 0.0
23/02/21 08:15 16.8 98 16.5 0.0 0.0 0 0.0 0.0 1011.0 0.0 0.0 16.8 0.0
23/02/21 08:16 16.9 98 16.6 0.0 0.0 0 0.0 0.0 1011.0 0.0 0.0 16.9 0.0
23/02/21 08:17 16.9 98 16.6 0.0 0.0 0 0.0 0.0 1011.0 0.0 0.0 16.9 0.0
23/02/21 08:18 16.9 98 16.6 0.0 0.0 0 0.0 0.0 1011.0 0.0 0.0 16.9 0.0
23/02/21 08:19 16.9 98 16.6 0.0 0.0 0 0.0 0.0 1011.0 0.0 0.0 16.9 0.0
23/02/21 08:20 16.9 98 16.6 0.0 0.0 0 0.0 0.0 1011.0 0.0 0.0 16.9 0.0
23/02/21 08:23 17.3 98 17.0 0.0 0.0 0 0.0 0.0 1011.0 0.0 0.0 17.3 0.0
23/02/21 08:24 17.3 98 17.0 0.0 0.0 0 0.0 0.0 1011.0 0.0 0.0 17.3 0.0
23/02/21 08:25 17.3 98 17.0 0.0 0.0 0 0.0 0.0 1011.0 0.0 0.0 17.3 0.0
23/02/21 08:26 17.3 98 17.0 0.0 0.0 0 0.0 0.0 1011.0 0.0 0.0 17.3 0.0
23/02/21 08:27 17.5 98 17.2 0.0 0.0 0 0.0 0.0 1011.0 0.0 0.0 17.5 0.0
23/02/21 08:28 17.5 98 17.2 0.0 0.0 0 0.0 0.0 1011.0 0.0 0.0 17.5 0.0
23/02/21 08:29 17.5 98 17.2 0.0 0.0 0 0.0 0.0 1011.0 0.0 0.0 17.5 0.0
23/02/21 08:30 17.5 98 17.2 0.0 0.0 0 0.0 0.0 1011.0 0.0 0.0 17.5 0.0
23/02/21 08:31 17.5 98 17.2 0.0 0.0 0 0.0 0.0 1011.0 0.0 0.0 17.5 0.0
23/02/21 08:32 17.5 98 17.2 0.0 0.0 0 0.0 0.0 1011.0 0.0 0.0 17.5 0.0
23/02/21 08:33 17.6 98 17.3 0.0 0.0 0 0.0 0.0 1011.0 0.0 0.0 17.6 0.0
23/02/21 08:34 17.7 98 17.4 0.0 0.0 0 0.0 0.0 1011.0 0.0 0.0 17.7 0.0
23/02/21 08:35 17.7 98 17.4 0.0 0.0 0 0.0 0.0 1011.0 0.0 0.0 17.7 0.0
23/02/21 08:36 17.8 98 17.5 0.0 0.0 0 0.0 0.0 1011.0 0.0 0.0 17.8 0.0
23/02/21 08:37 17.9 98 17.6 0.0 0.0 0 0.0 0.0 1011.0 0.0 0.0 17.9 0.0
23/02/21 08:38 17.9 98 17.6 0.0 0.0 0 0.0 0.0 1012.0 0.0 0.0 17.9 0.0
23/02/21 08:39 18.0 98 17.7 0.0 0.0 0 0.0 0.0 1012.0 0.0 0.0 18.0 0.0
23/02/21 08:40 18.0 98 17.7 0.0 0.0 0 0.0 0.0 1012.0 0.0 0.0 18.0 0.0
23/02/21 08:41 18.0 98 17.7 0.0 0.0 0 0.0 0.0 1012.0 0.0 0.0 18.0 0.0
23/02/21 08:42 18.3 98 18.0 0.0 0.0 0 0.0 0.0 1012.0 0.0 0.0 18.3 0.0
23/02/21 08:43 18.3 98 18.0 0.0 0.0 0 0.0 0.0 1012.0 0.0 0.0 18.3 0.0
23/02/21 08:44 18.3 98 18.0 0.0 0.0 0 0.0 0.0 1012.0 0.0 0.0 18.3 0.0
23/02/21 08:45 18.3 98 18.0 0.0 0.0 0 0.0 0.0 1012.0 0.0 0.0 18.3 0.0
23/02/21 08:48 18.6 98 18.3 0.0 0.0 0 0.0 0.0 1012.0 0.0 0.0 18.6 0.0
23/02/21 08:49 18.6 98 18.3 0.0 0.0 0 0.0 0.0 1012.0 0.0 0.0 18.6 0.0
23/02/21 08:50 18.6 98 18.3 0.0 0.0 0 0.0 0.0 1012.0 0.0 0.0 18.6 0.0
23/02/21 08:51 18.6 98 18.3 0.0 0.0 0 0.0 0.0 1012.0 0.0 0.0 18.6 0.0
23/02/21 08:52 18.6 98 18.3 0.0 0.0 0 0.0 0.0 1012.0 0.0 0.0 18.6 0.0
23/02/21 08:53 18.6 98 18.3 0.0 0.0 0 0.0 0.0 1012.0 0.0 0.0 18.6 0.0
23/02/21 08:54 18.6 98 18.3 0.0 0.0 0 0.0 0.0 1012.0 0.0 0.0 18.6 0.0
23/02/21 08:55 18.6 98 18.3 0.0 0.0 0 0.0 0.0 1012.0 0.0 0.0 18.6 0.0
23/02/21 08:56 18.6 98 18.3 0.0 0.0 0 0.0 0.0 1012.0 0.0 0.0 18.6 0.0
23/02/21 08:57 18.6 98 18.3 0.0 0.0 0 0.0 0.0 1012.0 0.0 0.0 18.6 0.0
23/02/21 08:58 18.6 98 18.3 0.0 0.0 0 0.0 0.0 1012.0 0.0 0.0 18.6 0.0
23/02/21 08:59 18.6 98 18.3 0.0 0.0 0 0.0 0.0 1012.0 0.0 0.0 18.6 0.0
23/02/21 09:00 18.6 98 18.3 0.0 0.0 0 0.0 0.0 1012.0 0.0 0.0 18.6 0.0
23/02/21 09:01 18.6 98 18.3 0.0 0.0 0 0.0 0.0 1012.0 0.0 0.0 18.6 0.0
23/02/21 09:02 18.6 98 18.3 0.0 0.0 0 0.0 0.0 1012.0 0.0 0.0 18.6 0.0
23/02/21 09:03 18.6 98 18.3 0.0 0.0 0 0.0 0.0 1012.0 0.0 0.0 18.6 0.0
23/02/21 09:04 18.6 98 18.3 0.0 0.0 0 0.0 0.0 1012.0 0.0 0.0 18.6 0.0
23/02/21 09:05 18.6 98 18.3 0.0 0.0 0 0.0 0.0 1012.0 0.0 0.0 18.6 0.0
23/02/21 09:06 18.6 98 18.3 0.0 0.0 0 0.0 0.0 1012.0 0.0 0.0 18.6 0.0
23/02/21 09:07 18.6 98 18.3 0.0 0.0 0 0.0 0.0 1012.0 0.0 0.0 18.6 0.0
23/02/21 09:08 18.6 98 18.3 0.0 0.0 0 0.0 0.0 1012.0 0.0 0.0 18.6 0.0
23/02/21 09:09 18.6 98 18.3 0.0 0.0 0 0.0 0.0 1012.0 0.0 0.0 18.6 0.0
23/02/21 09:12 21.1 95 20.3 0.0 0.0 0 0.0 0.0 1012.0 0.0 0.0 21.1 0.0
23/02/21 09:13 21.3 94 20.3 0.0 0.0 0 0.0 0.0 1012.0 0.0 0.0 21.3 0.0
23/02/21 09:14 21.3 94 20.3 0.0 0.0 0 0.0 0.0 1012.0 0.0 0.0 21.3 0.0
23/02/21 09:15 21.7 93 20.5 0.0 0.0 0 0.0 0.0 1012.0 0.0 0.0 21.7 0.0
23/02/21 09:16 21.7 93 20.5 0.0 0.0 0 0.0 0.0 1012.0 0.0 0.0 21.7 0.0
23/02/21 09:17 21.7 93 20.5 0.0 0.0 0 0.0 0.0 1012.0 0.0 0.0 21.7 0.0
23/02/21 09:18 21.7 93 20.5 0.0 0.0 0 0.0 0.0 1012.0 0.0 0.0 21.7 0.0
23/02/21 09:19 21.7 93 20.5 0.0 0.0 0 0.0 0.0 1012.0 0.0 0.0 21.7 0.0
23/02/21 09:20 21.9 91 20.4 0.0 0.0 0 0.0 0.0 1012.0 0.0 0.0 21.9 0.0
23/02/21 09:21 21.9 91 20.4 0.0 0.0 0 0.0 0.0 1012.0 0.0 0.0 21.9 0.0
23/02/21 09:22 21.9 91 20.4 0.0 0.0 0 0.0 0.0 1012.0 0.0 0.0 21.9 0.0
23/02/21 09:23 21.9 91 20.4 0.0 0.0 0 0.0 0.0 1012.0 0.0 0.0 21.9 0.0
23/02/21 09:24 21.9 91 20.4 0.0 0.0 0 0.0 0.0 1012.0 0.0 0.0 21.9 0.0
23/02/21 09:25 21.9 91 20.4 0.0 0.0 0 0.0 0.0 1012.0 0.0 0.0 21.9 0.0
23/02/21 09:26 21.9 91 20.4 0.0 0.0 0 0.0 0.0 1012.0 0.0 0.0 21.9 0.0
23/02/21 09:27 21.9 91 20.4 0.0 0.0 0 0.0 0.0 1012.0 0.0 0.0 21.9 0.0
23/02/21 09:28 22.8 85 20.1 0.0 0.0 0 0.0 0.0 1012.0 0.0 0.0 22.8 0.0
23/02/21 09:29 22.9 85 20.2 0.0 0.0 0 0.0 0.0 1012.0 0.0 0.0 22.9 0.0
23/02/21 09:30 23.0 85 20.3 0.0 0.0 0 0.0 0.0 1012.0 0.0 0.0 23.0 0.0
23/02/21 09:31 23.1 85 20.4 0.0 0.0 0 0.0 0.0 1012.0 0.0 0.0 23.1 0.0
23/02/21 09:32 23.1 84 20.2 0.0 0.0 0 0.0 0.0 1012.0 0.0 0.0 23.1 0.0
23/02/21 09:33 23.2 82 20.0 0.0 0.0 0 0.0 0.0 1012.0 0.0 0.0 23.2 0.0
23/02/21 09:34 23.4 78 19.3 0.0 0.0 0 0.0 0.0 1012.0 0.0 0.0 23.4 0.0
23/02/21 09:35 23.6 79 19.7 0.0 0.0 0 0.0 0.0 1012.0 0.0 0.0 23.6 0.0
23/02/21 09:37 24.1 78 20.0 0.0 0.0 0 0.0 0.0 1012.0 0.0 0.0 24.1 0.0
23/02/21 09:38 24.2 78 20.1 0.0 0.0 0 0.0 0.0 1012.0 0.0 0.0 24.2 0.0
23/02/21 09:39 24.5 78 20.4 0.0 0.0 0 0.0 0.0 1012.0 0.0 0.0 24.5 0.0
23/02/21 09:40 24.4 77 20.1 0.0 0.0 0 0.0 0.0 1012.0 0.0 0.0 24.4 0.0
23/02/21 09:41 24.5 77 20.2 0.0 0.0 0 0.0 0.0 1012.0 0.0 0.0 24.5 0.0
23/02/21 09:42 24.5 77 20.2 0.0 0.0 0 0.0 0.0 1012.0 0.0 0.0 24.5 0.0
23/02/21 09:43 24.6 78 20.5 0.0 0.0 0 0.0 0.0 1012.0 0.0 0.0 24.6 0.0
23/02/21 09:44 24.5 77 20.2 0.0 0.0 0 0.0 0.0 1012.0 0.0 0.0 24.5 0.0
23/02/21 09:45 24.6 76 20.1 0.0 0.0 0 0.0 0.0 1012.0 0.0 0.0 24.6 0.0
23/02/21 09:46 24.6 76 20.1 0.0 0.0 0 0.0 0.0 1012.0 0.0 0.0 24.6 0.0
23/02/21 09:47 24.6 76 20.1 0.0 0.0 0 0.0 0.0 1012.0 0.0 0.0 24.6 0.0
23/02/21 09:48 24.6 76 20.1 0.0 0.0 0 0.0 0.0 1012.0 0.0 0.0 24.6 0.0
23/02/21 09:49 25.0 74 20.0 0.0 0.0 0 0.0 0.0 1012.0 0.0 0.0 25.0 0.0
23/02/21 09:50 25.2 74 20.2 0.0 0.0 0 0.0 0.0 1012.0 0.0 0.0 25.2 0.0
23/02/21 09:51 25.2 75 20.5 0.0 0.0 0 0.0 0.0 1012.0 0.0 0.0 25.2 0.0
23/02/21 09:52 25.1 73 19.9 0.0 0.0 0 0.0 0.0 1012.0 0.0 0.0 25.1 0.0
23/02/21 09:53 25.3 71 19.7 0.0 0.0 0 0.0 0.0 1013.0 0.0 0.0 25.3 0.0
23/02/21 09:54 25.5 69 19.4 0.0 0.0 0 0.0 0.0 1013.0 0.0 0.0 25.5 0.0
23/02/21 09:55 25.5 67 18.9 0.0 0.0 0 0.0 0.0 1013.0 0.0 0.0 25.5 0.0
23/02/21 09:56 25.8 70 19.9 0.0 0.0 0 0.0 0.0 1013.0 0.0 0.0 25.8 0.0
23/02/21 09:57 26.0 69 19.9 0.0 0.0 0 0.0 0.0 1013.0 0.0 0.0 26.0 0.0
23/02/21 09:58 26.5 69 20.3 0.0 0.0 0 0.0 0.0 1013.0 0.0 0.0 26.5 0.0
23/02/21 09:59 26.5 69 20.3 0.0 0.0 0 0.0 0.0 1013.0 0.0 0.0 26.5 0.0
23/02/21 10:02 26.9 66 20.0 0.0 0.0 0 0.0 0.0 1013.0 0.0 0.0 28.4 0.0
23/02/21 10:03 27.0 63 19.4 0.0 0.0 0 0.0 0.0 1013.0 0.0 0.0 28.3 0.0
23/02/21 10:04 27.0 61 18.8 0.0 0.0 0 0.0 0.0 1013.0 0.0 0.0 28.2 0.0
23/02/21 10:05 27.1 62 19.2 0.0 0.0 0 0.0 0.0 1013.0 0.0 0.0 28.4 0.0
23/02/21 10:06 27.3 60 18.9 0.0 0.0 0 0.0 0.0 1013.0 0.0 0.0 28.5 0.0
23/02/21 10:07 27.4 60 18.9 0.0 0.0 0 0.0 0.0 1013.0 0.0 0.0 28.6 0.0
23/02/21 10:08 27.5 59 18.8 0.0 0.0 0 0.0 0.0 1013.0 0.0 0.0 28.6 0.0
23/02/21 10:09 27.5 61 19.3 0.0 0.0 0 0.0 0.0 1013.0 0.0 0.0 28.8 0.0
23/02/21 10:10 27.5 61 19.3 0.0 0.0 0 0.0 0.0 1013.0 0.0 0.0 28.8 0.0
23/02/21 10:11 27.5 61 19.3 0.0 0.0 0 0.0 0.0 1013.0 0.0 0.0 28.8 0.0
23/02/21 10:12 27.5 61 19.3 0.0 0.0 0 0.0 0.0 1013.0 0.0 0.0 28.8 0.0
23/02/21 10:13 27.5 61 19.3 0.0 0.0 0 0.0 0.0 1013.0 0.0 0.0 28.8 0.0
23/02/21 10:14 27.7 61 19.5 0.0 0.0 0 0.0 0.0 1013.0 0.0 0.0 29.1 0.0
23/02/21 10:15 27.9 60 19.4 0.0 0.0 0 0.0 0.0 1013.0 0.0 0.0 29.3 0.0
23/02/21 10:16 28.0 56 18.4 0.0 0.0 0 0.0 0.0 1013.0 0.0 0.0 29.0 0.0
23/02/21 10:17 28.2 56 18.6 0.0 0.0 0 0.0 0.0 1013.0 0.0 0.0 29.3 0.0
23/02/21 10:18 28.2 55 18.3 0.0 0.0 0 0.0 0.0 1013.0 0.0 0.0 29.2 0.0
23/02/21 10:19 28.3 53 17.8 0.0 0.0 0 0.0 0.0 1013.0 0.0 0.0 29.1 0.0
23/02/21 10:20 28.4 53 17.9 0.0 0.0 0 0.0 0.0 1013.0 0.0 0.0 29.2 0.0
23/02/21 10:21 28.5 54 18.3 0.0 0.0 0 0.0 0.0 1013.0 0.0 0.0 29.5 0.0
23/02/21 10:22 28.2 55 18.3 0.0 0.0 0 0.0 0.0 1013.0 0.0 0.0 29.2 0.0
23/02/21 10:23 28.2 56 18.6 0.0 0.0 0 0.0 0.0 1013.0 0.0 0.0 29.3 0.0
23/02/21 10:24 28.2 57 18.9 0.0 0.0 0 0.0 0.0 1013.0 0.0 0.0 29.4 0.0
23/02/21 10:42 28.9 48 16.8 0.0 0.0 0 0.0 0.0 1013.0 0.0 0.0 29.3 0.0
23/02/21 10:43 29.1 49 17.3 0.0 0.0 0 0.0 0.0 1013.0 0.0 0.0 29.7 0.0
23/02/21 10:44 29.2 49 17.4 0.0 0.0 0 0.0 0.0 1013.0 0.0 0.0 29.8 0.0
23/02/21 10:45 29.2 50 17.7 0.0 0.0 0 0.0 0.0 1013.0 0.0 0.0 29.9 0.0
23/02/21 10:46 29.2 50 17.7 0.0 0.0 0 0.0 0.0 1013.0 0.0 0.0 29.9 0.0
23/02/21 10:47 29.2 51 18.0 0.0 0.0 0 0.0 0.0 1013.0 0.0 0.0 30.1 0.0
23/02/21 10:48 29.3 50 17.8 0.0 0.0 0 0.0 0.0 1013.0 0.0 0.0 30.1 0.0
23/02/21 10:49 29.4 51 18.2 0.0 0.0 0 0.0 0.0 1013.0 0.0 0.0 30.3 0.0
23/02/21 10:50 29.6 51 18.4 0.0 0.0 0 0.0 0.0 1013.0 0.0 0.0 30.6 0.0
23/02/21 10:53 29.6 50 18.1 0.0 0.0 0 0.0 0.0 1013.0 0.0 0.0 30.5 0.0
23/02/21 10:54 29.7 47 17.2 0.0 0.0 0 0.0 0.0 1013.0 0.0 0.0 30.2 0.0
23/02/21 10:55 29.8 47 17.3 0.0 0.0 0 0.0 0.0 1013.0 0.0 0.0 30.3 0.0
23/02/21 10:56 29.8 46 16.9 0.0 0.0 0 0.0 0.0 1013.0 0.0 0.0 30.2 0.0
23/02/21 10:57 29.8 46 16.9 0.0 0.0 0 0.0 0.0 1013.0 0.0 0.0 30.2 0.0
23/02/21 10:58 29.9 45 16.7 0.0 0.0 0 0.0 0.0 1013.0 0.0 0.0 30.2 0.0
23/02/21 10:59 30.1 46 17.2 0.0 0.0 0 0.0 0.0 1013.0 0.0 0.0 30.6 0.0
23/02/21 11:00 30.3 46 17.4 0.0 0.0 0 0.0 0.0 1013.0 0.0 0.0 30.9 0.0
23/02/21 11:01 30.3 46 17.4 0.0 0.0 0 0.0 0.0 1013.0 0.0 0.0 30.9 0.0
23/02/21 11:02 30.6 43 16.6 0.0 0.0 0 0.0 0.0 1013.0 0.0 0.0 30.8 0.0
23/02/21 11:03 30.6 42 16.2 0.0 0.0 0 0.0 0.0 1013.0 0.0 0.0 30.7 0.0
23/02/21 11:04 30.6 42 16.2 0.0 0.0 0 0.0 0.0 1013.0 0.0 0.0 30.7 0.0
23/02/21 11:05 30.6 42 16.2 0.0 0.0 0 0.0 0.0 1013.0 0.0 0.0 30.7 0.0
23/02/21 11:06 30.7 42 16.3 0.0 0.0 0 0.0 0.0 1013.0 0.0 0.0 30.8 0.0
23/02/21 11:07 30.8 42 16.4 0.0 0.0 0 0.0 0.0 1013.0 0.0 0.0 30.9 0.0
23/02/21 11:08 30.9 42 16.5 0.0 0.0 0 0.0 0.0 1013.0 0.0 0.0 31.1 0.0
23/02/21 11:09 30.8 40 15.6 0.0 0.0 0 0.0 0.0 1013.0 0.0 0.0 30.7 0.0
23/02/21 11:10 30.7 40 15.6 0.0 0.0 0 0.0 0.0 1013.0 0.0 0.0 30.5 0.0
23/02/21 11:11 30.4 39 14.9 0.0 0.0 0 0.0 0.0 1013.0 0.0 0.0 30.0 0.0
23/02/21 11:12 30.2 40 15.1 0.0 0.0 0 0.0 0.0 1013.0 0.0 0.0 29.9 0.0
23/02/21 11:13 30.3 41 15.6 0.0 0.0 0 0.0 0.0 1013.0 0.0 0.0 30.2 0.0
23/02/21 11:14 30.5 42 16.1 0.0 0.0 0 0.0 0.0 1013.0 0.0 0.0 30.6 0.0
23/02/21 11:17 30.8 41 16.0 0.0 0.0 0 0.0 0.0 1013.0 0.0 0.0 30.8 0.0
23/02/21 11:18 30.9 41 16.1 0.0 0.0 0 0.0 0.0 1013.0 0.0 0.0 30.9 0.0
23/02/21 11:19 30.9 41 16.1 0.0 0.0 0 0.0 0.0 1013.0 0.0 0.0 30.9 0.0
23/02/21 11:20 31.0 40 15.8 0.0 0.0 0 0.0 0.0 1013.0 0.0 0.0 30.9 0.0
23/02/21 11:21 31.2 40 16.0 0.0 0.0 0 0.0 0.0 1013.0 0.0 0.0 31.2 0.0
23/02/21 11:22 31.2 38 15.2 0.0 0.0 0 0.0 0.0 1013.0 0.0 0.0 30.9 0.0
23/02/21 11:23 31.2 39 15.6 0.0 0.0 0 0.0 0.0 1013.0 0.0 0.0 31.0 0.0
23/02/21 11:24 31.3 38 15.3 0.0 0.0 0 0.0 0.0 1013.0 0.0 0.0 31.0 0.0
23/02/21 11:25 31.4 38 15.4 0.0 0.0 0 0.0 0.0 1013.0 0.0 0.0 31.1 0.0
23/02/21 11:26 31.4 38 15.4 0.0 0.0 0 0.0 0.0 1013.0 0.0 0.0 31.1 0.0
23/02/21 11:27 31.5 38 15.5 0.0 0.0 0 0.0 0.0 1013.0 0.0 0.0 31.3 0.0
23/02/21 11:28 31.0 37 14.6 0.0 0.0 0 0.0 0.0 1013.0 0.0 0.0 30.5 0.0
23/02/21 11:29 31.0 37 14.6 0.0 0.0 0 0.0 0.0 1013.0 0.0 0.0 30.5 0.0
23/02/21 11:30 30.8 37 14.4 0.0 0.0 0 0.0 0.0 1013.0 0.0 0.0 30.3 0.0
23/02/21 11:31 30.7 38 14.8 0.0 0.0 0 0.0 0.0 1013.0 0.0 0.0 30.3 0.0
23/02/21 11:32 30.8 38 14.8 0.0 0.0 0 0.0 0.0 1013.0 0.0 0.0 30.4 0.0
23/02/21 11:33 30.9 38 14.9 0.0 0.0 0 0.0 0.0 1013.0 0.0 0.0 30.5 0.0
23/02/21 11:34 31.1 38 15.1 0.0 0.0 0 0.0 0.0 1013.0 0.0 0.0 30.8 0.0
23/02/21 11:35 31.4 38 15.4 0.0 0.0 0 0.0 0.0 1013.0 0.0 0.0 31.1 0.0
23/02/21 11:36 31.6 38 15.5 0.0 0.0 0 0.0 0.0 1013.0 0.0 0.0 31.4 0.0
23/02/21 11:37 31.8 38 15.7 0.0 0.0 0 0.0 0.0 1013.0 0.0 0.0 31.7 0.0
23/02/21 11:38 31.9 38 15.8 0.0 0.0 0 0.0 0.0 1013.0 0.0 0.0 31.8 0.0
23/02/21 11:39 31.9 37 15.4 0.0 0.0 0 0.0 0.0 1013.0 0.0 0.0 31.6 0.0
23/02/21 11:40 32.1 37 15.6 0.0 0.0 0 0.0 0.0 1013.0 0.0 0.0 31.9 0.0
23/02/21 11:43 32.1 37 15.6 0.0 0.0 0 0.0 0.0 1013.0 0.0 0.0 31.9 0.0
23/02/21 11:44 32.0 36 15.1 0.0 0.0 0 0.0 0.0 1013.0 0.0 0.0 31.6 0.0
23/02/21 11:45 31.8 36 14.9 0.0 0.0 0 0.0 0.0 1013.0 0.0 0.0 31.4 0.0
23/02/21 11:46 31.6 36 14.7 0.0 0.0 0 0.0 0.0 1013.0 0.0 0.0 31.1 0.0
23/02/21 11:47 31.4 37 15.0 0.0 0.0 0 0.0 0.0 1013.0 0.0 0.0 31.0 0.0
23/02/21 11:48 31.1 36 14.3 0.0 0.0 0 0.0 0.0 1013.0 0.0 0.0 30.5 0.0
23/02/21 11:49 31.0 37 14.6 0.0 0.0 0 0.0 0.0 1013.0 0.0 0.0 30.5 0.0
23/02/21 11:50 30.7 37 14.3 0.0 0.0 0 0.0 0.0 1013.0 0.0 0.0 30.1 0.0
23/02/21 11:51 30.6 37 14.3 0.0 0.0 0 0.0 0.0 1013.0 0.0 0.0 30.0 0.0
23/02/21 11:52 30.6 37 14.3 0.0 0.0 0 0.0 0.0 1013.0 0.0 0.0 30.0 0.0
23/02/21 11:53 30.6 38 14.7 0.0 0.0 0 0.0 0.0 1013.0 0.0 0.0 30.2 0.0
23/02/21 11:54 30.6 38 14.7 0.0 0.0 0 0.0 0.0 1013.0 0.0 0.0 30.2 0.0
23/02/21 11:55 30.7 38 14.8 0.0 0.0 0 0.0 0.0 1013.0 0.0 0.0 30.3 0.0
23/02/21 11:56 30.9 38 14.9 0.0 0.0 0 0.0 0.0 1013.0 0.0 0.0 30.5 0.0
23/02/21 11:57 30.9 38 14.9 0.0 0.0 0 0.0 0.0 1013.0 0.0 0.0 30.5 0.0
23/02/21 11:58 31.1 38 15.1 0.0 0.0 0 0.0 0.0 1013.0 0.0 0.0 30.8 0.0
23/02/21 11:59 31.1 38 15.1 0.0 0.0 0 0.0 0.0 1013.0 0.0 0.0 30.8 0.0
23/02/21 12:00 31.2 36 14.4 0.0 0.0 0 0.0 0.0 1013.0 0.0 0.0 30.6 0.0
23/02/21 12:01 31.2 36 14.4 0.0 0.0 0 0.0 0.0 1013.0 0.0 0.0 30.6 0.0
23/02/21 12:02 31.2 36 14.4 0.0 0.0 0 0.0 0.0 1013.0 0.0 0.0 30.6 0.0
23/02/21 12:03 31.3 37 14.9 0.0 0.0 0 0.0 0.0 1013.0 0.0 0.0 30.9 0.0
23/02/21 12:04 31.2 36 14.4 0.0 0.0 0 0.0 0.0 1013.0 0.0 0.0 30.6 0.0
23/02/21 12:05 31.2 37 14.8 0.0 0.0 0 0.0 0.0 1013.0 0.0 0.0 30.7 0.0
23/02/21 12:07 31.4 36 14.5 0.0 0.0 0 0.0 0.0 1013.0 0.0 0.0 30.9 0.0
23/02/21 12:08 31.6 37 15.1 0.0 0.0 0 0.0 0.0 1012.0 0.0 0.0 31.3 0.0
23/02/21 12:09 31.8 36 14.9 0.0 0.0 0 0.0 0.0 1012.0 0.0 0.0 31.4 0.0
23/02/21 12:10 31.8 35 14.4 0.0 0.0 0 0.0 0.0 1012.0 0.0 0.0 31.2 0.0
23/02/21 12:11 31.7 35 14.4 0.0 0.0 0 0.0 0.0 1012.0 0.0 0.0 31.1 0.0
23/02/21 12:12 31.8 35 14.4 0.0 0.0 0 0.0 0.0 1012.0 0.0 0.0 31.2 0.0
23/02/21 12:13 32.2 36 15.2 0.0 0.0 0 0.0 0.0 1012.0 0.0 0.0 31.9 0.0
23/02/21 12:14 32.5 35 15.1 0.0 0.0 0 0.0 0.0 1012.0 0.0 0.0 32.1 0.0
23/02/21 12:15 32.5 36 15.5 0.0 0.0 0 0.0 0.0 1012.0 0.0 0.0 32.3 0.0
23/02/21 12:16 32.5 35 15.1 0.0 0.0 0 0.0 0.0 1012.0 0.0 0.0 32.1 0.0
23/02/21 12:17 32.7 35 15.2 0.0 0.0 0 0.0 0.0 1012.0 0.0 0.0 32.4 0.0
23/02/21 12:18 32.9 36 15.9 0.0 0.0 0 0.0 0.0 1012.0 0.0 0.0 32.8 0.0
23/02/21 12:19 33.1 35 15.6 0.0 0.0 0 0.0 0.0 1012.0 0.0 0.0 32.9 0.0
23/02/21 12:20 33.5 34 15.5 0.0 0.0 0 0.0 0.0 1012.0 0.0 0.0 33.3 0.0
23/02/21 12:21 33.7 34 15.7 0.0 0.0 0 0.0 0.0 1012.0 0.0 0.0 33.6 0.0
23/02/21 12:22 33.9 34 15.8 0.0 0.0 0 0.0 0.0 1012.0 0.0 0.0 33.9 0.0
23/02/21 12:32 33.7 32 14.7 0.0 0.0 0 0.0 0.0 1012.0 0.0 0.0 33.2 0.0
23/02/21 12:33 33.3 32 14.4 0.0 0.0 0 0.0 0.0 1012.0 0.0 0.0 32.7 0.0
23/02/21 12:34 33.3 32 14.4 0.0 0.0 0 0.0 0.0 1012.0 0.0 0.0 32.7 0.0
23/02/21 12:35 33.3 33 14.8 0.0 0.0 0 0.0 0.0 1012.0 0.0 0.0 32.9 0.0
23/02/21 12:36 33.2 32 14.3 0.0 0.0 0 0.0 0.0 1012.0 0.0 0.0 32.6 0.0
23/02/21 12:37 33.3 32 14.4 0.0 0.0 0 0.0 0.0 1012.0 0.0 0.0 32.7 0.0
23/02/21 12:38 33.1 32 14.2 0.0 0.0 0 0.0 0.0 1012.0 0.0 0.0 32.4 0.0
23/02/21 12:39 32.9 33 14.5 0.0 0.0 0 0.0 0.0 1012.0 0.0 0.0 32.3 0.0
23/02/21 12:40 33.1 32 14.2 0.0 0.0 0 0.0 0.0 1012.0 0.0 0.0 32.4 0.0
23/02/21 12:41 33.2 32 14.3 0.0 0.0 0 0.0 0.0 1012.0 0.0 0.0 32.6 0.0
23/02/21 12:42 33.2 32 14.3 0.0 0.0 0 0.0 0.0 1012.0 0.0 0.0 32.6 0.0
23/02/21 12:43 33.2 32 14.3 0.0 0.0 0 0.0 0.0 1012.0 0.0 0.0 32.6 0.0
23/02/21 12:44 33.2 32 14.3 0.0 0.0 0 0.0 0.0 1012.0 0.0 0.0 32.6 0.0
23/02/21 12:45 33.5 33 15.0 0.0 0.0 0 0.0 0.0 1012.0 0.0 0.0 33.1 0.0
23/02/21 12:46 33.6 32 14.6 0.0 0.0 0 0.0 0.0 1012.0 0.0 0.0 33.1 0.0
23/02/21 12:47 33.8 32 14.8 0.0 0.0 0 0.0 0.0 1012.0 0.0 0.0 33.4 0.0
23/02/21 12:48 33.9 32 14.9 0.0 0.0 0 0.0 0.0 1012.0 0.0 0.0 33.5 0.0
23/02/21 12:49 33.9 32 14.9 0.0 0.0 0 0.0 0.0 1012.0 0.0 0.0 33.5 0.0
23/02/21 12:50 34.2 31 14.7 0.0 0.0 0 0.0 0.0 1012.0 0.0 0.0 33.7 0.0
23/02/21 12:51 34.4 30 14.3 0.0 0.0 0 0.0 0.0 1012.0 0.0 0.0 33.8 0.0
23/02/21 12:52 34.6 32 15.5 0.0 0.0 0 0.0 0.0 1012.0 0.0 0.0 34.5 0.0
23/02/21 12:53 34.8 31 15.2 0.0 0.0 0 0.0 0.0 1012.0 0.0 0.0 34.6 0.0
23/02/21 12:54 35.0 31 15.3 0.0 0.0 0 0.0 0.0 1012.0 0.0 0.0 34.9 0.0
23/02/21 12:58 35.5 29 14.7 0.0 0.0 0 0.0 0.0 1012.0 0.0 0.0 35.2 0.0
23/02/21 12:59 35.5 30 15.3 0.0 0.0 0 0.0 0.0 1012.0 0.0 0.0 35.4 0.0
23/02/21 13:00 35.5 30 15.3 0.0 0.0 0 0.0 0.0 1012.0 0.0 0.0 35.4 0.0
23/02/21 13:01 35.6 29 14.8 0.0 0.0 0 0.0 0.0 1012.0 0.0 0.0 35.3 0.0
23/02/21 13:02 35.6 30 15.4 0.0 0.0 0 0.0 0.0 1012.0 0.0 0.0 35.6 0.0
23/02/21 13:03 35.8 29 15.0 0.0 0.0 0 0.0 0.0 1012.0 0.0 0.0 35.6 0.0
23/02/21 13:04 36.0 29 15.2 0.0 0.0 0 0.0 0.0 1012.0 0.0 0.0 35.9 0.0
23/02/21 13:05 36.2 29 15.3 0.0 0.0 0 0.0 0.0 1012.0 0.0 0.0 36.2 0.0
23/02/21 13:06 36.3 29 15.4 0.0 0.0 0 0.0 0.0 1012.0 0.0 0.0 36.4 0.0
23/02/21 13:07 36.2 29 15.3 0.0 0.0 0 0.0 0.0 1012.0 0.0 0.0 36.2 0.0
23/02/21 13:08 36.1 28 14.7 0.0 0.0 0 0.0 0.0 1011.0 0.0 0.0 35.8 0.0
23/02/21 13:09 36.1 29 15.3 0.0 0.0 0 0.0 0.0 1011.0 0.0 0.0 36.1 0.0
23/02/21 13:10 36.2 28 14.8 0.0 0.0 0 0.0 0.0 1011.0 0.0 0.0 36.0 0.0
23/02/21 13:11 36.2 28 14.8 0.0 0.0 0 0.0 0.0 1011.0 0.0 0.0 36.0 0.0
23/02/21 13:12 35.8 28 14.5 0.0 0.0 0 0.0 0.0 1011.0 0.0 0.0 35.4 0.0
23/02/21 13:13 34.8 29 14.1 0.0 0.0 0 0.0 0.0 1011.0 0.0 0.0 34.2 0.0
23/02/21 13:14 34.3 29 13.7 0.0 0.0 0 0.0 0.0 1011.0 0.0 0.0 33.5 0.0
23/02/21 13:15 33.7 29 13.2 0.0 0.0 0 0.0 0.0 1011.0 0.0 0.0 32.7 0.0
23/02/21 13:16 33.3 29 12.9 0.0 0.0 0 0.0 0.0 1011.0 0.0 0.0 32.2 0.0
23/02/21 13:17 32.9 30 13.0 0.0 0.0 0 0.0 0.0 1011.0 0.0 0.0 31.9 0.0
23/02/21 13:18 32.8 30 12.9 0.0 0.0 0 0.0 0.0 1011.0 0.0 0.0 31.8 0.0
23/02/21 13:19 32.9 30 13.0 0.0 0.0 0 0.0 0.0 1011.0 0.0 0.0 31.9 0.0
23/02/21 13:20 33.1 30 13.2 0.0 0.0 0 0.0 0.0 1011.0 0.0 0.0 32.1 0.0
23/02/21 13:22 33.0 30 13.1 0.0 0.0 0 0.0 0.0 1011.0 0.0 0.0 32.0 0.0
23/02/21 13:23 33.0 30 13.1 0.0 0.0 0 0.0 0.0 1011.0 0.0 0.0 32.0 0.0
23/02/21 13:24 32.7 31 13.4 0.0 0.0 0 0.0 0.0 1011.0 0.0 0.0 31.8 0.0
23/02/21 13:25 32.8 30 12.9 0.0 0.0 0 0.0 0.0 1011.0 0.0 0.0 31.8 0.0
23/02/21 13:26 32.7 30 12.9 0.0 0.0 0 0.0 0.0 1011.0 0.0 0.0 31.6 0.0
23/02/21 13:27 33.0 31 13.6 0.0 0.0 0 0.0 0.0 1011.0 0.0 0.0 32.1 0.0
23/02/21 13:28 33.3 30 13.4 0.0 0.0 0 0.0 0.0 1011.0 0.0 0.0 32.4 0.0
23/02/21 13:29 33.9 30 13.9 0.0 0.0 0 0.0 0.0 1011.0 0.0 0.0 33.2 0.0
23/02/21 13:30 34.2 30 14.1 0.0 0.0 0 0.0 0.0 1011.0 0.0 0.0 33.6 0.0
23/02/21 13:31 34.4 30 14.3 0.0 0.0 0 0.0 0.0 1011.0 0.0 0.0 33.8 0.0
23/02/21 13:32 34.7 30 14.6 0.0 0.0 0 0.0 0.0 1011.0 0.0 0.0 34.2 0.0
23/02/21 13:33 34.9 30 14.8 0.0 0.0 0 0.0 0.0 1011.0 0.0 0.0 34.5 0.0
23/02/21 13:34 35.2 30 15.0 0.0 0.0 0 0.0 0.0 1011.0 0.0 0.0 35.0 0.0
23/02/21 13:35 35.3 28 14.0 0.0 0.0 0 0.0 0.0 1011.0 0.0 0.0 34.7 0.0
23/02/21 13:36 35.5 29 14.7 0.0 0.0 0 0.0 0.0 1011.0 0.0 0.0 35.2 0.0
23/02/21 13:37 35.6 30 15.4 0.0 0.0 0 0.0 0.0 1011.0 0.0 0.0 35.6 0.0
23/02/21 13:38 35.8 29 15.0 0.0 0.0 0 0.0 0.0 1011.0 0.0 0.0 35.6 0.0
23/02/21 13:39 35.9 28 14.5 0.0 0.0 0 0.0 0.0 1011.0 0.0 0.0 35.5 0.0
23/02/21 13:40 36.1 28 14.7 0.0 0.0 0 0.0 0.0 1011.0 0.0 0.0 35.8 0.0
23/02/21 13:41 35.9 29 15.1 0.0 0.0 0 0.0 0.0 1011.0 0.0 0.0 35.8 0.0
23/02/21 13:42 35.9 29 15.1 0.0 0.0 0 0.0 0.0 1011.0 0.0 0.0 35.8 0.0
23/02/21 13:43 35.9 28 14.5 0.0 0.0 0 0.0 0.0 1011.0 0.0 0.0 35.5 0.0
23/02/21 13:44 36.1 28 14.7 0.0 0.0 0 0.0 0.0 1011.0 0.0 0.0 35.8 0.0
23/02/21 13:45 36.3 29 15.4 0.0 0.0 0 0.0 0.0 1011.0 0.0 0.0 36.4 0.0
23/02/21 13:47 36.6 28 15.1 0.0 0.0 0 0.0 0.0 1011.0 0.0 0.0 36.6 0.0
23/02/21 13:48 36.6 28 15.1 0.0 0.0 0 0.0 0.0 1011.0 0.0 0.0 36.6 0.0
23/02/21 13:49 36.3 28 14.9 0.0 0.0 0 0.0 0.0 1011.0 0.0 0.0 36.1 0.0
23/02/21 13:50 35.8 28 14.5 0.0 0.0 0 0.0 0.0 1011.0 0.0 0.0 35.4 0.0
23/02/21 13:51 34.9 28 13.7 0.0 0.0 0 0.0 0.0 1011.0 0.0 0.0 34.1 0.0
23/02/21 13:52 34.6 28 13.4 0.0 0.0 0 0.0 0.0 1011.0 0.0 0.0 33.7 0.0
23/02/21 13:53 34.6 28 13.4 0.0 0.0 0 0.0 0.0 1011.0 0.0 0.0 33.7 0.0
23/02/21 13:54 33.9 29 13.4 0.0 0.0 0 0.0 0.0 1011.0 0.0 0.0 33.0 0.0
23/02/21 13:55 33.7 29 13.2 0.0 0.0 0 0.0 0.0 1011.0 0.0 0.0 32.7 0.0
23/02/21 13:56 33.7 29 13.2 0.0 0.0 0 0.0 0.0 1011.0 0.0 0.0 32.7 0.0
23/02/21 13:57 33.7 29 13.2 0.0 0.0 0 0.0 0.0 1011.0 0.0 0.0 32.7 0.0
23/02/21 13:58 33.7 29 13.2 0.0 0.0 0 0.0 0.0 1011.0 0.0 0.0 32.7 0.0
23/02/21 13:59 34.8 29 14.1 0.0 0.0 0 0.0 0.0 1011.0 0.0 0.0 34.2 0.0
23/02/21 14:02 34.8 29 14.1 0.0 0.0 0 0.0 0.0 1011.0 0.0 0.0 34.2 0.0
23/02/21 14:03 35.1 29 14.4 0.0 0.0 0 0.0 0.0 1011.0 0.0 0.0 34.6 0.0
23/02/21 14:04 35.4 29 14.7 0.0 0.0 0 0.0 0.0 1011.0 0.0 0.0 35.0 0.0
23/02/21 14:05 35.6 29 14.8 0.0 0.0 0 0.0 0.0 1011.0 0.0 0.0 35.3 0.0
23/02/21 14:06 36.2 28 14.8 0.0 0.0 0 0.0 0.0 1011.0 0.0 0.0 36.0 0.0
23/02/21 14:07 36.3 28 14.9 0.0 0.0 0 0.0 0.0 1011.0 0.0 0.0 36.1 0.0
23/02/21 14:08 36.1 28 14.7 0.0 0.0 0 0.0 0.0 1011.0 0.0 0.0 35.8 0.0
23/02/21 14:09 35.8 28 14.5 0.0 0.0 0 0.0 0.0 1011.0 0.0 0.0 35.4 0.0
23/02/21 14:10 35.4 28 14.1 0.0 0.0 0 0.0 0.0 1011.0 0.0 0.0 34.8 0.0
23/02/21 14:11 35.2 28 13.9 0.0 0.0 0 0.0 0.0 1011.0 0.0 0.0 34.5 0.0
23/02/21 14:12 34.8 28 13.6 0.0 0.0 0 0.0 0.0 1011.0 0.0 0.0 34.0 0.0
23/02/21 14:13 34.6 28 13.4 0.0 0.0 0 0.0 0.0 1011.0 0.0 0.0 33.7 0.0
23/02/21 14:14 34.1 28 13.0 0.0 0.0 0 0.0 0.0 1011.0 0.0 0.0 33.1 0.0
23/02/21 14:15 33.9 29 13.4 0.0 0.0 0 0.0 0.0 1011.0 0.0 0.0 33.0 0.0
23/02/21 14:16 33.7 29 13.2 0.0 0.0 0 0.0 0.0 1011.0 0.0 0.0 32.7 0.0
23/02/21 14:17 33.7 29 13.2 0.0 0.0 0 0.0 0.0 1011.0 0.0 0.0 32.7 0.0
23/02/21 14:18 33.6 29 13.1 0.0 0.0 0 0.0 0.0 1011.0 0.0 0.0 32.6 0.0
23/02/21 14:19 33.6 29 13.1 0.0 0.0 0 0.0 0.0 1011.0 0.0 0.0 32.6 0.0
23/02/21 14:20 33.8 29 13.3 0.0 0.0 0 0.0 0.0 1011.0 0.0 0.0 32.9 0.0
23/02/21 14:21 34.0 29 13.5 0.0 0.0 0 0.0 0.0 1011.0 0.0 0.0 33.1 0.0
23/02/21 14:22 34.1 29 13.5 0.0 0.0 0 0.0 0.0 1011.0 0.0 0.0 33.2 0.0
23/02/21 14:23 34.3 29 13.7 0.0 0.0 0 0.0 0.0 1010.0 0.0 0.0 33.5 0.0
23/02/21 14:24 34.3 29 13.7 0.0 0.0 0 0.0 0.0 1010.0 0.0 0.0 33.5 0.0
23/02/21 14:25 34.3 29 13.7 0.0 0.0 0 0.0 0.0 1010.0 0.0 0.0 33.5 0.0
23/02/21 14:28 33.7 29 13.2 0.0 0.0 0 0.0 0.0 1010.0 0.0 0.0 32.7 0.0
23/02/21 14:29 34.2 29 13.6 0.0 0.0 0 0.0 0.0 1010.0 0.0 0.0 33.4 0.0
23/02/21 14:30 34.5 29 13.9 0.0 0.0 0 0.0 0.0 1010.0 0.0 0.0 33.8 0.0
23/02/21 14:31 34.8 29 14.1 0.0 0.0 0 0.0 0.0 1010.0 0.0 0.0 34.2 0.0
23/02/21 14:32 35.1 28 13.9 0.0 0.0 0 0.0 0.0 1010.0 0.0 0.0 34.4 0.0
23/02/21 14:33 35.3 28 14.0 0.0 0.0 0 0.0 0.0 1010.0 0.0 0.0 34.7 0.0
23/02/21 14:34 35.6 28 14.3 0.0 0.0 0 0.0 0.0 1010.0 0.0 0.0 35.1 0.0
23/02/21 14:35 35.6 28 14.3 0.0 0.0 0 0.0 0.0 1010.0 0.0 0.0 35.1 0.0
23/02/21 14:36 35.7 28 14.4 0.0 0.0 0 0.0 0.0 1010.0 0.0 0.0 35.3 0.0
23/02/21 14:37 36.1 28 14.7 0.0 0.0 0 0.0 0.0 1010.0 0.0 0.0 35.8 0.0
23/02/21 14:38 36.1 28 14.7 0.0 0.0 0 0.0 0.0 1011.0 0.0 0.0 35.8 0.0
23/02/21 14:39 36.2 27 14.2 0.0 0.0 0 0.0 0.0 1011.0 0.0 0.0 35.8 0.0
23/02/21 14:40 36.3 28 14.9 0.0 0.0 0 0.0 0.0 1011.0 0.0 0.0 36.1 0.0
23/02/21 14:41 36.4 27 14.4 0.0 0.0 0 0.0 0.0 1011.0 0.0 0.0 36.0 0.0
23/02/21 14:42 36.6 27 14.6 0.0 0.0 0 0.0 0.0 1011.0 0.0 0.0 36.3 0.0
23/02/21 14:43 36.7 27 14.7 0.0 0.0 0 0.0 0.0 1011.0 0.0 0.0 36.5 0.0
23/02/21 14:44 36.8 26 14.2 0.0 0.0 0 0.0 0.0 1011.0 0.0 0.0 36.4 0.0
23/02/21 14:45 36.8 27 14.7 0.0 0.0 0 0.0 0.0 1011.0 0.0 0.0 36.6 0.0
23/02/21 14:46 36.9 27 14.8 0.0 0.0 0 0.0 0.0 1011.0 0.0 0.0 36.8 0.0
23/02/21 14:47 37.0 26 14.3 0.0 0.0 0 0.0 0.0 1011.0 0.0 0.0 36.7 0.0
23/02/21 14:48 37.2 27 15.1 0.0 0.0 0 0.0 0.0 1011.0 0.0 0.0 37.2 0.0
23/02/21 14:49 37.4 27 15.2 0.0 0.0 0 0.0 0.0 1011.0 0.0 0.0 37.5 0.0
23/02/21 14:52 37.7 26 14.9 0.0 0.0 0 0.0 0.0 1011.0 0.0 0.0 37.7 0.0
23/02/21 14:53 37.8 26 15.0 0.0 0.0 0 0.0 0.0 1011.0 0.0 0.0 37.9 0.0
23/02/21 14:54 37.9 26 15.1 0.0 0.0 0 0.0 0.0 1011.0 0.0 0.0 38.0 0.0
23/02/21 14:55 37.8 25 14.4 0.0 0.0 0 0.0 0.0 1011.0 0.0 0.0 37.6 0.0
23/02/21 14:56 37.7 26 14.9 0.0 0.0 0 0.0 0.0 1011.0 0.0 0.0 37.7 0.0
23/02/21 14:57 37.8 26 15.0 0.0 0.0 0 0.0 0.0 1011.0 0.0 0.0 37.9 0.0
23/02/21 14:58 37.8 26 15.0 0.0 0.0 0 0.0 0.0 1011.0 0.0 0.0 37.9 0.0
23/02/21 14:59 38.0 25 14.6 0.0 0.0 0 0.0 0.0 1011.0 0.0 0.0 37.9 0.0
23/02/21 15:00 37.9 26 15.1 0.0 0.0 0 0.0 0.0 1011.0 0.0 0.0 38.0 0.0
23/02/21 15:01 37.5 25 14.1 0.0 0.0 0 0.0 0.0 1011.0 0.0 0.0 37.2 0.0
23/02/21 15:02 37.5 25 14.1 0.0 0.0 0 0.0 0.0 1011.0 0.0 0.0 37.2 0.0
23/02/21 15:03 37.5 25 14.1 0.0 0.0 0 0.0 0.0 1011.0 0.0 0.0 37.2 0.0
23/02/21 15:04 37.5 25 14.1 0.0 0.0 0 0.0 0.0 1011.0 0.0 0.0 37.2 0.0
23/02/21 15:05 35.5 26 13.1 0.0 0.0 0 0.0 0.0 1011.0 0.0 0.0 34.6 0.0
23/02/21 15:06 35.2 26 12.8 0.0 0.0 0 0.0 0.0 1011.0 0.0 0.0 34.2 0.0
23/02/21 15:07 34.9 27 13.1 0.0 0.0 0 0.0 0.0 1011.0 0.0 0.0 34.0 0.0
23/02/21 15:08 34.3 27 12.6 0.0 0.0 0 0.0 0.0 1011.0 0.0 0.0 33.2 0.0
23/02/21 15:09 34.1 27 12.4 0.0 0.0 0 0.0 0.0 1011.0 0.0 0.0 32.9 0.0
23/02/21 15:10 33.8 27 12.2 0.0 0.0 0 0.0 0.0 1011.0 0.0 0.0 32.6 0.0
23/02/21 15:11 33.9 27 12.3 0.0 0.0 0 0.0 0.0 1011.0 0.0 0.0 32.7 0.0
23/02/21 15:12 33.7 27 12.1 0.0 0.0 0 0.0 0.0 1011.0 0.0 0.0 32.4 0.0
23/02/21 15:13 33.4 27 11.9 0.0 0.0 0 0.0 0.0 1011.0 0.0 0.0 32.1 0.0
23/02/21 15:14 33.4 27 11.9 0.0 0.0 0 0.0 0.0 1011.0 0.0 0.0 32.1 0.0
23/02/21 15:15 33.8 28 12.7 0.0 0.0 0 0.0 0.0 1011.0 0.0 0.0 32.7 0.0
23/02/21 15:17 34.7 27 13.0 0.0 0.0 0 0.0 0.0 1011.0 0.0 0.0 33.7 0.0
23/02/21 15:18 35.0 27 13.2 0.0 0.0 0 0.0 0.0 1011.0 0.0 0.0 34.1 0.0
23/02/21 15:19 35.4 27 13.6 0.0 0.0 0 0.0 0.0 1011.0 0.0 0.0 34.6 0.0
23/02/21 15:20 35.6 27 13.7 0.0 0.0 0 0.0 0.0 1011.0 0.0 0.0 34.9 0.0
23/02/21 15:21 35.8 27 13.9 0.0 0.0 0 0.0 0.0 1011.0 0.0 0.0 35.2 0.0
23/02/21 15:22 35.7 27 13.8 0.0 0.0 0 0.0 0.0 1011.0 0.0 0.0 35.0 0.0
23/02/21 15:23 35.3 27 13.5 0.0 0.0 0 0.0 0.0 1011.0 0.0 0.0 34.5 0.0
23/02/21 15:24 34.9 27 13.1 0.0 0.0 0 0.0 0.0 1011.0 0.0 0.0 34.0 0.0
23/02/21 15:25 34.7 27 13.0 0.0 0.0 0 0.0 0.0 1011.0 0.0 0.0 33.7 0.0
23/02/21 15:26 34.9 27 13.1 0.0 0.0 0 0.0 0.0 1011.0 0.0 0.0 34.0 0.0
23/02/21 15:27 35.2 27 13.4 0.0 0.0 0 0.0 0.0 1011.0 0.0 0.0 34.4 0.0
23/02/21 15:28 35.2 27 13.4 0.0 0.0 0 0.0 0.0 1011.0 0.0 0.0 34.4 0.0
23/02/21 15:29 35.1 27 13.3 0.0 0.0 0 0.0 0.0 1011.0 0.0 0.0 34.2 0.0
23/02/21 15:30 35.0 27 13.2 0.0 0.0 0 0.0 0.0 1011.0 0.0 0.0 34.1 0.0
23/02/21 15:31 35.1 27 13.3 0.0 0.0 0 0.0 0.0 1011.0 0.0 0.0 34.2 0.0
23/02/21 15:32 35.2 27 13.4 0.0 0.0 0 0.0 0.0 1011.0 0.0 0.0 34.4 0.0
23/02/21 15:33 35.0 27 13.2 0.0 0.0 0 0.0 0.0 1011.0 0.0 0.0 34.1 0.0
23/02/21 15:34 35.0 27 13.2 0.0 0.0 0 0.0 0.0 1011.0 0.0 0.0 34.1 0.0
23/02/21 15:35 35.3 27 13.5 0.0 0.0 0 0.0 0.0 1011.0 0.0 0.0 34.5 0.0
23/02/21 15:36 35.6 27 13.7 0.0 0.0 0 0.0 0.0 1011.0 0.0 0.0 34.9 0.0
23/02/21 15:37 36.0 27 14.1 0.0 0.0 0 0.0 0.0 1011.0 0.0 0.0 35.5 0.0
23/02/21 15:38 35.8 27 13.9 0.0 0.0 0 0.0 0.0 1010.0 0.0 0.0 35.2 0.0
23/02/21 15:39 35.9 27 14.0 0.0 0.0 0 0.0 0.0 1010.0 0.0 0.0 35.3 0.0
23/02/21 15:40 35.7 27 13.8 0.0 0.0 0 0.0 0.0 1010.0 0.0 0.0 35.0 0.0
23/02/21 15:43 34.6 27 12.9 0.0 0.0 0 0.0 0.0 1010.0 0.0 0.0 33.6 0.0
23/02/21 15:44 34.7 27 13.0 0.0 0.0 0 0.0 0.0 1010.0 0.0 0.0 33.7 0.0
23/02/21 15:45 35.3 27 13.5 0.0 0.0 0 0.0 0.0 1010.0 0.0 0.0 34.5 0.0
23/02/21 15:46 35.7 27 13.8 0.0 0.0 0 0.0 0.0 1010.0 0.0 0.0 35.0 0.0
23/02/21 15:47 35.9 27 14.0 0.0 0.0 0 0.0 0.0 1010.0 0.0 0.0 35.3 0.0
23/02/21 15:48 35.9 26 13.4 0.0 0.0 0 0.0 0.0 1010.0 0.0 0.0 35.1 0.0
23/02/21 15:49 36.0 26 13.5 0.0 0.0 0 0.0 0.0 1010.0 0.0 0.0 35.3 0.0
23/02/21 15:50 36.0 26 13.5 0.0 0.0 0 0.0 0.0 1010.0 0.0 0.0 35.3 0.0
23/02/21 15:51 36.0 26 13.5 0.0 0.0 0 0.0 0.0 1010.0 0.0 0.0 35.3 0.0
23/02/21 15:52 36.2 26 13.6 0.0 0.0 0 0.0 0.0 1010.0 0.0 0.0 35.5 0.0
23/02/21 15:53 36.0 26 13.5 0.0 0.0 0 0.0 0.0 1011.0 0.0 0.0 35.3 0.0
23/02/21 15:54 36.0 26 13.5 0.0 0.0 0 0.0 0.0 1011.0 0.0 0.0 35.3 0.0
23/02/21 15:55 36.2 26 13.6 0.0 0.0 0 0.0 0.0 1011.0 0.0 0.0 35.5 0.0
23/02/21 15:56 36.4 26 13.8 0.0 0.0 0 0.0 0.0 1011.0 0.0 0.0 35.8 0.0
23/02/21 15:57 36.5 26 13.9 0.0 0.0 0 0.0 0.0 1011.0 0.0 0.0 36.0 0.0
23/02/21 15:58 36.2 26 13.6 0.0 0.0 0 0.0 0.0 1011.0 0.0 0.0 35.5 0.0
23/02/21 15:59 35.8 26 13.3 0.0 0.0 0 0.0 0.0 1011.0 0.0 0.0 35.0 0.0
23/02/21 16:00 35.1 26 12.7 0.0 0.0 0 0.0 0.0 1011.0 0.0 0.0 34.0 0.0
23/02/21 16:01 34.8 27 13.0 0.0 0.0 0 0.0 0.0 1011.0 0.0 0.0 33.8 0.0
23/02/21 16:02 34.5 27 12.8 0.0 0.0 0 0.0 0.0 1011.0 0.0 0.0 33.4 0.0
23/02/21 16:03 34.2 27 12.5 0.0 0.0 0 0.0 0.0 1011.0 0.0 0.0 33.1 0.0
23/02/21 16:04 34.0 27 12.4 0.0 0.0 0 0.0 0.0 1011.0 0.0 0.0 32.8 0.0
23/02/21 16:05 33.8 27 12.2 0.0 0.0 0 0.0 0.0 1011.0 0.0 0.0 32.6 0.0
23/02/21 16:08 33.0 27 11.5 0.0 0.0 0 0.0 0.0 1011.0 0.0 0.0 31.6 0.0
23/02/21 16:09 33.0 27 11.5 0.0 0.0 0 0.0 0.0 1011.0 0.0 0.0 31.6 0.0
23/02/21 16:10 33.0 27 11.5 0.0 0.0 0 0.0 0.0 1011.0 0.0 0.0 31.6 0.0
23/02/21 16:11 32.5 28 11.6 0.0 0.0 0 0.0 0.0 1011.0 0.0 0.0 31.2 0.0
23/02/21 16:12 32.3 28 11.5 0.0 0.0 0 0.0 0.0 1011.0 0.0 0.0 30.9 0.0
23/02/21 16:13 32.3 28 11.5 0.0 0.0 0 0.0 0.0 1011.0 0.0 0.0 30.9 0.0
23/02/21 16:14 32.5 28 11.6 0.0 0.0 0 0.0 0.0 1011.0 0.0 0.0 31.2 0.0
23/02/21 16:15 33.2 28 12.2 0.0 0.0 0 0.0 0.0 1011.0 0.0 0.0 32.0 0.0
23/02/21 16:16 33.7 28 12.7 0.0 0.0 0 0.0 0.0 1011.0 0.0 0.0 32.6 0.0
23/02/21 16:17 34.0 27 12.4 0.0 0.0 0 0.0 0.0 1011.0 0.0 0.0 32.8 0.0
23/02/21 16:18 34.0 27 12.4 0.0 0.0 0 0.0 0.0 1011.0 0.0 0.0 32.8 0.0
23/02/21 16:19 34.0 27 12.4 0.0 0.0 0 0.0 0.0 1011.0 0.0 0.0 32.8 0.0
23/02/21 16:20 33.9 28 12.8 0.0 0.0 0 0.0 0.0 1011.0 0.0 0.0 32.8 0.0
23/02/21 16:21 33.7 27 12.1 0.0 0.0 0 0.0 0.0 1011.0 0.0 0.0 32.4 0.0
23/02/21 16:22 33.7 27 12.1 0.0 0.0 0 0.0 0.0 1011.0 0.0 0.0 32.4 0.0
23/02/21 16:23 34.1 27 12.4 0.0 0.0 0 0.0 0.0 1011.0 0.0 0.0 32.9 0.0
23/02/21 16:24 34.4 27 12.7 0.0 0.0 0 0.0 0.0 1011.0 0.0 0.0 33.3 0.0
23/02/21 16:25 34.8 27 13.0 0.0 0.0 0 0.0 0.0 1011.0 0.0 0.0 33.8 0.0
23/02/21 16:26 35.1 27 13.3 0.0 0.0 0 0.0 0.0 1011.0 0.0 0.0 34.2 0.0
23/02/21 16:27 35.3 27 13.5 0.0 0.0 0 0.0 0.0 1011.0 0.0 0.0 34.5 0.0
23/02/21 16:28 35.4 27 13.6 0.0 0.0 0 0.0 0.0 1011.0 0.0 0.0 34.6 0.0
23/02/21 16:29 35.2 27 13.4 0.0 0.0 0 0.0 0.0 1011.0 0.0 0.0 34.4 0.0
23/02/21 16:30 34.6 27 12.9 0.0 0.0 0 0.0 0.0 1011.0 0.0 0.0 33.6 0.0
23/02/21 16:32 34.1 27 12.4 0.0 0.0 0 0.0 0.0 1011.0 0.0 0.0 32.9 0.0
23/02/21 16:33 33.9 27 12.3 0.0 0.0 0 0.0 0.0 1011.0 0.0 0.0 32.7 0.0
23/02/21 16:34 33.7 27 12.1 0.0 0.0 0 0.0 0.0 1011.0 0.0 0.0 32.4 0.0
23/02/21 16:35 33.5 27 11.9 0.0 0.0 0 0.0 0.0 1011.0 0.0 0.0 32.2 0.0
23/02/21 16:36 33.3 27 11.8 0.0 0.0 0 0.0 0.0 1011.0 0.0 0.0 32.0 0.0
23/02/21 16:37 33.1 27 11.6 0.0 0.0 0 0.0 0.0 1011.0 0.0 0.0 31.7 0.0
23/02/21 16:38 32.8 28 11.9 0.0 0.0 0 0.0 0.0 1010.0 0.0 0.0 31.5 0.0
23/02/21 16:57 27.4 48 15.4 0.0 0.0 0 0.0 0.0 1012.0 0.0 0.0 27.7 0.0
23/02/21 17:23 23.1 69 17.1 0.0 0.0 0 0.0 0.0 1011.0 0.0 0.0 23.1 0.0
23/02/21 17:24 22.9 69 16.9 0.0 0.0 0 0.0 0.0 1011.0 0.0 0.0 22.9 0.0
23/02/21 17:25 22.9 69 16.9 0.0 0.0 0 0.0 0.0 1011.0 0.0 0.0 22.9 0.0
23/02/21 17:26 22.8 71 17.3 0.0 0.0 0 0.0 0.0 1011.0 0.0 0.0 22.8 0.0
23/02/21 17:27 22.8 71 17.3 0.0 0.0 0 0.0 0.0 1011.0 0.0 0.0 22.8 0.0
23/02/21 17:28 22.6 69 16.6 0.0 0.0 0 0.0 0.0 1011.0 0.0 0.0 22.6 0.0
23/02/21 17:29 22.6 70 16.8 0.0 0.0 0 0.0 0.0 1011.0 0.0 0.0 22.6 0.0
23/02/21 17:30 22.6 70 16.8 0.0 0.0 0 0.0 0.0 1011.0 0.0 0.0 22.6 0.0
23/02/21 17:31 22.5 70 16.8 0.0 0.0 0 0.0 0.0 1011.0 0.0 0.0 22.5 0.0
23/02/21 17:32 22.5 70 16.8 0.0 0.0 0 0.0 0.0 1011.0 0.0 0.0 22.5 0.0
23/02/21 17:33 22.5 72 17.2 0.0 0.0 0 0.0 0.0 1011.0 0.0 0.0 22.5 0.0
23/02/21 17:34 22.5 72 17.2 0.0 0.0 0 0.0 0.0 1011.0 0.0 0.0 22.5 0.0
23/02/21 17:35 22.5 72 17.2 0.0 0.0 0 0.0 0.0 1011.0 0.0 0.0 22.5 0.0
23/02/21 17:36 22.3 71 16.8 0.0 0.0 0 0.0 0.0 1011.0 0.0 0.0 22.3 0.0
23/02/21 17:37 22.2 71 16.7 0.0 0.0 0 0.0 0.0 1011.0 0.0 0.0 22.2 0.0
23/02/21 17:38 22.2 72 16.9 0.0 0.0 0 0.0 0.0 1012.0 0.0 0.0 22.2 0.0
23/02/21 17:39 22.0 71 16.5 0.0 0.0 0 0.0 0.0 1012.0 0.0 0.0 22.0 0.0
23/02/21 17:40 22.0 71 16.5 0.0 0.0 0 0.0 0.0 1012.0 0.0 0.0 22.0 0.0
23/02/21 17:41 22.0 71 16.5 0.0 0.0 0 0.0 0.0 1012.0 0.0 0.0 22.0 0.0
23/02/21 17:42 21.9 71 16.4 0.0 0.0 0 0.0 0.0 1012.0 0.0 0.0 21.9 0.0
23/02/21 17:43 21.9 71 16.4 0.0 0.0 0 0.0 0.0 1012.0 0.0 0.0 21.9 0.0
23/02/21 17:44 21.8 73 16.7 0.0 0.0 0 0.0 0.0 1012.0 0.0 0.0 21.8 0.0
23/02/21 17:45 21.8 72 16.5 0.0 0.0 0 0.0 0.0 1012.0 0.0 0.0 21.8 0.0
23/02/21 17:48 21.7 73 16.6 0.0 0.0 0 0.0 0.0 1012.0 0.0 0.0 21.7 0.0
23/02/21 17:49 21.6 73 16.6 0.0 0.0 0 0.0 0.0 1012.0 0.0 0.0 21.6 0.0
23/02/21 17:50 21.6 72 16.3 0.0 0.0 0 0.0 0.0 1012.0 0.0 0.0 21.6 0.0
23/02/21 17:51 21.5 72 16.2 0.0 0.0 0 0.0 0.0 1012.0 0.0 0.0 21.5 0.0
23/02/21 17:52 21.4 74 16.6 0.0 0.0 0 0.0 0.0 1012.0 0.0 0.0 21.4 0.0
23/02/21 17:53 21.4 74 16.6 0.0 0.0 0 0.0 0.0 1012.0 0.0 0.0 21.4 0.0
23/02/21 17:54 21.1 76 16.7 0.0 0.0 0 0.0 0.0 1012.0 0.0 0.0 21.1 0.0
23/02/21 17:55 21.0 76 16.6 0.0 0.0 0 0.0 0.0 1012.0 0.0 0.0 21.0 0.0
23/02/21 17:56 21.0 76 16.6 0.0 0.0 0 0.0 0.0 1012.0 0.0 0.0 21.0 0.0
23/02/21 17:57 20.9 77 16.7 0.0 0.0 0 0.0 0.0 1012.0 0.0 0.0 20.9 0.0
23/02/21 17:58 20.8 76 16.4 0.0 0.0 0 0.0 0.0 1012.0 0.0 0.0 20.8 0.0
23/02/21 17:59 20.7 76 16.3 0.0 0.0 0 0.0 0.0 1012.0 0.0 0.0 20.7 0.0
23/02/21 18:00 20.7 77 16.5 0.0 0.0 0 0.0 0.0 1012.0 0.0 0.0 20.7 0.0
23/02/21 18:01 20.5 78 16.5 0.0 0.0 0 0.0 0.0 1012.0 0.0 0.0 20.5 0.0
23/02/21 18:02 20.4 78 16.4 0.0 0.0 0 0.0 0.0 1012.0 0.0 0.0 20.4 0.0
23/02/21 18:03 20.4 79 16.6 0.0 0.0 0 0.0 0.0 1012.0 0.0 0.0 20.4 0.0
23/02/21 18:04 20.3 78 16.3 0.0 0.0 0 0.0 0.0 1012.0 0.0 0.0 20.3 0.0
23/02/21 18:05 20.2 78 16.2 0.0 0.0 0 0.0 0.0 1012.0 0.0 0.0 20.2 0.0
23/02/21 18:06 20.2 79 16.4 0.0 0.0 0 0.0 0.0 1012.0 0.0 0.0 20.2 0.0
23/02/21 18:07 20.2 79 16.4 0.0 0.0 0 0.0 0.0 1012.0 0.0 0.0 20.2 0.0
23/02/21 18:08 20.2 77 16.0 0.0 0.0 0 0.0 0.0 1012.0 0.0 0.0 20.2 0.0
23/02/21 18:09 20.0 80 16.4 0.0 0.0 0 0.0 0.0 1012.0 0.0 0.0 20.0 0.0
23/02/21 18:10 20.0 80 16.4 0.0 0.0 0 0.0 0.0 1012.0 0.0 0.0 20.0 0.0
23/02/21 18:12 19.9 81 16.5 0.0 0.0 0 0.0 0.0 1012.0 0.0 0.0 19.9 0.0
23/02/21 18:13 19.8 81 16.4 0.0 0.0 0 0.0 0.0 1012.0 0.0 0.0 19.8 0.0
23/02/21 18:14 19.8 81 16.4 0.0 0.0 0 0.0 0.0 1012.0 0.0 0.0 19.8 0.0
23/02/21 18:15 19.7 81 16.3 0.0 0.0 0 0.0 0.0 1012.0 0.0 0.0 19.7 0.0
23/02/21 18:16 19.6 82 16.4 0.0 0.0 0 0.0 0.0 1012.0 0.0 0.0 19.6 0.0
23/02/21 18:17 19.6 82 16.4 0.0 0.0 0 0.0 0.0 1012.0 0.0 0.0 19.6 0.0
23/02/21 18:18 19.5 82 16.3 0.0 0.0 0 0.0 0.0 1012.0 0.0 0.0 19.5 0.0
23/02/21 18:19 19.5 82 16.3 0.0 0.0 0 0.0 0.0 1012.0 0.0 0.0 19.5 0.0
23/02/21 18:20 19.5 82 16.3 0.0 0.0 0 0.0 0.0 1012.0 0.0 0.0 19.5 0.0
23/02/21 18:21 19.3 84 16.5 0.0 0.0 0 0.0 0.0 1012.0 0.0 0.0 19.3 0.0
23/02/21 18:22 19.2 83 16.2 0.0 0.0 0 0.0 0.0 1012.0 0.0 0.0 19.2 0.0
23/02/21 18:23 19.2 83 16.2 0.0 0.0 0 0.0 0.0 1013.0 0.0 0.0 19.2 0.0
23/02/21 18:24 19.2 83 16.2 0.0 0.0 0 0.0 0.0 1013.0 0.0 0.0 19.2 0.0
23/02/21 18:25 19.1 84 16.3 0.0 0.0 0 0.0 0.0 1013.0 0.0 0.0 19.1 0.0
23/02/21 18:26 19.1 83 16.1 0.0 0.0 0 0.0 0.0 1013.0 0.0 0.0 19.1 0.0
23/02/21 18:27 19.1 83 16.1 0.0 0.0 0 0.0 0.0 1013.0 0.0 0.0 19.1 0.0
23/02/21 18:28 19.0 83 16.0 0.0 0.0 0 0.0 0.0 1013.0 0.0 0.0 19.0 0.0
23/02/21 18:29 19.0 82 15.9 0.0 0.0 0 0.0 0.0 1013.0 0.0 0.0 19.0 0.0
23/02/21 18:30 19.0 84 16.2 0.0 0.0 0 0.0 0.0 1013.0 0.0 0.0 19.0 0.0
23/02/21 18:31 18.9 84 16.1 0.0 0.0 0 0.0 0.0 1013.0 0.0 0.0 18.9 0.0
23/02/21 18:32 18.8 84 16.0 0.0 0.0 0 0.0 0.0 1013.0 0.0 0.0 18.8 0.0
23/02/21 18:33 18.8 84 16.0 0.0 0.0 0 0.0 0.0 1013.0 0.0 0.0 18.8 0.0
23/02/21 18:34 18.8 84 16.0 0.0 0.0 0 0.0 0.0 1013.0 0.0 0.0 18.8 0.0
23/02/21 18:35 18.7 85 16.1 0.0 0.0 0 0.0 0.0 1013.0 0.0 0.0 18.7 0.0
23/02/21 18:38 18.7 85 16.1 0.0 0.0 0 0.0 0.0 1014.0 0.0 0.0 18.7 0.0
23/02/21 18:39 18.6 85 16.0 0.0 0.0 0 0.0 0.0 1014.0 0.0 0.0 18.6 0.0
23/02/21 18:40 18.6 86 16.2 0.0 0.0 0 0.0 0.0 1014.0 0.0 0.0 18.6 0.0
23/02/21 18:41 18.6 86 16.2 0.0 0.0 0 0.0 0.0 1014.0 0.0 0.0 18.6 0.0
23/02/21 18:42 18.6 86 16.2 0.0 0.0 0 0.0 0.0 1014.0 0.0 0.0 18.6 0.0
23/02/21 18:43 18.6 86 16.2 0.0 0.0 0 0.0 0.0 1014.0 0.0 0.0 18.6 0.0
23/02/21 18:44 18.6 86 16.2 0.0 0.0 0 0.0 0.0 1014.0 0.0 0.0 18.6 0.0
23/02/21 18:45 18.6 87 16.4 0.0 0.0 0 0.0 0.0 1014.0 0.0 0.0 18.6 0.0
23/02/21 18:46 18.5 86 16.1 0.0 0.0 0 0.0 0.0 1014.0 0.0 0.0 18.5 0.0
23/02/21 18:47 18.5 85 15.9 0.0 0.0 0 0.0 0.0 1014.0 0.0 0.0 18.5 0.0
23/02/21 18:48 18.5 85 15.9 0.0 0.0 0 0.0 0.0 1014.0 0.0 0.0 18.5 0.0
23/02/21 18:49 18.5 86 16.1 0.0 0.0 0 0.0 0.0 1014.0 0.0 0.0 18.5 0.0
23/02/21 18:50 18.5 86 16.1 0.0 0.0 0 0.0 0.0 1014.0 0.0 0.0 18.5 0.0
23/02/21 18:51 18.5 86 16.1 0.0 0.0 0 0.0 0.0 1014.0 0.0 0.0 18.5 0.0
23/02/21 18:52 18.6 85 16.0 0.0 0.0 0 0.0 0.0 1014.0 0.0 0.0 18.6 0.0
23/02/21 18:53 18.6 85 16.0 0.0 0.0 0 0.0 0.0 1012.0 0.0 0.0 18.6 0.0
23/02/21 18:54 18.5 86 16.1 0.0 0.0 0 0.0 0.0 1012.0 0.0 0.0 18.5 0.0
23/02/21 18:55 18.5 86 16.1 0.0 0.0 0 0.0 0.0 1012.0 0.0 0.0 18.5 0.0
23/02/21 18:56 18.4 85 15.8 0.0 0.0 0 0.0 0.0 1012.0 0.0 0.0 18.4 0.0
23/02/21 18:57 18.4 85 15.8 0.0 0.0 0 0.0 0.0 1012.0 0.0 0.0 18.4 0.0
23/02/21 18:58 18.4 85 15.8 0.0 0.0 0 0.0 0.0 1012.0 0.0 0.0 18.4 0.0
23/02/21 18:59 18.3 86 15.9 0.0 0.0 0 0.0 0.0 1012.0 0.0 0.0 18.3 0.0
23/02/21 19:00 18.4 86 16.0 0.0 0.0 0 0.0 0.0 1012.0 0.0 0.0 18.4 0.0
23/02/21 19:03 18.3 86 15.9 0.0 0.0 0 0.0 0.0 1012.0 0.0 0.0 18.3 0.0
23/02/21 19:04 18.2 87 16.0 0.0 0.0 0 0.0 0.0 1012.0 0.0 0.0 18.2 0.0
23/02/21 19:05 18.1 87 15.9 0.0 0.0 0 0.0 0.0 1012.0 0.0 0.0 18.1 0.0
23/02/21 19:06 18.1 87 15.9 0.0 0.0 0 0.0 0.0 1012.0 0.0 0.0 18.1 0.0
23/02/21 19:07 18.2 87 16.0 0.0 0.0 0 0.0 0.0 1012.0 0.0 0.0 18.2 0.0
23/02/21 19:08 18.1 87 15.9 0.0 0.0 0 0.0 0.0 1012.0 0.0 0.0 18.1 0.0
23/02/21 19:09 18.1 87 15.9 0.0 0.0 0 0.0 0.0 1012.0 0.0 0.0 18.1 0.0
23/02/21 19:10 18.0 87 15.8 0.0 0.0 0 0.0 0.0 1012.0 0.0 0.0 18.0 0.0
23/02/21 19:11 18.0 87 15.8 0.0 0.0 0 0.0 0.0 1012.0 0.0 0.0 18.0 0.0
23/02/21 19:12 17.9 87 15.7 0.0 0.0 0 0.0 0.0 1012.0 0.0 0.0 17.9 0.0
23/02/21 19:13 17.9 87 15.7 0.0 0.0 0 0.0 0.0 1012.0 0.0 0.0 17.9 0.0
23/02/21 19:14 17.9 87 15.7 0.0 0.0 0 0.0 0.0 1012.0 0.0 0.0 17.9 0.0
23/02/21 19:15 17.9 87 15.7 0.0 0.0 0 0.0 0.0 1012.0 0.0 0.0 17.9 0.0
23/02/21 19:16 17.9 88 15.9 0.0 0.0 0 0.0 0.0 1012.0 0.0 0.0 17.9 0.0
23/02/21 19:17 17.8 87 15.6 0.0 0.0 0 0.0 0.0 1012.0 0.0 0.0 17.8 0.0
23/02/21 19:18 17.9 88 15.9 0.0 0.0 0 0.0 0.0 1012.0 0.0 0.0 17.9 0.0
23/02/21 19:19 17.8 88 15.8 0.0 0.0 0 0.0 0.0 1012.0 0.0 0.0 17.8 0.0
23/02/21 19:20 17.7 88 15.7 0.0 0.0 0 0.0 0.0 1012.0 0.0 0.0 17.7 0.0
23/02/21 19:21 17.7 88 15.7 0.0 0.0 0 0.0 0.0 1012.0 0.0 0.0 17.7 0.0
23/02/21 19:22 17.7 88 15.7 0.0 0.0 0 0.0 0.0 1012.0 0.0 0.0 17.7 0.0
23/02/21 19:23 17.7 89 15.9 0.0 0.0 0 0.0 0.0 1013.0 0.0 0.0 17.7 0.0
23/02/21 19:24 17.7 88 15.7 0.0 0.0 0 0.0 0.0 1013.0 0.0 0.0 17.7 0.0
23/02/21 19:25 17.7 89 15.9 0.0 0.0 0 0.0 0.0 1013.0 0.0 0.0 17.7 0.0
23/02/21 19:27 17.7 89 15.9 0.0 0.0 0 0.0 0.0 1013.0 0.0 0.0 17.7 0.0
23/02/21 19:28 17.7 89 15.9 0.0 0.0 0 0.0 0.0 1013.0 0.0 0.0 17.7 0.0
23/02/21 19:29 17.7 89 15.9 0.0 0.0 0 0.0 0.0 1013.0 0.0 0.0 17.7 0.0
23/02/21 19:30 17.6 89 15.8 0.0 0.0 0 0.0 0.0 1013.0 0.0 0.0 17.6 0.0
23/02/21 19:31 17.5 89 15.7 0.0 0.0 0 0.0 0.0 1013.0 0.0 0.0 17.5 0.0
23/02/21 19:32 17.6 89 15.8 0.0 0.0 0 0.0 0.0 1013.0 0.0 0.0 17.6 0.0
23/02/21 19:33 17.5 90 15.8 0.0 0.0 0 0.0 0.0 1013.0 0.0 0.0 17.5 0.0
23/02/21 19:34 17.5 89 15.7 0.0 0.0 0 0.0 0.0 1013.0 0.0 0.0 17.5 0.0
23/02/21 19:35 17.5 90 15.8 0.0 0.0 0 0.0 0.0 1013.0 0.0 0.0 17.5 0.0
23/02/21 19:36 17.5 89 15.7 0.0 0.0 0 0.0 0.0 1013.0 0.0 0.0 17.5 0.0
23/02/21 19:37 17.5 89 15.7 0.0 0.0 0 0.0 0.0 1013.0 0.0 0.0 17.5 0.0
23/02/21 19:38 17.5 89 15.7 0.0 0.0 0 0.0 0.0 1012.0 0.0 0.0 17.5 0.0
23/02/21 19:39 17.5 89 15.7 0.0 0.0 0 0.0 0.0 1012.0 0.0 0.0 17.5 0.0
23/02/21 19:40 17.4 89 15.6 0.0 0.0 0 0.0 0.0 1012.0 0.0 0.0 17.4 0.0
23/02/21 19:41 17.4 89 15.6 0.0 0.0 0 0.0 0.0 1012.0 0.0 0.0 17.4 0.0
23/02/21 19:42 17.4 89 15.6 0.0 0.0 0 0.0 0.0 1012.0 0.0 0.0 17.4 0.0
23/02/21 19:43 17.3 89 15.5 0.0 0.0 0 0.0 0.0 1012.0 0.0 0.0 17.3 0.0
23/02/21 19:44 17.4 89 15.6 0.0 0.0 0 0.0 0.0 1012.0 0.0 0.0 17.4 0.0
23/02/21 19:45 17.3 89 15.5 0.0 0.0 0 0.0 0.0 1012.0 0.0 0.0 17.3 0.0
23/02/21 19:46 17.3 89 15.5 0.0 0.0 0 0.0 0.0 1012.0 0.0 0.0 17.3 0.0
23/02/21 19:47 17.4 90 15.7 0.0 0.0 0 0.0 0.0 1012.0 0.0 0.0 17.4 0.0
23/02/21 19:48 17.3 89 15.5 0.0 0.0 0 0.0 0.0 1012.0 0.0 0.0 17.3 0.0
23/02/21 19:49 17.4 89 15.6 0.0 0.0 0 0.0 0.0 1012.0 0.0 0.0 17.4 0.0
23/02/21 19:50 17.3 89 15.5 0.0 0.0 0 0.0 0.0 1012.0 0.0 0.0 17.3 0.0
23/02/21 19:53 17.3 90 15.6 0.0 0.0 0 0.0 0.0 1013.0 0.0 0.0 17.3 0.0
23/02/21 19:54 17.4 90 15.7 0.0 0.0 0 0.0 0.0 1013.0 0.0 0.0 17.4 0.0
23/02/21 19:55 17.3 90 15.6 0.0 0.0 0 0.0 0.0 1013.0 0.0 0.0 17.3 0.0
23/02/21 19:56 17.3 90 15.6 0.0 0.0 0 0.0 0.0 1013.0 0.0 0.0 17.3 0.0
23/02/21 19:57 17.2 90 15.5 0.0 0.0 0 0.0 0.0 1013.0 0.0 0.0 17.2 0.0
23/02/21 19:58 17.2 90 15.5 0.0 0.0 0 0.0 0.0 1013.0 0.0 0.0 17.2 0.0
23/02/21 19:59 17.2 90 15.5 0.0 0.0 0 0.0 0.0 1013.0 0.0 0.0 17.2 0.0
23/02/21 20:00 17.2 90 15.5 0.0 0.0 0 0.0 0.0 1013.0 0.0 0.0 17.2 0.0
23/02/21 20:01 17.2 91 15.7 0.0 0.0 0 0.0 0.0 1013.0 0.0 0.0 17.2 0.0
23/02/21 20:02 17.2 90 15.5 0.0 0.0 0 0.0 0.0 1013.0 0.0 0.0 17.2 0.0
23/02/21 20:03 17.2 90 15.5 0.0 0.0 0 0.0 0.0 1013.0 0.0 0.0 17.2 0.0
23/02/21 20:04 17.2 90 15.5 0.0 0.0 0 0.0 0.0 1013.0 0.0 0.0 17.2 0.0
23/02/21 20:05 17.2 90 15.5 0.0 0.0 0 0.0 0.0 1013.0 0.0 0.0 17.2 0.0
23/02/21 20:06 17.2 91 15.7 0.0 0.0 0 0.0 0.0 1013.0 0.0 0.0 17.2 0.0
23/02/21 20:07 17.2 91 15.7 0.0 0.0 0 0.0 0.0 1013.0 0.0 0.0 17.2 0.0
23/02/21 20:08 17.2 91 15.7 0.0 0.0 0 0.0 0.0 1014.0 0.0 0.0 17.2 0.0
23/02/21 20:09 17.2 91 15.7 0.0 0.0 0 0.0 0.0 1014.0 0.0 0.0 17.2 0.0
23/02/21 20:10 17.2 91 15.7 0.0 0.0 0 0.0 0.0 1014.0 0.0 0.0 17.2 0.0
23/02/21 20:11 17.2 91 15.7 0.0 0.0 0 0.0 0.0 1014.0 0.0 0.0 17.2 0.0
23/02/21 20:12 17.2 91 15.7 0.0 0.0 0 0.0 0.0 1014.0 0.0 0.0 17.2 0.0
23/02/21 20:13 17.2 91 15.7 0.0 0.0 0 0.0 0.0 1014.0 0.0 0.0 17.2 0.0
23/02/21 20:14 17.2 91 15.7 0.0 0.0 0 0.0 0.0 1014.0 0.0 0.0 17.2 0.0
23/02/21 20:18 17.1 91 15.6 0.0 0.0 0 0.0 0.0 1014.0 0.0 0.0 17.1 0.0
23/02/21 20:19 17.1 91 15.6 0.0 0.0 0 0.0 0.0 1014.0 0.0 0.0 17.1 0.0
23/02/21 20:20 17.1 92 15.8 0.0 0.0 0 0.0 0.0 1014.0 0.0 0.0 17.1 0.0
23/02/21 20:21 17.1 92 15.8 0.0 0.0 0 0.0 0.0 1014.0 0.0 0.0 17.1 0.0
23/02/21 20:22 17.1 92 15.8 0.0 0.0 0 0.0 0.0 1014.0 0.0 0.0 17.1 0.0
23/02/21 20:23 17.1 92 15.8 0.0 0.0 0 0.0 0.0 1014.0 0.0 0.0 17.1 0.0
23/02/21 20:24 17.1 92 15.8 0.0 0.0 0 0.0 0.0 1014.0 0.0 0.0 17.1 0.0
23/02/21 20:25 17.1 92 15.8 0.0 0.0 0 0.0 0.0 1014.0 0.0 0.0 17.1 0.0
23/02/21 20:26 17.1 92 15.8 0.0 0.0 0 0.0 0.0 1014.0 0.0 0.0 17.1 0.0
23/02/21 20:27 17.1 92 15.8 0.0 0.0 0 0.0 0.0 1014.0 0.0 0.0 17.1 0.0
23/02/21 20:28 17.1 92 15.8 0.0 0.0 0 0.0 0.0 1014.0 0.0 0.0 17.1 0.0
23/02/21 20:29 17.1 92 15.8 0.0 0.0 0 0.0 0.0 1014.0 0.0 0.0 17.1 0.0
23/02/21 20:30 17.1 92 15.8 0.0 0.0 0 0.0 0.0 1014.0 0.0 0.0 17.1 0.0
23/02/21 20:31 17.1 91 15.6 0.0 0.0 0 0.0 0.0 1014.0 0.0 0.0 17.1 0.0
23/02/21 20:32 17.1 91 15.6 0.0 0.0 0 0.0 0.0 1014.0 0.0 0.0 17.1 0.0
23/02/21 20:33 17.0 92 15.7 0.0 0.0 0 0.0 0.0 1014.0 0.0 0.0 17.0 0.0
23/02/21 20:34 17.0 92 15.7 0.0 0.0 0 0.0 0.0 1014.0 0.0 0.0 17.0 0.0
23/02/21 20:35 17.0 92 15.7 0.0 0.0 0 0.0 0.0 1014.0 0.0 0.0 17.0 0.0
23/02/21 20:36 17.0 92 15.7 0.0 0.0 0 0.0 0.0 1014.0 0.0 0.0 17.0 0.0
23/02/21 20:37 17.0 92 15.7 0.0 0.0 0 0.0 0.0 1014.0 0.0 0.0 17.0 0.0
23/02/21 20:38 17.0 92 15.7 0.0 0.0 0 0.0 0.0 1014.0 0.0 0.0 17.0 0.0
23/02/21 20:39 17.1 92 15.8 0.0 0.0 0 0.0 0.0 1014.0 0.0 0.0 17.1 0.0
23/02/21 20:42 17.0 92 15.7 0.0 0.0 0 0.0 0.0 1014.0 0.0 0.0 17.0 0.0
23/02/21 20:43 17.0 92 15.7 0.0 0.0 0 0.0 0.0 1014.0 0.0 0.0 17.0 0.0
23/02/21 20:44 17.0 92 15.7 0.0 0.0 0 0.0 0.0 1014.0 0.0 0.0 17.0 0.0
23/02/21 20:45 17.0 92 15.7 0.0 0.0 0 0.0 0.0 1014.0 0.0 0.0 17.0 0.0
23/02/21 20:46 17.0 92 15.7 0.0 0.0 0 0.0 0.0 1014.0 0.0 0.0 17.0 0.0
23/02/21 20:47 17.0 92 15.7 0.0 0.0 0 0.0 0.0 1014.0 0.0 0.0 17.0 0.0
23/02/21 20:48 17.0 92 15.7 0.0 0.0 0 0.0 0.0 1014.0 0.0 0.0 17.0 0.0
23/02/21 20:49 17.0 92 15.7 0.0 0.0 0 0.0 0.0 1014.0 0.0 0.0 17.0 0.0
23/02/21 20:50 17.0 92 15.7 0.0 0.0 0 0.0 0.0 1014.0 0.0 0.0 17.0 0.0
23/02/21 20:51 17.0 92 15.7 0.0 0.0 0 0.0 0.0 1014.0 0.0 0.0 17.0 0.0
23/02/21 20:52 17.0 92 15.7 0.0 0.0 0 0.0 0.0 1014.0 0.0 0.0 17.0 0.0
23/02/21 20:53 17.0 92 15.7 0.0 0.0 0 0.0 0.0 1015.0 0.0 0.0 17.0 0.0
23/02/21 20:54 17.0 92 15.7 0.0 0.0 0 0.0 0.0 1015.0 0.0 0.0 17.0 0.0
23/02/21 20:55 16.9 92 15.6 0.0 0.0 0 0.0 0.0 1015.0 0.0 0.0 16.9 0.0
23/02/21 20:56 17.0 92 15.7 0.0 0.0 0 0.0 0.0 1015.0 0.0 0.0 17.0 0.0
23/02/21 20:57 16.9 92 15.6 0.0 0.0 0 0.0 0.0 1015.0 0.0 0.0 16.9 0.0
23/02/21 20:58 16.9 92 15.6 0.0 0.0 0 0.0 0.0 1015.0 0.0 0.0 16.9 0.0
23/02/21 20:59 16.9 92 15.6 0.0 0.0 0 0.0 0.0 1015.0 0.0 0.0 16.9 0.0
23/02/21 21:00 16.9 92 15.6 0.0 0.0 0 0.0 0.0 1015.0 0.0 0.0 16.9 0.0
23/02/21 21:01 17.0 92 15.7 0.0 0.0 0 0.0 0.0 1015.0 0.0 0.0 17.0 0.0
23/02/21 21:02 16.9 92 15.6 0.0 0.0 0 0.0 0.0 1015.0 0.0 0.0 16.9 0.0
23/02/21 21:03 16.9 92 15.6 0.0 0.0 0 0.0 0.0 1015.0 0.0 0.0 16.9 0.0
23/02/21 21:04 16.9 92 15.6 0.0 0.0 0 0.0 0.0 1015.0 0.0 0.0 16.9 0.0
23/02/21 21:05 16.9 92 15.6 0.0 0.0 0 0.0 0.0 1015.0 0.0 0.0 16.9 0.0
23/02/21 21:33 16.7 92 15.4 0.0 0.0 0 0.0 0.0 1015.0 0.0 0.0 16.7 0.0
23/02/21 21:34 16.7 92 15.4 0.0 0.0 0 0.0 0.0 1015.0 0.0 0.0 16.7 0.0
23/02/21 21:35 16.7 92 15.4 0.0 0.0 0 0.0 0.0 1015.0 0.0 0.0 16.7 0.0
23/02/21 21:36 16.7 92 15.4 0.0 0.0 0 0.0 0.0 1015.0 0.0 0.0 16.7 0.0
23/02/21 21:37 16.7 93 15.6 0.0 0.0 0 0.0 0.0 1015.0 0.0 0.0 16.7 0.0
23/02/21 21:38 16.7 93 15.6 0.0 0.0 0 0.0 0.0 1015.0 0.0 0.0 16.7 0.0
23/02/21 21:39 16.6 92 15.3 0.0 0.0 0 0.0 0.0 1015.0 0.0 0.0 16.6 0.0
23/02/21 21:40 16.7 92 15.4 0.0 0.0 0 0.0 0.0 1015.0 0.0 0.0 16.7 0.0
23/02/21 21:41 16.6 93 15.5 0.0 0.0 0 0.0 0.0 1015.0 0.0 0.0 16.6 0.0
23/02/21 21:42 16.6 93 15.5 0.0 0.0 0 0.0 0.0 1015.0 0.0 0.0 16.6 0.0
23/02/21 21:43 16.6 93 15.5 0.0 0.0 0 0.0 0.0 1015.0 0.0 0.0 16.6 0.0
23/02/21 21:44 16.6 93 15.5 0.0 0.0 0 0.0 0.0 1015.0 0.0 0.0 16.6 0.0
23/02/21 21:45 16.6 93 15.5 0.0 0.0 0 0.0 0.0 1015.0 0.0 0.0 16.6 0.0
23/02/21 21:46 16.6 93 15.5 0.0 0.0 0 0.0 0.0 1015.0 0.0 0.0 16.6 0.0
23/02/21 21:47 16.6 93 15.5 0.0 0.0 0 0.0 0.0 1015.0 0.0 0.0 16.6 0.0
23/02/21 21:48 16.5 93 15.4 0.0 0.0 0 0.0 0.0 1015.0 0.0 0.0 16.5 0.0
23/02/21 21:49 16.5 93 15.4 0.0 0.0 0 0.0 0.0 1015.0 0.0 0.0 16.5 0.0
23/02/21 21:50 16.5 93 15.4 0.0 0.0 0 0.0 0.0 1015.0 0.0 0.0 16.5 0.0
23/02/21 21:51 16.5 93 15.4 0.0 0.0 0 0.0 0.0 1015.0 0.0 0.0 16.5 0.0
23/02/21 21:52 16.5 93 15.4 0.0 0.0 0 0.0 0.0 1015.0 0.0 0.0 16.5 0.0
23/02/21 21:53 16.5 93 15.4 0.0 0.0 0 0.0 0.0 1015.0 0.0 0.0 16.5 0.0
23/02/21 21:54 16.5 93 15.4 0.0 0.0 0 0.0 0.0 1015.0 0.0 0.0 16.5 0.0
23/02/21 21:57 16.3 94 15.3 0.0 0.0 0 0.0 0.0 1015.0 0.0 0.0 16.3 0.0
23/02/21 21:58 16.4 94 15.4 0.0 0.0 0 0.0 0.0 1015.0 0.0 0.0 16.4 0.0
23/02/21 21:59 16.4 94 15.4 0.0 0.0 0 0.0 0.0 1015.0 0.0 0.0 16.4 0.0
23/02/21 22:00 16.3 94 15.3 0.0 0.0 0 0.0 0.0 1015.0 0.0 0.0 16.3 0.0
23/02/21 22:01 16.3 94 15.3 0.0 0.0 0 0.0 0.0 1015.0 0.0 0.0 16.3 0.0
23/02/21 22:02 16.3 94 15.3 0.0 0.0 0 0.0 0.0 1015.0 0.0 0.0 16.3 0.0
23/02/21 22:03 16.3 94 15.3 0.0 0.0 0 0.0 0.0 1015.0 0.0 0.0 16.3 0.0
23/02/21 22:04 16.3 94 15.3 0.0 0.0 0 0.0 0.0 1015.0 0.0 0.0 16.3 0.0
23/02/21 22:05 16.3 94 15.3 0.0 0.0 0 0.0 0.0 1015.0 0.0 0.0 16.3 0.0
23/02/21 22:06 16.3 94 15.3 0.0 0.0 0 0.0 0.0 1015.0 0.0 0.0 16.3 0.0
23/02/21 22:07 16.3 94 15.3 0.0 0.0 0 0.0 0.0 1015.0 0.0 0.0 16.3 0.0
23/02/21 22:08 16.3 94 15.3 0.0 0.0 0 0.0 0.0 1015.0 0.0 0.0 16.3 0.0
23/02/21 22:09 16.3 95 15.5 0.0 0.0 0 0.0 0.0 1015.0 0.0 0.0 16.3 0.0
23/02/21 22:10 16.3 95 15.5 0.0 0.0 0 0.0 0.0 1015.0 0.0 0.0 16.3 0.0
23/02/21 22:11 16.3 95 15.5 0.0 0.0 0 0.0 0.0 1015.0 0.0 0.0 16.3 0.0
23/02/21 22:12 16.3 95 15.5 0.0 0.0 0 0.0 0.0 1015.0 0.0 0.0 16.3 0.0
23/02/21 22:13 16.3 95 15.5 0.0 0.0 0 0.0 0.0 1015.0 0.0 0.0 16.3 0.0
23/02/21 22:14 16.3 95 15.5 0.0 0.0 0 0.0 0.0 1015.0 0.0 0.0 16.3 0.0
23/02/21 22:15 16.3 95 15.5 0.0 0.0 0 0.0 0.0 1015.0 0.0 0.0 16.3 0.0
23/02/21 22:16 16.3 95 15.5 0.0 0.0 0 0.0 0.0 1015.0 0.0 0.0 16.3 0.0
23/02/21 22:17 16.3 95 15.5 0.0 0.0 0 0.0 0.0 1015.0 0.0 0.0 16.3 0.0
23/02/21 22:18 16.3 95 15.5 0.0 0.0 0 0.0 0.0 1015.0 0.0 0.0 16.3 0.0
23/02/21 22:19 16.3 95 15.5 0.0 0.0 0 0.0 0.0 1015.0 0.0 0.0 16.3 0.0
23/02/21 22:20 16.3 95 15.5 0.0 0.0 0 0.0 0.0 1015.0 0.0 0.0 16.3 0.0
23/02/21 22:22 16.3 95 15.5 0.0 0.0 0 0.0 0.0 1015.0 0.0 0.0 16.3 0.0
23/02/21 22:23 16.2 95 15.4 0.0 0.0 0 0.0 0.0 1015.0 0.0 0.0 16.2 0.0
23/02/21 22:24 16.2 95 15.4 0.0 0.0 0 0.0 0.0 1015.0 0.0 0.0 16.2 0.0
23/02/21 22:25 16.2 95 15.4 0.0 0.0 0 0.0 0.0 1015.0 0.0 0.0 16.2 0.0
23/02/21 22:26 16.3 95 15.5 0.0 0.0 0 0.0 0.0 1015.0 0.0 0.0 16.3 0.0
23/02/21 22:27 16.2 95 15.4 0.0 0.0 0 0.0 0.0 1015.0 0.0 0.0 16.2 0.0
23/02/21 22:28 16.2 95 15.4 0.0 0.0 0 0.0 0.0 1015.0 0.0 0.0 16.2 0.0
23/02/21 22:29 16.2 95 15.4 0.0 0.0 0 0.0 0.0 1015.0 0.0 0.0 16.2 0.0
23/02/21 22:30 16.2 95 15.4 0.0 0.0 0 0.0 0.0 1015.0 0.0 0.0 16.2 0.0
23/02/21 22:31 16.2 95 15.4 0.0 0.0 0 0.0 0.0 1015.0 0.0 0.0 16.2 0.0
23/02/21 22:32 16.2 95 15.4 0.0 0.0 0 0.0 0.0 1015.0 0.0 0.0 16.2 0.0
23/02/21 22:33 16.1 96 15.5 0.0 0.0 0 0.0 0.0 1015.0 0.0 0.0 16.1 0.0
23/02/21 22:34 16.1 96 15.5 0.0 0.0 0 0.0 0.0 1015.0 0.0 0.0 16.1 0.0
23/02/21 22:35 16.0 96 15.4 0.0 0.0 0 0.0 0.0 1015.0 0.0 0.0 16.0 0.0
23/02/21 22:36 16.1 96 15.5 0.0 0.0 0 0.0 0.0 1015.0 0.0 0.0 16.1 0.0
23/02/21 22:37 16.1 96 15.5 0.0 0.0 0 0.0 0.0 1015.0 0.0 0.0 16.1 0.0
23/02/21 22:38 16.0 97 15.5 0.0 0.0 0 0.0 0.0 1014.0 0.0 0.0 16.0 0.0
23/02/21 22:39 16.0 97 15.5 0.0 0.0 0 0.0 0.0 1014.0 0.0 0.0 16.0 0.0
23/02/21 22:40 16.0 97 15.5 0.0 0.0 0 0.0 0.0 1014.0 0.0 0.0 16.0 0.0
23/02/21 22:41 16.0 97 15.5 0.0 0.0 0 0.0 0.0 1014.0 0.0 0.0 16.0 0.0
23/02/21 22:42 15.9 97 15.4 0.0 0.0 0 0.0 0.0 1014.0 0.0 0.0 15.9 0.0
23/02/21 22:43 15.9 97 15.4 0.0 0.0 0 0.0 0.0 1014.0 0.0 0.0 15.9 0.0
23/02/21 22:44 15.9 97 15.4 0.0 0.0 0 0.0 0.0 1014.0 0.0 0.0 15.9 0.0
23/02/21 22:48 15.9 97 15.4 0.0 0.0 0 0.0 0.0 1014.0 0.0 0.0 15.9 0.0
23/02/21 22:49 15.9 97 15.4 0.0 0.0 0 0.0 0.0 1014.0 0.0 0.0 15.9 0.0
23/02/21 22:50 15.9 97 15.4 0.0 0.0 0 0.0 0.0 1014.0 0.0 0.0 15.9 0.0
23/02/21 22:51 15.9 97 15.4 0.0 0.0 0 0.0 0.0 1014.0 0.0 0.0 15.9 0.0
23/02/21 22:52 15.9 97 15.4 0.0 0.0 0 0.0 0.0 1014.0 0.0 0.0 15.9 0.0
23/02/21 22:53 15.9 97 15.4 0.0 0.0 0 0.0 0.0 1014.0 0.0 0.0 15.9 0.0
23/02/21 22:54 15.9 97 15.4 0.0 0.0 0 0.0 0.0 1014.0 0.0 0.0 15.9 0.0
23/02/21 22:55 15.9 98 15.6 0.0 0.0 0 0.0 0.0 1014.0 0.0 0.0 15.9 0.0
23/02/21 22:56 15.8 98 15.5 0.0 0.0 0 0.0 0.0 1014.0 0.0 0.0 15.8 0.0
23/02/21 22:57 15.9 98 15.6 0.0 0.0 0 0.0 0.0 1014.0 0.0 0.0 15.9 0.0
23/02/21 22:58 15.8 98 15.5 0.0 0.0 0 0.0 0.0 1014.0 0.0 0.0 15.8 0.0
23/02/21 22:59 15.8 98 15.5 0.0 0.0 0 0.0 0.0 1014.0 0.0 0.0 15.8 0.0
23/02/21 23:00 15.9 98 15.6 0.0 0.0 0 0.0 0.0 1014.0 0.0 0.0 15.9 0.0
23/02/21 23:01 15.8 98 15.5 0.0 0.0 0 0.0 0.0 1014.0 0.0 0.0 15.8 0.0
23/02/21 23:02 15.8 98 15.5 0.0 0.0 0 0.0 0.0 1014.0 0.0 0.0 15.8 0.0
23/02/21 23:03 15.8 98 15.5 0.0 0.0 0 0.0 0.0 1014.0 0.0 0.0 15.8 0.0
23/02/21 23:04 15.8 98 15.5 0.0 0.0 0 0.0 0.0 1014.0 0.0 0.0 15.8 0.0
23/02/21 23:05 15.8 98 15.5 0.0 0.0 0 0.0 0.0 1014.0 0.0 0.0 15.8 0.0
23/02/21 23:06 15.8 98 15.5 0.0 0.0 0 0.0 0.0 1014.0 0.0 0.0 15.8 0.0
23/02/21 23:07 15.8 98 15.5 0.0 0.0 0 0.0 0.0 1014.0 0.0 0.0 15.8 0.0
23/02/21 23:08 15.7 98 15.4 0.0 0.0 0 0.0 0.0 1015.0 0.0 0.0 15.7 0.0
23/02/21 23:09 15.7 98 15.4 0.0 0.0 0 0.0 0.0 1015.0 0.0 0.0 15.7 0.0
23/02/21 23:12 15.6 98 15.3 0.0 0.0 0 0.0 0.0 1015.0 0.0 0.0 15.6 0.0
23/02/21 23:13 15.6 98 15.3 0.0 0.0 0 0.0 0.0 1015.0 0.0 0.0 15.6 0.0
23/02/21 23:14 15.6 98 15.3 0.0 0.0 0 0.0 0.0 1015.0 0.0 0.0 15.6 0.0
23/02/21 23:15 15.6 98 15.3 0.0 0.0 0 0.0 0.0 1015.0 0.0 0.0 15.6 0.0
23/02/21 23:16 15.6 98 15.3 0.0 0.0 0 0.0 0.0 1015.0 0.0 0.0 15.6 0.0
23/02/21 23:17 15.6 98 15.3 0.0 0.0 0 0.0 0.0 1015.0 0.0 0.0 15.6 0.0
23/02/21 23:18 15.6 98 15.3 0.0 0.0 0 0.0 0.0 1015.0 0.0 0.0 15.6 0.0
23/02/21 23:19 15.6 98 15.3 0.0 0.0 0 0.0 0.0 1015.0 0.0 0.0 15.6 0.0
23/02/21 23:20 15.6 98 15.3 0.0 0.0 0 0.0 0.0 1015.0 0.0 0.0 15.6 0.0
23/02/21 23:21 15.5 98 15.2 0.0 0.0 0 0.0 0.0 1015.0 0.0 0.0 15.5 0.0
23/02/21 23:22 15.6 98 15.3 0.0 0.0 0 0.0 0.0 1015.0 0.0 0.0 15.6 0.0
23/02/21 23:23 15.5 98 15.2 0.0 0.0 0 0.0 0.0 1015.0 0.0 0.0 15.5 0.0
23/02/21 23:24 15.5 98 15.2 0.0 0.0 0 0.0 0.0 1015.0 0.0 0.0 15.5 0.0
23/02/21 23:25 15.5 98 15.2 0.0 0.0 0 0.0 0.0 1015.0 0.0 0.0 15.5 0.0
23/02/21 23:26 15.5 98 15.2 0.0 0.0 0 0.0 0.0 1015.0 0.0 0.0 15.5 0.0
23/02/21 23:27 15.5 98 15.2 0.0 0.0 0 0.0 0.0 1015.0 0.0 0.0 15.5 0.0
23/02/21 23:28 15.5 98 15.2 0.0 0.0 0 0.0 0.0 1015.0 0.0 0.0 15.5 0.0
23/02/21 23:29 15.4 98 15.1 0.0 0.0 0 0.0 0.0 1015.0 0.0 0.0 15.4 0.0
23/02/21 23:30 15.5 98 15.2 0.0 0.0 0 0.0 0.0 1015.0 0.0 0.0 15.5 0.0
23/02/21 23:31 15.5 98 15.2 0.0 0.0 0 0.0 0.0 1015.0 0.0 0.0 15.5 0.0
23/02/21 23:32 15.4 98 15.1 0.0 0.0 0 0.0 0.0 1015.0 0.0 0.0 15.4 0.0
23/02/21 23:33 15.4 98 15.1 0.0 0.0 0 0.0 0.0 1015.0 0.0 0.0 15.4 0.0
23/02/21 23:34 15.4 98 15.1 0.0 0.0 0 0.0 0.0 1015.0 0.0 0.0 15.4 0.0
23/02/21 23:37 15.4 98 15.1 0.0 0.0 0 0.0 0.0 1015.0 0.0 0.0 15.4 0.0
23/02/21 23:38 15.4 98 15.1 0.0 0.0 0 0.0 0.0 1015.0 0.0 0.0 15.4 0.0
23/02/21 23:39 15.4 98 15.1 0.0 0.0 0 0.0 0.0 1015.0 0.0 0.0 15.4 0.0
23/02/21 23:40 15.4 98 15.1 0.0 0.0 0 0.0 0.0 1015.0 0.0 0.0 15.4 0.0
23/02/21 23:41 15.4 98 15.1 0.0 0.0 0 0.0 0.0 1015.0 0.0 0.0 15.4 0.0
23/02/21 23:42 15.4 98 15.1 0.0 0.0 0 0.0 0.0 1015.0 0.0 0.0 15.4 0.0
23/02/21 23:43 15.4 98 15.1 0.0 0.0 0 0.0 0.0 1015.0 0.0 0.0 15.4 0.0
23/02/21 23:44 15.4 98 15.1 0.0 0.0 0 0.0 0.0 1015.0 0.0 0.0 15.4 0.0
23/02/21 23:45 15.4 98 15.1 0.0 0.0 0 0.0 0.0 1015.0 0.0 0.0 15.4 0.0
23/02/21 23:46 15.5 98 15.2 0.0 0.0 0 0.0 0.0 1015.0 0.0 0.0 15.5 0.0
23/02/21 23:47 15.4 98 15.1 0.0 0.0 0 0.0 0.0 1015.0 0.0 0.0 15.4 0.0
23/02/21 23:48 15.4 98 15.1 0.0 0.0 0 0.0 0.0 1015.0 0.0 0.0 15.4 0.0
23/02/21 23:49 15.4 98 15.1 0.0 0.0 0 0.0 0.0 1015.0 0.0 0.0 15.4 0.0
23/02/21 23:50 15.4 98 15.1 0.0 0.0 0 0.0 0.0 1015.0 0.0 0.0 15.4 0.0
23/02/21 23:51 15.4 98 15.1 0.0 0.0 0 0.0 0.0 1015.0 0.0 0.0 15.4 0.0
23/02/21 23:52 15.4 98 15.1 0.0 0.0 0 0.0 0.0 1015.0 0.0 0.0 15.4 0.0
23/02/21 23:53 15.4 98 15.1 0.0 0.0 0 0.0 0.0 1014.0 0.0 0.0 15.4 0.0
23/02/21 23:54 15.4 98 15.1 0.0 0.0 0 0.0 0.0 1014.0 0.0 0.0 15.4 0.0
23/02/21 23:55 15.4 98 15.1 0.0 0.0 0 0.0 0.0 1014.0 0.0 0.0 15.4 0.0
23/02/21 23:56 15.4 98 15.1 0.0 0.0 0 0.0 0.0 1014.0 0.0 0.0 15.4 0.0
23/02/21 23:57 15.4 98 15.1 0.0 0.0 0 0.0 0.0 1014.0 0.0 0.0 15.4 0.0
23/02/21 23:58 15.4 98 15.1 0.0 0.0 0 0.0 0.0 1014.0 0.0 0.0 15.4 0.0
23/02/21 23:59 15.4 98 15.1 0.0 0.0 0 0.0 0.0 1014.0 0.0 0.0 15.4 0.0
 
  Back to Top
Date Time Temperature Humidity Dewpoint Wind Speed High Gust Wind Bearing Rainfall Rate Total Rainfall Pressure Gust Wind Chill Heat Index UV Index
24/02/21 00:03 15.3 98 15.0 0.0 0.0 0 0.0 0.0 1014.0 0.0 0.0 15.3 0.0
24/02/21 00:04 15.3 98 15.0 0.0 0.0 0 0.0 0.0 1014.0 0.0 0.0 15.3 0.0
24/02/21 00:05 15.3 98 15.0 0.0 0.0 0 0.0 0.0 1014.0 0.0 0.0 15.3 0.0
24/02/21 00:06 15.3 98 15.0 0.0 0.0 0 0.0 0.0 1014.0 0.0 0.0 15.3 0.0
24/02/21 00:07 15.3 98 15.0 0.0 0.0 0 0.0 0.0 1014.0 0.0 0.0 15.3 0.0
24/02/21 00:08 15.3 98 15.0 0.0 0.0 0 0.0 0.0 1014.0 0.0 0.0 15.3 0.0
24/02/21 00:09 15.3 98 15.0 0.0 0.0 0 0.0 0.0 1014.0 0.0 0.0 15.3 0.0
24/02/21 00:10 15.4 98 15.1 0.0 0.0 0 0.0 0.0 1014.0 0.0 0.0 15.4 0.0
24/02/21 00:11 15.3 98 15.0 0.0 0.0 0 0.0 0.0 1014.0 0.0 0.0 15.3 0.0
24/02/21 00:12 15.3 98 15.0 0.0 0.0 0 0.0 0.0 1014.0 0.0 0.0 15.3 0.0
24/02/21 00:13 15.3 98 15.0 0.0 0.0 0 0.0 0.0 1014.0 0.0 0.0 15.3 0.0
24/02/21 00:14 15.3 98 15.0 0.0 0.0 0 0.0 0.0 1014.0 0.0 0.0 15.3 0.0
24/02/21 00:15 15.3 98 15.0 0.0 0.0 0 0.0 0.0 1014.0 0.0 0.0 15.3 0.0
24/02/21 00:16 15.3 98 15.0 0.0 0.0 0 0.0 0.0 1014.0 0.0 0.0 15.3 0.0
24/02/21 00:17 15.3 98 15.0 0.0 0.0 0 0.0 0.0 1014.0 0.0 0.0 15.3 0.0
24/02/21 00:18 15.3 98 15.0 0.0 0.0 0 0.0 0.0 1014.0 0.0 0.0 15.3 0.0
24/02/21 00:19 15.3 98 15.0 0.0 0.0 0 0.0 0.0 1014.0 0.0 0.0 15.3 0.0
24/02/21 00:20 15.3 98 15.0 0.0 0.0 0 0.0 0.0 1014.0 0.0 0.0 15.3 0.0
24/02/21 00:21 15.3 98 15.0 0.0 0.0 0 0.0 0.0 1014.0 0.0 0.0 15.3 0.0
24/02/21 00:22 15.3 98 15.0 0.0 0.0 0 0.0 0.0 1014.0 0.0 0.0 15.3 0.0
24/02/21 00:23 15.3 98 15.0 0.0 0.0 0 0.0 0.0 1015.0 0.0 0.0 15.3 0.0
24/02/21 00:27 15.2 98 14.9 0.0 0.0 0 0.0 0.0 1015.0 0.0 0.0 15.2 0.0
24/02/21 00:28 15.3 98 15.0 0.0 0.0 0 0.0 0.0 1015.0 0.0 0.0 15.3 0.0
24/02/21 00:29 15.2 98 14.9 0.0 0.0 0 0.0 0.0 1015.0 0.0 0.0 15.2 0.0
24/02/21 00:30 15.2 98 14.9 0.0 0.0 0 0.0 0.0 1015.0 0.0 0.0 15.2 0.0
24/02/21 00:31 15.2 98 14.9 0.0 0.0 0 0.0 0.0 1015.0 0.0 0.0 15.2 0.0
24/02/21 00:32 15.2 98 14.9 0.0 0.0 0 0.0 0.0 1015.0 0.0 0.0 15.2 0.0
24/02/21 00:33 15.2 98 14.9 0.0 0.0 0 0.0 0.0 1015.0 0.0 0.0 15.2 0.0
24/02/21 00:34 15.2 98 14.9 0.0 0.0 0 0.0 0.0 1015.0 0.0 0.0 15.2 0.0
24/02/21 00:35 15.2 98 14.9 0.0 0.0 0 0.0 0.0 1015.0 0.0 0.0 15.2 0.0
24/02/21 00:36 15.2 98 14.9 0.0 0.0 0 0.0 0.0 1015.0 0.0 0.0 15.2 0.0
24/02/21 00:37 15.2 98 14.9 0.0 0.0 0 0.0 0.0 1015.0 0.0 0.0 15.2 0.0
24/02/21 00:38 15.2 98 14.9 0.0 0.0 0 0.0 0.0 1015.0 0.0 0.0 15.2 0.0
24/02/21 00:39 15.2 98 14.9 0.0 0.0 0 0.0 0.0 1015.0 0.0 0.0 15.2 0.0
24/02/21 00:40 15.2 98 14.9 0.0 0.0 0 0.0 0.0 1015.0 0.0 0.0 15.2 0.0
24/02/21 00:41 15.2 98 14.9 0.0 0.0 0 0.0 0.0 1015.0 0.0 0.0 15.2 0.0
24/02/21 00:42 15.2 98 14.9 0.0 0.0 0 0.0 0.0 1015.0 0.0 0.0 15.2 0.0
24/02/21 00:43 15.2 98 14.9 0.0 0.0 0 0.0 0.0 1015.0 0.0 0.0 15.2 0.0
24/02/21 00:44 15.2 98 14.9 0.0 0.0 0 0.0 0.0 1015.0 0.0 0.0 15.2 0.0
24/02/21 00:45 15.2 98 14.9 0.0 0.0 0 0.0 0.0 1015.0 0.0 0.0 15.2 0.0
24/02/21 00:46 15.2 98 14.9 0.0 0.0 0 0.0 0.0 1015.0 0.0 0.0 15.2 0.0
24/02/21 00:47 15.1 98 14.8 0.0 0.0 0 0.0 0.0 1015.0 0.0 0.0 15.1 0.0
24/02/21 00:48 15.1 98 14.8 0.0 0.0 0 0.0 0.0 1015.0 0.0 0.0 15.1 0.0
24/02/21 00:49 15.1 98 14.8 0.0 0.0 0 0.0 0.0 1015.0 0.0 0.0 15.1 0.0
24/02/21 00:50 15.1 98 14.8 0.0 0.0 0 0.0 0.0 1015.0 0.0 0.0 15.1 0.0
24/02/21 00:52 15.2 98 14.9 0.0 0.0 0 0.0 0.0 1015.0 0.0 0.0 15.2 0.0
24/02/21 00:53 15.2 98 14.9 0.0 0.0 0 0.0 0.0 1016.0 0.0 0.0 15.2 0.0
24/02/21 00:54 15.1 98 14.8 0.0 0.0 0 0.0 0.0 1016.0 0.0 0.0 15.1 0.0
24/02/21 00:55 15.1 98 14.8 0.0 0.0 0 0.0 0.0 1016.0 0.0 0.0 15.1 0.0
24/02/21 00:56 15.1 98 14.8 0.0 0.0 0 0.0 0.0 1016.0 0.0 0.0 15.1 0.0
24/02/21 00:57 15.1 98 14.8 0.0 0.0 0 0.0 0.0 1016.0 0.0 0.0 15.1 0.0
24/02/21 00:58 15.1 98 14.8 0.0 0.0 0 0.0 0.0 1016.0 0.0 0.0 15.1 0.0
24/02/21 00:59 15.1 98 14.8 0.0 0.0 0 0.0 0.0 1016.0 0.0 0.0 15.1 0.0
24/02/21 01:00 15.1 98 14.8 0.0 0.0 0 0.0 0.0 1016.0 0.0 0.0 15.1 0.0
24/02/21 01:01 15.0 98 14.7 0.0 0.0 0 0.0 0.0 1016.0 0.0 0.0 15.0 0.0
24/02/21 01:02 15.1 98 14.8 0.0 0.0 0 0.0 0.0 1016.0 0.0 0.0 15.1 0.0
24/02/21 01:03 15.1 98 14.8 0.0 0.0 0 0.0 0.0 1016.0 0.0 0.0 15.1 0.0
24/02/21 01:04 15.1 98 14.8 0.0 0.0 0 0.0 0.0 1016.0 0.0 0.0 15.1 0.0
24/02/21 01:05 15.1 98 14.8 0.0 0.0 0 0.0 0.0 1016.0 0.0 0.0 15.1 0.0
24/02/21 01:17 15.0 98 14.7 0.0 0.0 0 0.0 0.0 1015.0 0.0 0.0 15.0 0.0
24/02/21 01:18 15.0 98 14.7 0.0 0.0 0 0.0 0.0 1015.0 0.0 0.0 15.0 0.0
24/02/21 01:19 15.1 98 14.8 0.0 0.0 0 0.0 0.0 1015.0 0.0 0.0 15.1 0.0
24/02/21 01:20 15.0 98 14.7 0.0 0.0 0 0.0 0.0 1015.0 0.0 0.0 15.0 0.0
24/02/21 01:21 15.0 98 14.7 0.0 0.0 0 0.0 0.0 1015.0 0.0 0.0 15.0 0.0
24/02/21 01:22 15.0 98 14.7 0.0 0.0 0 0.0 0.0 1015.0 0.0 0.0 15.0 0.0
24/02/21 01:23 15.0 98 14.7 0.0 0.0 0 0.0 0.0 1015.0 0.0 0.0 15.0 0.0
24/02/21 01:24 15.0 98 14.7 0.0 0.0 0 0.0 0.0 1015.0 0.0 0.0 15.0 0.0
24/02/21 01:25 15.1 98 14.8 0.0 0.0 0 0.0 0.0 1015.0 0.0 0.0 15.1 0.0
24/02/21 01:26 15.0 98 14.7 0.0 0.0 0 0.0 0.0 1015.0 0.0 0.0 15.0 0.0
24/02/21 01:27 15.0 98 14.7 0.0 0.0 0 0.0 0.0 1015.0 0.0 0.0 15.0 0.0
24/02/21 01:28 15.0 98 14.7 0.0 0.0 0 0.0 0.0 1015.0 0.0 0.0 15.0 0.0
24/02/21 01:29 15.0 98 14.7 0.0 0.0 0 0.0 0.0 1015.0 0.0 0.0 15.0 0.0
24/02/21 01:30 15.0 98 14.7 0.0 0.0 0 0.0 0.0 1015.0 0.0 0.0 15.0 0.0
24/02/21 01:31 15.0 98 14.7 0.0 0.0 0 0.0 0.0 1015.0 0.0 0.0 15.0 0.0
24/02/21 01:32 15.0 98 14.7 0.0 0.0 0 0.0 0.0 1015.0 0.0 0.0 15.0 0.0
24/02/21 01:33 15.0 98 14.7 0.0 0.0 0 0.0 0.0 1015.0 0.0 0.0 15.0 0.0
24/02/21 01:34 15.0 98 14.7 0.0 0.0 0 0.0 0.0 1015.0 0.0 0.0 15.0 0.0
24/02/21 01:35 15.0 98 14.7 0.0 0.0 0 0.0 0.0 1015.0 0.0 0.0 15.0 0.0
24/02/21 01:36 15.0 98 14.7 0.0 0.0 0 0.0 0.0 1015.0 0.0 0.0 15.0 0.0
24/02/21 01:37 15.0 98 14.7 0.0 0.0 0 0.0 0.0 1015.0 0.0 0.0 15.0 0.0
24/02/21 01:38 15.0 98 14.7 0.0 0.0 0 0.0 0.0 1014.0 0.0 0.0 15.0 0.0
24/02/21 01:39 15.0 98 14.7 0.0 0.0 0 0.0 0.0 1014.0 0.0 0.0 15.0 0.0
24/02/21 01:40 15.0 98 14.7 0.0 0.0 0 0.0 0.0 1014.0 0.0 0.0 15.0 0.0
24/02/21 01:43 14.9 98 14.6 0.0 0.0 0 0.0 0.0 1014.0 0.0 0.0 14.9 0.0
24/02/21 01:44 14.9 98 14.6 0.0 0.0 0 0.0 0.0 1014.0 0.0 0.0 14.9 0.0
24/02/21 01:45 14.9 98 14.6 0.0 0.0 0 0.0 0.0 1014.0 0.0 0.0 14.9 0.0
24/02/21 01:46 14.9 98 14.6 0.0 0.0 0 0.0 0.0 1014.0 0.0 0.0 14.9 0.0
24/02/21 01:47 14.9 98 14.6 0.0 0.0 0 0.0 0.0 1014.0 0.0 0.0 14.9 0.0
24/02/21 01:48 15.0 98 14.7 0.0 0.0 0 0.0 0.0 1014.0 0.0 0.0 15.0 0.0
24/02/21 01:49 14.9 98 14.6 0.0 0.0 0 0.0 0.0 1014.0 0.0 0.0 14.9 0.0
24/02/21 01:50 14.9 98 14.6 0.0 0.0 0 0.0 0.0 1014.0 0.0 0.0 14.9 0.0
24/02/21 01:51 15.0 98 14.7 0.0 0.0 0 0.0 0.0 1014.0 0.0 0.0 15.0 0.0
24/02/21 01:52 14.9 98 14.6 0.0 0.0 0 0.0 0.0 1014.0 0.0 0.0 14.9 0.0
24/02/21 01:53 14.9 98 14.6 0.0 0.0 0 0.0 0.0 1014.0 0.0 0.0 14.9 0.0
24/02/21 01:54 14.9 98 14.6 0.0 0.0 0 0.0 0.0 1014.0 0.0 0.0 14.9 0.0
24/02/21 01:55 14.9 98 14.6 0.0 0.0 0 0.0 0.0 1014.0 0.0 0.0 14.9 0.0
24/02/21 01:56 14.9 98 14.6 0.0 0.0 0 0.0 0.0 1014.0 0.0 0.0 14.9 0.0
24/02/21 01:57 14.9 98 14.6 0.0 0.0 0 0.0 0.0 1014.0 0.0 0.0 14.9 0.0
24/02/21 01:58 15.0 98 14.7 0.0 0.0 0 0.0 0.0 1014.0 0.0 0.0 15.0 0.0
24/02/21 01:59 14.9 98 14.6 0.0 0.0 0 0.0 0.0 1014.0 0.0 0.0 14.9 0.0
24/02/21 02:00 14.9 98 14.6 0.0 0.0 0 0.0 0.0 1014.0 0.0 0.0 14.9 0.0
24/02/21 02:01 14.9 98 14.6 0.0 0.0 0 0.0 0.0 1014.0 0.0 0.0 14.9 0.0
24/02/21 02:02 14.9 98 14.6 0.0 0.0 0 0.0 0.0 1014.0 0.0 0.0 14.9 0.0
24/02/21 02:03 14.9 98 14.6 0.0 0.0 0 0.0 0.0 1014.0 0.0 0.0 14.9 0.0
24/02/21 02:04 14.9 98 14.6 0.0 0.0 0 0.0 0.0 1014.0 0.0 0.0 14.9 0.0
24/02/21 02:05 14.9 98 14.6 0.0 0.0 0 0.0 0.0 1014.0 0.0 0.0 14.9 0.0
24/02/21 02:07 14.9 98 14.6 0.0 0.0 0 0.0 0.0 1014.0 0.0 0.0 14.9 0.0
24/02/21 02:08 14.9 98 14.6 0.0 0.0 0 0.0 0.0 1014.0 0.0 0.0 14.9 0.0
24/02/21 02:09 14.9 98 14.6 0.0 0.0 0 0.0 0.0 1014.0 0.0 0.0 14.9 0.0
24/02/21 02:10 14.9 98 14.6 0.0 0.0 0 0.0 0.0 1014.0 0.0 0.0 14.9 0.0
24/02/21 02:11 14.9 98 14.6 0.0 0.0 0 0.0 0.0 1014.0 0.0 0.0 14.9 0.0
24/02/21 02:12 14.9 98 14.6 0.0 0.0 0 0.0 0.0 1014.0 0.0 0.0 14.9 0.0
24/02/21 02:13 14.9 98 14.6 0.0 0.0 0 0.0 0.0 1014.0 0.0 0.0 14.9 0.0
24/02/21 02:14 14.9 98 14.6 0.0 0.0 0 0.0 0.0 1014.0 0.0 0.0 14.9 0.0
24/02/21 02:15 14.9 98 14.6 0.0 0.0 0 0.0 0.0 1014.0 0.0 0.0 14.9 0.0
24/02/21 02:16 14.9 98 14.6 0.0 0.0 0 0.0 0.0 1014.0 0.0 0.0 14.9 0.0
24/02/21 02:17 14.9 98 14.6 0.0 0.0 0 0.0 0.0 1014.0 0.0 0.0 14.9 0.0
24/02/21 02:18 14.9 98 14.6 0.0 0.0 0 0.0 0.0 1014.0 0.0 0.0 14.9 0.0
24/02/21 02:19 14.9 98 14.6 0.0 0.0 0 0.0 0.0 1014.0 0.0 0.0 14.9 0.0
24/02/21 02:20 14.9 98 14.6 0.0 0.0 0 0.0 0.0 1014.0 0.0 0.0 14.9 0.0
24/02/21 02:21 14.9 98 14.6 0.0 0.0 0 0.0 0.0 1014.0 0.0 0.0 14.9 0.0
24/02/21 02:22 14.9 98 14.6 0.0 0.0 0 0.0 0.0 1014.0 0.0 0.0 14.9 0.0
24/02/21 02:23 14.9 98 14.6 0.0 0.0 0 0.0 0.0 1014.0 0.0 0.0 14.9 0.0
24/02/21 02:24 14.9 98 14.6 0.0 0.0 0 0.0 0.0 1014.0 0.0 0.0 14.9 0.0
24/02/21 02:25 14.9 98 14.6 0.0 0.0 0 0.0 0.0 1014.0 0.0 0.0 14.9 0.0
24/02/21 02:26 14.9 98 14.6 0.0 0.0 0 0.0 0.0 1014.0 0.0 0.0 14.9 0.0
24/02/21 02:27 14.9 98 14.6 0.0 0.0 0 0.0 0.0 1014.0 0.0 0.0 14.9 0.0
24/02/21 02:28 14.9 98 14.6 0.0 0.0 0 0.0 0.0 1014.0 0.0 0.0 14.9 0.0
24/02/21 02:29 14.9 98 14.6 0.0 0.0 0 0.0 0.0 1014.0 0.0 0.0 14.9 0.0
24/02/21 02:32 14.9 98 14.6 0.0 0.0 0 0.0 0.0 1014.0 0.0 0.0 14.9 0.0
24/02/21 02:33 14.9 98 14.6 0.0 0.0 0 0.0 0.0 1014.0 0.0 0.0 14.9 0.0
24/02/21 02:34 14.9 98 14.6 0.0 0.0 0 0.0 0.0 1014.0 0.0 0.0 14.9 0.0
24/02/21 02:35 14.9 98 14.6 0.0 0.0 0 0.0 0.0 1014.0 0.0 0.0 14.9 0.0
24/02/21 02:36 14.9 98 14.6 0.0 0.0 0 0.0 0.0 1014.0 0.0 0.0 14.9 0.0
24/02/21 02:37 14.9 98 14.6 0.0 0.0 0 0.0 0.0 1014.0 0.0 0.0 14.9 0.0
24/02/21 02:38 14.9 98 14.6 0.0 0.0 0 0.0 0.0 1014.0 0.0 0.0 14.9 0.0
24/02/21 02:39 14.9 98 14.6 0.0 0.0 0 0.0 0.0 1014.0 0.0 0.0 14.9 0.0
24/02/21 02:40 14.9 98 14.6 0.0 0.0 0 0.0 0.0 1014.0 0.0 0.0 14.9 0.0
24/02/21 02:41 14.9 98 14.6 0.0 0.0 0 0.0 0.0 1014.0 0.0 0.0 14.9 0.0
24/02/21 02:42 14.9 98 14.6 0.0 0.0 0 0.0 0.0 1014.0 0.0 0.0 14.9 0.0
24/02/21 02:43 14.9 98 14.6 0.0 0.0 0 0.0 0.0 1014.0 0.0 0.0 14.9 0.0
24/02/21 02:44 14.9 98 14.6 0.0 0.0 0 0.0 0.0 1014.0 0.0 0.0 14.9 0.0
24/02/21 02:45 14.9 98 14.6 0.0 0.0 0 0.0 0.0 1014.0 0.0 0.0 14.9 0.0
24/02/21 02:46 14.9 98 14.6 0.0 0.0 0 0.0 0.0 1014.0 0.0 0.0 14.9 0.0
24/02/21 02:47 14.9 98 14.6 0.0 0.0 0 0.0 0.0 1014.0 0.0 0.0 14.9 0.0
24/02/21 02:48 14.9 98 14.6 0.0 0.0 0 0.0 0.0 1014.0 0.0 0.0 14.9 0.0
24/02/21 02:49 14.9 98 14.6 0.0 0.0 0 0.0 0.0 1014.0 0.0 0.0 14.9 0.0
24/02/21 02:50 14.9 98 14.6 0.0 0.0 0 0.0 0.0 1014.0 0.0 0.0 14.9 0.0
24/02/21 02:51 14.9 98 14.6 0.0 0.0 0 0.0 0.0 1014.0 0.0 0.0 14.9 0.0
24/02/21 02:52 14.9 98 14.6 0.0 0.0 0 0.0 0.0 1014.0 0.0 0.0 14.9 0.0
24/02/21 02:53 14.9 98 14.6 0.0 0.0 0 0.0 0.0 1014.0 0.0 0.0 14.9 0.0
24/02/21 02:54 14.9 98 14.6 0.0 0.0 0 0.0 0.0 1014.0 0.0 0.0 14.9 0.0
24/02/21 02:55 14.9 98 14.6 0.0 0.0 0 0.0 0.0 1014.0 0.0 0.0 14.9 0.0
24/02/21 02:58 14.9 98 14.6 0.0 0.0 0 0.0 0.0 1014.0 0.0 0.0 14.9 0.0
24/02/21 02:59 14.9 98 14.6 0.0 0.0 0 0.0 0.0 1014.0 0.0 0.0 14.9 0.0
24/02/21 03:00 14.9 98 14.6 0.0 0.0 0 0.0 0.0 1014.0 0.0 0.0 14.9 0.0
24/02/21 03:01 14.8 98 14.5 0.0 0.0 0 0.0 0.0 1014.0 0.0 0.0 14.8 0.0
24/02/21 03:02 14.8 98 14.5 0.0 0.0 0 0.0 0.0 1014.0 0.0 0.0 14.8 0.0
24/02/21 03:03 14.8 98 14.5 0.0 0.0 0 0.0 0.0 1014.0 0.0 0.0 14.8 0.0
24/02/21 03:04 14.8 98 14.5 0.0 0.0 0 0.0 0.0 1014.0 0.0 0.0 14.8 0.0
24/02/21 03:05 14.8 98 14.5 0.0 0.0 0 0.0 0.0 1014.0 0.0 0.0 14.8 0.0
24/02/21 03:06 14.9 98 14.6 0.0 0.0 0 0.0 0.0 1014.0 0.0 0.0 14.9 0.0
24/02/21 03:07 14.9 98 14.6 0.0 0.0 0 0.0 0.0 1014.0 0.0 0.0 14.9 0.0
24/02/21 03:08 14.8 98 14.5 0.0 0.0 0 0.0 0.0 1014.0 0.0 0.0 14.8 0.0
24/02/21 03:09 14.9 98 14.6 0.0 0.0 0 0.0 0.0 1014.0 0.0 0.0 14.9 0.0
24/02/21 03:10 14.9 98 14.6 0.0 0.0 0 0.0 0.0 1014.0 0.0 0.0 14.9 0.0
24/02/21 03:11 14.9 98 14.6 0.0 0.0 0 0.0 0.0 1014.0 0.0 0.0 14.9 0.0
24/02/21 03:12 14.9 98 14.6 0.0 0.0 0 0.0 0.0 1014.0 0.0 0.0 14.9 0.0
24/02/21 03:13 14.9 98 14.6 0.0 0.0 0 0.0 0.0 1014.0 0.0 0.0 14.9 0.0
24/02/21 03:14 14.9 98 14.6 0.0 0.0 0 0.0 0.0 1014.0 0.0 0.0 14.9 0.0
24/02/21 03:15 14.9 98 14.6 0.0 0.0 0 0.0 0.0 1014.0 0.0 0.0 14.9 0.0
24/02/21 03:16 14.9 98 14.6 0.0 0.0 0 0.0 0.0 1014.0 0.0 0.0 14.9 0.0
24/02/21 03:17 14.9 98 14.6 0.0 0.0 0 0.0 0.0 1014.0 0.0 0.0 14.9 0.0
24/02/21 03:18 14.9 98 14.6 0.0 0.0 0 0.0 0.0 1014.0 0.0 0.0 14.9 0.0
24/02/21 03:19 14.9 98 14.6 0.0 0.0 0 0.0 0.0 1014.0 0.0 0.0 14.9 0.0
24/02/21 03:22 14.9 98 14.6 0.0 0.0 0 0.0 0.0 1014.0 0.0 0.0 14.9 0.0
24/02/21 03:23 14.9 98 14.6 0.0 0.0 0 0.0 0.0 1014.0 0.0 0.0 14.9 0.0
24/02/21 03:24 14.8 98 14.5 0.0 0.0 0 0.0 0.0 1014.0 0.0 0.0 14.8 0.0
24/02/21 03:25 14.8 98 14.5 0.0 0.0 0 0.0 0.0 1014.0 0.0 0.0 14.8 0.0
24/02/21 03:26 14.9 98 14.6 0.0 0.0 0 0.0 0.0 1014.0 0.0 0.0 14.9 0.0
24/02/21 03:27 14.8 98 14.5 0.0 0.0 0 0.0 0.0 1014.0 0.0 0.0 14.8 0.0
24/02/21 03:28 14.8 98 14.5 0.0 0.0 0 0.0 0.0 1014.0 0.0 0.0 14.8 0.0
24/02/21 03:29 14.8 98 14.5 0.0 0.0 0 0.0 0.0 1014.0 0.0 0.0 14.8 0.0
24/02/21 03:30 14.8 98 14.5 0.0 0.0 0 0.0 0.0 1014.0 0.0 0.0 14.8 0.0
24/02/21 03:31 14.8 98 14.5 0.0 0.0 0 0.0 0.0 1014.0 0.0 0.0 14.8 0.0
24/02/21 03:32 14.8 98 14.5 0.0 0.0 0 0.0 0.0 1014.0 0.0 0.0 14.8 0.0
24/02/21 03:33 14.9 98 14.6 0.0 0.0 0 0.0 0.0 1014.0 0.0 0.0 14.9 0.0
24/02/21 03:34 14.8 98 14.5 0.0 0.0 0 0.0 0.0 1014.0 0.0 0.0 14.8 0.0
24/02/21 03:35 14.8 98 14.5 0.0 0.0 0 0.0 0.0 1014.0 0.0 0.0 14.8 0.0
24/02/21 03:36 14.9 98 14.6 0.0 0.0 0 0.0 0.0 1014.0 0.0 0.0 14.9 0.0
24/02/21 03:37 14.8 98 14.5 0.0 0.0 0 0.0 0.0 1014.0 0.0 0.0 14.8 0.0
24/02/21 03:38 14.8 98 14.5 0.0 0.0 0 0.0 0.0 1014.0 0.0 0.0 14.8 0.0
24/02/21 03:39 14.8 98 14.5 0.0 0.0 0 0.0 0.0 1014.0 0.0 0.0 14.8 0.0
24/02/21 03:40 14.8 98 14.5 0.0 0.0 0 0.0 0.0 1014.0 0.0 0.0 14.8 0.0
24/02/21 03:41 14.8 98 14.5 0.0 0.0 0 0.0 0.0 1014.0 0.0 0.0 14.8 0.0
24/02/21 03:42 14.8 98 14.5 0.0 0.0 0 0.0 0.0 1014.0 0.0 0.0 14.8 0.0
24/02/21 03:43 14.8 98 14.5 0.0 0.0 0 0.0 0.0 1014.0 0.0 0.0 14.8 0.0
24/02/21 03:44 14.8 98 14.5 0.0 0.0 0 0.0 0.0 1014.0 0.0 0.0 14.8 0.0
24/02/21 03:45 14.8 98 14.5 0.0 0.0 0 0.0 0.0 1014.0 0.0 0.0 14.8 0.0
24/02/21 03:47 14.8 98 14.5 0.0 0.0 0 0.0 0.0 1014.0 0.0 0.0 14.8 0.0
24/02/21 03:48 14.8 98 14.5 0.0 0.0 0 0.0 0.0 1014.0 0.0 0.0 14.8 0.0
24/02/21 03:49 14.8 98 14.5 0.0 0.0 0 0.0 0.0 1014.0 0.0 0.0 14.8 0.0
24/02/21 03:50 14.8 98 14.5 0.0 0.0 0 0.0 0.0 1014.0 0.0 0.0 14.8 0.0
24/02/21 03:51 14.8 98 14.5 0.0 0.0 0 0.0 0.0 1014.0 0.0 0.0 14.8 0.0
24/02/21 03:52 14.8 98 14.5 0.0 0.0 0 0.0 0.0 1014.0 0.0 0.0 14.8 0.0
24/02/21 03:53 14.8 98 14.5 0.0 0.0 0 0.0 0.0 1014.0 0.0 0.0 14.8 0.0
24/02/21 03:54 14.8 98 14.5 0.0 0.0 0 0.0 0.0 1014.0 0.0 0.0 14.8 0.0
24/02/21 03:55 14.8 98 14.5 0.0 0.0 0 0.0 0.0 1014.0 0.0 0.0 14.8 0.0
24/02/21 03:56 14.9 98 14.6 0.0 0.0 0 0.0 0.0 1014.0 0.0 0.0 14.9 0.0
24/02/21 03:57 14.8 98 14.5 0.0 0.0 0 0.0 0.0 1014.0 0.0 0.0 14.8 0.0
24/02/21 03:58 14.8 98 14.5 0.0 0.0 0 0.0 0.0 1014.0 0.0 0.0 14.8 0.0
24/02/21 03:59 14.8 98 14.5 0.0 0.0 0 0.0 0.0 1014.0 0.0 0.0 14.8 0.0
24/02/21 04:00 14.8 98 14.5 0.0 0.0 0 0.0 0.0 1014.0 0.0 0.0 14.8 0.0
24/02/21 04:01 14.8 98 14.5 0.0 0.0 0 0.0 0.0 1014.0 0.0 0.0 14.8 0.0
24/02/21 04:02 14.8 98 14.5 0.0 0.0 0 0.0 0.0 1014.0 0.0 0.0 14.8 0.0
24/02/21 04:03 14.8 98 14.5 0.0 0.0 0 0.0 0.0 1014.0 0.0 0.0 14.8 0.0
24/02/21 04:04 14.8 98 14.5 0.0 0.0 0 0.0 0.0 1014.0 0.0 0.0 14.8 0.0
24/02/21 04:05 14.8 98 14.5 0.0 0.0 0 0.0 0.0 1014.0 0.0 0.0 14.8 0.0
24/02/21 04:06 14.8 98 14.5 0.0 0.0 0 0.0 0.0 1014.0 0.0 0.0 14.8 0.0
24/02/21 04:07 14.8 98 14.5 0.0 0.0 0 0.0 0.0 1014.0 0.0 0.0 14.8 0.0
24/02/21 04:08 14.8 98 14.5 0.0 0.0 0 0.0 0.0 1014.0 0.0 0.0 14.8 0.0
24/02/21 04:09 14.8 98 14.5 0.0 0.0 0 0.0 0.0 1014.0 0.0 0.0 14.8 0.0
24/02/21 04:13 14.8 98 14.5 0.0 0.0 0 0.0 0.0 1014.0 0.0 0.0 14.8 0.0
24/02/21 04:14 14.8 98 14.5 0.0 0.0 0 0.0 0.0 1014.0 0.0 0.0 14.8 0.0
24/02/21 04:15 14.8 98 14.5 0.0 0.0 0 0.0 0.0 1014.0 0.0 0.0 14.8 0.0
24/02/21 04:16 14.9 98 14.6 0.0 0.0 0 0.0 0.0 1014.0 0.0 0.0 14.9 0.0
24/02/21 04:17 14.8 98 14.5 0.0 0.0 0 0.0 0.0 1014.0 0.0 0.0 14.8 0.0
24/02/21 04:18 14.8 98 14.5 0.0 0.0 0 0.0 0.0 1014.0 0.0 0.0 14.8 0.0
24/02/21 04:19 14.8 98 14.5 0.0 0.0 0 0.0 0.0 1014.0 0.0 0.0 14.8 0.0
24/02/21 04:20 14.8 98 14.5 0.0 0.0 0 0.0 0.0 1014.0 0.0 0.0 14.8 0.0
24/02/21 04:21 14.8 98 14.5 0.0 0.0 0 0.0 0.0 1014.0 0.0 0.0 14.8 0.0
24/02/21 04:22 14.8 98 14.5 0.0 0.0 0 0.0 0.0 1014.0 0.0 0.0 14.8 0.0
24/02/21 04:23 14.8 98 14.5 0.0 0.0 0 0.0 0.0 1014.0 0.0 0.0 14.8 0.0
24/02/21 04:24 14.8 98 14.5 0.0 0.0 0 0.0 0.0 1014.0 0.0 0.0 14.8 0.0
24/02/21 04:25 14.8 98 14.5 0.0 0.0 0 0.0 0.0 1014.0 0.0 0.0 14.8 0.0
24/02/21 04:26 14.8 98 14.5 0.0 0.0 0 0.0 0.0 1014.0 0.0 0.0 14.8 0.0
24/02/21 04:27 14.8 98 14.5 0.0 0.0 0 0.0 0.0 1014.0 0.0 0.0 14.8 0.0
24/02/21 04:28 14.8 98 14.5 0.0 0.0 0 0.0 0.0 1014.0 0.0 0.0 14.8 0.0
24/02/21 04:29 14.8 98 14.5 0.0 0.0 0 0.0 0.0 1014.0 0.0 0.0 14.8 0.0
24/02/21 04:30 14.8 98 14.5 0.0 0.0 0 0.0 0.0 1014.0 0.0 0.0 14.8 0.0
24/02/21 04:31 14.8 98 14.5 0.0 0.0 0 0.0 0.0 1014.0 0.0 0.0 14.8 0.0
24/02/21 04:32 14.8 98 14.5 0.0 0.0 0 0.0 0.0 1014.0 0.0 0.0 14.8 0.0
24/02/21 04:33 14.8 98 14.5 0.0 0.0 0 0.0 0.0 1014.0 0.0 0.0 14.8 0.0
24/02/21 04:34 14.8 98 14.5 0.0 0.0 0 0.0 0.0 1014.0 0.0 0.0 14.8 0.0
24/02/21 04:37 14.8 98 14.5 0.0 0.0 0 0.0 0.0 1014.0 0.0 0.0 14.8 0.0
24/02/21 04:38 14.8 98 14.5 0.0 0.0 0 0.0 0.0 1014.0 0.0 0.0 14.8 0.0
24/02/21 04:39 14.8 98 14.5 0.0 0.0 0 0.0 0.0 1014.0 0.0 0.0 14.8 0.0
24/02/21 04:40 14.8 98 14.5 0.0 0.0 0 0.0 0.0 1014.0 0.0 0.0 14.8 0.0
24/02/21 04:41 14.8 98 14.5 0.0 0.0 0 0.0 0.0 1014.0 0.0 0.0 14.8 0.0
24/02/21 04:42 14.8 98 14.5 0.0 0.0 0 0.0 0.0 1014.0 0.0 0.0 14.8 0.0
24/02/21 04:43 14.8 98 14.5 0.0 0.0 0 0.0 0.0 1014.0 0.0 0.0 14.8 0.0
24/02/21 04:44 14.8 98 14.5 0.0 0.0 0 0.0 0.0 1014.0 0.0 0.0 14.8 0.0
24/02/21 04:45 14.8 98 14.5 0.0 0.0 0 0.0 0.0 1014.0 0.0 0.0 14.8 0.0
24/02/21 04:46 14.8 98 14.5 0.0 0.0 0 0.0 0.0 1014.0 0.0 0.0 14.8 0.0
24/02/21 04:47 14.8 98 14.5 0.0 0.0 0 0.0 0.0 1014.0 0.0 0.0 14.8 0.0
24/02/21 04:48 14.8 98 14.5 0.0 0.0 0 0.0 0.0 1014.0 0.0 0.0 14.8 0.0
24/02/21 04:49 14.8 98 14.5 0.0 0.0 0 0.0 0.0 1014.0 0.0 0.0 14.8 0.0
24/02/21 04:50 14.8 98 14.5 0.0 0.0 0 0.0 0.0 1014.0 0.0 0.0 14.8 0.0
24/02/21 04:51 14.9 98 14.6 0.0 0.0 0 0.0 0.0 1014.0 0.0 0.0 14.9 0.0
24/02/21 04:52 14.8 98 14.5 0.0 0.0 0 0.0 0.0 1014.0 0.0 0.0 14.8 0.0
24/02/21 04:53 14.8 98 14.5 0.0 0.0 0 0.0 0.0 1014.0 0.0 0.0 14.8 0.0
24/02/21 04:54 14.8 98 14.5 0.0 0.0 0 0.0 0.0 1014.0 0.0 0.0 14.8 0.0
24/02/21 04:55 14.8 98 14.5 0.0 0.0 0 0.0 0.0 1014.0 0.0 0.0 14.8 0.0
24/02/21 04:56 14.8 98 14.5 0.0 0.0 0 0.0 0.0 1014.0 0.0 0.0 14.8 0.0
24/02/21 04:57 14.8 98 14.5 0.0 0.0 0 0.0 0.0 1014.0 0.0 0.0 14.8 0.0
24/02/21 04:58 14.8 98 14.5 0.0 0.0 0 0.0 0.0 1014.0 0.0 0.0 14.8 0.0
24/02/21 04:59 14.8 98 14.5 0.0 0.0 0 0.0 0.0 1014.0 0.0 0.0 14.8 0.0
24/02/21 05:02 14.8 98 14.5 0.0 0.0 0 0.0 0.0 1014.0 0.0 0.0 14.8 0.0
24/02/21 05:03 14.8 98 14.5 0.0 0.0 0 0.0 0.0 1014.0 0.0 0.0 14.8 0.0
24/02/21 05:04 14.8 98 14.5 0.0 0.0 0 0.0 0.0 1014.0 0.0 0.0 14.8 0.0
24/02/21 05:05 14.8 98 14.5 0.0 0.0 0 0.0 0.0 1014.0 0.0 0.0 14.8 0.0
24/02/21 05:06 14.8 98 14.5 0.0 0.0 0 0.0 0.0 1014.0 0.0 0.0 14.8 0.0
24/02/21 05:07 14.8 98 14.5 0.0 0.0 0 0.0 0.0 1014.0 0.0 0.0 14.8 0.0
24/02/21 05:08 14.8 98 14.5 0.0 0.0 0 0.0 0.0 1014.0 0.0 0.0 14.8 0.0
24/02/21 05:09 14.8 98 14.5 0.0 0.0 0 0.0 0.0 1014.0 0.0 0.0 14.8 0.0
24/02/21 05:10 14.8 98 14.5 0.0 0.0 0 0.0 0.0 1014.0 0.0 0.0 14.8 0.0
24/02/21 05:11 14.8 98 14.5 0.0 0.0 0 0.0 0.0 1014.0 0.0 0.0 14.8 0.0
24/02/21 05:12 14.8 98 14.5 0.0 0.0 0 0.0 0.0 1014.0 0.0 0.0 14.8 0.0
24/02/21 05:13 14.8 98 14.5 0.0 0.0 0 0.0 0.0 1014.0 0.0 0.0 14.8 0.0
24/02/21 05:14 14.8 98 14.5 0.0 0.0 0 0.0 0.0 1014.0 0.0 0.0 14.8 0.0
24/02/21 05:15 14.8 98 14.5 0.0 0.0 0 0.0 0.0 1014.0 0.0 0.0 14.8 0.0
24/02/21 05:16 14.8 98 14.5 0.0 0.0 0 0.0 0.0 1014.0 0.0 0.0 14.8 0.0
24/02/21 05:17 14.8 98 14.5 0.0 0.0 0 0.0 0.0 1014.0 0.0 0.0 14.8 0.0
24/02/21 05:18 14.8 98 14.5 0.0 0.0 0 0.0 0.0 1014.0 0.0 0.0 14.8 0.0
24/02/21 05:19 14.7 98 14.4 0.0 0.0 0 0.0 0.0 1014.0 0.0 0.0 14.7 0.0
24/02/21 05:20 14.8 98 14.5 0.0 0.0 0 0.0 0.0 1014.0 0.0 0.0 14.8 0.0
24/02/21 05:21 14.8 98 14.5 0.0 0.0 0 0.0 0.0 1014.0 0.0 0.0 14.8 0.0
24/02/21 05:22 14.8 98 14.5 0.0 0.0 0 0.0 0.0 1014.0 0.0 0.0 14.8 0.0
24/02/21 05:23 14.8 98 14.5 0.0 0.0 0 0.0 0.0 1014.0 0.0 0.0 14.8 0.0
24/02/21 05:24 14.8 98 14.5 0.0 0.0 0 0.0 0.0 1014.0 0.0 0.0 14.8 0.0
24/02/21 05:25 14.8 98 14.5 0.0 0.0 0 0.0 0.0 1014.0 0.0 0.0 14.8 0.0
24/02/21 05:28 14.8 98 14.5 0.0 0.0 0 0.0 0.0 1014.0 0.0 0.0 14.8 0.0
24/02/21 05:29 14.8 98 14.5 0.0 0.0 0 0.0 0.0 1014.0 0.0 0.0 14.8 0.0
24/02/21 05:30 14.8 98 14.5 0.0 0.0 0 0.0 0.0 1014.0 0.0 0.0 14.8 0.0
24/02/21 05:31 14.8 98 14.5 0.0 0.0 0 0.0 0.0 1014.0 0.0 0.0 14.8 0.0
24/02/21 05:32 14.8 98 14.5 0.0 0.0 0 0.0 0.0 1014.0 0.0 0.0 14.8 0.0
24/02/21 05:33 14.8 98 14.5 0.0 0.0 0 0.0 0.0 1014.0 0.0 0.0 14.8 0.0
24/02/21 05:34 14.8 98 14.5 0.0 0.0 0 0.0 0.0 1014.0 0.0 0.0 14.8 0.0
24/02/21 05:35 14.8 98 14.5 0.0 0.0 0 0.0 0.0 1014.0 0.0 0.0 14.8 0.0
24/02/21 05:36 14.8 98 14.5 0.0 0.0 0 0.0 0.0 1014.0 0.0 0.0 14.8 0.0
24/02/21 05:37 14.8 98 14.5 0.0 0.0 0 0.0 0.0 1014.0 0.0 0.0 14.8 0.0
24/02/21 05:38 14.8 98 14.5 0.0 0.0 0 0.0 0.0 1014.0 0.0 0.0 14.8 0.0
24/02/21 05:39 14.8 98 14.5 0.0 0.0 0 0.0 0.0 1014.0 0.0 0.0 14.8 0.0
24/02/21 05:40 14.8 98 14.5 0.0 0.0 0 0.0 0.0 1014.0 0.0 0.0 14.8 0.0
24/02/21 05:41 14.8 98 14.5 0.0 0.0 0 0.0 0.0 1014.0 0.0 0.0 14.8 0.0
24/02/21 05:42 14.8 98 14.5 0.0 0.0 0 0.0 0.0 1014.0 0.0 0.0 14.8 0.0
24/02/21 05:43 14.7 98 14.4 0.0 0.0 0 0.0 0.0 1014.0 0.0 0.0 14.7 0.0
24/02/21 05:44 14.8 98 14.5 0.0 0.0 0 0.0 0.0 1014.0 0.0 0.0 14.8 0.0
24/02/21 05:45 14.8 98 14.5 0.0 0.0 0 0.0 0.0 1014.0 0.0 0.0 14.8 0.0
24/02/21 05:46 14.8 98 14.5 0.0 0.0 0 0.0 0.0 1014.0 0.0 0.0 14.8 0.0
24/02/21 05:47 14.8 98 14.5 0.0 0.0 0 0.0 0.0 1014.0 0.0 0.0 14.8 0.0
24/02/21 05:48 14.7 98 14.4 0.0 0.0 0 0.0 0.0 1014.0 0.0 0.0 14.7 0.0
24/02/21 05:49 14.7 98 14.4 0.0 0.0 0 0.0 0.0 1014.0 0.0 0.0 14.7 0.0
24/02/21 05:53 14.7 98 14.4 0.0 0.0 0 0.0 0.0 1014.0 0.0 0.0 14.7 0.0
24/02/21 05:54 14.7 98 14.4 0.0 0.0 0 0.0 0.0 1014.0 0.0 0.0 14.7 0.0
24/02/21 05:55 14.7 98 14.4 0.0 0.0 0 0.0 0.0 1014.0 0.0 0.0 14.7 0.0
24/02/21 05:56 14.7 98 14.4 0.0 0.0 0 0.0 0.0 1014.0 0.0 0.0 14.7 0.0
24/02/21 05:57 14.7 98 14.4 0.0 0.0 0 0.0 0.0 1014.0 0.0 0.0 14.7 0.0
24/02/21 05:58 14.7 98 14.4 0.0 0.0 0 0.0 0.0 1014.0 0.0 0.0 14.7 0.0
24/02/21 05:59 14.7 98 14.4 0.0 0.0 0 0.0 0.0 1014.0 0.0 0.0 14.7 0.0
24/02/21 06:00 14.7 98 14.4 0.0 0.0 0 0.0 0.0 1014.0 0.0 0.0 14.7 0.0
24/02/21 06:01 14.7 98 14.4 0.0 0.0 0 0.0 0.0 1014.0 0.0 0.0 14.7 0.0
24/02/21 06:02 14.7 98 14.4 0.0 0.0 0 0.0 0.0 1014.0 0.0 0.0 14.7 0.0
24/02/21 06:03 14.7 98 14.4 0.0 0.0 0 0.0 0.0 1014.0 0.0 0.0 14.7 0.0
24/02/21 06:04 14.7 98 14.4 0.0 0.0 0 0.0 0.0 1014.0 0.0 0.0 14.7 0.0
24/02/21 06:05 14.7 98 14.4 0.0 0.0 0 0.0 0.0 1014.0 0.0 0.0 14.7 0.0
24/02/21 06:06 14.7 98 14.4 0.0 0.0 0 0.0 0.0 1014.0 0.0 0.0 14.7 0.0
24/02/21 06:07 14.7 98 14.4 0.0 0.0 0 0.0 0.0 1014.0 0.0 0.0 14.7 0.0
24/02/21 06:08 14.7 98 14.4 0.0 0.0 0 0.0 0.0 1014.0 0.0 0.0 14.7 0.0
24/02/21 06:09 14.7 98 14.4 0.0 0.0 0 0.0 0.0 1014.0 0.0 0.0 14.7 0.0
24/02/21 06:10 14.7 98 14.4 0.0 0.0 0 0.0 0.0 1014.0 0.0 0.0 14.7 0.0
24/02/21 06:11 14.7 98 14.4 0.0 0.0 0 0.0 0.0 1014.0 0.0 0.0 14.7 0.0
24/02/21 06:12 14.7 98 14.4 0.0 0.0 0 0.0 0.0 1014.0 0.0 0.0 14.7 0.0
24/02/21 06:13 14.7 98 14.4 0.0 0.0 0 0.0 0.0 1014.0 0.0 0.0 14.7 0.0
24/02/21 06:14 14.7 98 14.4 0.0 0.0 0 0.0 0.0 1014.0 0.0 0.0 14.7 0.0
24/02/21 06:15 14.7 98 14.4 0.0 0.0 0 0.0 0.0 1014.0 0.0 0.0 14.7 0.0
24/02/21 06:17 14.7 98 14.4 0.0 0.0 0 0.0 0.0 1014.0 0.0 0.0 14.7 0.0
24/02/21 06:18 14.7 98 14.4 0.0 0.0 0 0.0 0.0 1014.0 0.0 0.0 14.7 0.0
24/02/21 06:19 14.7 98 14.4 0.0 0.0 0 0.0 0.0 1014.0 0.0 0.0 14.7 0.0
24/02/21 06:20 14.7 98 14.4 0.0 0.0 0 0.0 0.0 1014.0 0.0 0.0 14.7 0.0
24/02/21 06:21 14.7 98 14.4 0.0 0.0 0 0.0 0.0 1014.0 0.0 0.0 14.7 0.0
24/02/21 06:22 14.7 98 14.4 0.0 0.0 0 0.0 0.0 1014.0 0.0 0.0 14.7 0.0
24/02/21 06:23 14.7 98 14.4 0.0 0.0 0 0.0 0.0 1015.0 0.0 0.0 14.7 0.0
24/02/21 06:24 14.6 98 14.3 0.0 0.0 0 0.0 0.0 1015.0 0.0 0.0 14.6 0.0
24/02/21 06:25 14.6 98 14.3 0.0 0.0 0 0.0 0.0 1015.0 0.0 0.0 14.6 0.0
24/02/21 06:26 14.6 98 14.3 0.0 0.0 0 0.0 0.0 1015.0 0.0 0.0 14.6 0.0
24/02/21 06:27 14.6 98 14.3 0.0 0.0 0 0.0 0.0 1015.0 0.0 0.0 14.6 0.0
24/02/21 06:28 14.7 98 14.4 0.0 0.0 0 0.0 0.0 1015.0 0.0 0.0 14.7 0.0
24/02/21 06:29 14.6 98 14.3 0.0 0.0 0 0.0 0.0 1015.0 0.0 0.0 14.6 0.0
24/02/21 06:30 14.7 98 14.4 0.0 0.0 0 0.0 0.0 1015.0 0.0 0.0 14.7 0.0
24/02/21 06:31 14.7 98 14.4 0.0 0.0 0 0.0 0.0 1015.0 0.0 0.0 14.7 0.0
24/02/21 06:32 14.7 98 14.4 0.0 0.0 0 0.0 0.0 1015.0 0.0 0.0 14.7 0.0
24/02/21 06:33 14.7 98 14.4 0.0 0.0 0 0.0 0.0 1015.0 0.0 0.0 14.7 0.0
24/02/21 06:34 14.6 98 14.3 0.0 0.0 0 0.0 0.0 1015.0 0.0 0.0 14.6 0.0
24/02/21 06:35 14.6 98 14.3 0.0 0.0 0 0.0 0.0 1015.0 0.0 0.0 14.6 0.0
24/02/21 06:36 14.7 98 14.4 0.0 0.0 0 0.0 0.0 1015.0 0.0 0.0 14.7 0.0
24/02/21 06:37 14.6 98 14.3 0.0 0.0 0 0.0 0.0 1015.0 0.0 0.0 14.6 0.0
24/02/21 06:38 14.6 98 14.3 0.0 0.0 0 0.0 0.0 1015.0 0.0 0.0 14.6 0.0
24/02/21 06:39 14.7 98 14.4 0.0 0.0 0 0.0 0.0 1015.0 0.0 0.0 14.7 0.0
24/02/21 06:42 14.6 98 14.3 0.0 0.0 0 0.0 0.0 1015.0 0.0 0.0 14.6 0.0
24/02/21 06:43 14.6 98 14.3 0.0 0.0 0 0.0 0.0 1015.0 0.0 0.0 14.6 0.0
24/02/21 06:44 14.6 98 14.3 0.0 0.0 0 0.0 0.0 1015.0 0.0 0.0 14.6 0.0
24/02/21 06:45 14.6 98 14.3 0.0 0.0 0 0.0 0.0 1015.0 0.0 0.0 14.6 0.0
24/02/21 06:46 14.6 98 14.3 0.0 0.0 0 0.0 0.0 1015.0 0.0 0.0 14.6 0.0
24/02/21 06:47 14.6 98 14.3 0.0 0.0 0 0.0 0.0 1015.0 0.0 0.0 14.6 0.0
24/02/21 06:48 14.6 98 14.3 0.0 0.0 0 0.0 0.0 1015.0 0.0 0.0 14.6 0.0
24/02/21 06:49 14.6 98 14.3 0.0 0.0 0 0.0 0.0 1015.0 0.0 0.0 14.6 0.0
24/02/21 06:50 14.6 98 14.3 0.0 0.0 0 0.0 0.0 1015.0 0.0 0.0 14.6 0.0
24/02/21 06:51 14.6 98 14.3 0.0 0.0 0 0.0 0.0 1015.0 0.0 0.0 14.6 0.0
24/02/21 06:52 14.6 98 14.3 0.0 0.0 0 0.0 0.0 1015.0 0.0 0.0 14.6 0.0
24/02/21 06:53 14.6 98 14.3 0.0 0.0 0 0.0 0.0 1015.0 0.0 0.0 14.6 0.0
24/02/21 06:54 14.6 98 14.3 0.0 0.0 0 0.0 0.0 1015.0 0.0 0.0 14.6 0.0
24/02/21 06:55 14.6 98 14.3 0.0 0.0 0 0.0 0.0 1015.0 0.0 0.0 14.6 0.0
24/02/21 06:56 14.6 98 14.3 0.0 0.0 0 0.0 0.0 1015.0 0.0 0.0 14.6 0.0
24/02/21 06:57 14.6 98 14.3 0.0 0.0 0 0.0 0.0 1015.0 0.0 0.0 14.6 0.0
24/02/21 06:58 14.6 98 14.3 0.0 0.0 0 0.0 0.0 1015.0 0.0 0.0 14.6 0.0
24/02/21 06:59 14.6 98 14.3 0.0 0.0 0 0.0 0.0 1015.0 0.0 0.0 14.6 0.0
24/02/21 07:00 14.6 98 14.3 0.0 0.0 0 0.0 0.0 1015.0 0.0 0.0 14.6 0.0
24/02/21 07:01 14.6 98 14.3 0.0 0.0 0 0.0 0.0 1015.0 0.0 0.0 14.6 0.0
24/02/21 07:02 14.6 98 14.3 0.0 0.0 0 0.0 0.0 1015.0 0.0 0.0 14.6 0.0
24/02/21 07:03 14.6 98 14.3 0.0 0.0 0 0.0 0.0 1015.0 0.0 0.0 14.6 0.0
24/02/21 07:04 14.6 98 14.3 0.0 0.0 0 0.0 0.0 1015.0 0.0 0.0 14.6 0.0
24/02/21 07:05 14.6 98 14.3 0.0 0.0 0 0.0 0.0 1015.0 0.0 0.0 14.6 0.0
24/02/21 07:08 14.5 98 14.2 0.0 0.0 0 0.0 0.0 1015.0 0.0 0.0 14.5 0.0
24/02/21 07:09 14.5 98 14.2 0.0 0.0 0 0.0 0.0 1015.0 0.0 0.0 14.5 0.0
24/02/21 07:10 14.5 98 14.2 0.0 0.0 0 0.0 0.0 1015.0 0.0 0.0 14.5 0.0
24/02/21 07:11 14.5 98 14.2 0.0 0.0 0 0.0 0.0 1015.0 0.0 0.0 14.5 0.0
24/02/21 07:12 14.5 98 14.2 0.0 0.0 0 0.0 0.0 1015.0 0.0 0.0 14.5 0.0
24/02/21 07:13 14.5 98 14.2 0.0 0.0 0 0.0 0.0 1015.0 0.0 0.0 14.5 0.0
24/02/21 07:14 14.5 98 14.2 0.0 0.0 0 0.0 0.0 1015.0 0.0 0.0 14.5 0.0
24/02/21 07:15 14.5 98 14.2 0.0 0.0 0 0.0 0.0 1015.0 0.0 0.0 14.5 0.0
24/02/21 07:16 14.6 98 14.3 0.0 0.0 0 0.0 0.0 1015.0 0.0 0.0 14.6 0.0
24/02/21 07:17 14.6 98 14.3 0.0 0.0 0 0.0 0.0 1015.0 0.0 0.0 14.6 0.0
24/02/21 07:18 14.6 98 14.3 0.0 0.0 0 0.0 0.0 1015.0 0.0 0.0 14.6 0.0
24/02/21 07:19 14.6 98 14.3 0.0 0.0 0 0.0 0.0 1015.0 0.0 0.0 14.6 0.0
24/02/21 07:20 14.6 98 14.3 0.0 0.0 0 0.0 0.0 1015.0 0.0 0.0 14.6 0.0
24/02/21 07:21 14.6 98 14.3 0.0 0.0 0 0.0 0.0 1015.0 0.0 0.0 14.6 0.0
24/02/21 07:22 14.6 98 14.3 0.0 0.0 0 0.0 0.0 1015.0 0.0 0.0 14.6 0.0
24/02/21 07:23 14.6 98 14.3 0.0 0.0 0 0.0 0.0 1014.0 0.0 0.0 14.6 0.0
24/02/21 07:24 14.6 98 14.3 0.0 0.0 0 0.0 0.0 1014.0 0.0 0.0 14.6 0.0
24/02/21 07:25 14.6 98 14.3 0.0 0.0 0 0.0 0.0 1014.0 0.0 0.0 14.6 0.0
24/02/21 07:26 14.6 98 14.3 0.0 0.0 0 0.0 0.0 1014.0 0.0 0.0 14.6 0.0
24/02/21 07:27 14.6 98 14.3 0.0 0.0 0 0.0 0.0 1014.0 0.0 0.0 14.6 0.0
24/02/21 07:28 14.6 98 14.3 0.0 0.0 0 0.0 0.0 1014.0 0.0 0.0 14.6 0.0
24/02/21 07:29 14.6 98 14.3 0.0 0.0 0 0.0 0.0 1014.0 0.0 0.0 14.6 0.0
24/02/21 07:30 14.6 98 14.3 0.0 0.0 0 0.0 0.0 1014.0 0.0 0.0 14.6 0.0
24/02/21 07:32 14.6 98 14.3 0.0 0.0 0 0.0 0.0 1014.0 0.0 0.0 14.6 0.0
24/02/21 07:33 14.6 98 14.3 0.0 0.0 0 0.0 0.0 1014.0 0.0 0.0 14.6 0.0
24/02/21 07:34 14.6 98 14.3 0.0 0.0 0 0.0 0.0 1014.0 0.0 0.0 14.6 0.0
24/02/21 07:35 14.6 98 14.3 0.0 0.0 0 0.0 0.0 1014.0 0.0 0.0 14.6 0.0
24/02/21 07:36 14.6 98 14.3 0.0 0.0 0 0.0 0.0 1014.0 0.0 0.0 14.6 0.0
24/02/21 07:37 14.6 98 14.3 0.0 0.0 0 0.0 0.0 1014.0 0.0 0.0 14.6 0.0
24/02/21 07:38 14.6 98 14.3 0.0 0.0 0 0.0 0.0 1015.0 0.0 0.0 14.6 0.0
24/02/21 07:39 14.6 98 14.3 0.0 0.0 0 0.0 0.0 1015.0 0.0 0.0 14.6 0.0
24/02/21 07:40 14.6 98 14.3 0.0 0.0 0 0.0 0.0 1015.0 0.0 0.0 14.6 0.0
24/02/21 07:41 14.6 98 14.3 0.0 0.0 0 0.0 0.0 1015.0 0.0 0.0 14.6 0.0
24/02/21 07:42 14.6 98 14.3 0.0 0.0 0 0.0 0.0 1015.0 0.0 0.0 14.6 0.0
24/02/21 07:43 14.6 98 14.3 0.0 0.0 0 0.0 0.0 1015.0 0.0 0.0 14.6 0.0
24/02/21 07:44 14.6 98 14.3 0.0 0.0 0 0.0 0.0 1015.0 0.0 0.0 14.6 0.0
24/02/21 07:45 14.6 98 14.3 0.0 0.0 0 0.0 0.0 1015.0 0.0 0.0 14.6 0.0
24/02/21 07:46 14.7 98 14.4 0.0 0.0 0 0.0 0.0 1015.0 0.0 0.0 14.7 0.0
24/02/21 07:47 14.7 98 14.4 0.0 0.0 0 0.0 0.0 1015.0 0.0 0.0 14.7 0.0
24/02/21 07:48 14.7 98 14.4 0.0 0.0 0 0.0 0.0 1015.0 0.0 0.0 14.7 0.0
24/02/21 07:49 14.7 98 14.4 0.0 0.0 0 0.0 0.0 1015.0 0.0 0.0 14.7 0.0
24/02/21 07:50 14.7 98 14.4 0.0 0.0 0 0.0 0.0 1015.0 0.0 0.0 14.7 0.0
24/02/21 07:51 14.7 98 14.4 0.0 0.0 0 0.0 0.0 1015.0 0.0 0.0 14.7 0.0
24/02/21 07:52 14.7 98 14.4 0.0 0.0 0 0.0 0.0 1015.0 0.0 0.0 14.7 0.0
24/02/21 07:53 14.7 98 14.4 0.0 0.0 0 0.0 0.0 1015.0 0.0 0.0 14.7 0.0
24/02/21 07:54 14.7 98 14.4 0.0 0.0 0 0.0 0.0 1015.0 0.0 0.0 14.7 0.0
24/02/21 07:57 14.8 98 14.5 0.0 0.0 0 0.0 0.0 1015.0 0.0 0.0 14.8 0.0
24/02/21 07:58 14.7 98 14.4 0.0 0.0 0 0.0 0.0 1015.0 0.0 0.0 14.7 0.0
24/02/21 07:59 14.7 98 14.4 0.0 0.0 0 0.0 0.0 1015.0 0.0 0.0 14.7 0.0
24/02/21 08:00 14.8 98 14.5 0.0 0.0 0 0.0 0.0 1015.0 0.0 0.0 14.8 0.0
24/02/21 08:01 14.7 98 14.4 0.0 0.0 0 0.0 0.0 1015.0 0.0 0.0 14.7 0.0
24/02/21 08:02 14.7 98 14.4 0.0 0.0 0 0.0 0.0 1015.0 0.0 0.0 14.7 0.0
24/02/21 08:03 14.7 98 14.4 0.0 0.0 0 0.0 0.0 1015.0 0.0 0.0 14.7 0.0
24/02/21 08:04 14.7 98 14.4 0.0 0.0 0 0.0 0.0 1015.0 0.0 0.0 14.7 0.0
24/02/21 08:05 14.7 98 14.4 0.0 0.0 0 0.0 0.0 1015.0 0.0 0.0 14.7 0.0
24/02/21 08:06 14.7 98 14.4 0.0 0.0 0 0.0 0.0 1015.0 0.0 0.0 14.7 0.0
24/02/21 08:07 14.8 98 14.5 0.0 0.0 0 0.0 0.0 1015.0 0.0 0.0 14.8 0.0
24/02/21 08:08 14.7 98 14.4 0.0 0.0 0 0.0 0.0 1015.0 0.0 0.0 14.7 0.0
24/02/21 08:09 14.8 98 14.5 0.0 0.0 0 0.0 0.0 1015.0 0.0 0.0 14.8 0.0
24/02/21 08:10 14.8 98 14.5 0.0 0.0 0 0.0 0.0 1015.0 0.0 0.0 14.8 0.0
24/02/21 08:11 14.8 98 14.5 0.0 0.0 0 0.0 0.0 1015.0 0.0 0.0 14.8 0.0
24/02/21 08:12 14.8 98 14.5 0.0 0.0 0 0.0 0.0 1015.0 0.0 0.0 14.8 0.0
24/02/21 08:13 14.8 98 14.5 0.0 0.0 0 0.0 0.0 1015.0 0.0 0.0 14.8 0.0
24/02/21 08:14 14.9 98 14.6 0.0 0.0 0 0.0 0.0 1015.0 0.0 0.0 14.9 0.0
24/02/21 08:15 14.9 98 14.6 0.0 0.0 0 0.0 0.0 1015.0 0.0 0.0 14.9 0.0
24/02/21 08:16 14.9 98 14.6 0.0 0.0 0 0.0 0.0 1015.0 0.0 0.0 14.9 0.0
24/02/21 08:17 14.9 98 14.6 0.0 0.0 0 0.0 0.0 1015.0 0.0 0.0 14.9 0.0
24/02/21 08:18 14.8 98 14.5 0.0 0.0 0 0.0 0.0 1015.0 0.0 0.0 14.8 0.0
24/02/21 08:19 14.8 98 14.5 0.0 0.0 0 0.0 0.0 1015.0 0.0 0.0 14.8 0.0
24/02/21 08:23 14.9 98 14.6 0.0 0.0 0 0.0 0.0 1015.0 0.0 0.0 14.9 0.0
24/02/21 08:24 14.9 98 14.6 0.0 0.0 0 0.0 0.0 1015.0 0.0 0.0 14.9 0.0
24/02/21 08:25 14.9 98 14.6 0.0 0.0 0 0.0 0.0 1015.0 0.0 0.0 14.9 0.0
24/02/21 08:26 14.9 98 14.6 0.0 0.0 0 0.0 0.0 1015.0 0.0 0.0 14.9 0.0
24/02/21 08:27 14.9 98 14.6 0.0 0.0 0 0.0 0.0 1015.0 0.0 0.0 14.9 0.0
24/02/21 08:28 14.9 98 14.6 0.0 0.0 0 0.0 0.0 1015.0 0.0 0.0 14.9 0.0
24/02/21 08:29 14.9 98 14.6 0.0 0.0 0 0.0 0.0 1015.0 0.0 0.0 14.9 0.0
24/02/21 08:30 14.9 98 14.6 0.0 0.0 0 0.0 0.0 1015.0 0.0 0.0 14.9 0.0
24/02/21 08:31 14.9 98 14.6 0.0 0.0 0 0.0 0.0 1015.0 0.0 0.0 14.9 0.0
24/02/21 08:32 14.9 98 14.6 0.0 0.0 0 0.0 0.0 1015.0 0.0 0.0 14.9 0.0
24/02/21 08:33 15.0 98 14.7 0.0 0.0 0 0.0 0.0 1015.0 0.0 0.0 15.0 0.0
24/02/21 08:34 15.0 98 14.7 0.0 0.0 0 0.0 0.0 1015.0 0.0 0.0 15.0 0.0
24/02/21 08:35 15.0 98 14.7 0.0 0.0 0 0.0 0.0 1015.0 0.0 0.0 15.0 0.0
24/02/21 08:36 15.1 98 14.8 0.0 0.0 0 0.0 0.0 1015.0 0.0 0.0 15.1 0.0
24/02/21 08:37 15.0 98 14.7 0.0 0.0 0 0.0 0.0 1015.0 0.0 0.0 15.0 0.0
24/02/21 08:38 15.1 98 14.8 0.0 0.0 0 0.0 0.0 1015.0 0.0 0.0 15.1 0.0
24/02/21 08:39 15.1 98 14.8 0.0 0.0 0 0.0 0.0 1015.0 0.0 0.0 15.1 0.0
24/02/21 08:40 15.1 98 14.8 0.0 0.0 0 0.0 0.0 1015.0 0.0 0.0 15.1 0.0
24/02/21 08:41 15.1 98 14.8 0.0 0.0 0 0.0 0.0 1015.0 0.0 0.0 15.1 0.0
24/02/21 08:42 15.1 98 14.8 0.0 0.0 0 0.0 0.0 1015.0 0.0 0.0 15.1 0.0
24/02/21 08:43 15.1 98 14.8 0.0 0.0 0 0.0 0.0 1015.0 0.0 0.0 15.1 0.0
24/02/21 08:44 15.0 98 14.7 0.0 0.0 0 0.0 0.0 1015.0 0.0 0.0 15.0 0.0
24/02/21 08:45 15.0 98 14.7 0.0 0.0 0 0.0 0.0 1015.0 0.0 0.0 15.0 0.0
24/02/21 08:47 15.1 98 14.8 0.0 0.0 0 0.0 0.0 1015.0 0.0 0.0 15.1 0.0
24/02/21 08:48 15.1 98 14.8 0.0 0.0 0 0.0 0.0 1015.0 0.0 0.0 15.1 0.0
24/02/21 08:49 15.2 98 14.9 0.0 0.0 0 0.0 0.0 1015.0 0.0 0.0 15.2 0.0
24/02/21 08:50 15.2 98 14.9 0.0 0.0 0 0.0 0.0 1015.0 0.0 0.0 15.2 0.0
24/02/21 08:51 15.2 98 14.9 0.0 0.0 0 0.0 0.0 1015.0 0.0 0.0 15.2 0.0
24/02/21 08:52 15.2 98 14.9 0.0 0.0 0 0.0 0.0 1015.0 0.0 0.0 15.2 0.0
24/02/21 08:53 15.2 98 14.9 0.0 0.0 0 0.0 0.0 1015.0 0.0 0.0 15.2 0.0
24/02/21 08:54 15.3 98 15.0 0.0 0.0 0 0.0 0.0 1015.0 0.0 0.0 15.3 0.0
24/02/21 09:12 15.8 98 15.5 0.0 0.0 0 0.0 0.0 1016.0 0.0 0.0 15.8 0.0
24/02/21 09:13 15.8 98 15.5 0.0 0.0 0 0.0 0.0 1016.0 0.0 0.0 15.8 0.0
24/02/21 09:14 15.8 98 15.5 0.0 0.0 0 0.0 0.0 1016.0 0.0 0.0 15.8 0.0
24/02/21 09:15 15.8 98 15.5 0.0 0.0 0 0.0 0.0 1016.0 0.0 0.0 15.8 0.0
24/02/21 09:16 15.8 98 15.5 0.0 0.0 0 0.0 0.0 1016.0 0.0 0.0 15.8 0.0
24/02/21 09:17 15.9 98 15.6 0.0 0.0 0 0.0 0.0 1016.0 0.0 0.0 15.9 0.0
24/02/21 09:18 16.0 98 15.7 0.0 0.0 0 0.0 0.0 1016.0 0.0 0.0 16.0 0.0
24/02/21 09:19 16.0 98 15.7 0.0 0.0 0 0.0 0.0 1016.0 0.0 0.0 16.0 0.0
24/02/21 09:20 16.0 98 15.7 0.0 0.0 0 0.0 0.0 1016.0 0.0 0.0 16.0 0.0
24/02/21 09:21 16.0 98 15.7 0.0 0.0 0 0.0 0.0 1016.0 0.0 0.0 16.0 0.0
24/02/21 09:22 16.0 98 15.7 0.0 0.0 0 0.0 0.0 1016.0 0.0 0.0 16.0 0.0
24/02/21 09:23 16.0 98 15.7 0.0 0.0 0 0.0 0.0 1016.0 0.0 0.0 16.0 0.0
24/02/21 09:24 16.1 98 15.8 0.0 0.0 0 0.0 0.0 1016.0 0.0 0.0 16.1 0.0
24/02/21 09:38 16.6 98 16.3 0.0 0.0 0 0.0 0.0 1016.0 0.0 0.0 16.6 0.0
24/02/21 09:39 16.6 98 16.3 0.0 0.0 0 0.0 0.0 1016.0 0.0 0.0 16.6 0.0
24/02/21 09:40 16.7 98 16.4 0.0 0.0 0 0.0 0.0 1016.0 0.0 0.0 16.7 0.0
24/02/21 09:41 16.7 98 16.4 0.0 0.0 0 0.0 0.0 1016.0 0.0 0.0 16.7 0.0
24/02/21 09:42 16.7 98 16.4 0.0 0.0 0 0.0 0.0 1016.0 0.0 0.0 16.7 0.0
24/02/21 09:43 16.8 98 16.5 0.0 0.0 0 0.0 0.0 1016.0 0.0 0.0 16.8 0.0
24/02/21 09:44 16.8 98 16.5 0.0 0.0 0 0.0 0.0 1016.0 0.0 0.0 16.8 0.0
24/02/21 09:45 16.9 98 16.6 0.0 0.0 0 0.0 0.0 1016.0 0.0 0.0 16.9 0.0
24/02/21 09:46 16.9 98 16.6 0.0 0.0 0 0.0 0.0 1016.0 0.0 0.0 16.9 0.0
24/02/21 09:47 16.9 98 16.6 0.0 0.0 0 0.0 0.0 1016.0 0.0 0.0 16.9 0.0
24/02/21 09:48 16.9 98 16.6 0.0 0.0 0 0.0 0.0 1016.0 0.0 0.0 16.9 0.0
24/02/21 09:49 16.9 98 16.6 0.0 0.0 0 0.0 0.0 1016.0 0.0 0.0 16.9 0.0
24/02/21 09:50 16.9 98 16.6 0.0 0.0 0 0.0 0.0 1016.0 0.0 0.0 16.9 0.0
24/02/21 09:51 16.8 98 16.5 0.0 0.0 0 0.0 0.0 1016.0 0.0 0.0 16.8 0.0
24/02/21 09:52 16.8 98 16.5 0.0 0.0 0 0.0 0.0 1016.0 0.0 0.0 16.8 0.0
24/02/21 09:53 16.9 98 16.6 0.0 0.0 0 0.0 0.0 1016.0 0.0 0.0 16.9 0.0
24/02/21 09:54 16.8 98 16.5 0.0 0.0 0 0.0 0.0 1016.0 0.0 0.0 16.8 0.0
24/02/21 09:55 17.0 98 16.7 0.0 0.0 0 0.0 0.0 1016.0 0.0 0.0 17.0 0.0
24/02/21 09:56 17.0 98 16.7 0.0 0.0 0 0.0 0.0 1016.0 0.0 0.0 17.0 0.0
24/02/21 09:57 17.0 98 16.7 0.0 0.0 0 0.0 0.0 1016.0 0.0 0.0 17.0 0.0
24/02/21 09:58 17.0 98 16.7 0.0 0.0 0 0.0 0.0 1016.0 0.0 0.0 17.0 0.0
24/02/21 09:59 17.1 98 16.8 0.0 0.0 0 0.0 0.0 1016.0 0.0 0.0 17.1 0.0
24/02/21 10:00 17.2 98 16.9 0.0 0.0 0 0.0 0.0 1016.0 0.0 0.0 17.2 0.0
24/02/21 10:03 17.2 98 16.9 0.0 0.0 0 0.0 0.0 1016.0 0.0 0.0 17.2 0.0
24/02/21 10:04 17.2 98 16.9 0.0 0.0 0 0.0 0.0 1016.0 0.0 0.0 17.2 0.0
24/02/21 10:05 17.2 98 16.9 0.0 0.0 0 0.0 0.0 1016.0 0.0 0.0 17.2 0.0
24/02/21 10:06 17.2 98 16.9 0.0 0.0 0 0.0 0.0 1016.0 0.0 0.0 17.2 0.0
24/02/21 10:07 17.1 98 16.8 0.0 0.0 0 0.0 0.0 1016.0 0.0 0.0 17.1 0.0
24/02/21 10:08 17.1 98 16.8 0.0 0.0 0 0.0 0.0 1017.0 0.0 0.0 17.1 0.0
24/02/21 10:09 17.2 98 16.9 0.0 0.0 0 0.0 0.0 1017.0 0.0 0.0 17.2 0.0
24/02/21 10:10 17.2 98 16.9 0.0 0.0 0 0.0 0.0 1017.0 0.0 0.0 17.2 0.0
24/02/21 10:11 17.2 98 16.9 0.0 0.0 0 0.0 0.0 1017.0 0.0 0.0 17.2 0.0
24/02/21 10:12 17.2 98 16.9 0.0 0.0 0 0.0 0.0 1017.0 0.0 0.0 17.2 0.0
24/02/21 10:13 17.2 98 16.9 0.0 0.0 0 0.0 0.0 1017.0 0.0 0.0 17.2 0.0
24/02/21 10:14 17.2 98 16.9 0.0 0.0 0 0.0 0.0 1017.0 0.0 0.0 17.2 0.0
24/02/21 10:15 17.2 98 16.9 0.0 0.0 0 0.0 0.0 1017.0 0.0 0.0 17.2 0.0
24/02/21 10:16 17.2 98 16.9 0.0 0.0 0 0.0 0.0 1017.0 0.0 0.0 17.2 0.0
24/02/21 10:17 17.2 98 16.9 0.0 0.0 0 0.0 0.0 1017.0 0.0 0.0 17.2 0.0
24/02/21 10:18 17.2 98 16.9 0.0 0.0 0 0.0 0.0 1017.0 0.0 0.0 17.2 0.0
24/02/21 10:19 17.2 98 16.9 0.0 0.0 0 0.0 0.0 1017.0 0.0 0.0 17.2 0.0
24/02/21 10:20 17.3 98 17.0 0.0 0.0 0 0.0 0.0 1017.0 0.0 0.0 17.3 0.0
24/02/21 10:21 17.3 98 17.0 0.0 0.0 0 0.0 0.0 1017.0 0.0 0.0 17.3 0.0
24/02/21 10:22 17.3 98 17.0 0.0 0.0 0 0.0 0.0 1017.0 0.0 0.0 17.3 0.0
24/02/21 10:23 17.4 98 17.1 0.0 0.0 0 0.0 0.0 1017.0 0.0 0.0 17.4 0.0
24/02/21 10:24 17.5 98 17.2 0.0 0.0 0 0.0 0.0 1017.0 0.0 0.0 17.5 0.0
24/02/21 10:27 17.5 98 17.2 0.0 0.0 0 0.0 0.0 1017.0 0.0 0.0 17.5 0.0
24/02/21 10:28 17.6 98 17.3 0.0 0.0 0 0.0 0.0 1017.0 0.0 0.0 17.6 0.0
24/02/21 10:29 17.7 98 17.4 0.0 0.0 0 0.0 0.0 1017.0 0.0 0.0 17.7 0.0
24/02/21 10:30 17.8 98 17.5 0.0 0.0 0 0.0 0.0 1017.0 0.0 0.0 17.8 0.0
24/02/21 10:31 17.9 98 17.6 0.0 0.0 0 0.0 0.0 1017.0 0.0 0.0 17.9 0.0
24/02/21 10:32 18.0 98 17.7 0.0 0.0 0 0.0 0.0 1017.0 0.0 0.0 18.0 0.0
24/02/21 10:33 18.4 98 18.1 0.0 0.0 0 0.0 0.0 1017.0 0.0 0.0 18.4 0.0
24/02/21 10:34 18.4 98 18.1 0.0 0.0 0 0.0 0.0 1017.0 0.0 0.0 18.4 0.0
24/02/21 10:35 18.6 98 18.3 0.0 0.0 0 0.0 0.0 1017.0 0.0 0.0 18.6 0.0
24/02/21 10:36 18.8 98 18.5 0.0 0.0 0 0.0 0.0 1017.0 0.0 0.0 18.8 0.0
24/02/21 10:37 18.9 98 18.6 0.0 0.0 0 0.0 0.0 1017.0 0.0 0.0 18.9 0.0
24/02/21 10:38 19.1 97 18.6 0.0 0.0 0 0.0 0.0 1017.0 0.0 0.0 19.1 0.0
24/02/21 10:39 19.1 97 18.6 0.0 0.0 0 0.0 0.0 1017.0 0.0 0.0 19.1 0.0
24/02/21 10:40 19.2 97 18.7 0.0 0.0 0 0.0 0.0 1017.0 0.0 0.0 19.2 0.0
24/02/21 10:41 19.4 97 18.9 0.0 0.0 0 0.0 0.0 1017.0 0.0 0.0 19.4 0.0
24/02/21 10:42 19.5 97 19.0 0.0 0.0 0 0.0 0.0 1017.0 0.0 0.0 19.5 0.0
24/02/21 10:43 19.4 96 18.7 0.0 0.0 0 0.0 0.0 1017.0 0.0 0.0 19.4 0.0
24/02/21 10:44 19.5 96 18.8 0.0 0.0 0 0.0 0.0 1017.0 0.0 0.0 19.5 0.0
24/02/21 10:45 19.6 95 18.8 0.0 0.0 0 0.0 0.0 1017.0 0.0 0.0 19.6 0.0
24/02/21 10:46 19.6 95 18.8 0.0 0.0 0 0.0 0.0 1017.0 0.0 0.0 19.6 0.0
24/02/21 10:47 19.6 95 18.8 0.0 0.0 0 0.0 0.0 1017.0 0.0 0.0 19.6 0.0
24/02/21 10:48 19.7 94 18.7 0.0 0.0 0 0.0 0.0 1017.0 0.0 0.0 19.7 0.0
24/02/21 10:49 19.7 94 18.7 0.0 0.0 0 0.0 0.0 1017.0 0.0 0.0 19.7 0.0
24/02/21 10:50 19.8 94 18.8 0.0 0.0 0 0.0 0.0 1017.0 0.0 0.0 19.8 0.0
24/02/21 10:52 19.9 94 18.9 0.0 0.0 0 0.0 0.0 1017.0 0.0 0.0 19.9 0.0
24/02/21 10:53 19.9 93 18.7 0.0 0.0 0 0.0 0.0 1017.0 0.0 0.0 19.9 0.0
24/02/21 10:54 20.0 92 18.7 0.0 0.0 0 0.0 0.0 1017.0 0.0 0.0 20.0 0.0
24/02/21 10:55 20.0 93 18.8 0.0 0.0 0 0.0 0.0 1017.0 0.0 0.0 20.0 0.0
24/02/21 10:56 20.2 92 18.9 0.0 0.0 0 0.0 0.0 1017.0 0.0 0.0 20.2 0.0
24/02/21 10:57 20.3 92 19.0 0.0 0.0 0 0.0 0.0 1017.0 0.0 0.0 20.3 0.0
24/02/21 10:58 20.6 92 19.3 0.0 0.0 0 0.0 0.0 1017.0 0.0 0.0 20.6 0.0
24/02/21 10:59 20.8 92 19.5 0.0 0.0 0 0.0 0.0 1017.0 0.0 0.0 20.8 0.0
24/02/21 11:00 20.8 92 19.5 0.0 0.0 0 0.0 0.0 1017.0 0.0 0.0 20.8 0.0
24/02/21 11:01 20.8 91 19.3 0.0 0.0 0 0.0 0.0 1017.0 0.0 0.0 20.8 0.0
24/02/21 11:02 20.9 90 19.2 0.0 0.0 0 0.0 0.0 1017.0 0.0 0.0 20.9 0.0
24/02/21 11:03 21.0 89 19.1 0.0 0.0 0 0.0 0.0 1017.0 0.0 0.0 21.0 0.0
24/02/21 11:04 21.0 88 18.9 0.0 0.0 0 0.0 0.0 1017.0 0.0 0.0 21.0 0.0
24/02/21 11:05 21.2 88 19.1 0.0 0.0 0 0.0 0.0 1017.0 0.0 0.0 21.2 0.0
24/02/21 11:06 21.4 89 19.5 0.0 0.0 0 0.0 0.0 1017.0 0.0 0.0 21.4 0.0
24/02/21 11:07 21.5 89 19.6 0.0 0.0 0 0.0 0.0 1017.0 0.0 0.0 21.5 0.0
24/02/21 11:08 21.6 88 19.5 0.0 0.0 0 0.0 0.0 1016.0 0.0 0.0 21.6 0.0
24/02/21 11:09 21.8 87 19.5 0.0 0.0 0 0.0 0.0 1016.0 0.0 0.0 21.8 0.0
24/02/21 11:10 22.0 86 19.5 0.0 0.0 0 0.0 0.0 1016.0 0.0 0.0 22.0 0.0
24/02/21 11:11 22.1 86 19.6 0.0 0.0 0 0.0 0.0 1016.0 0.0 0.0 22.1 0.0
24/02/21 11:12 22.1 86 19.6 0.0 0.0 0 0.0 0.0 1016.0 0.0 0.0 22.1 0.0
24/02/21 11:13 22.0 85 19.4 0.0 0.0 0 0.0 0.0 1016.0 0.0 0.0 22.0 0.0
24/02/21 11:14 22.1 83 19.1 0.0 0.0 0 0.0 0.0 1016.0 0.0 0.0 22.1 0.0
24/02/21 11:15 22.0 83 19.0 0.0 0.0 0 0.0 0.0 1016.0 0.0 0.0 22.0 0.0
24/02/21 11:18 22.5 82 19.3 0.0 0.0 0 0.0 0.0 1016.0 0.0 0.0 22.5 0.0
24/02/21 11:19 22.6 83 19.6 0.0 0.0 0 0.0 0.0 1016.0 0.0 0.0 22.6 0.0
24/02/21 11:20 22.4 81 19.0 0.0 0.0 0 0.0 0.0 1016.0 0.0 0.0 22.4 0.0
24/02/21 11:21 22.3 80 18.7 0.0 0.0 0 0.0 0.0 1016.0 0.0 0.0 22.3 0.0
24/02/21 11:22 22.2 80 18.6 0.0 0.0 0 0.0 0.0 1016.0 0.0 0.0 22.2 0.0
24/02/21 11:23 22.2 80 18.6 0.0 0.0 0 0.0 0.0 1016.0 0.0 0.0 22.2 0.0
24/02/21 11:24 22.2 79 18.4 0.0 0.0 0 0.0 0.0 1016.0 0.0 0.0 22.2 0.0
24/02/21 11:25 22.2 79 18.4 0.0 0.0 0 0.0 0.0 1016.0 0.0 0.0 22.2 0.0
24/02/21 11:26 22.4 79 18.6 0.0 0.0 0 0.0 0.0 1016.0 0.0 0.0 22.4 0.0
24/02/21 11:27 22.5 79 18.7 0.0 0.0 0 0.0 0.0 1016.0 0.0 0.0 22.5 0.0
24/02/21 11:28 22.4 78 18.4 0.0 0.0 0 0.0 0.0 1016.0 0.0 0.0 22.4 0.0
24/02/21 11:29 22.2 78 18.2 0.0 0.0 0 0.0 0.0 1016.0 0.0 0.0 22.2 0.0
24/02/21 11:30 22.2 77 18.0 0.0 0.0 0 0.0 0.0 1016.0 0.0 0.0 22.2 0.0
24/02/21 11:31 22.1 78 18.1 0.0 0.0 0 0.0 0.0 1016.0 0.0 0.0 22.1 0.0
24/02/21 11:32 22.1 78 18.1 0.0 0.0 0 0.0 0.0 1016.0 0.0 0.0 22.1 0.0
24/02/21 11:33 22.3 78 18.3 0.0 0.0 0 0.0 0.0 1016.0 0.0 0.0 22.3 0.0
24/02/21 11:34 22.3 77 18.1 0.0 0.0 0 0.0 0.0 1016.0 0.0 0.0 22.3 0.0
24/02/21 11:42 22.1 77 17.9 0.0 0.0 0 0.0 0.0 1016.0 0.0 0.0 22.1 0.0
24/02/21 11:43 22.2 77 18.0 0.0 0.0 0 0.0 0.0 1016.0 0.0 0.0 22.2 0.0
24/02/21 11:44 22.2 77 18.0 0.0 0.0 0 0.0 0.0 1016.0 0.0 0.0 22.2 0.0
24/02/21 11:45 22.2 77 18.0 0.0 0.0 0 0.0 0.0 1016.0 0.0 0.0 22.2 0.0
24/02/21 11:46 22.4 78 18.4 0.0 0.0 0 0.0 0.0 1016.0 0.0 0.0 22.4 0.0
24/02/21 11:47 22.4 78 18.4 0.0 0.0 0 0.0 0.0 1016.0 0.0 0.0 22.4 0.0
24/02/21 11:48 22.3 77 18.1 0.0 0.0 0 0.0 0.0 1016.0 0.0 0.0 22.3 0.0
24/02/21 11:49 22.2 77 18.0 0.0 0.0 0 0.0 0.0 1016.0 0.0 0.0 22.2 0.0
24/02/21 11:50 22.1 76 17.7 0.0 0.0 0 0.0 0.0 1016.0 0.0 0.0 22.1 0.0
24/02/21 11:51 22.1 77 17.9 0.0 0.0 0 0.0 0.0 1016.0 0.0 0.0 22.1 0.0
24/02/21 11:52 22.2 77 18.0 0.0 0.0 0 0.0 0.0 1016.0 0.0 0.0 22.2 0.0
24/02/21 11:53 22.4 78 18.4 0.0 0.0 0 0.0 0.0 1016.0 0.0 0.0 22.4 0.0
24/02/21 11:54 22.5 78 18.5 0.0 0.0 0 0.0 0.0 1016.0 0.0 0.0 22.5 0.0
24/02/21 11:55 22.5 78 18.5 0.0 0.0 0 0.0 0.0 1016.0 0.0 0.0 22.5 0.0
24/02/21 11:56 22.6 78 18.6 0.0 0.0 0 0.0 0.0 1016.0 0.0 0.0 22.6 0.0
24/02/21 11:57 22.6 77 18.4 0.0 0.0 0 0.0 0.0 1016.0 0.0 0.0 22.6 0.0
24/02/21 11:58 22.6 76 18.2 0.0 0.0 0 0.0 0.0 1016.0 0.0 0.0 22.6 0.0
24/02/21 11:59 22.6 77 18.4 0.0 0.0 0 0.0 0.0 1016.0 0.0 0.0 22.6 0.0
24/02/21 12:00 22.6 76 18.2 0.0 0.0 0 0.0 0.0 1016.0 0.0 0.0 22.6 0.0
24/02/21 12:01 22.5 75 17.8 0.0 0.0 0 0.0 0.0 1016.0 0.0 0.0 22.5 0.0
24/02/21 12:02 22.5 75 17.8 0.0 0.0 0 0.0 0.0 1016.0 0.0 0.0 22.5 0.0
24/02/21 12:03 22.5 76 18.1 0.0 0.0 0 0.0 0.0 1016.0 0.0 0.0 22.5 0.0
24/02/21 12:04 22.3 76 17.9 0.0 0.0 0 0.0 0.0 1016.0 0.0 0.0 22.3 0.0
24/02/21 12:07 22.4 76 18.0 0.0 0.0 0 0.0 0.0 1016.0 0.0 0.0 22.4 0.0
24/02/21 12:08 22.5 76 18.1 0.0 0.0 0 0.0 0.0 1015.0 0.0 0.0 22.5 0.0
24/02/21 12:09 22.5 76 18.1 0.0 0.0 0 0.0 0.0 1015.0 0.0 0.0 22.5 0.0
24/02/21 12:10 22.9 77 18.7 0.0 0.0 0 0.0 0.0 1015.0 0.0 0.0 22.9 0.0
24/02/21 12:11 23.0 75 18.3 0.0 0.0 0 0.0 0.0 1015.0 0.0 0.0 23.0 0.0
24/02/21 12:12 23.0 74 18.1 0.0 0.0 0 0.0 0.0 1015.0 0.0 0.0 23.0 0.0
24/02/21 12:13 23.0 74 18.1 0.0 0.0 0 0.0 0.0 1015.0 0.0 0.0 23.0 0.0
24/02/21 12:14 23.2 75 18.5 0.0 0.0 0 0.0 0.0 1015.0 0.0 0.0 23.2 0.0
24/02/21 12:15 23.4 75 18.7 0.0 0.0 0 0.0 0.0 1015.0 0.0 0.0 23.4 0.0
24/02/21 12:16 23.5 74 18.6 0.0 0.0 0 0.0 0.0 1015.0 0.0 0.0 23.5 0.0
24/02/21 12:17 23.5 74 18.6 0.0 0.0 0 0.0 0.0 1015.0 0.0 0.0 23.5 0.0
24/02/21 12:18 23.5 73 18.4 0.0 0.0 0 0.0 0.0 1015.0 0.0 0.0 23.5 0.0
24/02/21 12:19 23.4 74 18.5 0.0 0.0 0 0.0 0.0 1015.0 0.0 0.0 23.4 0.0
24/02/21 12:20 23.3 73 18.2 0.0 0.0 0 0.0 0.0 1015.0 0.0 0.0 23.3 0.0
24/02/21 12:21 23.4 73 18.3 0.0 0.0 0 0.0 0.0 1015.0 0.0 0.0 23.4 0.0
24/02/21 12:22 23.3 73 18.2 0.0 0.0 0 0.0 0.0 1015.0 0.0 0.0 23.3 0.0
24/02/21 12:23 23.2 73 18.1 0.0 0.0 0 0.0 0.0 1015.0 0.0 0.0 23.2 0.0
24/02/21 12:24 23.1 73 18.0 0.0 0.0 0 0.0 0.0 1015.0 0.0 0.0 23.1 0.0
24/02/21 12:25 23.0 73 17.9 0.0 0.0 0 0.0 0.0 1015.0 0.0 0.0 23.0 0.0
24/02/21 12:26 23.0 73 17.9 0.0 0.0 0 0.0 0.0 1015.0 0.0 0.0 23.0 0.0
24/02/21 12:27 23.3 74 18.4 0.0 0.0 0 0.0 0.0 1015.0 0.0 0.0 23.3 0.0
24/02/21 12:28 23.4 74 18.5 0.0 0.0 0 0.0 0.0 1015.0 0.0 0.0 23.4 0.0
24/02/21 12:29 23.5 74 18.6 0.0 0.0 0 0.0 0.0 1015.0 0.0 0.0 23.5 0.0
24/02/21 12:30 23.5 73 18.4 0.0 0.0 0 0.0 0.0 1015.0 0.0 0.0 23.5 0.0
24/02/21 12:34 23.7 72 18.4 0.0 0.0 0 0.0 0.0 1015.0 0.0 0.0 23.7 0.0
24/02/21 12:35 23.7 72 18.4 0.0 0.0 0 0.0 0.0 1015.0 0.0 0.0 23.7 0.0
24/02/21 12:36 23.7 71 18.1 0.0 0.0 0 0.0 0.0 1015.0 0.0 0.0 23.7 0.0
24/02/21 12:37 23.8 72 18.4 0.0 0.0 0 0.0 0.0 1015.0 0.0 0.0 23.8 0.0
24/02/21 12:38 23.9 71 18.3 0.0 0.0 0 0.0 0.0 1014.0 0.0 0.0 23.9 0.0
24/02/21 12:39 23.7 70 17.9 0.0 0.0 0 0.0 0.0 1014.0 0.0 0.0 23.7 0.0
24/02/21 12:40 23.7 70 17.9 0.0 0.0 0 0.0 0.0 1014.0 0.0 0.0 23.7 0.0
24/02/21 12:41 23.9 71 18.3 0.0 0.0 0 0.0 0.0 1014.0 0.0 0.0 23.9 0.0
24/02/21 12:42 23.8 70 18.0 0.0 0.0 0 0.0 0.0 1014.0 0.0 0.0 23.8 0.0
24/02/21 12:43 23.7 70 17.9 0.0 0.0 0 0.0 0.0 1014.0 0.0 0.0 23.7 0.0
24/02/21 12:44 23.6 71 18.0 0.0 0.0 0 0.0 0.0 1014.0 0.0 0.0 23.6 0.0
24/02/21 12:45 23.7 71 18.1 0.0 0.0 0 0.0 0.0 1014.0 0.0 0.0 23.7 0.0
24/02/21 12:46 23.7 71 18.1 0.0 0.0 0 0.0 0.0 1014.0 0.0 0.0 23.7 0.0
24/02/21 12:47 23.7 71 18.1 0.0 0.0 0 0.0 0.0 1014.0 0.0 0.0 23.7 0.0
24/02/21 12:48 23.7 70 17.9 0.0 0.0 0 0.0 0.0 1014.0 0.0 0.0 23.7 0.0
24/02/21 12:49 23.7 71 18.1 0.0 0.0 0 0.0 0.0 1014.0 0.0 0.0 23.7 0.0
24/02/21 12:50 23.6 70 17.8 0.0 0.0 0 0.0 0.0 1014.0 0.0 0.0 23.6 0.0
24/02/21 12:51 23.5 69 17.5 0.0 0.0 0 0.0 0.0 1014.0 0.0 0.0 23.5 0.0
24/02/21 12:52 23.3 69 17.3 0.0 0.0 0 0.0 0.0 1014.0 0.0 0.0 23.3 0.0
24/02/21 12:53 23.3 69 17.3 0.0 0.0 0 0.0 0.0 1015.0 0.0 0.0 23.3 0.0
24/02/21 12:54 23.2 69 17.2 0.0 0.0 0 0.0 0.0 1015.0 0.0 0.0 23.2 0.0
24/02/21 12:57 22.4 69 16.4 0.0 0.0 0 0.0 0.0 1015.0 0.0 0.0 22.4 0.0
24/02/21 12:58 22.3 69 16.3 0.0 0.0 0 0.0 0.0 1015.0 0.0 0.0 22.3 0.0
24/02/21 12:59 22.2 70 16.5 0.0 0.0 0 0.0 0.0 1015.0 0.0 0.0 22.2 0.0
24/02/21 13:00 22.1 70 16.4 0.0 0.0 0 0.0 0.0 1015.0 0.0 0.0 22.1 0.0
24/02/21 13:01 22.0 70 16.3 0.0 0.0 0 0.0 0.0 1015.0 0.0 0.0 22.0 0.0
24/02/21 13:02 21.9 70 16.2 0.0 0.0 0 0.0 0.0 1015.0 0.0 0.0 21.9 0.0
24/02/21 13:03 21.8 70 16.1 0.0 0.0 0 0.0 0.0 1015.0 0.0 0.0 21.8 0.0
24/02/21 13:04 21.6 71 16.1 0.0 0.0 0 0.0 0.0 1015.0 0.0 0.0 21.6 0.0
24/02/21 13:05 21.6 71 16.1 0.0 0.0 0 0.0 0.0 1015.0 0.0 0.0 21.6 0.0
24/02/21 13:06 21.5 71 16.0 0.0 0.0 0 0.0 0.0 1015.0 0.0 0.0 21.5 0.0
24/02/21 13:07 21.5 71 16.0 0.0 0.0 0 0.0 0.0 1015.0 0.0 0.0 21.5 0.0
24/02/21 13:08 21.4 71 15.9 0.0 0.0 0 0.0 0.0 1015.0 0.0 0.0 21.4 0.0
24/02/21 13:09 21.4 72 16.1 0.0 0.0 0 0.0 0.0 1015.0 0.0 0.0 21.4 0.0
24/02/21 13:10 21.4 72 16.1 0.0 0.0 0 0.0 0.0 1015.0 0.0 0.0 21.4 0.0
24/02/21 13:11 21.3 72 16.0 0.0 0.0 0 0.0 0.0 1015.0 0.0 0.0 21.3 0.0
24/02/21 13:12 21.2 72 15.9 0.0 0.0 0 0.0 0.0 1015.0 0.0 0.0 21.2 0.0
24/02/21 13:13 21.2 72 15.9 0.0 0.0 0 0.0 0.0 1015.0 0.0 0.0 21.2 0.0
24/02/21 13:14 21.0 73 16.0 0.0 0.0 0 0.0 0.0 1015.0 0.0 0.0 21.0 0.0
24/02/21 13:15 20.9 74 16.1 0.0 0.0 0 0.0 0.0 1015.0 0.0 0.0 20.9 0.0
24/02/21 13:16 20.8 74 16.0 0.0 0.0 0 0.0 0.0 1015.0 0.0 0.0 20.8 0.0
24/02/21 13:17 20.7 74 15.9 0.0 0.0 0 0.0 0.0 1015.0 0.0 0.0 20.7 0.0
24/02/21 13:18 20.7 75 16.1 0.0 0.0 0 0.0 0.0 1015.0 0.0 0.0 20.7 0.0
24/02/21 13:19 20.7 75 16.1 0.0 0.0 0 0.0 0.0 1015.0 0.0 0.0 20.7 0.0
24/02/21 13:23 20.6 77 16.4 0.0 0.0 0 0.0 0.0 1016.0 0.0 0.0 20.6 0.0
24/02/21 13:24 20.6 77 16.4 0.0 0.0 0 0.0 0.0 1016.0 0.0 0.0 20.6 0.0
24/02/21 13:25 20.6 78 16.6 0.0 0.0 0 0.0 0.0 1016.0 0.0 0.0 20.6 0.0
24/02/21 13:26 20.6 78 16.6 0.0 0.0 0 0.0 0.0 1016.0 0.0 0.0 20.6 0.0
24/02/21 13:27 20.7 78 16.7 0.0 0.0 0 0.0 0.0 1016.0 0.0 0.0 20.7 0.0
24/02/21 13:28 20.7 78 16.7 0.0 0.0 0 0.0 0.0 1016.0 0.0 0.0 20.7 0.0
24/02/21 13:29 20.7 78 16.7 0.0 0.0 0 0.0 0.0 1016.0 0.0 0.0 20.7 0.0
24/02/21 13:30 20.7 78 16.7 0.0 0.0 0 0.0 0.0 1016.0 0.0 0.0 20.7 0.0
24/02/21 13:31 20.7 78 16.7 0.0 0.0 0 0.0 0.0 1016.0 0.0 0.0 20.7 0.0
24/02/21 13:32 21.0 78 17.0 0.0 0.0 0 0.0 0.0 1016.0 0.0 0.0 21.0 0.0
24/02/21 13:33 21.1 79 17.3 0.0 0.0 0 0.0 0.0 1016.0 0.0 0.0 21.1 0.0
24/02/21 13:34 21.1 79 17.3 0.0 0.0 0 0.0 0.0 1016.0 0.0 0.0 21.1 0.0
24/02/21 13:35 21.2 78 17.2 0.0 0.0 0 0.0 0.0 1016.0 0.0 0.0 21.2 0.0
24/02/21 13:36 21.2 78 17.2 0.0 0.0 0 0.0 0.0 1016.0 0.0 0.0 21.2 0.0
24/02/21 13:37 21.2 78 17.2 0.0 0.0 0 0.0 0.0 1016.0 0.0 0.0 21.2 0.0
24/02/21 14:03 21.2 88 19.1 0.0 0.0 0 0.0 0.0 1015.0 0.0 0.0 21.2 0.0
24/02/21 14:04 21.5 88 19.4 0.0 0.0 0 0.0 0.0 1015.0 0.0 0.0 21.5 0.0
24/02/21 14:05 22.0 87 19.7 0.0 0.0 0 0.0 0.0 1015.0 0.0 0.0 22.0 0.0
24/02/21 14:06 22.1 86 19.6 0.0 0.0 0 0.0 0.0 1015.0 0.0 0.0 22.1 0.0
24/02/21 14:07 22.1 86 19.6 0.0 0.0 0 0.0 0.0 1015.0 0.0 0.0 22.1 0.0
24/02/21 14:08 22.1 86 19.6 0.0 0.0 0 0.0 0.0 1015.0 0.0 0.0 22.1 0.0
24/02/21 14:09 22.2 85 19.6 0.0 0.0 0 0.0 0.0 1015.0 0.0 0.0 22.2 0.0
24/02/21 14:10 22.3 85 19.7 0.0 0.0 0 0.0 0.0 1015.0 0.0 0.0 22.3 0.0
24/02/21 14:11 22.3 85 19.7 0.0 0.0 0 0.0 0.0 1015.0 0.0 0.0 22.3 0.0
24/02/21 14:12 22.3 83 19.3 0.0 0.0 0 0.0 0.0 1015.0 0.0 0.0 22.3 0.0
24/02/21 14:13 22.3 83 19.3 0.0 0.0 0 0.0 0.0 1015.0 0.0 0.0 22.3 0.0
24/02/21 14:14 22.1 82 18.9 0.0 0.0 0 0.0 0.0 1015.0 0.0 0.0 22.1 0.0
24/02/21 14:15 21.9 81 18.5 0.0 0.0 0 0.0 0.0 1015.0 0.0 0.0 21.9 0.0
24/02/21 14:16 21.7 81 18.3 0.0 0.0 0 0.0 0.0 1015.0 0.0 0.0 21.7 0.0
24/02/21 14:17 21.5 81 18.1 0.0 0.0 0 0.0 0.0 1015.0 0.0 0.0 21.5 0.0
24/02/21 14:18 21.3 81 17.9 0.0 0.0 0 0.0 0.0 1015.0 0.0 0.0 21.3 0.0
24/02/21 14:19 21.2 81 17.8 0.0 0.0 0 0.0 0.0 1015.0 0.0 0.0 21.2 0.0
24/02/21 14:20 20.9 81 17.5 0.0 0.0 0 0.0 0.0 1015.0 0.0 0.0 20.9 0.0
24/02/21 14:21 20.7 81 17.3 0.0 0.0 0 0.0 0.0 1015.0 0.0 0.0 20.7 0.0
24/02/21 14:22 20.7 81 17.3 0.0 0.0 0 0.0 0.0 1015.0 0.0 0.0 20.7 0.0
24/02/21 14:23 20.6 82 17.4 0.0 0.0 0 0.0 0.0 1014.0 0.0 0.0 20.6 0.0
24/02/21 14:24 20.6 82 17.4 0.0 0.0 0 0.0 0.0 1014.0 0.0 0.0 20.6 0.0
24/02/21 14:25 20.5 83 17.5 0.0 0.0 0 0.0 0.0 1014.0 0.0 0.0 20.5 0.0
24/02/21 14:28 20.7 85 18.1 0.0 0.0 0 0.0 0.0 1014.0 0.0 0.0 20.7 0.0
24/02/21 14:29 20.9 86 18.5 0.0 0.0 0 0.0 0.0 1014.0 0.0 0.0 20.9 0.0
24/02/21 14:30 21.1 86 18.7 0.0 0.0 0 0.0 0.0 1014.0 0.0 0.0 21.1 0.0
24/02/21 14:31 21.4 86 19.0 0.0 0.0 0 0.0 0.0 1014.0 0.0 0.0 21.4 0.0
24/02/21 14:32 21.4 86 19.0 0.0 0.0 0 0.0 0.0 1014.0 0.0 0.0 21.4 0.0
24/02/21 14:33 21.5 85 18.9 0.0 0.0 0 0.0 0.0 1014.0 0.0 0.0 21.5 0.0
24/02/21 14:34 21.4 85 18.8 0.0 0.0 0 0.0 0.0 1014.0 0.0 0.0 21.4 0.0
24/02/21 14:35 21.3 85 18.7 0.0 0.0 0 0.0 0.0 1014.0 0.0 0.0 21.3 0.0
24/02/21 14:36 21.2 85 18.6 0.0 0.0 0 0.0 0.0 1014.0 0.0 0.0 21.2 0.0
24/02/21 14:37 21.3 85 18.7 0.0 0.0 0 0.0 0.0 1014.0 0.0 0.0 21.3 0.0
24/02/21 14:58 22.9 81 19.5 0.0 0.0 0 0.0 0.0 1014.0 0.0 0.0 22.9 0.0
24/02/21 14:59 23.3 80 19.7 0.0 0.0 0 0.0 0.0 1014.0 0.0 0.0 23.3 0.0
24/02/21 15:00 23.3 80 19.7 0.0 0.0 0 0.0 0.0 1014.0 0.0 0.0 23.3 0.0
24/02/21 15:01 23.3 80 19.7 0.0 0.0 0 0.0 0.0 1014.0 0.0 0.0 23.3 0.0
24/02/21 15:02 24.2 79 20.3 0.0 0.0 0 0.0 0.0 1014.0 0.0 0.0 24.2 0.0
24/02/21 15:03 24.3 77 20.0 0.0 0.0 0 0.0 0.0 1014.0 0.0 0.0 24.3 0.0
24/02/21 15:04 24.6 77 20.3 0.0 0.0 0 0.0 0.0 1014.0 0.0 0.0 24.6 0.0
24/02/21 15:05 24.8 77 20.5 0.0 0.0 0 0.0 0.0 1014.0 0.0 0.0 24.8 0.0
24/02/21 15:06 24.9 75 20.2 0.0 0.0 0 0.0 0.0 1014.0 0.0 0.0 24.9 0.0
24/02/21 15:07 24.7 74 19.8 0.0 0.0 0 0.0 0.0 1014.0 0.0 0.0 24.7 0.0
24/02/21 15:08 24.7 74 19.8 0.0 0.0 0 0.0 0.0 1014.0 0.0 0.0 24.7 0.0
24/02/21 15:09 24.2 73 19.1 0.0 0.0 0 0.0 0.0 1014.0 0.0 0.0 24.2 0.0
24/02/21 15:10 24.2 73 19.1 0.0 0.0 0 0.0 0.0 1014.0 0.0 0.0 24.2 0.0
24/02/21 15:11 24.2 73 19.1 0.0 0.0 0 0.0 0.0 1014.0 0.0 0.0 24.2 0.0
24/02/21 15:12 23.9 74 19.0 0.0 0.0 0 0.0 0.0 1014.0 0.0 0.0 23.9 0.0
24/02/21 15:13 23.7 74 18.8 0.0 0.0 0 0.0 0.0 1014.0 0.0 0.0 23.7 0.0
24/02/21 15:14 23.7 74 18.8 0.0 0.0 0 0.0 0.0 1014.0 0.0 0.0 23.7 0.0
24/02/21 15:15 23.5 75 18.8 0.0 0.0 0 0.0 0.0 1014.0 0.0 0.0 23.5 0.0
24/02/21 15:18 23.1 74 18.2 0.0 0.0 0 0.0 0.0 1014.0 0.0 0.0 23.1 0.0
24/02/21 15:19 23.1 74 18.2 0.0 0.0 0 0.0 0.0 1014.0 0.0 0.0 23.1 0.0
24/02/21 15:20 22.7 74 17.8 0.0 0.0 0 0.0 0.0 1014.0 0.0 0.0 22.7 0.0
24/02/21 15:21 22.2 74 17.3 0.0 0.0 0 0.0 0.0 1014.0 0.0 0.0 22.2 0.0
24/02/21 15:22 22.0 74 17.2 0.0 0.0 0 0.0 0.0 1014.0 0.0 0.0 22.0 0.0
24/02/21 15:23 22.0 74 17.2 0.0 0.0 0 0.0 0.0 1013.0 0.0 0.0 22.0 0.0
24/02/21 15:24 21.5 75 16.9 0.0 0.0 0 0.0 0.0 1013.0 0.0 0.0 21.5 0.0
24/02/21 15:25 21.4 75 16.8 0.0 0.0 0 0.0 0.0 1013.0 0.0 0.0 21.4 0.0
24/02/21 15:26 21.2 76 16.8 0.0 0.0 0 0.0 0.0 1013.0 0.0 0.0 21.2 0.0
24/02/21 15:27 21.0 76 16.6 0.0 0.0 0 0.0 0.0 1013.0 0.0 0.0 21.0 0.0
24/02/21 15:28 20.7 77 16.5 0.0 0.0 0 0.0 0.0 1013.0 0.0 0.0 20.7 0.0
24/02/21 15:29 20.5 78 16.5 0.0 0.0 0 0.0 0.0 1013.0 0.0 0.0 20.5 0.0
24/02/21 15:30 20.4 78 16.4 0.0 0.0 0 0.0 0.0 1013.0 0.0 0.0 20.4 0.0
24/02/21 15:31 20.3 78 16.3 0.0 0.0 0 0.0 0.0 1013.0 0.0 0.0 20.3 0.0
24/02/21 15:32 20.2 79 16.4 0.0 0.0 0 0.0 0.0 1013.0 0.0 0.0 20.2 0.0
24/02/21 15:33 20.0 80 16.4 0.0 0.0 0 0.0 0.0 1013.0 0.0 0.0 20.0 0.0
24/02/21 15:34 19.9 80 16.3 0.0 0.0 0 0.0 0.0 1013.0 0.0 0.0 19.9 0.0
24/02/21 15:35 19.8 81 16.4 0.0 0.0 0 0.0 0.0 1013.0 0.0 0.0 19.8 0.0
24/02/21 15:36 19.3 81 16.0 0.0 0.0 0 0.0 0.0 1013.0 0.0 0.0 19.3 0.0
24/02/21 15:37 19.0 82 15.9 0.0 0.0 0 0.0 0.0 1013.0 0.0 0.0 19.0 0.0
24/02/21 15:38 18.8 83 15.9 0.0 0.0 0 0.0 0.0 1015.0 0.0 0.0 18.8 0.0
24/02/21 15:39 18.6 84 15.8 0.0 0.0 0 0.0 0.0 1015.0 0.0 0.0 18.6 0.0
24/02/21 15:43 17.9 91 16.4 0.0 0.0 0 0.0 0.0 1015.0 0.0 0.0 17.9 0.0
24/02/21 15:44 17.8 92 16.5 0.0 0.0 0 0.0 0.0 1015.0 0.0 0.0 17.8 0.0
24/02/21 15:45 17.7 92 16.4 0.0 0.0 0 0.0 0.0 1015.0 0.0 0.0 17.7 0.0
24/02/21 15:46 17.6 93 16.5 0.0 0.0 0 0.0 0.0 1015.0 0.0 0.0 17.6 0.0
24/02/21 15:47 17.5 94 16.5 0.0 0.0 0 0.0 0.0 1015.0 0.0 0.0 17.5 0.0
24/02/21 15:48 17.4 94 16.4 0.0 0.0 0 0.0 0.0 1015.0 0.0 0.0 17.4 0.0
24/02/21 15:49 17.3 95 16.5 0.0 0.0 0 0.0 0.0 1015.0 0.0 0.0 17.3 0.0
24/02/21 15:50 17.3 95 16.5 0.0 0.0 0 0.0 0.0 1015.0 0.0 0.0 17.3 0.0
24/02/21 15:51 17.1 96 16.5 0.0 0.0 0 0.0 0.0 1015.0 0.0 0.0 17.1 0.0
24/02/21 15:52 17.0 96 16.4 0.0 0.0 0 0.0 0.0 1015.0 0.0 0.0 17.0 0.0
24/02/21 15:53 17.0 96 16.4 0.0 0.0 0 0.0 0.0 1014.0 0.0 0.0 17.0 0.0
24/02/21 15:54 17.0 97 16.5 0.0 0.0 0 0.0 0.0 1014.0 0.0 0.0 17.0 0.0
24/02/21 15:55 16.9 97 16.4 0.0 0.0 0 0.0 0.0 1014.0 0.0 0.0 16.9 0.0
24/02/21 15:56 16.9 98 16.6 0.0 0.0 0 0.0 0.0 1014.0 0.0 0.0 16.9 0.0
24/02/21 15:57 16.8 98 16.5 0.0 0.0 0 0.0 0.0 1014.0 0.0 0.0 16.8 0.0
24/02/21 15:58 16.8 98 16.5 0.0 0.0 0 0.0 0.0 1014.0 0.0 0.0 16.8 0.0
24/02/21 15:59 16.7 98 16.4 0.0 0.0 0 0.0 0.0 1014.0 0.0 0.0 16.7 0.0
24/02/21 16:00 16.6 98 16.3 0.0 0.0 0 0.0 0.0 1014.0 0.0 0.0 16.6 0.0
24/02/21 16:01 16.6 98 16.3 0.0 0.0 0 0.0 0.0 1014.0 0.0 0.0 16.6 0.0
24/02/21 16:02 16.6 98 16.3 0.0 0.0 0 0.0 0.0 1014.0 0.0 0.0 16.6 0.0
24/02/21 16:03 16.6 98 16.3 0.0 0.0 0 0.0 0.0 1014.0 0.0 0.0 16.6 0.0
24/02/21 16:04 16.5 98 16.2 0.0 0.0 0 0.0 0.0 1014.0 0.0 0.0 16.5 0.0
24/02/21 16:05 16.5 98 16.2 0.0 0.0 0 0.0 0.0 1014.0 0.0 0.0 16.5 0.0
24/02/21 16:07 16.4 98 16.1 0.0 0.0 0 0.0 0.0 1014.0 0.0 0.0 16.4 0.0
24/02/21 16:08 16.4 98 16.1 0.0 0.0 0 0.0 0.0 1014.0 0.0 0.0 16.4 0.0
24/02/21 16:09 16.3 98 16.0 0.0 0.0 0 0.0 0.0 1014.0 0.0 0.0 16.3 0.0
24/02/21 16:10 16.3 98 16.0 0.0 0.0 0 0.0 0.0 1014.0 0.0 0.0 16.3 0.0
24/02/21 16:11 16.2 98 15.9 0.0 0.0 0 0.0 0.0 1014.0 0.0 0.0 16.2 0.0
24/02/21 16:12 16.2 98 15.9 0.0 0.0 0 0.0 0.0 1014.0 0.0 0.0 16.2 0.0
24/02/21 16:13 16.1 98 15.8 0.0 0.0 0 0.0 0.0 1014.0 0.0 0.0 16.1 0.0
24/02/21 16:14 16.1 98 15.8 0.0 0.0 0 0.0 0.0 1014.0 0.0 0.0 16.1 0.0
24/02/21 16:15 16.1 98 15.8 0.0 0.0 0 0.0 0.0 1014.0 0.0 0.0 16.1 0.0
24/02/21 16:16 16.1 98 15.8 0.0 0.0 0 0.0 0.0 1014.0 0.0 0.0 16.1 0.0
24/02/21 16:17 16.1 98 15.8 0.0 0.0 0 0.0 0.0 1014.0 0.0 0.0 16.1 0.0
24/02/21 16:32 15.7 98 15.4 0.0 0.0 0 0.0 0.0 1014.0 0.0 0.0 15.7 0.0
24/02/21 16:33 15.7 98 15.4 0.0 0.0 0 0.0 0.0 1014.0 0.0 0.0 15.7 0.0
24/02/21 16:34 15.7 98 15.4 0.0 0.0 0 0.0 0.0 1014.0 0.0 0.0 15.7 0.0
24/02/21 16:35 15.7 98 15.4 0.0 0.0 0 0.0 0.0 1014.0 0.0 0.0 15.7 0.0
24/02/21 16:36 15.6 98 15.3 0.0 0.0 0 0.0 0.0 1014.0 0.0 0.0 15.6 0.0
24/02/21 16:37 15.6 98 15.3 0.0 0.0 0 0.0 0.0 1014.0 0.0 0.0 15.6 0.0
24/02/21 16:38 15.6 98 15.3 0.0 0.0 0 0.0 0.0 1015.0 0.0 0.0 15.6 0.0
24/02/21 16:39 15.6 98 15.3 0.0 0.0 0 0.0 0.0 1015.0 0.0 0.0 15.6 0.0
24/02/21 16:40 15.6 98 15.3 0.0 0.0 0 0.0 0.0 1015.0 0.0 0.0 15.6 0.0
24/02/21 16:41 15.6 98 15.3 0.0 0.0 0 0.0 0.0 1015.0 0.0 0.0 15.6 0.0
24/02/21 16:42 15.6 98 15.3 0.0 0.0 0 0.0 0.0 1015.0 0.0 0.0 15.6 0.0
24/02/21 16:43 15.6 98 15.3 0.0 0.0 0 0.0 0.0 1015.0 0.0 0.0 15.6 0.0
24/02/21 16:44 15.6 98 15.3 0.0 0.0 0 0.0 0.0 1015.0 0.0 0.0 15.6 0.0
24/02/21 16:45 15.6 98 15.3 0.0 0.0 0 0.0 0.0 1015.0 0.0 0.0 15.6 0.0
24/02/21 16:46 15.6 98 15.3 0.0 0.0 0 0.0 0.0 1015.0 0.0 0.0 15.6 0.0
24/02/21 16:47 15.5 98 15.2 0.0 0.0 0 0.0 0.0 1015.0 0.0 0.0 15.5 0.0
24/02/21 16:48 15.5 98 15.2 0.0 0.0 0 0.0 0.0 1015.0 0.0 0.0 15.5 0.0
24/02/21 16:49 15.5 98 15.2 0.0 0.0 0 0.0 0.0 1015.0 0.0 0.0 15.5 0.0
24/02/21 16:50 15.5 98 15.2 0.0 0.0 0 0.0 0.0 1015.0 0.0 0.0 15.5 0.0
24/02/21 16:51 15.5 98 15.2 0.0 0.0 0 0.0 0.0 1015.0 0.0 0.0 15.5 0.0
24/02/21 16:52 15.6 98 15.3 0.0 0.0 0 0.0 0.0 1015.0 0.0 0.0 15.6 0.0
24/02/21 16:53 15.6 98 15.3 0.0 0.0 0 0.0 0.0 1015.0 0.0 0.0 15.6 0.0
24/02/21 16:54 15.5 98 15.2 0.0 0.0 0 0.0 0.0 1015.0 0.0 0.0 15.5 0.0
24/02/21 16:55 15.5 98 15.2 0.0 0.0 0 0.0 0.0 1015.0 0.0 0.0 15.5 0.0
24/02/21 16:58 15.5 98 15.2 0.0 0.0 0 0.0 0.0 1015.0 0.0 0.0 15.5 0.0
24/02/21 16:59 15.4 98 15.1 0.0 0.0 0 0.0 0.0 1015.0 0.0 0.0 15.4 0.0
24/02/21 17:00 15.4 98 15.1 0.0 0.0 0 0.0 0.0 1015.0 0.0 0.0 15.4 0.0
24/02/21 17:01 15.4 98 15.1 0.0 0.0 0 0.0 0.0 1015.0 0.0 0.0 15.4 0.0
24/02/21 17:02 15.4 98 15.1 0.0 0.0 0 0.0 0.0 1015.0 0.0 0.0 15.4 0.0
24/02/21 17:03 15.4 98 15.1 0.0 0.0 0 0.0 0.0 1015.0 0.0 0.0 15.4 0.0
24/02/21 17:04 15.4 98 15.1 0.0 0.0 0 0.0 0.0 1015.0 0.0 0.0 15.4 0.0
24/02/21 17:05 15.4 98 15.1 0.0 0.0 0 0.0 0.0 1015.0 0.0 0.0 15.4 0.0
24/02/21 17:06 15.3 98 15.0 0.0 0.0 0 0.0 0.0 1015.0 0.0 0.0 15.3 0.0
24/02/21 17:07 15.2 98 14.9 0.0 0.0 0 0.0 0.0 1015.0 0.0 0.0 15.2 0.0
24/02/21 17:08 15.2 98 14.9 0.0 0.0 0 0.0 0.0 1015.0 0.0 0.0 15.2 0.0
24/02/21 17:09 15.2 98 14.9 0.0 0.0 0 0.0 0.0 1015.0 0.0 0.0 15.2 0.0
24/02/21 17:10 15.2 98 14.9 0.0 0.0 0 0.0 0.0 1015.0 0.0 0.0 15.2 0.0
24/02/21 17:11 15.2 98 14.9 0.0 0.0 0 0.0 0.0 1015.0 0.0 0.0 15.2 0.0
24/02/21 17:12 15.2 98 14.9 0.0 0.0 0 0.0 0.0 1015.0 0.0 0.0 15.2 0.0
24/02/21 17:13 15.2 98 14.9 0.0 0.0 0 0.0 0.0 1015.0 0.0 0.0 15.2 0.0
24/02/21 17:14 15.2 98 14.9 0.0 0.0 0 0.0 0.0 1015.0 0.0 0.0 15.2 0.0
24/02/21 17:15 15.2 98 14.9 0.0 0.0 0 0.0 0.0 1015.0 0.0 0.0 15.2 0.0
24/02/21 17:16 15.2 98 14.9 0.0 0.0 0 0.0 0.0 1015.0 0.0 0.0 15.2 0.0
24/02/21 17:17 15.2 98 14.9 0.0 0.0 0 0.0 0.0 1015.0 0.0 0.0 15.2 0.0
24/02/21 17:18 15.2 98 14.9 0.0 0.0 0 0.0 0.0 1015.0 0.0 0.0 15.2 0.0
24/02/21 17:19 15.2 98 14.9 0.0 0.0 0 0.0 0.0 1015.0 0.0 0.0 15.2 0.0
24/02/21 17:38 15.8 98 15.5 0.0 0.0 0 0.0 0.0 1015.0 0.0 0.0 15.8 0.0
24/02/21 17:39 15.8 98 15.5 0.0 0.0 0 0.0 0.0 1015.0 0.0 0.0 15.8 0.0
24/02/21 17:40 15.8 98 15.5 0.0 0.0 0 0.0 0.0 1015.0 0.0 0.0 15.8 0.0
24/02/21 17:41 15.8 98 15.5 0.0 0.0 0 0.0 0.0 1015.0 0.0 0.0 15.8 0.0
24/02/21 17:42 15.8 98 15.5 0.0 0.0 0 0.0 0.0 1015.0 0.0 0.0 15.8 0.0
24/02/21 17:43 15.8 98 15.5 0.0 0.0 0 0.0 0.0 1015.0 0.0 0.0 15.8 0.0
24/02/21 17:44 15.8 98 15.5 0.0 0.0 0 0.0 0.0 1015.0 0.0 0.0 15.8 0.0
24/02/21 18:30 15.2 98 14.9 0.0 0.0 0 0.0 0.0 1014.0 0.0 0.0 15.2 0.0
24/02/21 18:31 15.2 98 14.9 0.0 0.0 0 0.0 0.0 1014.0 0.0 0.0 15.2 0.0
24/02/21 18:32 15.2 98 14.9 0.0 0.0 0 0.0 0.0 1014.0 0.0 0.0 15.2 0.0
24/02/21 18:33 15.2 98 14.9 0.0 0.0 0 0.0 0.0 1014.0 0.0 0.0 15.2 0.0
24/02/21 18:34 15.2 98 14.9 0.0 0.0 0 0.0 0.0 1014.0 0.0 0.0 15.2 0.0
24/02/21 18:35 15.2 98 14.9 0.0 0.0 0 0.0 0.0 1014.0 0.0 0.0 15.2 0.0
24/02/21 19:28 14.9 98 14.6 0.0 0.0 0 0.0 0.0 1014.0 0.0 0.0 14.9 0.0
24/02/21 19:29 14.9 98 14.6 0.0 0.0 0 0.0 0.0 1014.0 0.0 0.0 14.9 0.0
24/02/21 19:30 14.9 98 14.6 0.0 0.0 0 0.0 0.0 1014.0 0.0 0.0 14.9 0.0
24/02/21 19:31 14.9 98 14.6 0.0 0.0 0 0.0 0.0 1014.0 0.0 0.0 14.9 0.0
24/02/21 19:32 14.9 98 14.6 0.0 0.0 0 0.0 0.0 1014.0 0.0 0.0 14.9 0.0
24/02/21 19:33 14.9 98 14.6 0.0 0.0 0 0.0 0.0 1014.0 0.0 0.0 14.9 0.0
24/02/21 19:34 14.9 98 14.6 0.0 0.0 0 0.0 0.0 1014.0 0.0 0.0 14.9 0.0
24/02/21 19:35 14.9 98 14.6 0.0 0.0 0 0.0 0.0 1014.0 0.0 0.0 14.9 0.0
24/02/21 19:36 14.9 98 14.6 0.0 0.0 0 0.0 0.0 1014.0 0.0 0.0 14.9 0.0
24/02/21 19:37 14.9 98 14.6 0.0 0.0 0 0.0 0.0 1014.0 0.0 0.0 14.9 0.0
24/02/21 19:38 14.9 98 14.6 0.0 0.0 0 0.0 0.0 1014.0 0.0 0.0 14.9 0.0
24/02/21 19:39 14.9 98 14.6 0.0 0.0 0 0.0 0.0 1014.0 0.0 0.0 14.9 0.0
24/02/21 19:40 14.9 98 14.6 0.0 0.0 0 0.0 0.0 1014.0 0.0 0.0 14.9 0.0
24/02/21 19:41 14.9 98 14.6 0.0 0.0 0 0.0 0.0 1014.0 0.0 0.0 14.9 0.0
24/02/21 19:42 14.9 98 14.6 0.0 0.0 0 0.0 0.0 1014.0 0.0 0.0 14.9 0.0
24/02/21 19:43 14.9 98 14.6 0.0 0.0 0 0.0 0.0 1014.0 0.0 0.0 14.9 0.0
24/02/21 19:44 14.9 98 14.6 0.0 0.0 0 0.0 0.0 1014.0 0.0 0.0 14.9 0.0
24/02/21 19:45 14.9 98 14.6 0.0 0.0 0 0.0 0.0 1014.0 0.0 0.0 14.9 0.0
24/02/21 19:46 14.9 98 14.6 0.0 0.0 0 0.0 0.0 1014.0 0.0 0.0 14.9 0.0
24/02/21 19:47 14.9 98 14.6 0.0 0.0 0 0.0 0.0 1014.0 0.0 0.0 14.9 0.0
24/02/21 19:48 14.9 98 14.6 0.0 0.0 0 0.0 0.0 1014.0 0.0 0.0 14.9 0.0
24/02/21 19:49 14.9 98 14.6 0.0 0.0 0 0.0 0.0 1014.0 0.0 0.0 14.9 0.0
24/02/21 19:50 14.9 98 14.6 0.0 0.0 0 0.0 0.0 1014.0 0.0 0.0 14.9 0.0
24/02/21 19:54 14.9 98 14.6 0.0 0.0 0 0.0 0.0 1014.0 0.0 0.0 14.9 0.0
24/02/21 19:55 14.9 98 14.6 0.0 0.0 0 0.0 0.0 1014.0 0.0 0.0 14.9 0.0
24/02/21 19:56 14.9 98 14.6 0.0 0.0 0 0.0 0.0 1014.0 0.0 0.0 14.9 0.0
24/02/21 19:57 14.9 98 14.6 0.0 0.0 0 0.0 0.0 1014.0 0.0 0.0 14.9 0.0
24/02/21 19:58 14.9 98 14.6 0.0 0.0 0 0.0 0.0 1014.0 0.0 0.0 14.9 0.0
24/02/21 19:59 14.9 98 14.6 0.0 0.0 0 0.0 0.0 1014.0 0.0 0.0 14.9 0.0
24/02/21 20:17 15.0 98 14.7 0.0 0.0 0 0.0 0.0 1015.0 0.0 0.0 15.0 0.0
24/02/21 20:18 15.0 98 14.7 0.0 0.0 0 0.0 0.0 1015.0 0.0 0.0 15.0 0.0
24/02/21 20:19 15.0 98 14.7 0.0 0.0 0 0.0 0.0 1015.0 0.0 0.0 15.0 0.0
24/02/21 20:20 15.0 98 14.7 0.0 0.0 0 0.0 0.0 1015.0 0.0 0.0 15.0 0.0
24/02/21 20:21 15.0 98 14.7 0.0 0.0 0 0.0 0.0 1015.0 0.0 0.0 15.0 0.0
24/02/21 20:22 15.0 98 14.7 0.0 0.0 0 0.0 0.0 1015.0 0.0 0.0 15.0 0.0
24/02/21 20:23 15.0 98 14.7 0.0 0.0 0 0.0 0.0 1016.0 0.0 0.0 15.0 0.0
24/02/21 20:24 15.0 98 14.7 0.0 0.0 0 0.0 0.0 1016.0 0.0 0.0 15.0 0.0
24/02/21 20:25 15.0 98 14.7 0.0 0.0 0 0.0 0.0 1016.0 0.0 0.0 15.0 0.0
24/02/21 20:26 15.0 98 14.7 0.0 0.0 0 0.0 0.0 1016.0 0.0 0.0 15.0 0.0
24/02/21 20:27 15.0 98 14.7 0.0 0.0 0 0.0 0.0 1016.0 0.0 0.0 15.0 0.0
24/02/21 20:28 14.9 98 14.6 0.0 0.0 0 0.0 0.0 1016.0 0.0 0.0 14.9 0.0
24/02/21 20:29 14.9 98 14.6 0.0 0.0 0 0.0 0.0 1016.0 0.0 0.0 14.9 0.0
24/02/21 20:30 14.9 98 14.6 0.0 0.0 0 0.0 0.0 1016.0 0.0 0.0 14.9 0.0
24/02/21 20:31 15.0 98 14.7 0.0 0.0 0 0.0 0.0 1016.0 0.0 0.0 15.0 0.0
24/02/21 20:32 15.0 98 14.7 0.0 0.0 0 0.0 0.0 1016.0 0.0 0.0 15.0 0.0
24/02/21 20:33 14.9 98 14.6 0.0 0.0 0 0.0 0.0 1016.0 0.0 0.0 14.9 0.0
24/02/21 20:34 14.9 98 14.6 0.0 0.0 0 0.0 0.0 1016.0 0.0 0.0 14.9 0.0
24/02/21 20:35 14.9 98 14.6 0.0 0.0 0 0.0 0.0 1016.0 0.0 0.0 14.9 0.0
24/02/21 20:36 14.9 98 14.6 0.0 0.0 0 0.0 0.0 1016.0 0.0 0.0 14.9 0.0
24/02/21 20:37 14.9 98 14.6 0.0 0.0 0 0.0 0.0 1016.0 0.0 0.0 14.9 0.0
24/02/21 20:38 14.9 98 14.6 0.0 0.0 0 0.0 0.0 1015.0 0.0 0.0 14.9 0.0
24/02/21 20:39 14.9 98 14.6 0.0 0.0 0 0.0 0.0 1015.0 0.0 0.0 14.9 0.0
24/02/21 20:43 14.9 98 14.6 0.0 0.0 0 0.0 0.0 1015.0 0.0 0.0 14.9 0.0
24/02/21 20:44 14.9 98 14.6 0.0 0.0 0 0.0 0.0 1015.0 0.0 0.0 14.9 0.0
24/02/21 20:45 14.9 98 14.6 0.0 0.0 0 0.0 0.0 1015.0 0.0 0.0 14.9 0.0
24/02/21 20:46 14.9 98 14.6 0.0 0.0 0 0.0 0.0 1015.0 0.0 0.0 14.9 0.0
24/02/21 20:47 14.9 98 14.6 0.0 0.0 0 0.0 0.0 1015.0 0.0 0.0 14.9 0.0
24/02/21 20:48 14.9 98 14.6 0.0 0.0 0 0.0 0.0 1015.0 0.0 0.0 14.9 0.0
24/02/21 20:49 14.9 98 14.6 0.0 0.0 0 0.0 0.0 1015.0 0.0 0.0 14.9 0.0
24/02/21 20:50 14.9 98 14.6 0.0 0.0 0 0.0 0.0 1015.0 0.0 0.0 14.9 0.0
24/02/21 20:51 14.9 98 14.6 0.0 0.0 0 0.0 0.0 1015.0 0.0 0.0 14.9 0.0
24/02/21 20:52 14.9 98 14.6 0.0 0.0 0 0.0 0.0 1015.0 0.0 0.0 14.9 0.0
24/02/21 20:53 14.9 98 14.6 0.0 0.0 0 0.0 0.0 1016.0 0.0 0.0 14.9 0.0
24/02/21 20:54 14.9 98 14.6 0.0 0.0 0 0.0 0.0 1016.0 0.0 0.0 14.9 0.0
24/02/21 20:55 14.9 98 14.6 0.0 0.0 0 0.0 0.0 1016.0 0.0 0.0 14.9 0.0
24/02/21 20:56 14.9 98 14.6 0.0 0.0 0 0.0 0.0 1016.0 0.0 0.0 14.9 0.0
24/02/21 20:57 14.9 98 14.6 0.0 0.0 0 0.0 0.0 1016.0 0.0 0.0 14.9 0.0
24/02/21 20:58 14.9 98 14.6 0.0 0.0 0 0.0 0.0 1016.0 0.0 0.0 14.9 0.0
24/02/21 20:59 14.9 98 14.6 0.0 0.0 0 0.0 0.0 1016.0 0.0 0.0 14.9 0.0
24/02/21 21:00 14.9 98 14.6 0.0 0.0 0 0.0 0.0 1016.0 0.0 0.0 14.9 0.0
24/02/21 21:01 14.9 98 14.6 0.0 0.0 0 0.0 0.0 1016.0 0.0 0.0 14.9 0.0
24/02/21 21:02 14.9 98 14.6 0.0 0.0 0 0.0 0.0 1016.0 0.0 0.0 14.9 0.0
24/02/21 21:03 14.9 98 14.6 0.0 0.0 0 0.0 0.0 1016.0 0.0 0.0 14.9 0.0
24/02/21 21:04 14.8 98 14.5 0.0 0.0 0 0.0 0.0 1016.0 0.0 0.0 14.8 0.0
24/02/21 21:08 14.8 98 14.5 0.0 0.0 0 0.0 0.0 1016.0 0.0 0.0 14.8 0.0
24/02/21 21:09 14.8 98 14.5 0.0 0.0 0 0.0 0.0 1016.0 0.0 0.0 14.8 0.0
24/02/21 21:10 14.8 98 14.5 0.0 0.0 0 0.0 0.0 1016.0 0.0 0.0 14.8 0.0
24/02/21 21:11 14.8 98 14.5 0.0 0.0 0 0.0 0.0 1016.0 0.0 0.0 14.8 0.0
24/02/21 21:12 14.8 98 14.5 0.0 0.0 0 0.0 0.0 1016.0 0.0 0.0 14.8 0.0
24/02/21 21:13 14.8 98 14.5 0.0 0.0 0 0.0 0.0 1016.0 0.0 0.0 14.8 0.0
24/02/21 21:14 14.8 98 14.5 0.0 0.0 0 0.0 0.0 1016.0 0.0 0.0 14.8 0.0
24/02/21 21:15 14.8 98 14.5 0.0 0.0 0 0.0 0.0 1016.0 0.0 0.0 14.8 0.0
24/02/21 21:16 14.8 98 14.5 0.0 0.0 0 0.0 0.0 1016.0 0.0 0.0 14.8 0.0
24/02/21 21:17 14.9 98 14.6 0.0 0.0 0 0.0 0.0 1016.0 0.0 0.0 14.9 0.0
24/02/21 21:18 14.9 98 14.6 0.0 0.0 0 0.0 0.0 1016.0 0.0 0.0 14.9 0.0
24/02/21 21:19 14.9 98 14.6 0.0 0.0 0 0.0 0.0 1016.0 0.0 0.0 14.9 0.0
24/02/21 21:20 14.8 98 14.5 0.0 0.0 0 0.0 0.0 1016.0 0.0 0.0 14.8 0.0
24/02/21 21:21 14.8 98 14.5 0.0 0.0 0 0.0 0.0 1016.0 0.0 0.0 14.8 0.0
24/02/21 21:22 14.8 98 14.5 0.0 0.0 0 0.0 0.0 1016.0 0.0 0.0 14.8 0.0
24/02/21 21:23 14.8 98 14.5 0.0 0.0 0 0.0 0.0 1017.0 0.0 0.0 14.8 0.0
24/02/21 21:24 14.9 98 14.6 0.0 0.0 0 0.0 0.0 1017.0 0.0 0.0 14.9 0.0
24/02/21 21:25 14.8 98 14.5 0.0 0.0 0 0.0 0.0 1017.0 0.0 0.0 14.8 0.0
24/02/21 21:26 14.9 98 14.6 0.0 0.0 0 0.0 0.0 1017.0 0.0 0.0 14.9 0.0
24/02/21 21:27 14.9 98 14.6 0.0 0.0 0 0.0 0.0 1017.0 0.0 0.0 14.9 0.0
24/02/21 21:28 14.9 98 14.6 0.0 0.0 0 0.0 0.0 1017.0 0.0 0.0 14.9 0.0
24/02/21 21:29 14.9 98 14.6 0.0 0.0 0 0.0 0.0 1017.0 0.0 0.0 14.9 0.0
24/02/21 21:32 14.9 98 14.6 0.0 0.0 0 0.0 0.0 1017.0 0.0 0.0 14.9 0.0
24/02/21 21:33 14.9 98 14.6 0.0 0.0 0 0.0 0.0 1017.0 0.0 0.0 14.9 0.0
24/02/21 21:34 14.9 98 14.6 0.0 0.0 0 0.0 0.0 1017.0 0.0 0.0 14.9 0.0
24/02/21 21:35 14.9 98 14.6 0.0 0.0 0 0.0 0.0 1017.0 0.0 0.0 14.9 0.0
24/02/21 21:36 14.9 98 14.6 0.0 0.0 0 0.0 0.0 1017.0 0.0 0.0 14.9 0.0
24/02/21 21:37 14.9 98 14.6 0.0 0.0 0 0.0 0.0 1017.0 0.0 0.0 14.9 0.0
24/02/21 21:38 14.8 98 14.5 0.0 0.0 0 0.0 0.0 1017.0 0.0 0.0 14.8 0.0
24/02/21 21:39 14.9 98 14.6 0.0 0.0 0 0.0 0.0 1017.0 0.0 0.0 14.9 0.0
24/02/21 21:40 14.9 98 14.6 0.0 0.0 0 0.0 0.0 1017.0 0.0 0.0 14.9 0.0
24/02/21 21:41 14.9 98 14.6 0.0 0.0 0 0.0 0.0 1017.0 0.0 0.0 14.9 0.0
24/02/21 21:42 14.9 98 14.6 0.0 0.0 0 0.0 0.0 1017.0 0.0 0.0 14.9 0.0
24/02/21 21:43 14.9 98 14.6 0.0 0.0 0 0.0 0.0 1017.0 0.0 0.0 14.9 0.0
24/02/21 21:44 14.9 98 14.6 0.0 0.0 0 0.0 0.0 1017.0 0.0 0.0 14.9 0.0
24/02/21 21:45 14.9 98 14.6 0.0 0.0 0 0.0 0.0 1017.0 0.0 0.0 14.9 0.0
24/02/21 21:46 14.9 98 14.6 0.0 0.0 0 0.0 0.0 1017.0 0.0 0.0 14.9 0.0
24/02/21 21:47 14.9 98 14.6 0.0 0.0 0 0.0 0.0 1017.0 0.0 0.0 14.9 0.0
24/02/21 21:48 14.9 98 14.6 0.0 0.0 0 0.0 0.0 1017.0 0.0 0.0 14.9 0.0
24/02/21 21:49 14.9 98 14.6 0.0 0.0 0 0.0 0.0 1017.0 0.0 0.0 14.9 0.0
24/02/21 21:50 14.9 98 14.6 0.0 0.0 0 0.0 0.0 1017.0 0.0 0.0 14.9 0.0
24/02/21 21:51 14.9 98 14.6 0.0 0.0 0 0.0 0.0 1017.0 0.0 0.0 14.9 0.0
24/02/21 21:52 14.9 98 14.6 0.0 0.0 0 0.0 0.0 1017.0 0.0 0.0 14.9 0.0
24/02/21 21:53 14.9 98 14.6 0.0 0.0 0 0.0 0.0 1017.0 0.0 0.0 14.9 0.0
24/02/21 21:54 14.9 98 14.6 0.0 0.0 0 0.0 0.0 1017.0 0.0 0.0 14.9 0.0
24/02/21 21:55 14.9 98 14.6 0.0 0.0 0 0.0 0.0 1017.0 0.0 0.0 14.9 0.0
24/02/21 21:57 14.9 98 14.6 0.0 0.0 0 0.0 0.0 1017.0 0.0 0.0 14.9 0.0
24/02/21 21:58 14.9 98 14.6 0.0 0.0 0 0.0 0.0 1017.0 0.0 0.0 14.9 0.0
24/02/21 21:59 14.8 98 14.5 0.0 0.0 0 0.0 0.0 1017.0 0.0 0.0 14.8 0.0
24/02/21 22:00 14.8 98 14.5 0.0 0.0 0 0.0 0.0 1017.0 0.0 0.0 14.8 0.0
24/02/21 22:01 14.8 98 14.5 0.0 0.0 0 0.0 0.0 1017.0 0.0 0.0 14.8 0.0
24/02/21 22:02 14.8 98 14.5 0.0 0.0 0 0.0 0.0 1017.0 0.0 0.0 14.8 0.0
24/02/21 22:03 14.8 98 14.5 0.0 0.0 0 0.0 0.0 1017.0 0.0 0.0 14.8 0.0
24/02/21 22:04 14.8 98 14.5 0.0 0.0 0 0.0 0.0 1017.0 0.0 0.0 14.8 0.0
24/02/21 22:05 14.8 98 14.5 0.0 0.0 0 0.0 0.0 1017.0 0.0 0.0 14.8 0.0
24/02/21 22:06 14.9 98 14.6 0.0 0.0 0 0.0 0.0 1017.0 0.0 0.0 14.9 0.0
24/02/21 22:07 14.8 98 14.5 0.0 0.0 0 0.0 0.0 1017.0 0.0 0.0 14.8 0.0
24/02/21 22:08 14.8 98 14.5 0.0 0.0 0 0.0 0.0 1017.0 0.0 0.0 14.8 0.0
24/02/21 22:09 14.8 98 14.5 0.0 0.0 0 0.0 0.0 1017.0 0.0 0.0 14.8 0.0
24/02/21 22:10 14.8 98 14.5 0.0 0.0 0 0.0 0.0 1017.0 0.0 0.0 14.8 0.0
24/02/21 22:11 14.8 98 14.5 0.0 0.0 0 0.0 0.0 1017.0 0.0 0.0 14.8 0.0
24/02/21 22:12 14.8 98 14.5 0.0 0.0 0 0.0 0.0 1017.0 0.0 0.0 14.8 0.0
24/02/21 22:13 14.8 98 14.5 0.0 0.0 0 0.0 0.0 1017.0 0.0 0.0 14.8 0.0
24/02/21 22:14 14.8 98 14.5 0.0 0.0 0 0.0 0.0 1017.0 0.0 0.0 14.8 0.0
24/02/21 22:15 14.8 98 14.5 0.0 0.0 0 0.0 0.0 1017.0 0.0 0.0 14.8 0.0
24/02/21 22:16 14.8 98 14.5 0.0 0.0 0 0.0 0.0 1017.0 0.0 0.0 14.8 0.0
24/02/21 22:17 14.8 98 14.5 0.0 0.0 0 0.0 0.0 1017.0 0.0 0.0 14.8 0.0
24/02/21 22:18 14.8 98 14.5 0.0 0.0 0 0.0 0.0 1017.0 0.0 0.0 14.8 0.0
24/02/21 22:19 14.7 98 14.4 0.0 0.0 0 0.0 0.0 1017.0 0.0 0.0 14.7 0.0
24/02/21 22:20 14.7 98 14.4 0.0 0.0 0 0.0 0.0 1017.0 0.0 0.0 14.7 0.0
24/02/21 22:24 14.7 98 14.4 0.0 0.0 0 0.0 0.0 1018.0 0.0 0.0 14.7 0.0
24/02/21 22:25 14.7 98 14.4 0.0 0.0 0 0.0 0.0 1018.0 0.0 0.0 14.7 0.0
24/02/21 22:26 14.7 98 14.4 0.0 0.0 0 0.0 0.0 1018.0 0.0 0.0 14.7 0.0
24/02/21 22:27 14.7 98 14.4 0.0 0.0 0 0.0 0.0 1018.0 0.0 0.0 14.7 0.0
24/02/21 22:28 14.7 98 14.4 0.0 0.0 0 0.0 0.0 1018.0 0.0 0.0 14.7 0.0
24/02/21 22:29 14.7 98 14.4 0.0 0.0 0 0.0 0.0 1018.0 0.0 0.0 14.7 0.0
24/02/21 22:30 14.7 98 14.4 0.0 0.0 0 0.0 0.0 1018.0 0.0 0.0 14.7 0.0
24/02/21 22:31 14.7 98 14.4 0.0 0.0 0 0.0 0.0 1018.0 0.0 0.0 14.7 0.0
24/02/21 22:32 14.7 98 14.4 0.0 0.0 0 0.0 0.0 1018.0 0.0 0.0 14.7 0.0
24/02/21 22:33 14.6 98 14.3 0.0 0.0 0 0.0 0.0 1018.0 0.0 0.0 14.6 0.0
24/02/21 22:34 14.6 98 14.3 0.0 0.0 0 0.0 0.0 1018.0 0.0 0.0 14.6 0.0
24/02/21 22:35 14.6 98 14.3 0.0 0.0 0 0.0 0.0 1018.0 0.0 0.0 14.6 0.0
24/02/21 22:36 14.6 98 14.3 0.0 0.0 0 0.0 0.0 1018.0 0.0 0.0 14.6 0.0
24/02/21 22:37 14.6 98 14.3 0.0 0.0 0 0.0 0.0 1018.0 0.0 0.0 14.6 0.0
24/02/21 22:38 14.6 98 14.3 0.0 0.0 0 0.0 0.0 1017.0 0.0 0.0 14.6 0.0
24/02/21 22:39 14.6 98 14.3 0.0 0.0 0 0.0 0.0 1017.0 0.0 0.0 14.6 0.0
24/02/21 22:40 14.6 98 14.3 0.0 0.0 0 0.0 0.0 1017.0 0.0 0.0 14.6 0.0
24/02/21 22:41 14.6 98 14.3 0.0 0.0 0 0.0 0.0 1017.0 0.0 0.0 14.6 0.0
24/02/21 22:42 14.5 98 14.2 0.0 0.0 0 0.0 0.0 1017.0 0.0 0.0 14.5 0.0
24/02/21 22:43 14.5 98 14.2 0.0 0.0 0 0.0 0.0 1017.0 0.0 0.0 14.5 0.0
24/02/21 22:44 14.5 98 14.2 0.0 0.0 0 0.0 0.0 1017.0 0.0 0.0 14.5 0.0
24/02/21 22:45 14.5 98 14.2 0.0 0.0 0 0.0 0.0 1017.0 0.0 0.0 14.5 0.0
24/02/21 22:48 14.5 98 14.2 0.0 0.0 0 0.0 0.0 1017.0 0.0 0.0 14.5 0.0
24/02/21 22:49 14.4 98 14.1 0.0 0.0 0 0.0 0.0 1017.0 0.0 0.0 14.4 0.0
24/02/21 22:50 14.4 98 14.1 0.0 0.0 0 0.0 0.0 1017.0 0.0 0.0 14.4 0.0
24/02/21 22:51 14.4 98 14.1 0.0 0.0 0 0.0 0.0 1017.0 0.0 0.0 14.4 0.0
24/02/21 22:52 14.4 98 14.1 0.0 0.0 0 0.0 0.0 1017.0 0.0 0.0 14.4 0.0
24/02/21 22:53 14.4 98 14.1 0.0 0.0 0 0.0 0.0 1017.0 0.0 0.0 14.4 0.0
24/02/21 22:54 14.4 98 14.1 0.0 0.0 0 0.0 0.0 1017.0 0.0 0.0 14.4 0.0
24/02/21 22:55 14.4 98 14.1 0.0 0.0 0 0.0 0.0 1017.0 0.0 0.0 14.4 0.0
24/02/21 22:56 14.3 98 14.0 0.0 0.0 0 0.0 0.0 1017.0 0.0 0.0 14.3 0.0
24/02/21 22:57 14.3 98 14.0 0.0 0.0 0 0.0 0.0 1017.0 0.0 0.0 14.3 0.0
24/02/21 22:58 14.3 98 14.0 0.0 0.0 0 0.0 0.0 1017.0 0.0 0.0 14.3 0.0
24/02/21 22:59 14.3 98 14.0 0.0 0.0 0 0.0 0.0 1017.0 0.0 0.0 14.3 0.0
24/02/21 23:00 14.3 98 14.0 0.0 0.0 0 0.0 0.0 1017.0 0.0 0.0 14.3 0.0
24/02/21 23:01 14.3 98 14.0 0.0 0.0 0 0.0 0.0 1017.0 0.0 0.0 14.3 0.0
24/02/21 23:02 14.3 98 14.0 0.0 0.0 0 0.0 0.0 1017.0 0.0 0.0 14.3 0.0
24/02/21 23:03 14.3 98 14.0 0.0 0.0 0 0.0 0.0 1017.0 0.0 0.0 14.3 0.0
24/02/21 23:04 14.3 98 14.0 0.0 0.0 0 0.0 0.0 1017.0 0.0 0.0 14.3 0.0
24/02/21 23:05 14.3 98 14.0 0.0 0.0 0 0.0 0.0 1017.0 0.0 0.0 14.3 0.0
24/02/21 23:06 14.3 98 14.0 0.0 0.0 0 0.0 0.0 1017.0 0.0 0.0 14.3 0.0
24/02/21 23:07 14.2 98 13.9 0.0 0.0 0 0.0 0.0 1017.0 0.0 0.0 14.2 0.0
24/02/21 23:08 14.3 98 14.0 0.0 0.0 0 0.0 0.0 1017.0 0.0 0.0 14.3 0.0
24/02/21 23:09 14.3 98 14.0 0.0 0.0 0 0.0 0.0 1017.0 0.0 0.0 14.3 0.0
24/02/21 23:10 14.3 98 14.0 0.0 0.0 0 0.0 0.0 1017.0 0.0 0.0 14.3 0.0
24/02/21 23:12 14.3 98 14.0 0.0 0.0 0 0.0 0.0 1017.0 0.0 0.0 14.3 0.0
24/02/21 23:13 14.3 98 14.0 0.0 0.0 0 0.0 0.0 1017.0 0.0 0.0 14.3 0.0
24/02/21 23:14 14.3 98 14.0 0.0 0.0 0 0.0 0.0 1017.0 0.0 0.0 14.3 0.0
24/02/21 23:15 14.3 98 14.0 0.0 0.0 0 0.0 0.0 1017.0 0.0 0.0 14.3 0.0
24/02/21 23:16 14.3 98 14.0 0.0 0.0 0 0.0 0.0 1017.0 0.0 0.0 14.3 0.0
24/02/21 23:17 14.3 98 14.0 0.0 0.0 0 0.0 0.0 1017.0 0.0 0.0 14.3 0.0
24/02/21 23:18 14.3 98 14.0 0.0 0.0 0 0.0 0.0 1017.0 0.0 0.0 14.3 0.0
24/02/21 23:19 14.3 98 14.0 0.0 0.0 0 0.0 0.0 1017.0 0.0 0.0 14.3 0.0
24/02/21 23:20 14.3 98 14.0 0.0 0.0 0 0.0 0.0 1017.0 0.0 0.0 14.3 0.0
24/02/21 23:21 14.3 98 14.0 0.0 0.0 0 0.0 0.0 1017.0 0.0 0.0 14.3 0.0
24/02/21 23:22 14.3 98 14.0 0.0 0.0 0 0.0 0.0 1017.0 0.0 0.0 14.3 0.0
24/02/21 23:23 14.3 98 14.0 0.0 0.0 0 0.0 0.0 1017.0 0.0 0.0 14.3 0.0
24/02/21 23:24 14.2 98 13.9 0.0 0.0 0 0.0 0.0 1017.0 0.0 0.0 14.2 0.0
24/02/21 23:25 14.2 98 13.9 0.0 0.0 0 0.0 0.0 1017.0 0.0 0.0 14.2 0.0
24/02/21 23:26 14.2 98 13.9 0.0 0.0 0 0.0 0.0 1017.0 0.0 0.0 14.2 0.0
24/02/21 23:27 14.2 98 13.9 0.0 0.0 0 0.0 0.0 1017.0 0.0 0.0 14.2 0.0
24/02/21 23:28 14.2 98 13.9 0.0 0.0 0 0.0 0.0 1017.0 0.0 0.0 14.2 0.0
24/02/21 23:29 14.2 98 13.9 0.0 0.0 0 0.0 0.0 1017.0 0.0 0.0 14.2 0.0
24/02/21 23:30 14.2 98 13.9 0.0 0.0 0 0.0 0.0 1017.0 0.0 0.0 14.2 0.0
24/02/21 23:31 14.1 98 13.8 0.0 0.0 0 0.0 0.0 1017.0 0.0 0.0 14.1 0.0
24/02/21 23:32 14.1 98 13.8 0.0 0.0 0 0.0 0.0 1017.0 0.0 0.0 14.1 0.0
24/02/21 23:33 14.1 98 13.8 0.0 0.0 0 0.0 0.0 1017.0 0.0 0.0 14.1 0.0
24/02/21 23:34 14.1 98 13.8 0.0 0.0 0 0.0 0.0 1017.0 0.0 0.0 14.1 0.0
24/02/21 23:37 14.0 98 13.7 0.0 0.0 0 0.0 0.0 1017.0 0.0 0.0 14.0 0.0
24/02/21 23:38 14.0 98 13.7 0.0 0.0 0 0.0 0.0 1017.0 0.0 0.0 14.0 0.0
24/02/21 23:39 14.0 98 13.7 0.0 0.0 0 0.0 0.0 1017.0 0.0 0.0 14.0 0.0
24/02/21 23:40 14.0 98 13.7 0.0 0.0 0 0.0 0.0 1017.0 0.0 0.0 14.0 0.0
24/02/21 23:41 14.0 98 13.7 0.0 0.0 0 0.0 0.0 1017.0 0.0 0.0 14.0 0.0
24/02/21 23:42 14.0 98 13.7 0.0 0.0 0 0.0 0.0 1017.0 0.0 0.0 14.0 0.0
24/02/21 23:43 14.0 98 13.7 0.0 0.0 0 0.0 0.0 1017.0 0.0 0.0 14.0 0.0
24/02/21 23:44 14.0 98 13.7 0.0 0.0 0 0.0 0.0 1017.0 0.0 0.0 14.0 0.0
24/02/21 23:45 14.0 98 13.7 0.0 0.0 0 0.0 0.0 1017.0 0.0 0.0 14.0 0.0
24/02/21 23:46 13.9 98 13.6 0.0 0.0 0 0.0 0.0 1017.0 0.0 0.0 13.9 0.0
24/02/21 23:47 14.0 98 13.7 0.0 0.0 0 0.0 0.0 1017.0 0.0 0.0 14.0 0.0
24/02/21 23:48 13.9 98 13.6 0.0 0.0 0 0.0 0.0 1017.0 0.0 0.0 13.9 0.0
24/02/21 23:49 13.9 98 13.6 0.0 0.0 0 0.0 0.0 1017.0 0.0 0.0 13.9 0.0
24/02/21 23:50 13.9 98 13.6 0.0 0.0 0 0.0 0.0 1017.0 0.0 0.0 13.9 0.0
24/02/21 23:51 13.9 98 13.6 0.0 0.0 0 0.0 0.0 1017.0 0.0 0.0 13.9 0.0
24/02/21 23:52 13.9 98 13.6 0.0 0.0 0 0.0 0.0 1017.0 0.0 0.0 13.9 0.0
24/02/21 23:53 13.8 98 13.5 0.0 0.0 0 0.0 0.0 1016.0 0.0 0.0 13.8 0.0
24/02/21 23:54 13.8 98 13.5 0.0 0.0 0 0.0 0.0 1016.0 0.0 0.0 13.8 0.0
24/02/21 23:55 13.8 98 13.5 0.0 0.0 0 0.0 0.0 1016.0 0.0 0.0 13.8 0.0
24/02/21 23:56 13.8 98 13.5 0.0 0.0 0 0.0 0.0 1016.0 0.0 0.0 13.8 0.0
24/02/21 23:57 13.8 98 13.5 0.0 0.0 0 0.0 0.0 1016.0 0.0 0.0 13.8 0.0
24/02/21 23:58 13.8 98 13.5 0.0 0.0 0 0.0 0.0 1016.0 0.0 0.0 13.8 0.0
24/02/21 23:59 13.8 98 13.5 0.0 0.0 0 0.0 0.0 1016.0 0.0 0.0 13.8 0.0
 
  Back to Top
Date Time Temperature Humidity Dewpoint Wind Speed High Gust Wind Bearing Rainfall Rate Total Rainfall Pressure Gust Wind Chill Heat Index UV Index
25/02/21 00:00 13.8 98 13.5 0.0 0.0 0 0.0 0.0 1016.0 0.0 0.0 13.8 0.0
25/02/21 00:03 13.7 98 13.4 0.0 0.0 0 0.0 0.0 1016.0 0.0 0.0 13.7 0.0
25/02/21 00:04 13.7 98 13.4 0.0 0.0 0 0.0 0.0 1016.0 0.0 0.0 13.7 0.0
25/02/21 00:05 13.7 98 13.4 0.0 0.0 0 0.0 0.0 1016.0 0.0 0.0 13.7 0.0
25/02/21 00:06 13.7 98 13.4 0.0 0.0 0 0.0 0.0 1016.0 0.0 0.0 13.7 0.0
25/02/21 00:07 13.7 98 13.4 0.0 0.0 0 0.0 0.0 1016.0 0.0 0.0 13.7 0.0
25/02/21 00:08 13.7 98 13.4 0.0 0.0 0 0.0 0.0 1016.0 0.0 0.0 13.7 0.0
25/02/21 00:09 13.7 98 13.4 0.0 0.0 0 0.0 0.0 1016.0 0.0 0.0 13.7 0.0
25/02/21 00:10 13.7 98 13.4 0.0 0.0 0 0.0 0.0 1016.0 0.0 0.0 13.7 0.0
25/02/21 00:11 13.7 98 13.4 0.0 0.0 0 0.0 0.0 1016.0 0.0 0.0 13.7 0.0
25/02/21 00:12 13.7 98 13.4 0.0 0.0 0 0.0 0.0 1016.0 0.0 0.0 13.7 0.0
25/02/21 00:13 13.8 98 13.5 0.0 0.0 0 0.0 0.0 1016.0 0.0 0.0 13.8 0.0
25/02/21 00:14 13.8 98 13.5 0.0 0.0 0 0.0 0.0 1016.0 0.0 0.0 13.8 0.0
25/02/21 00:15 13.8 98 13.5 0.0 0.0 0 0.0 0.0 1016.0 0.0 0.0 13.8 0.0
25/02/21 00:16 13.7 98 13.4 0.0 0.0 0 0.0 0.0 1016.0 0.0 0.0 13.7 0.0
25/02/21 00:17 13.7 98 13.4 0.0 0.0 0 0.0 0.0 1016.0 0.0 0.0 13.7 0.0
25/02/21 00:18 13.8 98 13.5 0.0 0.0 0 0.0 0.0 1016.0 0.0 0.0 13.8 0.0
25/02/21 00:19 13.8 98 13.5 0.0 0.0 0 0.0 0.0 1016.0 0.0 0.0 13.8 0.0
25/02/21 00:20 13.8 98 13.5 0.0 0.0 0 0.0 0.0 1016.0 0.0 0.0 13.8 0.0
25/02/21 00:21 13.8 98 13.5 0.0 0.0 0 0.0 0.0 1016.0 0.0 0.0 13.8 0.0
25/02/21 00:22 13.8 98 13.5 0.0 0.0 0 0.0 0.0 1016.0 0.0 0.0 13.8 0.0
25/02/21 00:23 13.8 98 13.5 0.0 0.0 0 0.0 0.0 1016.0 0.0 0.0 13.8 0.0
25/02/21 00:24 13.8 98 13.5 0.0 0.0 0 0.0 0.0 1016.0 0.0 0.0 13.8 0.0
25/02/21 00:25 13.8 98 13.5 0.0 0.0 0 0.0 0.0 1016.0 0.0 0.0 13.8 0.0
25/02/21 00:27 13.8 98 13.5 0.0 0.0 0 0.0 0.0 1016.0 0.0 0.0 13.8 0.0
25/02/21 00:28 13.8 98 13.5 0.0 0.0 0 0.0 0.0 1016.0 0.0 0.0 13.8 0.0
25/02/21 00:29 13.8 98 13.5 0.0 0.0 0 0.0 0.0 1016.0 0.0 0.0 13.8 0.0
25/02/21 00:30 13.8 98 13.5 0.0 0.0 0 0.0 0.0 1016.0 0.0 0.0 13.8 0.0
25/02/21 00:31 13.8 98 13.5 0.0 0.0 0 0.0 0.0 1016.0 0.0 0.0 13.8 0.0
25/02/21 00:32 13.8 98 13.5 0.0 0.0 0 0.0 0.0 1016.0 0.0 0.0 13.8 0.0
25/02/21 00:33 13.8 98 13.5 0.0 0.0 0 0.0 0.0 1016.0 0.0 0.0 13.8 0.0
25/02/21 00:34 13.8 98 13.5 0.0 0.0 0 0.0 0.0 1016.0 0.0 0.0 13.8 0.0
25/02/21 00:35 13.8 98 13.5 0.0 0.0 0 0.0 0.0 1016.0 0.0 0.0 13.8 0.0
25/02/21 00:36 13.8 98 13.5 0.0 0.0 0 0.0 0.0 1016.0 0.0 0.0 13.8 0.0
25/02/21 00:37 13.8 98 13.5 0.0 0.0 0 0.0 0.0 1016.0 0.0 0.0 13.8 0.0
25/02/21 00:38 13.8 98 13.5 0.0 0.0 0 0.0 0.0 1015.0 0.0 0.0 13.8 0.0
25/02/21 00:39 13.8 98 13.5 0.0 0.0 0 0.0 0.0 1015.0 0.0 0.0 13.8 0.0
25/02/21 00:40 13.8 98 13.5 0.0 0.0 0 0.0 0.0 1015.0 0.0 0.0 13.8 0.0
25/02/21 00:41 13.8 98 13.5 0.0 0.0 0 0.0 0.0 1015.0 0.0 0.0 13.8 0.0
25/02/21 00:42 13.8 98 13.5 0.0 0.0 0 0.0 0.0 1015.0 0.0 0.0 13.8 0.0
25/02/21 00:43 13.8 98 13.5 0.0 0.0 0 0.0 0.0 1015.0 0.0 0.0 13.8 0.0
25/02/21 00:44 13.8 98 13.5 0.0 0.0 0 0.0 0.0 1015.0 0.0 0.0 13.8 0.0
25/02/21 00:45 13.8 98 13.5 0.0 0.0 0 0.0 0.0 1015.0 0.0 0.0 13.8 0.0
25/02/21 00:46 13.8 98 13.5 0.0 0.0 0 0.0 0.0 1015.0 0.0 0.0 13.8 0.0
25/02/21 00:47 13.8 98 13.5 0.0 0.0 0 0.0 0.0 1015.0 0.0 0.0 13.8 0.0
25/02/21 00:48 13.8 98 13.5 0.0 0.0 0 0.0 0.0 1015.0 0.0 0.0 13.8 0.0
25/02/21 00:49 13.8 98 13.5 0.0 0.0 0 0.0 0.0 1015.0 0.0 0.0 13.8 0.0
25/02/21 00:50 13.8 98 13.5 0.0 0.0 0 0.0 0.0 1015.0 0.0 0.0 13.8 0.0
25/02/21 00:52 13.8 98 13.5 0.0 0.0 0 0.0 0.0 1015.0 0.0 0.0 13.8 0.0
25/02/21 00:53 13.8 98 13.5 0.0 0.0 0 0.0 0.0 1015.0 0.0 0.0 13.8 0.0
25/02/21 00:54 13.8 98 13.5 0.0 0.0 0 0.0 0.0 1015.0 0.0 0.0 13.8 0.0
25/02/21 00:55 13.8 98 13.5 0.0 0.0 0 0.0 0.0 1015.0 0.0 0.0 13.8 0.0
25/02/21 00:56 13.8 98 13.5 0.0 0.0 0 0.0 0.0 1015.0 0.0 0.0 13.8 0.0
25/02/21 00:57 13.8 98 13.5 0.0 0.0 0 0.0 0.0 1015.0 0.0 0.0 13.8 0.0
25/02/21 00:58 13.8 98 13.5 0.0 0.0 0 0.0 0.0 1015.0 0.0 0.0 13.8 0.0
25/02/21 00:59 13.8 98 13.5 0.0 0.0 0 0.0 0.0 1015.0 0.0 0.0 13.8 0.0
25/02/21 01:00 13.8 98 13.5 0.0 0.0 0 0.0 0.0 1015.0 0.0 0.0 13.8 0.0
25/02/21 01:01 13.8 98 13.5 0.0 0.0 0 0.0 0.0 1015.0 0.0 0.0 13.8 0.0
25/02/21 01:02 13.8 98 13.5 0.0 0.0 0 0.0 0.0 1015.0 0.0 0.0 13.8 0.0
25/02/21 01:03 13.8 98 13.5 0.0 0.0 0 0.0 0.0 1015.0 0.0 0.0 13.8 0.0
25/02/21 01:04 13.8 98 13.5 0.0 0.0 0 0.0 0.0 1015.0 0.0 0.0 13.8 0.0
25/02/21 01:05 13.8 98 13.5 0.0 0.0 0 0.0 0.0 1015.0 0.0 0.0 13.8 0.0
25/02/21 01:06 13.8 98 13.5 0.0 0.0 0 0.0 0.0 1015.0 0.0 0.0 13.8 0.0
25/02/21 01:07 13.8 98 13.5 0.0 0.0 0 0.0 0.0 1015.0 0.0 0.0 13.8 0.0
25/02/21 01:08 13.8 98 13.5 0.0 0.0 0 0.0 0.0 1015.0 0.0 0.0 13.8 0.0
25/02/21 01:09 13.8 98 13.5 0.0 0.0 0 0.0 0.0 1015.0 0.0 0.0 13.8 0.0
25/02/21 01:10 13.8 98 13.5 0.0 0.0 0 0.0 0.0 1015.0 0.0 0.0 13.8 0.0
25/02/21 01:11 13.8 98 13.5 0.0 0.0 0 0.0 0.0 1015.0 0.0 0.0 13.8 0.0
25/02/21 01:12 13.8 98 13.5 0.0 0.0 0 0.0 0.0 1015.0 0.0 0.0 13.8 0.0
25/02/21 01:13 13.8 98 13.5 0.0 0.0 0 0.0 0.0 1015.0 0.0 0.0 13.8 0.0
25/02/21 01:14 13.8 98 13.5 0.0 0.0 0 0.0 0.0 1015.0 0.0 0.0 13.8 0.0
25/02/21 01:15 13.8 98 13.5 0.0 0.0 0 0.0 0.0 1015.0 0.0 0.0 13.8 0.0
25/02/21 01:17 13.8 98 13.5 0.0 0.0 0 0.0 0.0 1015.0 0.0 0.0 13.8 0.0
25/02/21 01:18 13.8 98 13.5 0.0 0.0 0 0.0 0.0 1015.0 0.0 0.0 13.8 0.0
25/02/21 01:19 13.7 98 13.4 0.0 0.0 0 0.0 0.0 1015.0 0.0 0.0 13.7 0.0
25/02/21 01:20 13.7 98 13.4 0.0 0.0 0 0.0 0.0 1015.0 0.0 0.0 13.7 0.0
25/02/21 01:21 13.7 98 13.4 0.0 0.0 0 0.0 0.0 1015.0 0.0 0.0 13.7 0.0
25/02/21 01:22 13.7 98 13.4 0.0 0.0 0 0.0 0.0 1015.0 0.0 0.0 13.7 0.0
25/02/21 01:23 13.7 98 13.4 0.0 0.0 0 0.0 0.0 1015.0 0.0 0.0 13.7 0.0
25/02/21 01:24 13.7 98 13.4 0.0 0.0 0 0.0 0.0 1015.0 0.0 0.0 13.7 0.0
25/02/21 01:25 13.7 98 13.4 0.0 0.0 0 0.0 0.0 1015.0 0.0 0.0 13.7 0.0
25/02/21 01:26 13.7 98 13.4 0.0 0.0 0 0.0 0.0 1015.0 0.0 0.0 13.7 0.0
25/02/21 01:27 13.7 98 13.4 0.0 0.0 0 0.0 0.0 1015.0 0.0 0.0 13.7 0.0
25/02/21 01:28 13.7 98 13.4 0.0 0.0 0 0.0 0.0 1015.0 0.0 0.0 13.7 0.0
25/02/21 01:29 13.7 98 13.4 0.0 0.0 0 0.0 0.0 1015.0 0.0 0.0 13.7 0.0
25/02/21 01:30 13.7 98 13.4 0.0 0.0 0 0.0 0.0 1015.0 0.0 0.0 13.7 0.0
25/02/21 01:31 13.7 98 13.4 0.0 0.0 0 0.0 0.0 1015.0 0.0 0.0 13.7 0.0
25/02/21 01:32 13.7 98 13.4 0.0 0.0 0 0.0 0.0 1015.0 0.0 0.0 13.7 0.0
25/02/21 01:33 13.7 98 13.4 0.0 0.0 0 0.0 0.0 1015.0 0.0 0.0 13.7 0.0
25/02/21 01:34 13.7 98 13.4 0.0 0.0 0 0.0 0.0 1015.0 0.0 0.0 13.7 0.0
25/02/21 01:35 13.7 98 13.4 0.0 0.0 0 0.0 0.0 1015.0 0.0 0.0 13.7 0.0
25/02/21 01:36 13.7 98 13.4 0.0 0.0 0 0.0 0.0 1015.0 0.0 0.0 13.7 0.0
25/02/21 01:37 13.7 98 13.4 0.0 0.0 0 0.0 0.0 1015.0 0.0 0.0 13.7 0.0
25/02/21 01:38 13.7 98 13.4 0.0 0.0 0 0.0 0.0 1015.0 0.0 0.0 13.7 0.0
25/02/21 01:39 13.7 98 13.4 0.0 0.0 0 0.0 0.0 1015.0 0.0 0.0 13.7 0.0
25/02/21 01:40 13.7 98 13.4 0.0 0.0 0 0.0 0.0 1015.0 0.0 0.0 13.7 0.0
25/02/21 01:42 13.7 98 13.4 0.0 0.0 0 0.0 0.0 1015.0 0.0 0.0 13.7 0.0
25/02/21 01:43 13.7 98 13.4 0.0 0.0 0 0.0 0.0 1015.0 0.0 0.0 13.7 0.0
25/02/21 01:44 13.7 98 13.4 0.0 0.0 0 0.0 0.0 1015.0 0.0 0.0 13.7 0.0
25/02/21 01:45 13.7 98 13.4 0.0 0.0 0 0.0 0.0 1015.0 0.0 0.0 13.7 0.0
25/02/21 01:46 13.7 98 13.4 0.0 0.0 0 0.0 0.0 1015.0 0.0 0.0 13.7 0.0
25/02/21 01:47 13.6 98 13.3 0.0 0.0 0 0.0 0.0 1015.0 0.0 0.0 13.6 0.0
25/02/21 01:48 13.6 98 13.3 0.0 0.0 0 0.0 0.0 1015.0 0.0 0.0 13.6 0.0
25/02/21 01:49 13.6 98 13.3 0.0 0.0 0 0.0 0.0 1015.0 0.0 0.0 13.6 0.0
25/02/21 01:50 13.6 98 13.3 0.0 0.0 0 0.0 0.0 1015.0 0.0 0.0 13.6 0.0
25/02/21 01:51 13.6 98 13.3 0.0 0.0 0 0.0 0.0 1015.0 0.0 0.0 13.6 0.0
25/02/21 01:52 13.6 98 13.3 0.0 0.0 0 0.0 0.0 1015.0 0.0 0.0 13.6 0.0
25/02/21 01:53 13.7 98 13.4 0.0 0.0 0 0.0 0.0 1015.0 0.0 0.0 13.7 0.0
25/02/21 01:54 13.7 98 13.4 0.0 0.0 0 0.0 0.0 1015.0 0.0 0.0 13.7 0.0
25/02/21 01:55 13.7 98 13.4 0.0 0.0 0 0.0 0.0 1015.0 0.0 0.0 13.7 0.0
25/02/21 01:56 13.7 98 13.4 0.0 0.0 0 0.0 0.0 1015.0 0.0 0.0 13.7 0.0
25/02/21 01:57 13.7 98 13.4 0.0 0.0 0 0.0 0.0 1015.0 0.0 0.0 13.7 0.0
25/02/21 01:58 13.7 98 13.4 0.0 0.0 0 0.0 0.0 1015.0 0.0 0.0 13.7 0.0
25/02/21 01:59 13.7 98 13.4 0.0 0.0 0 0.0 0.0 1015.0 0.0 0.0 13.7 0.0
25/02/21 02:00 13.7 98 13.4 0.0 0.0 0 0.0 0.0 1015.0 0.0 0.0 13.7 0.0
25/02/21 02:01 13.7 98 13.4 0.0 0.0 0 0.0 0.0 1015.0 0.0 0.0 13.7 0.0
25/02/21 02:02 13.7 98 13.4 0.0 0.0 0 0.0 0.0 1015.0 0.0 0.0 13.7 0.0
25/02/21 02:03 13.7 98 13.4 0.0 0.0 0 0.0 0.0 1015.0 0.0 0.0 13.7 0.0
25/02/21 02:04 13.7 98 13.4 0.0 0.0 0 0.0 0.0 1015.0 0.0 0.0 13.7 0.0
25/02/21 02:05 13.6 98 13.3 0.0 0.0 0 0.0 0.0 1015.0 0.0 0.0 13.6 0.0
25/02/21 02:07 13.6 98 13.3 0.0 0.0 0 0.0 0.0 1015.0 0.0 0.0 13.6 0.0
25/02/21 02:08 13.6 98 13.3 0.0 0.0 0 0.0 0.0 1015.0 0.0 0.0 13.6 0.0
25/02/21 02:09 13.7 98 13.4 0.0 0.0 0 0.0 0.0 1015.0 0.0 0.0 13.7 0.0
25/02/21 02:10 13.7 98 13.4 0.0 0.0 0 0.0 0.0 1015.0 0.0 0.0 13.7 0.0
25/02/21 02:11 13.7 98 13.4 0.0 0.0 0 0.0 0.0 1015.0 0.0 0.0 13.7 0.0
25/02/21 02:12 13.2 98 12.9 0.0 0.0 0 0.0 0.0 1015.0 0.0 0.0 13.2 0.0
25/02/21 02:13 13.7 98 13.4 0.0 0.0 0 0.0 0.0 1015.0 0.0 0.0 13.7 0.0
25/02/21 02:14 13.7 98 13.4 0.0 0.0 0 0.0 0.0 1015.0 0.0 0.0 13.7 0.0
25/02/21 02:15 13.7 98 13.4 0.0 0.0 0 0.0 0.0 1015.0 0.0 0.0 13.7 0.0
25/02/21 02:16 13.7 98 13.4 0.0 0.0 0 0.0 0.0 1015.0 0.0 0.0 13.7 0.0
25/02/21 02:17 13.7 98 13.4 0.0 0.0 0 0.0 0.0 1015.0 0.0 0.0 13.7 0.0
25/02/21 02:18 13.7 98 13.4 0.0 0.0 0 0.0 0.0 1015.0 0.0 0.0 13.7 0.0
25/02/21 02:19 13.7 98 13.4 0.0 0.0 0 0.0 0.0 1015.0 0.0 0.0 13.7 0.0
25/02/21 02:20 13.7 98 13.4 0.0 0.0 0 0.0 0.0 1015.0 0.0 0.0 13.7 0.0
25/02/21 02:21 13.7 98 13.4 0.0 0.0 0 0.0 0.0 1015.0 0.0 0.0 13.7 0.0
25/02/21 02:22 13.7 98 13.4 0.0 0.0 0 0.0 0.0 1015.0 0.0 0.0 13.7 0.0
25/02/21 02:23 13.7 98 13.4 0.0 0.0 0 0.0 0.0 1015.0 0.0 0.0 13.7 0.0
25/02/21 02:24 13.7 98 13.4 0.0 0.0 0 0.0 0.0 1015.0 0.0 0.0 13.7 0.0
25/02/21 02:25 13.8 98 13.5 0.0 0.0 0 0.0 0.0 1015.0 0.0 0.0 13.8 0.0
25/02/21 02:26 13.8 98 13.5 0.0 0.0 0 0.0 0.0 1015.0 0.0 0.0 13.8 0.0
25/02/21 02:27 13.8 98 13.5 0.0 0.0 0 0.0 0.0 1015.0 0.0 0.0 13.8 0.0
25/02/21 02:28 13.8 98 13.5 0.0 0.0 0 0.0 0.0 1015.0 0.0 0.0 13.8 0.0
25/02/21 02:29 13.8 98 13.5 0.0 0.0 0 0.0 0.0 1015.0 0.0 0.0 13.8 0.0
25/02/21 02:30 13.8 98 13.5 0.0 0.0 0 0.0 0.0 1015.0 0.0 0.0 13.8 0.0
25/02/21 02:32 13.8 98 13.5 0.0 0.0 0 0.0 0.0 1015.0 0.0 0.0 13.8 0.0
25/02/21 02:33 13.9 98 13.6 0.0 0.0 0 0.0 0.0 1015.0 0.0 0.0 13.9 0.0
25/02/21 02:34 13.9 98 13.6 0.0 0.0 0 0.0 0.0 1015.0 0.0 0.0 13.9 0.0
25/02/21 02:35 13.9 98 13.6 0.0 0.0 0 0.0 0.0 1015.0 0.0 0.0 13.9 0.0
25/02/21 02:36 13.9 98 13.6 0.0 0.0 0 0.0 0.0 1015.0 0.0 0.0 13.9 0.0
25/02/21 02:37 13.9 98 13.6 0.0 0.0 0 0.0 0.0 1015.0 0.0 0.0 13.9 0.0
25/02/21 02:38 13.9 98 13.6 0.0 0.0 0 0.0 0.0 1014.0 0.0 0.0 13.9 0.0
25/02/21 02:39 14.0 98 13.7 0.0 0.0 0 0.0 0.0 1014.0 0.0 0.0 14.0 0.0
25/02/21 02:40 14.0 98 13.7 0.0 0.0 0 0.0 0.0 1014.0 0.0 0.0 14.0 0.0
25/02/21 02:41 14.0 98 13.7 0.0 0.0 0 0.0 0.0 1014.0 0.0 0.0 14.0 0.0
25/02/21 02:42 14.0 98 13.7 0.0 0.0 0 0.0 0.0 1014.0 0.0 0.0 14.0 0.0
25/02/21 02:43 14.0 98 13.7 0.0 0.0 0 0.0 0.0 1014.0 0.0 0.0 14.0 0.0
25/02/21 02:44 14.0 98 13.7 0.0 0.0 0 0.0 0.0 1014.0 0.0 0.0 14.0 0.0
25/02/21 02:45 14.0 98 13.7 0.0 0.0 0 0.0 0.0 1014.0 0.0 0.0 14.0 0.0
25/02/21 02:46 14.0 98 13.7 0.0 0.0 0 0.0 0.0 1014.0 0.0 0.0 14.0 0.0
25/02/21 02:47 14.0 98 13.7 0.0 0.0 0 0.0 0.0 1014.0 0.0 0.0 14.0 0.0
25/02/21 02:48 14.0 98 13.7 0.0 0.0 0 0.0 0.0 1014.0 0.0 0.0 14.0 0.0
25/02/21 02:49 14.0 98 13.7 0.0 0.0 0 0.0 0.0 1014.0 0.0 0.0 14.0 0.0
25/02/21 02:50 14.0 98 13.7 0.0 0.0 0 0.0 0.0 1014.0 0.0 0.0 14.0 0.0
25/02/21 02:51 14.0 98 13.7 0.0 0.0 0 0.0 0.0 1014.0 0.0 0.0 14.0 0.0
25/02/21 02:52 14.1 98 13.8 0.0 0.0 0 0.0 0.0 1014.0 0.0 0.0 14.1 0.0
25/02/21 02:53 14.1 98 13.8 0.0 0.0 0 0.0 0.0 1014.0 0.0 0.0 14.1 0.0
25/02/21 02:54 14.1 98 13.8 0.0 0.0 0 0.0 0.0 1014.0 0.0 0.0 14.1 0.0
25/02/21 02:58 14.1 98 13.8 0.0 0.0 0 0.0 0.0 1014.0 0.0 0.0 14.1 0.0
25/02/21 02:59 14.1 98 13.8 0.0 0.0 0 0.0 0.0 1014.0 0.0 0.0 14.1 0.0
25/02/21 03:00 14.1 98 13.8 0.0 0.0 0 0.0 0.0 1014.0 0.0 0.0 14.1 0.0
25/02/21 03:01 14.1 98 13.8 0.0 0.0 0 0.0 0.0 1014.0 0.0 0.0 14.1 0.0
25/02/21 03:02 14.1 98 13.8 0.0 0.0 0 0.0 0.0 1014.0 0.0 0.0 14.1 0.0
25/02/21 03:03 14.1 98 13.8 0.0 0.0 0 0.0 0.0 1014.0 0.0 0.0 14.1 0.0
25/02/21 03:04 14.1 98 13.8 0.0 0.0 0 0.0 0.0 1014.0 0.0 0.0 14.1 0.0
25/02/21 03:05 14.1 98 13.8 0.0 0.0 0 0.0 0.0 1014.0 0.0 0.0 14.1 0.0
25/02/21 03:06 14.1 98 13.8 0.0 0.0 0 0.0 0.0 1014.0 0.0 0.0 14.1 0.0
25/02/21 03:07 14.2 98 13.9 0.0 0.0 0 0.0 0.0 1014.0 0.0 0.0 14.2 0.0
25/02/21 03:08 14.2 98 13.9 0.0 0.0 0 0.0 0.0 1014.0 0.0 0.0 14.2 0.0
25/02/21 03:09 14.2 98 13.9 0.0 0.0 0 0.0 0.0 1014.0 0.0 0.0 14.2 0.0
25/02/21 03:10 14.2 98 13.9 0.0 0.0 0 0.0 0.0 1014.0 0.0 0.0 14.2 0.0
25/02/21 03:11 14.2 98 13.9 0.0 0.0 0 0.0 0.0 1014.0 0.0 0.0 14.2 0.0
25/02/21 03:12 14.2 98 13.9 0.0 0.0 0 0.0 0.0 1014.0 0.0 0.0 14.2 0.0
25/02/21 03:13 14.2 98 13.9 0.0 0.0 0 0.0 0.0 1014.0 0.0 0.0 14.2 0.0
25/02/21 03:14 14.2 98 13.9 0.0 0.0 0 0.0 0.0 1014.0 0.0 0.0 14.2 0.0
25/02/21 03:15 14.2 98 13.9 0.0 0.0 0 0.0 0.0 1014.0 0.0 0.0 14.2 0.0
25/02/21 03:16 14.2 98 13.9 0.0 0.0 0 0.0 0.0 1014.0 0.0 0.0 14.2 0.0
25/02/21 03:17 14.2 98 13.9 0.0 0.0 0 0.0 0.0 1014.0 0.0 0.0 14.2 0.0
25/02/21 03:18 14.2 98 13.9 0.0 0.0 0 0.0 0.0 1014.0 0.0 0.0 14.2 0.0
25/02/21 03:19 14.2 98 13.9 0.0 0.0 0 0.0 0.0 1014.0 0.0 0.0 14.2 0.0
25/02/21 03:22 14.3 98 14.0 0.0 0.0 0 0.0 0.0 1014.0 0.0 0.0 14.3 0.0
25/02/21 03:23 14.3 98 14.0 0.0 0.0 0 0.0 0.0 1014.0 0.0 0.0 14.3 0.0
25/02/21 03:24 14.3 98 14.0 0.0 0.0 0 0.0 0.0 1014.0 0.0 0.0 14.3 0.0
25/02/21 03:25 14.3 98 14.0 0.0 0.0 0 0.0 0.0 1014.0 0.0 0.0 14.3 0.0
25/02/21 03:26 14.3 98 14.0 0.0 0.0 0 0.0 0.0 1014.0 0.0 0.0 14.3 0.0
25/02/21 03:27 14.3 98 14.0 0.0 0.0 0 0.0 0.0 1014.0 0.0 0.0 14.3 0.0
25/02/21 03:28 14.3 98 14.0 0.0 0.0 0 0.0 0.0 1014.0 0.0 0.0 14.3 0.0
25/02/21 03:29 14.3 98 14.0 0.0 0.0 0 0.0 0.0 1014.0 0.0 0.0 14.3 0.0
25/02/21 03:30 14.3 98 14.0 0.0 0.0 0 0.0 0.0 1014.0 0.0 0.0 14.3 0.0
25/02/21 03:31 14.3 98 14.0 0.0 0.0 0 0.0 0.0 1014.0 0.0 0.0 14.3 0.0
25/02/21 03:32 14.4 98 14.1 0.0 0.0 0 0.0 0.0 1014.0 0.0 0.0 14.4 0.0
25/02/21 03:33 14.4 98 14.1 0.0 0.0 0 0.0 0.0 1014.0 0.0 0.0 14.4 0.0
25/02/21 03:34 14.4 98 14.1 0.0 0.0 0 0.0 0.0 1014.0 0.0 0.0 14.4 0.0
25/02/21 03:35 14.4 98 14.1 0.0 0.0 0 0.0 0.0 1014.0 0.0 0.0 14.4 0.0
25/02/21 03:36 14.4 98 14.1 0.0 0.0 0 0.0 0.0 1014.0 0.0 0.0 14.4 0.0
25/02/21 03:37 14.4 98 14.1 0.0 0.0 0 0.0 0.0 1014.0 0.0 0.0 14.4 0.0
25/02/21 03:38 14.4 98 14.1 0.0 0.0 0 0.0 0.0 1014.0 0.0 0.0 14.4 0.0
25/02/21 03:39 14.4 98 14.1 0.0 0.0 0 0.0 0.0 1014.0 0.0 0.0 14.4 0.0
25/02/21 03:40 14.4 98 14.1 0.0 0.0 0 0.0 0.0 1014.0 0.0 0.0 14.4 0.0
25/02/21 03:41 14.4 98 14.1 0.0 0.0 0 0.0 0.0 1014.0 0.0 0.0 14.4 0.0
25/02/21 03:42 14.4 98 14.1 0.0 0.0 0 0.0 0.0 1014.0 0.0 0.0 14.4 0.0
25/02/21 03:43 14.5 98 14.2 0.0 0.0 0 0.0 0.0 1014.0 0.0 0.0 14.5 0.0
25/02/21 03:44 14.5 98 14.2 0.0 0.0 0 0.0 0.0 1014.0 0.0 0.0 14.5 0.0
25/02/21 03:45 14.5 98 14.2 0.0 0.0 0 0.0 0.0 1014.0 0.0 0.0 14.5 0.0
25/02/21 03:47 14.5 98 14.2 0.0 0.0 0 0.0 0.0 1014.0 0.0 0.0 14.5 0.0
25/02/21 03:48 14.5 98 14.2 0.0 0.0 0 0.0 0.0 1014.0 0.0 0.0 14.5 0.0
25/02/21 03:49 14.5 98 14.2 0.0 0.0 0 0.0 0.0 1014.0 0.0 0.0 14.5 0.0
25/02/21 03:50 14.5 98 14.2 0.0 0.0 0 0.0 0.0 1014.0 0.0 0.0 14.5 0.0
25/02/21 03:51 14.5 98 14.2 0.0 0.0 0 0.0 0.0 1014.0 0.0 0.0 14.5 0.0
25/02/21 03:52 14.5 98 14.2 0.0 0.0 0 0.0 0.0 1014.0 0.0 0.0 14.5 0.0
25/02/21 03:53 14.5 98 14.2 0.0 0.0 0 0.0 0.0 1014.0 0.0 0.0 14.5 0.0
25/02/21 03:54 14.6 98 14.3 0.0 0.0 0 0.0 0.0 1014.0 0.0 0.0 14.6 0.0
25/02/21 03:55 14.6 98 14.3 0.0 0.0 0 0.0 0.0 1014.0 0.0 0.0 14.6 0.0
25/02/21 03:56 14.6 98 14.3 0.0 0.0 0 0.0 0.0 1014.0 0.0 0.0 14.6 0.0
25/02/21 03:57 14.6 98 14.3 0.0 0.0 0 0.0 0.0 1014.0 0.0 0.0 14.6 0.0
25/02/21 03:58 14.6 98 14.3 0.0 0.0 0 0.0 0.0 1014.0 0.0 0.0 14.6 0.0
25/02/21 03:59 14.6 98 14.3 0.0 0.0 0 0.0 0.0 1014.0 0.0 0.0 14.6 0.0
25/02/21 04:00 14.6 98 14.3 0.0 0.0 0 0.0 0.0 1014.0 0.0 0.0 14.6 0.0
25/02/21 04:01 14.6 98 14.3 0.0 0.0 0 0.0 0.0 1014.0 0.0 0.0 14.6 0.0
25/02/21 04:02 14.6 98 14.3 0.0 0.0 0 0.0 0.0 1014.0 0.0 0.0 14.6 0.0
25/02/21 04:03 14.6 98 14.3 0.0 0.0 0 0.0 0.0 1014.0 0.0 0.0 14.6 0.0
25/02/21 04:04 14.6 98 14.3 0.0 0.0 0 0.0 0.0 1014.0 0.0 0.0 14.6 0.0
25/02/21 04:05 14.6 98 14.3 0.0 0.0 0 0.0 0.0 1014.0 0.0 0.0 14.6 0.0
25/02/21 04:06 14.6 98 14.3 0.0 0.0 0 0.0 0.0 1014.0 0.0 0.0 14.6 0.0
25/02/21 04:07 14.6 98 14.3 0.0 0.0 0 0.0 0.0 1014.0 0.0 0.0 14.6 0.0
25/02/21 04:08 14.6 98 14.3 0.0 0.0 0 0.0 0.0 1014.0 0.0 0.0 14.6 0.0
25/02/21 04:09 14.6 98 14.3 0.0 0.0 0 0.0 0.0 1014.0 0.0 0.0 14.6 0.0
25/02/21 04:13 14.7 98 14.4 0.0 0.0 0 0.0 0.0 1014.0 0.0 0.0 14.7 0.0
25/02/21 04:14 14.7 98 14.4 0.0 0.0 0 0.0 0.0 1014.0 0.0 0.0 14.7 0.0
25/02/21 04:15 14.7 98 14.4 0.0 0.0 0 0.0 0.0 1014.0 0.0 0.0 14.7 0.0
25/02/21 04:16 14.7 98 14.4 0.0 0.0 0 0.0 0.0 1014.0 0.0 0.0 14.7 0.0
25/02/21 04:17 14.7 98 14.4 0.0 0.0 0 0.0 0.0 1014.0 0.0 0.0 14.7 0.0
25/02/21 04:18 14.7 98 14.4 0.0 0.0 0 0.0 0.0 1014.0 0.0 0.0 14.7 0.0
25/02/21 04:19 14.7 98 14.4 0.0 0.0 0 0.0 0.0 1014.0 0.0 0.0 14.7 0.0
25/02/21 04:20 14.7 98 14.4 0.0 0.0 0 0.0 0.0 1014.0 0.0 0.0 14.7 0.0
25/02/21 04:21 14.7 98 14.4 0.0 0.0 0 0.0 0.0 1014.0 0.0 0.0 14.7 0.0
25/02/21 04:22 14.7 98 14.4 0.0 0.0 0 0.0 0.0 1014.0 0.0 0.0 14.7 0.0
25/02/21 04:23 14.7 98 14.4 0.0 0.0 0 0.0 0.0 1014.0 0.0 0.0 14.7 0.0
25/02/21 04:24 14.7 98 14.4 0.0 0.0 0 0.0 0.0 1014.0 0.0 0.0 14.7 0.0
25/02/21 04:25 14.7 98 14.4 0.0 0.0 0 0.0 0.0 1014.0 0.0 0.0 14.7 0.0
25/02/21 04:26 14.7 98 14.4 0.0 0.0 0 0.0 0.0 1014.0 0.0 0.0 14.7 0.0
25/02/21 04:27 14.7 98 14.4 0.0 0.0 0 0.0 0.0 1014.0 0.0 0.0 14.7 0.0
25/02/21 04:28 14.7 98 14.4 0.0 0.0 0 0.0 0.0 1014.0 0.0 0.0 14.7 0.0
25/02/21 04:29 14.7 98 14.4 0.0 0.0 0 0.0 0.0 1014.0 0.0 0.0 14.7 0.0
25/02/21 04:30 14.7 98 14.4 0.0 0.0 0 0.0 0.0 1014.0 0.0 0.0 14.7 0.0
25/02/21 04:31 14.7 98 14.4 0.0 0.0 0 0.0 0.0 1014.0 0.0 0.0 14.7 0.0
25/02/21 04:32 14.7 98 14.4 0.0 0.0 0 0.0 0.0 1014.0 0.0 0.0 14.7 0.0
25/02/21 04:33 14.7 98 14.4 0.0 0.0 0 0.0 0.0 1014.0 0.0 0.0 14.7 0.0
25/02/21 04:34 14.8 98 14.5 0.0 0.0 0 0.0 0.0 1014.0 0.0 0.0 14.8 0.0
25/02/21 04:35 14.8 98 14.5 0.0 0.0 0 0.0 0.0 1014.0 0.0 0.0 14.8 0.0
25/02/21 04:37 14.8 98 14.5 0.0 0.0 0 0.0 0.0 1014.0 0.0 0.0 14.8 0.0
25/02/21 04:38 14.8 98 14.5 0.0 0.0 0 0.0 0.0 1014.0 0.0 0.0 14.8 0.0
25/02/21 04:39 14.8 98 14.5 0.0 0.0 0 0.0 0.0 1014.0 0.0 0.0 14.8 0.0
25/02/21 04:40 14.8 98 14.5 0.0 0.0 0 0.0 0.0 1014.0 0.0 0.0 14.8 0.0
25/02/21 04:41 14.8 98 14.5 0.0 0.0 0 0.0 0.0 1014.0 0.0 0.0 14.8 0.0
25/02/21 04:42 14.8 98 14.5 0.0 0.0 0 0.0 0.0 1014.0 0.0 0.0 14.8 0.0
25/02/21 04:43 14.8 98 14.5 0.0 0.0 0 0.0 0.0 1014.0 0.0 0.0 14.8 0.0
25/02/21 04:44 14.9 98 14.6 0.0 0.0 0 0.0 0.0 1014.0 0.0 0.0 14.9 0.0
25/02/21 04:45 14.9 98 14.6 0.0 0.0 0 0.0 0.0 1014.0 0.0 0.0 14.9 0.0
25/02/21 04:46 14.9 98 14.6 0.0 0.0 0 0.0 0.0 1014.0 0.0 0.0 14.9 0.0
25/02/21 04:47 14.9 98 14.6 0.0 0.0 0 0.0 0.0 1014.0 0.0 0.0 14.9 0.0
25/02/21 04:48 14.9 98 14.6 0.0 0.0 0 0.0 0.0 1014.0 0.0 0.0 14.9 0.0
25/02/21 04:49 14.9 98 14.6 0.0 0.0 0 0.0 0.0 1014.0 0.0 0.0 14.9 0.0
25/02/21 04:50 14.9 98 14.6 0.0 0.0 0 0.0 0.0 1014.0 0.0 0.0 14.9 0.0
25/02/21 04:51 14.9 98 14.6 0.0 0.0 0 0.0 0.0 1014.0 0.0 0.0 14.9 0.0
25/02/21 04:52 14.9 98 14.6 0.0 0.0 0 0.0 0.0 1014.0 0.0 0.0 14.9 0.0
25/02/21 04:53 15.0 98 14.7 0.0 0.0 0 0.0 0.0 1013.0 0.0 0.0 15.0 0.0
25/02/21 04:54 15.0 98 14.7 0.0 0.0 0 0.0 0.0 1013.0 0.0 0.0 15.0 0.0
25/02/21 04:55 15.0 98 14.7 0.0 0.0 0 0.0 0.0 1013.0 0.0 0.0 15.0 0.0
25/02/21 04:56 15.0 98 14.7 0.0 0.0 0 0.0 0.0 1013.0 0.0 0.0 15.0 0.0
25/02/21 04:57 15.0 98 14.7 0.0 0.0 0 0.0 0.0 1013.0 0.0 0.0 15.0 0.0
25/02/21 04:58 15.0 98 14.7 0.0 0.0 0 0.0 0.0 1013.0 0.0 0.0 15.0 0.0
25/02/21 04:59 15.0 98 14.7 0.0 0.0 0 0.0 0.0 1013.0 0.0 0.0 15.0 0.0
25/02/21 05:00 15.0 98 14.7 0.0 0.0 0 0.0 0.0 1013.0 0.0 0.0 15.0 0.0
25/02/21 05:02 15.0 98 14.7 0.0 0.0 0 0.0 0.0 1013.0 0.0 0.0 15.0 0.0
25/02/21 05:03 15.0 98 14.7 0.0 0.0 0 0.0 0.0 1013.0 0.0 0.0 15.0 0.0
25/02/21 05:04 15.0 98 14.7 0.0 0.0 0 0.0 0.0 1013.0 0.0 0.0 15.0 0.0
25/02/21 05:05 15.0 98 14.7 0.0 0.0 0 0.0 0.0 1013.0 0.0 0.0 15.0 0.0
25/02/21 05:06 15.0 98 14.7 0.0 0.0 0 0.0 0.0 1013.0 0.0 0.0 15.0 0.0
25/02/21 05:07 15.0 98 14.7 0.0 0.0 0 0.0 0.0 1013.0 0.0 0.0 15.0 0.0
25/02/21 05:08 15.0 98 14.7 0.0 0.0 0 0.0 0.0 1013.0 0.0 0.0 15.0 0.0
25/02/21 05:09 15.0 98 14.7 0.0 0.0 0 0.0 0.0 1013.0 0.0 0.0 15.0 0.0
25/02/21 05:10 15.0 98 14.7 0.0 0.0 0 0.0 0.0 1013.0 0.0 0.0 15.0 0.0
25/02/21 05:11 15.0 98 14.7 0.0 0.0 0 0.0 0.0 1013.0 0.0 0.0 15.0 0.0
25/02/21 05:12 15.0 98 14.7 0.0 0.0 0 0.0 0.0 1013.0 0.0 0.0 15.0 0.0
25/02/21 05:13 15.0 98 14.7 0.0 0.0 0 0.0 0.0 1013.0 0.0 0.0 15.0 0.0
25/02/21 05:14 15.0 98 14.7 0.0 0.0 0 0.0 0.0 1013.0 0.0 0.0 15.0 0.0
25/02/21 05:15 15.0 98 14.7 0.0 0.0 0 0.0 0.0 1013.0 0.0 0.0 15.0 0.0
25/02/21 05:16 15.0 98 14.7 0.0 0.0 0 0.0 0.0 1013.0 0.0 0.0 15.0 0.0
25/02/21 05:17 15.0 98 14.7 0.0 0.0 0 0.0 0.0 1013.0 0.0 0.0 15.0 0.0
25/02/21 05:18 15.0 98 14.7 0.0 0.0 0 0.0 0.0 1013.0 0.0 0.0 15.0 0.0
25/02/21 05:19 15.0 98 14.7 0.0 0.0 0 0.0 0.0 1013.0 0.0 0.0 15.0 0.0
25/02/21 05:20 15.0 98 14.7 0.0 0.0 0 0.0 0.0 1013.0 0.0 0.0 15.0 0.0
25/02/21 05:21 15.0 98 14.7 0.0 0.0 0 0.0 0.0 1013.0 0.0 0.0 15.0 0.0
25/02/21 05:22 15.0 98 14.7 0.0 0.0 0 0.0 0.0 1013.0 0.0 0.0 15.0 0.0
25/02/21 05:23 15.0 98 14.7 0.0 0.0 0 0.0 0.0 1013.0 0.0 0.0 15.0 0.0
25/02/21 05:24 15.0 98 14.7 0.0 0.0 0 0.0 0.0 1013.0 0.0 0.0 15.0 0.0
25/02/21 05:29 15.0 98 14.7 0.0 0.0 0 0.0 0.0 1013.0 0.0 0.0 15.0 0.0
25/02/21 05:30 14.9 98 14.6 0.0 0.0 0 0.0 0.0 1013.0 0.0 0.0 14.9 0.0
25/02/21 05:31 15.0 98 14.7 0.0 0.0 0 0.0 0.0 1013.0 0.0 0.0 15.0 0.0
25/02/21 05:32 15.0 98 14.7 0.0 0.0 0 0.0 0.0 1013.0 0.0 0.0 15.0 0.0
25/02/21 05:33 15.0 98 14.7 0.0 0.0 0 0.0 0.0 1013.0 0.0 0.0 15.0 0.0
25/02/21 05:34 15.0 98 14.7 0.0 0.0 0 0.0 0.0 1013.0 0.0 0.0 15.0 0.0
25/02/21 05:35 15.0 98 14.7 0.0 0.0 0 0.0 0.0 1013.0 0.0 0.0 15.0 0.0
25/02/21 05:36 15.0 98 14.7 0.0 0.0 0 0.0 0.0 1013.0 0.0 0.0 15.0 0.0
25/02/21 05:37 15.0 98 14.7 0.0 0.0 0 0.0 0.0 1013.0 0.0 0.0 15.0 0.0
25/02/21 05:38 15.0 98 14.7 0.0 0.0 0 0.0 0.0 1013.0 0.0 0.0 15.0 0.0
25/02/21 05:39 15.1 98 14.8 0.0 0.0 0 0.0 0.0 1013.0 0.0 0.0 15.1 0.0
25/02/21 05:40 15.1 98 14.8 0.0 0.0 0 0.0 0.0 1013.0 0.0 0.0 15.1 0.0
25/02/21 05:41 15.1 98 14.8 0.0 0.0 0 0.0 0.0 1013.0 0.0 0.0 15.1 0.0
25/02/21 05:42 15.1 98 14.8 0.0 0.0 0 0.0 0.0 1013.0 0.0 0.0 15.1 0.0
25/02/21 05:43 15.1 98 14.8 0.0 0.0 0 0.0 0.0 1013.0 0.0 0.0 15.1 0.0
25/02/21 05:44 15.1 98 14.8 0.0 0.0 0 0.0 0.0 1013.0 0.0 0.0 15.1 0.0
25/02/21 05:45 15.1 98 14.8 0.0 0.0 0 0.0 0.0 1013.0 0.0 0.0 15.1 0.0
25/02/21 05:46 15.1 98 14.8 0.0 0.0 0 0.0 0.0 1013.0 0.0 0.0 15.1 0.0
25/02/21 05:47 15.1 98 14.8 0.0 0.0 0 0.0 0.0 1013.0 0.0 0.0 15.1 0.0
25/02/21 05:48 15.1 98 14.8 0.0 0.0 0 0.0 0.0 1013.0 0.0 0.0 15.1 0.0
25/02/21 05:49 15.1 98 14.8 0.0 0.0 0 0.0 0.0 1013.0 0.0 0.0 15.1 0.0
25/02/21 05:50 15.1 98 14.8 0.0 0.0 0 0.0 0.0 1013.0 0.0 0.0 15.1 0.0
25/02/21 05:52 15.1 98 14.8 0.0 0.0 0 0.0 0.0 1013.0 0.0 0.0 15.1 0.0
25/02/21 05:53 15.1 98 14.8 0.0 0.0 0 0.0 0.0 1013.0 0.0 0.0 15.1 0.0
25/02/21 05:54 15.1 98 14.8 0.0 0.0 0 0.0 0.0 1013.0 0.0 0.0 15.1 0.0
25/02/21 05:55 15.1 98 14.8 0.0 0.0 0 0.0 0.0 1013.0 0.0 0.0 15.1 0.0
25/02/21 05:56 15.1 98 14.8 0.0 0.0 0 0.0 0.0 1013.0 0.0 0.0 15.1 0.0
25/02/21 05:57 15.1 98 14.8 0.0 0.0 0 0.0 0.0 1013.0 0.0 0.0 15.1 0.0
25/02/21 05:58 15.1 98 14.8 0.0 0.0 0 0.0 0.0 1013.0 0.0 0.0 15.1 0.0
25/02/21 05:59 15.1 98 14.8 0.0 0.0 0 0.0 0.0 1013.0 0.0 0.0 15.1 0.0
25/02/21 06:00 15.1 98 14.8 0.0 0.0 0 0.0 0.0 1013.0 0.0 0.0 15.1 0.0
25/02/21 06:01 15.1 98 14.8 0.0 0.0 0 0.0 0.0 1013.0 0.0 0.0 15.1 0.0
25/02/21 06:02 15.1 98 14.8 0.0 0.0 0 0.0 0.0 1013.0 0.0 0.0 15.1 0.0
25/02/21 06:03 15.1 98 14.8 0.0 0.0 0 0.0 0.0 1013.0 0.0 0.0 15.1 0.0
25/02/21 06:04 15.1 98 14.8 0.0 0.0 0 0.0 0.0 1013.0 0.0 0.0 15.1 0.0
25/02/21 06:05 15.1 98 14.8 0.0 0.0 0 0.0 0.0 1013.0 0.0 0.0 15.1 0.0
25/02/21 06:06 15.1 98 14.8 0.0 0.0 0 0.0 0.0 1013.0 0.0 0.0 15.1 0.0
25/02/21 06:07 15.1 98 14.8 0.0 0.0 0 0.0 0.0 1013.0 0.0 0.0 15.1 0.0
25/02/21 06:08 15.1 98 14.8 0.0 0.0 0 0.0 0.0 1013.0 0.0 0.0